<?xml version="1.0" encoding="UTF-8" standalone="no" ?>
<gpx xmlns="http://www.topografix.com/GPX/1/1" xmlns:xsi="http://www.w3.org/2001/XMLSchema-instance" xsi:schemaLocation="http://www.topografix.com/GPX/1/1 http://www.topografix.com/GPX/1/1/gpx.xsd" version="1.1" creator="VisuGPX - https://www.visugpx.com">
  <metadata>
    <name>La trav</name>
    <desc><![CDATA[traversée de Belledonne
avec 
Pierre Gignoux
Olivier Meynet
Samuel Equy
d réel effectué 7961m
d- réel effectué 8369m
]]></desc>
  </metadata>
  <trk>
    <name><![CDATA[La trav_1]]></name>
    <trkseg>
      <trkpt lat="45.12567" lon="5.87969">
        <ele>1670</ele>
        <time>2015-04-12T02:11:31.010Z</time>
      </trkpt>
      <trkpt lat="45.12567" lon="5.87978">
        <ele>1670</ele>
        <time>2015-04-12T02:11:33.540Z</time>
      </trkpt>
      <trkpt lat="45.12566" lon="5.87988">
        <ele>1670</ele>
        <time>2015-04-12T02:11:38.580Z</time>
      </trkpt>
      <trkpt lat="45.12566" lon="5.87998">
        <ele>1670</ele>
        <time>2015-04-12T02:11:43.590Z</time>
      </trkpt>
      <trkpt lat="45.12561" lon="5.88025">
        <ele>1675.7</ele>
        <time>2015-04-12T02:11:56.580Z</time>
      </trkpt>
      <trkpt lat="45.12554" lon="5.8804">
        <ele>1678</ele>
        <time>2015-04-12T02:12:06.580Z</time>
      </trkpt>
      <trkpt lat="45.12548" lon="5.88048">
        <ele>1678.4</ele>
        <time>2015-04-12T02:12:11.590Z</time>
      </trkpt>
      <trkpt lat="45.12538" lon="5.88058">
        <ele>1680.2</ele>
        <time>2015-04-12T02:12:21.580Z</time>
      </trkpt>
      <trkpt lat="45.12527" lon="5.88065">
        <ele>1681.4</ele>
        <time>2015-04-12T02:12:31.580Z</time>
      </trkpt>
      <trkpt lat="45.12515" lon="5.88071">
        <ele>1683.4</ele>
        <time>2015-04-12T02:12:41.580Z</time>
      </trkpt>
      <trkpt lat="45.12456" lon="5.88091">
        <ele>1695.8</ele>
        <time>2015-04-12T02:13:33.580Z</time>
      </trkpt>
      <trkpt lat="45.12451" lon="5.88094">
        <ele>1696.8</ele>
        <time>2015-04-12T02:13:38.580Z</time>
      </trkpt>
      <trkpt lat="45.12445" lon="5.88097">
        <ele>1698.5</ele>
        <time>2015-04-12T02:13:44.580Z</time>
      </trkpt>
      <trkpt lat="45.12426" lon="5.88115">
        <ele>1705.2</ele>
        <time>2015-04-12T02:14:07.580Z</time>
      </trkpt>
      <trkpt lat="45.12416" lon="5.88132">
        <ele>1712</ele>
        <time>2015-04-12T02:14:24.580Z</time>
      </trkpt>
      <trkpt lat="45.12411" lon="5.88145">
        <ele>1714</ele>
        <time>2015-04-12T02:14:34.590Z</time>
      </trkpt>
      <trkpt lat="45.12404" lon="5.88156">
        <ele>1715.2</ele>
        <time>2015-04-12T02:14:45.580Z</time>
      </trkpt>
      <trkpt lat="45.12346" lon="5.88227">
        <ele>1746.6</ele>
        <time>2015-04-12T02:16:11.480Z</time>
      </trkpt>
      <trkpt lat="45.12338" lon="5.88234">
        <ele>1749.6</ele>
        <time>2015-04-12T02:16:21.490Z</time>
      </trkpt>
      <trkpt lat="45.12332" lon="5.88243">
        <ele>1752.9</ele>
        <time>2015-04-12T02:16:32.480Z</time>
      </trkpt>
      <trkpt lat="45.12288" lon="5.88295">
        <ele>1776.2</ele>
        <time>2015-04-12T02:17:43.480Z</time>
      </trkpt>
      <trkpt lat="45.12266" lon="5.88328">
        <ele>1790.6</ele>
        <time>2015-04-12T02:18:23.480Z</time>
      </trkpt>
      <trkpt lat="45.12243" lon="5.88374">
        <ele>1805.5</ele>
        <time>2015-04-12T02:19:07.680Z</time>
      </trkpt>
      <trkpt lat="45.12218" lon="5.88433">
        <ele>1812</ele>
        <time>2015-04-12T02:19:44.480Z</time>
      </trkpt>
      <trkpt lat="45.1221" lon="5.88439">
        <ele>1812.2</ele>
        <time>2015-04-12T02:19:50.480Z</time>
      </trkpt>
      <trkpt lat="45.12206" lon="5.88445">
        <ele>1813.2</ele>
        <time>2015-04-12T02:19:55.480Z</time>
      </trkpt>
      <trkpt lat="45.12178" lon="5.88488">
        <ele>1823.4</ele>
        <time>2015-04-12T02:20:33.490Z</time>
      </trkpt>
      <trkpt lat="45.12166" lon="5.88516">
        <ele>1832.7</ele>
        <time>2015-04-12T02:20:58.480Z</time>
      </trkpt>
      <trkpt lat="45.12161" lon="5.88536">
        <ele>1837.8</ele>
        <time>2015-04-12T02:21:13.490Z</time>
      </trkpt>
      <trkpt lat="45.12156" lon="5.88574">
        <ele>1844.4</ele>
        <time>2015-04-12T02:21:41.480Z</time>
      </trkpt>
      <trkpt lat="45.12158" lon="5.88639">
        <ele>1856.8</ele>
        <time>2015-04-12T02:22:23.480Z</time>
      </trkpt>
      <trkpt lat="45.12161" lon="5.88654">
        <ele>1858.8</ele>
        <time>2015-04-12T02:22:31.480Z</time>
      </trkpt>
      <trkpt lat="45.12165" lon="5.88671">
        <ele>1861.9</ele>
        <time>2015-04-12T02:22:39.180Z</time>
      </trkpt>
      <trkpt lat="45.12172" lon="5.88683">
        <ele>1862</ele>
        <time>2015-04-12T02:22:47.380Z</time>
      </trkpt>
      <trkpt lat="45.12169" lon="5.88711">
        <ele>1862.6</ele>
        <time>2015-04-12T02:22:55.380Z</time>
      </trkpt>
      <trkpt lat="45.12172" lon="5.88729">
        <ele>1862.6</ele>
        <time>2015-04-12T02:23:03.380Z</time>
      </trkpt>
      <trkpt lat="45.12177" lon="5.88743">
        <ele>1862.4</ele>
        <time>2015-04-12T02:23:11.380Z</time>
      </trkpt>
      <trkpt lat="45.12184" lon="5.88788">
        <ele>1866.4</ele>
        <time>2015-04-12T02:23:31.390Z</time>
      </trkpt>
      <trkpt lat="45.12184" lon="5.88806">
        <ele>1868</ele>
        <time>2015-04-12T02:23:39.390Z</time>
      </trkpt>
      <trkpt lat="45.12174" lon="5.88839">
        <ele>1873</ele>
        <time>2015-04-12T02:23:55.380Z</time>
      </trkpt>
      <trkpt lat="45.12183" lon="5.88855">
        <ele>1877</ele>
        <time>2015-04-12T02:24:19.380Z</time>
      </trkpt>
      <trkpt lat="45.12176" lon="5.88897">
        <ele>1883</ele>
        <time>2015-04-12T02:24:35.380Z</time>
      </trkpt>
      <trkpt lat="45.12178" lon="5.88917">
        <ele>1884.6</ele>
        <time>2015-04-12T02:24:47.390Z</time>
      </trkpt>
      <trkpt lat="45.12178" lon="5.88932">
        <ele>1887</ele>
        <time>2015-04-12T02:24:59.380Z</time>
      </trkpt>
      <trkpt lat="45.12149" lon="5.89014">
        <ele>1898.9</ele>
        <time>2015-04-12T02:25:43.390Z</time>
      </trkpt>
      <trkpt lat="45.12152" lon="5.8903">
        <ele>1905</ele>
        <time>2015-04-12T02:25:59.390Z</time>
      </trkpt>
      <trkpt lat="45.12149" lon="5.89048">
        <ele>1908.6</ele>
        <time>2015-04-12T02:26:11.380Z</time>
      </trkpt>
      <trkpt lat="45.12142" lon="5.89059">
        <ele>1911</ele>
        <time>2015-04-12T02:26:19.380Z</time>
      </trkpt>
      <trkpt lat="45.1214" lon="5.89074">
        <ele>1914.7</ele>
        <time>2015-04-12T02:26:31.380Z</time>
      </trkpt>
      <trkpt lat="45.12131" lon="5.89084">
        <ele>1919.2</ele>
        <time>2015-04-12T02:26:43.380Z</time>
      </trkpt>
      <trkpt lat="45.12131" lon="5.89099">
        <ele>1923.3</ele>
        <time>2015-04-12T02:26:55.380Z</time>
      </trkpt>
      <trkpt lat="45.12125" lon="5.89117">
        <ele>1927.3</ele>
        <time>2015-04-12T02:27:07.100Z</time>
      </trkpt>
      <trkpt lat="45.12114" lon="5.89124">
        <ele>1930.3</ele>
        <time>2015-04-12T02:27:15.380Z</time>
      </trkpt>
      <trkpt lat="45.12089" lon="5.89182">
        <ele>1945.8</ele>
        <time>2015-04-12T02:28:07.380Z</time>
      </trkpt>
      <trkpt lat="45.12086" lon="5.89198">
        <ele>1950.9</ele>
        <time>2015-04-12T02:28:19.380Z</time>
      </trkpt>
      <trkpt lat="45.12088" lon="5.89213">
        <ele>1954.4</ele>
        <time>2015-04-12T02:28:31.380Z</time>
      </trkpt>
      <trkpt lat="45.12078" lon="5.89221">
        <ele>1957.2</ele>
        <time>2015-04-12T02:28:43.380Z</time>
      </trkpt>
      <trkpt lat="45.12077" lon="5.89239">
        <ele>1959.2</ele>
        <time>2015-04-12T02:28:51.380Z</time>
      </trkpt>
      <trkpt lat="45.12068" lon="5.89272">
        <ele>1964.2</ele>
        <time>2015-04-12T02:29:11.380Z</time>
      </trkpt>
      <trkpt lat="45.12072" lon="5.89285">
        <ele>1965</ele>
        <time>2015-04-12T02:29:19.380Z</time>
      </trkpt>
      <trkpt lat="45.12078" lon="5.89297">
        <ele>1970.5</ele>
        <time>2015-04-12T02:29:27.380Z</time>
      </trkpt>
      <trkpt lat="45.12079" lon="5.89311">
        <ele>1976</ele>
        <time>2015-04-12T02:29:39.380Z</time>
      </trkpt>
      <trkpt lat="45.12076" lon="5.89327">
        <ele>1981.3</ele>
        <time>2015-04-12T02:29:55.380Z</time>
      </trkpt>
      <trkpt lat="45.12082" lon="5.89346">
        <ele>1986.2</ele>
        <time>2015-04-12T02:30:11.380Z</time>
      </trkpt>
      <trkpt lat="45.12094" lon="5.8936">
        <ele>1987</ele>
        <time>2015-04-12T02:30:19.380Z</time>
      </trkpt>
      <trkpt lat="45.12091" lon="5.89375">
        <ele>1993.6</ele>
        <time>2015-04-12T02:30:31.390Z</time>
      </trkpt>
      <trkpt lat="45.12095" lon="5.89405">
        <ele>2005.9</ele>
        <time>2015-04-12T02:31:07.380Z</time>
      </trkpt>
      <trkpt lat="45.12101" lon="5.89419">
        <ele>2010</ele>
        <time>2015-04-12T02:31:19.380Z</time>
      </trkpt>
      <trkpt lat="45.12108" lon="5.89438">
        <ele>2011.6</ele>
        <time>2015-04-12T02:31:27.380Z</time>
      </trkpt>
      <trkpt lat="45.12122" lon="5.89493">
        <ele>2018.6</ele>
        <time>2015-04-12T02:31:55.390Z</time>
      </trkpt>
      <trkpt lat="45.12123" lon="5.89511">
        <ele>2018.6</ele>
        <time>2015-04-12T02:32:03.390Z</time>
      </trkpt>
      <trkpt lat="45.1213" lon="5.89526">
        <ele>2022.9</ele>
        <time>2015-04-12T02:32:19.390Z</time>
      </trkpt>
      <trkpt lat="45.12131" lon="5.89542">
        <ele>2028.2</ele>
        <time>2015-04-12T02:32:35.380Z</time>
      </trkpt>
      <trkpt lat="45.12141" lon="5.89565">
        <ele>2032.1</ele>
        <time>2015-04-12T02:32:47.380Z</time>
      </trkpt>
      <trkpt lat="45.1215" lon="5.89595">
        <ele>2044.2</ele>
        <time>2015-04-12T02:33:23.380Z</time>
      </trkpt>
      <trkpt lat="45.1215" lon="5.89612">
        <ele>2046.7</ele>
        <time>2015-04-12T02:33:31.380Z</time>
      </trkpt>
      <trkpt lat="45.1216" lon="5.89633">
        <ele>2051.6</ele>
        <time>2015-04-12T02:33:43.390Z</time>
      </trkpt>
      <trkpt lat="45.12173" lon="5.89638">
        <ele>2056</ele>
        <time>2015-04-12T02:33:59.380Z</time>
      </trkpt>
      <trkpt lat="45.12181" lon="5.8969">
        <ele>2070</ele>
        <time>2015-04-12T02:34:39.380Z</time>
      </trkpt>
      <trkpt lat="45.12185" lon="5.89704">
        <ele>2074.8</ele>
        <time>2015-04-12T02:34:55.380Z</time>
      </trkpt>
      <trkpt lat="45.12185" lon="5.89727">
        <ele>2079.6</ele>
        <time>2015-04-12T02:35:11.380Z</time>
      </trkpt>
      <trkpt lat="45.1219" lon="5.89741">
        <ele>2082</ele>
        <time>2015-04-12T02:35:19.380Z</time>
      </trkpt>
      <trkpt lat="45.12192" lon="5.89756">
        <ele>2090.2</ele>
        <time>2015-04-12T02:35:43.380Z</time>
      </trkpt>
      <trkpt lat="45.12191" lon="5.89773">
        <ele>2092.7</ele>
        <time>2015-04-12T02:35:51.380Z</time>
      </trkpt>
      <trkpt lat="45.12193" lon="5.89788">
        <ele>2097.9</ele>
        <time>2015-04-12T02:36:03.390Z</time>
      </trkpt>
      <trkpt lat="45.12189" lon="5.89802">
        <ele>2101.2</ele>
        <time>2015-04-12T02:36:11.390Z</time>
      </trkpt>
      <trkpt lat="45.122" lon="5.89805">
        <ele>2103.5</ele>
        <time>2015-04-12T02:36:23.380Z</time>
      </trkpt>
      <trkpt lat="45.12202" lon="5.89823">
        <ele>2109</ele>
        <time>2015-04-12T02:36:39.380Z</time>
      </trkpt>
      <trkpt lat="45.12199" lon="5.89839">
        <ele>2116</ele>
        <time>2015-04-12T02:36:59.380Z</time>
      </trkpt>
      <trkpt lat="45.12201" lon="5.89854">
        <ele>2121.8</ele>
        <time>2015-04-12T02:37:23.380Z</time>
      </trkpt>
      <trkpt lat="45.12187" lon="5.89855">
        <ele>2127.2</ele>
        <time>2015-04-12T02:37:43.390Z</time>
      </trkpt>
      <trkpt lat="45.12174" lon="5.89853">
        <ele>2129.6</ele>
        <time>2015-04-12T02:37:51.390Z</time>
      </trkpt>
      <trkpt lat="45.12163" lon="5.89882">
        <ele>2142.1</ele>
        <time>2015-04-12T02:38:27.380Z</time>
      </trkpt>
      <trkpt lat="45.12159" lon="5.89915">
        <ele>2149.1</ele>
        <time>2015-04-12T02:38:47.380Z</time>
      </trkpt>
      <trkpt lat="45.12158" lon="5.89932">
        <ele>2152.9</ele>
        <time>2015-04-12T02:38:59.390Z</time>
      </trkpt>
      <trkpt lat="45.12168" lon="5.89943">
        <ele>2155.4</ele>
        <time>2015-04-12T02:39:07.390Z</time>
      </trkpt>
      <trkpt lat="45.12179" lon="5.89944">
        <ele>2162.9</ele>
        <time>2015-04-12T02:39:27.380Z</time>
      </trkpt>
      <trkpt lat="45.12185" lon="5.89957">
        <ele>2167</ele>
        <time>2015-04-12T02:39:39.380Z</time>
      </trkpt>
      <trkpt lat="45.12197" lon="5.89958">
        <ele>2169.4</ele>
        <time>2015-04-12T02:39:47.380Z</time>
      </trkpt>
      <trkpt lat="45.12208" lon="5.8995">
        <ele>2171.8</ele>
        <time>2015-04-12T02:39:55.380Z</time>
      </trkpt>
      <trkpt lat="45.12219" lon="5.89947">
        <ele>2173.8</ele>
        <time>2015-04-12T02:40:03.380Z</time>
      </trkpt>
      <trkpt lat="45.1223" lon="5.89951">
        <ele>2177</ele>
        <time>2015-04-12T02:40:19.380Z</time>
      </trkpt>
      <trkpt lat="45.12242" lon="5.8998">
        <ele>2179.9</ele>
        <time>2015-04-12T02:40:35.380Z</time>
      </trkpt>
      <trkpt lat="45.12252" lon="5.89986">
        <ele>2183.6</ele>
        <time>2015-04-12T02:40:43.380Z</time>
      </trkpt>
      <trkpt lat="45.12261" lon="5.9">
        <ele>2188.4</ele>
        <time>2015-04-12T02:40:55.390Z</time>
      </trkpt>
      <trkpt lat="45.12267" lon="5.90019">
        <ele>2190.8</ele>
        <time>2015-04-12T02:41:03.390Z</time>
      </trkpt>
      <trkpt lat="45.12278" lon="5.90036">
        <ele>2192.6</ele>
        <time>2015-04-12T02:41:11.390Z</time>
      </trkpt>
      <trkpt lat="45.1229" lon="5.90047">
        <ele>2195</ele>
        <time>2015-04-12T02:41:19.390Z</time>
      </trkpt>
      <trkpt lat="45.123" lon="5.90048">
        <ele>2198.2</ele>
        <time>2015-04-12T02:41:35.380Z</time>
      </trkpt>
      <trkpt lat="45.12312" lon="5.90056">
        <ele>2199.8</ele>
        <time>2015-04-12T02:41:47.380Z</time>
      </trkpt>
      <trkpt lat="45.12347" lon="5.9009">
        <ele>2205.6</ele>
        <time>2015-04-12T02:42:07.380Z</time>
      </trkpt>
      <trkpt lat="45.12358" lon="5.90095">
        <ele>2207.8</ele>
        <time>2015-04-12T02:42:15.380Z</time>
      </trkpt>
      <trkpt lat="45.12366" lon="5.90104">
        <ele>2209.8</ele>
        <time>2015-04-12T02:42:23.380Z</time>
      </trkpt>
      <trkpt lat="45.12374" lon="5.90121">
        <ele>2213.4</ele>
        <time>2015-04-12T02:42:35.380Z</time>
      </trkpt>
      <trkpt lat="45.12382" lon="5.90131">
        <ele>2215.8</ele>
        <time>2015-04-12T02:42:43.380Z</time>
      </trkpt>
      <trkpt lat="45.12405" lon="5.90152">
        <ele>2221.4</ele>
        <time>2015-04-12T02:43:07.380Z</time>
      </trkpt>
      <trkpt lat="45.12419" lon="5.90161">
        <ele>2223</ele>
        <time>2015-04-12T02:43:19.380Z</time>
      </trkpt>
      <trkpt lat="45.12447" lon="5.90199">
        <ele>2227.2</ele>
        <time>2015-04-12T02:43:43.380Z</time>
      </trkpt>
      <trkpt lat="45.12453" lon="5.90215">
        <ele>2229.4</ele>
        <time>2015-04-12T02:43:51.380Z</time>
      </trkpt>
      <trkpt lat="45.12464" lon="5.90232">
        <ele>2231.8</ele>
        <time>2015-04-12T02:44:07.380Z</time>
      </trkpt>
      <trkpt lat="45.12471" lon="5.90245">
        <ele>2234.9</ele>
        <time>2015-04-12T02:44:15.380Z</time>
      </trkpt>
      <trkpt lat="45.12477" lon="5.90263">
        <ele>2237.8</ele>
        <time>2015-04-12T02:44:27.380Z</time>
      </trkpt>
      <trkpt lat="45.12489" lon="5.90273">
        <ele>2240.3</ele>
        <time>2015-04-12T02:44:35.380Z</time>
      </trkpt>
      <trkpt lat="45.12498" lon="5.90289">
        <ele>2242</ele>
        <time>2015-04-12T02:44:43.380Z</time>
      </trkpt>
      <trkpt lat="45.12503" lon="5.90304">
        <ele>2242.7</ele>
        <time>2015-04-12T02:44:51.380Z</time>
      </trkpt>
      <trkpt lat="45.12512" lon="5.90315">
        <ele>2247.6</ele>
        <time>2015-04-12T02:45:07.380Z</time>
      </trkpt>
      <trkpt lat="45.12525" lon="5.90325">
        <ele>2249.2</ele>
        <time>2015-04-12T02:45:15.380Z</time>
      </trkpt>
      <trkpt lat="45.12534" lon="5.9034">
        <ele>2251.2</ele>
        <time>2015-04-12T02:45:23.380Z</time>
      </trkpt>
      <trkpt lat="45.12539" lon="5.90354">
        <ele>2253.4</ele>
        <time>2015-04-12T02:45:31.380Z</time>
      </trkpt>
      <trkpt lat="45.12543" lon="5.90371">
        <ele>2255</ele>
        <time>2015-04-12T02:45:39.380Z</time>
      </trkpt>
      <trkpt lat="45.12544" lon="5.9039">
        <ele>2255</ele>
        <time>2015-04-12T02:45:47.380Z</time>
      </trkpt>
      <trkpt lat="45.12563" lon="5.90416">
        <ele>2258</ele>
        <time>2015-04-12T02:46:11.380Z</time>
      </trkpt>
      <trkpt lat="45.12569" lon="5.90429">
        <ele>2258.8</ele>
        <time>2015-04-12T02:46:23.380Z</time>
      </trkpt>
      <trkpt lat="45.1258" lon="5.9042">
        <ele>2260</ele>
        <time>2015-04-12T02:47:51.380Z</time>
      </trkpt>
      <trkpt lat="45.12605" lon="5.90479">
        <ele>2260</ele>
        <time>2015-04-12T02:47:59.380Z</time>
      </trkpt>
      <trkpt lat="45.1262" lon="5.90704">
        <ele>2235.2</ele>
        <time>2015-04-12T02:48:15.380Z</time>
      </trkpt>
      <trkpt lat="45.12594" lon="5.90834">
        <ele>2213.1</ele>
        <time>2015-04-12T02:48:23.380Z</time>
      </trkpt>
      <trkpt lat="45.12601" lon="5.90952">
        <ele>2194.9</ele>
        <time>2015-04-12T02:48:31.380Z</time>
      </trkpt>
      <trkpt lat="45.12665" lon="5.90903">
        <ele>2177.3</ele>
        <time>2015-04-12T02:48:39.380Z</time>
      </trkpt>
      <trkpt lat="45.12779" lon="5.91015">
        <ele>2140</ele>
        <time>2015-04-12T02:48:47.380Z</time>
      </trkpt>
      <trkpt lat="45.12872" lon="5.91151">
        <ele>2115.3</ele>
        <time>2015-04-12T02:48:55.380Z</time>
      </trkpt>
      <trkpt lat="45.1314" lon="5.91817">
        <ele>2002</ele>
        <time>2015-04-12T02:49:43.380Z</time>
      </trkpt>
      <trkpt lat="45.13152" lon="5.91867">
        <ele>2002.2</ele>
        <time>2015-04-12T02:49:51.380Z</time>
      </trkpt>
      <trkpt lat="45.13171" lon="5.9189">
        <ele>2003</ele>
        <time>2015-04-12T02:49:59.380Z</time>
      </trkpt>
      <trkpt lat="45.13205" lon="5.91916">
        <ele>2003</ele>
        <time>2015-04-12T02:50:07.390Z</time>
      </trkpt>
      <trkpt lat="45.1324" lon="5.91951">
        <ele>2003</ele>
        <time>2015-04-12T02:50:15.380Z</time>
      </trkpt>
      <trkpt lat="45.13256" lon="5.92001">
        <ele>2002.6</ele>
        <time>2015-04-12T02:50:23.390Z</time>
      </trkpt>
      <trkpt lat="45.13278" lon="5.92032">
        <ele>2002.6</ele>
        <time>2015-04-12T02:50:35.380Z</time>
      </trkpt>
      <trkpt lat="45.13315" lon="5.92053">
        <ele>2001.9</ele>
        <time>2015-04-12T02:50:43.110Z</time>
      </trkpt>
      <trkpt lat="45.13364" lon="5.92094">
        <ele>1995.1</ele>
        <time>2015-04-12T02:50:51.380Z</time>
      </trkpt>
      <trkpt lat="45.1345" lon="5.92147">
        <ele>1974.3</ele>
        <time>2015-04-12T02:50:59.380Z</time>
      </trkpt>
      <trkpt lat="45.13522" lon="5.92166">
        <ele>1964.2</ele>
        <time>2015-04-12T02:51:08.390Z</time>
      </trkpt>
      <trkpt lat="45.13572" lon="5.92187">
        <ele>1960.3</ele>
        <time>2015-04-12T02:51:16.380Z</time>
      </trkpt>
      <trkpt lat="45.13605" lon="5.92207">
        <ele>1957.5</ele>
        <time>2015-04-12T02:51:24.390Z</time>
      </trkpt>
      <trkpt lat="45.13669" lon="5.92232">
        <ele>1954.3</ele>
        <time>2015-04-12T02:51:32.390Z</time>
      </trkpt>
      <trkpt lat="45.13785" lon="5.92251">
        <ele>1942.9</ele>
        <time>2015-04-12T02:51:48.390Z</time>
      </trkpt>
      <trkpt lat="45.13835" lon="5.92272">
        <ele>1934.4</ele>
        <time>2015-04-12T02:51:56.390Z</time>
      </trkpt>
      <trkpt lat="45.13858" lon="5.92311">
        <ele>1930.3</ele>
        <time>2015-04-12T02:52:12.380Z</time>
      </trkpt>
      <trkpt lat="45.1387" lon="5.92321">
        <ele>1930</ele>
        <time>2015-04-12T02:53:49.580Z</time>
      </trkpt>
      <trkpt lat="45.13878" lon="5.92354">
        <ele>1939.9</ele>
        <time>2015-04-12T02:54:14.380Z</time>
      </trkpt>
      <trkpt lat="45.13877" lon="5.92372">
        <ele>1946.2</ele>
        <time>2015-04-12T02:54:30.380Z</time>
      </trkpt>
      <trkpt lat="45.1388" lon="5.92392">
        <ele>1947.8</ele>
        <time>2015-04-12T02:54:38.380Z</time>
      </trkpt>
      <trkpt lat="45.1389" lon="5.92406">
        <ele>1950.1</ele>
        <time>2015-04-12T02:54:46.380Z</time>
      </trkpt>
      <trkpt lat="45.13902" lon="5.92409">
        <ele>1956.2</ele>
        <time>2015-04-12T02:55:10.390Z</time>
      </trkpt>
      <trkpt lat="45.13915" lon="5.9242">
        <ele>1957.8</ele>
        <time>2015-04-12T02:55:18.390Z</time>
      </trkpt>
      <trkpt lat="45.13926" lon="5.92416">
        <ele>1959.4</ele>
        <time>2015-04-12T02:55:30.380Z</time>
      </trkpt>
      <trkpt lat="45.13942" lon="5.9242">
        <ele>1963.4</ele>
        <time>2015-04-12T02:55:38.380Z</time>
      </trkpt>
      <trkpt lat="45.1393" lon="5.92421">
        <ele>1972.1</ele>
        <time>2015-04-12T02:56:06.380Z</time>
      </trkpt>
      <trkpt lat="45.13937" lon="5.92439">
        <ele>1974.8</ele>
        <time>2015-04-12T02:56:18.380Z</time>
      </trkpt>
      <trkpt lat="45.13944" lon="5.92454">
        <ele>1977.1</ele>
        <time>2015-04-12T02:56:26.380Z</time>
      </trkpt>
      <trkpt lat="45.1394" lon="5.92467">
        <ele>1982.4</ele>
        <time>2015-04-12T02:56:38.380Z</time>
      </trkpt>
      <trkpt lat="45.1395" lon="5.92458">
        <ele>1991.9</ele>
        <time>2015-04-12T02:57:18.380Z</time>
      </trkpt>
      <trkpt lat="45.1395" lon="5.92474">
        <ele>2002.5</ele>
        <time>2015-04-12T02:57:54.390Z</time>
      </trkpt>
      <trkpt lat="45.13953" lon="5.92495">
        <ele>2006.9</ele>
        <time>2015-04-12T02:58:18.390Z</time>
      </trkpt>
      <trkpt lat="45.13962" lon="5.92489">
        <ele>2012.2</ele>
        <time>2015-04-12T02:58:30.380Z</time>
      </trkpt>
      <trkpt lat="45.13973" lon="5.92492">
        <ele>2015.4</ele>
        <time>2015-04-12T02:58:42.380Z</time>
      </trkpt>
      <trkpt lat="45.13965" lon="5.92508">
        <ele>2020.8</ele>
        <time>2015-04-12T02:58:58.380Z</time>
      </trkpt>
      <trkpt lat="45.13975" lon="5.92517">
        <ele>2023.9</ele>
        <time>2015-04-12T02:59:18.380Z</time>
      </trkpt>
      <trkpt lat="45.13987" lon="5.92515">
        <ele>2026.7</ele>
        <time>2015-04-12T02:59:26.380Z</time>
      </trkpt>
      <trkpt lat="45.13977" lon="5.92524">
        <ele>2031.5</ele>
        <time>2015-04-12T02:59:38.380Z</time>
      </trkpt>
      <trkpt lat="45.13968" lon="5.92542">
        <ele>2036.5</ele>
        <time>2015-04-12T02:59:54.380Z</time>
      </trkpt>
      <trkpt lat="45.13976" lon="5.92576">
        <ele>2038</ele>
        <time>2015-04-12T03:00:06.380Z</time>
      </trkpt>
      <trkpt lat="45.13986" lon="5.926">
        <ele>2041.1</ele>
        <time>2015-04-12T03:00:22.380Z</time>
      </trkpt>
      <trkpt lat="45.13988" lon="5.9262">
        <ele>2045.5</ele>
        <time>2015-04-12T03:00:34.380Z</time>
      </trkpt>
      <trkpt lat="45.13986" lon="5.92653">
        <ele>2049.9</ele>
        <time>2015-04-12T03:00:54.380Z</time>
      </trkpt>
      <trkpt lat="45.13991" lon="5.92671">
        <ele>2053.4</ele>
        <time>2015-04-12T03:01:06.390Z</time>
      </trkpt>
      <trkpt lat="45.13999" lon="5.92683">
        <ele>2058.4</ele>
        <time>2015-04-12T03:01:18.380Z</time>
      </trkpt>
      <trkpt lat="45.13994" lon="5.92696">
        <ele>2063.9</ele>
        <time>2015-04-12T03:01:34.380Z</time>
      </trkpt>
      <trkpt lat="45.14022" lon="5.92737">
        <ele>2075</ele>
        <time>2015-04-12T03:02:09.580Z</time>
      </trkpt>
      <trkpt lat="45.14016" lon="5.92754">
        <ele>2080.4</ele>
        <time>2015-04-12T03:02:27.580Z</time>
      </trkpt>
      <trkpt lat="45.14027" lon="5.92766">
        <ele>2084</ele>
        <time>2015-04-12T03:02:35.580Z</time>
      </trkpt>
      <trkpt lat="45.14029" lon="5.92783">
        <ele>2089</ele>
        <time>2015-04-12T03:02:49.580Z</time>
      </trkpt>
      <trkpt lat="45.1404" lon="5.92804">
        <ele>2090.8</ele>
        <time>2015-04-12T03:02:58.590Z</time>
      </trkpt>
      <trkpt lat="45.14054" lon="5.92824">
        <ele>2090.2</ele>
        <time>2015-04-12T03:03:07.380Z</time>
      </trkpt>
      <trkpt lat="45.14054" lon="5.9284">
        <ele>2090.6</ele>
        <time>2015-04-12T03:03:15.380Z</time>
      </trkpt>
      <trkpt lat="45.14053" lon="5.92858">
        <ele>2091.4</ele>
        <time>2015-04-12T03:03:23.380Z</time>
      </trkpt>
      <trkpt lat="45.14063" lon="5.92863">
        <ele>2092.6</ele>
        <time>2015-04-12T03:03:32.380Z</time>
      </trkpt>
      <trkpt lat="45.14067" lon="5.92879">
        <ele>2096.3</ele>
        <time>2015-04-12T03:03:45.380Z</time>
      </trkpt>
      <trkpt lat="45.14085" lon="5.92892">
        <ele>2099.5</ele>
        <time>2015-04-12T03:03:53.380Z</time>
      </trkpt>
      <trkpt lat="45.14092" lon="5.92901">
        <ele>2102.8</ele>
        <time>2015-04-12T03:04:01.590Z</time>
      </trkpt>
      <trkpt lat="45.14082" lon="5.92898">
        <ele>2106.2</ele>
        <time>2015-04-12T03:04:10.380Z</time>
      </trkpt>
      <trkpt lat="45.14074" lon="5.92914">
        <ele>2116.2</ele>
        <time>2015-04-12T03:04:43.590Z</time>
      </trkpt>
      <trkpt lat="45.14091" lon="5.92915">
        <ele>2118.6</ele>
        <time>2015-04-12T03:04:52.390Z</time>
      </trkpt>
      <trkpt lat="45.14102" lon="5.92919">
        <ele>2120.3</ele>
        <time>2015-04-12T03:05:00.580Z</time>
      </trkpt>
      <trkpt lat="45.14112" lon="5.9294">
        <ele>2123.8</ele>
        <time>2015-04-12T03:05:13.580Z</time>
      </trkpt>
      <trkpt lat="45.1412" lon="5.92952">
        <ele>2125</ele>
        <time>2015-04-12T03:05:21.580Z</time>
      </trkpt>
      <trkpt lat="45.14138" lon="5.9299">
        <ele>2125.2</ele>
        <time>2015-04-12T03:05:41.590Z</time>
      </trkpt>
      <trkpt lat="45.14173" lon="5.93017">
        <ele>2136.4</ele>
        <time>2015-04-12T03:06:15.580Z</time>
      </trkpt>
      <trkpt lat="45.1419" lon="5.93048">
        <ele>2142.4</ele>
        <time>2015-04-12T03:06:36.580Z</time>
      </trkpt>
      <trkpt lat="45.14198" lon="5.93056">
        <ele>2144</ele>
        <time>2015-04-12T03:06:44.580Z</time>
      </trkpt>
      <trkpt lat="45.14201" lon="5.93072">
        <ele>2146.4</ele>
        <time>2015-04-12T03:06:56.580Z</time>
      </trkpt>
      <trkpt lat="45.1421" lon="5.93103">
        <ele>2146.1</ele>
        <time>2015-04-12T03:07:08.590Z</time>
      </trkpt>
      <trkpt lat="45.14223" lon="5.9312">
        <ele>2147.6</ele>
        <time>2015-04-12T03:07:17.580Z</time>
      </trkpt>
      <trkpt lat="45.1424" lon="5.93169">
        <ele>2148</ele>
        <time>2015-04-12T03:07:37.590Z</time>
      </trkpt>
      <trkpt lat="45.14252" lon="5.93178">
        <ele>2148</ele>
        <time>2015-04-12T03:07:45.580Z</time>
      </trkpt>
      <trkpt lat="45.14258" lon="5.93196">
        <ele>2148</ele>
        <time>2015-04-12T03:07:50.590Z</time>
      </trkpt>
      <trkpt lat="45.1426" lon="5.93211">
        <ele>2148</ele>
        <time>2015-04-12T03:07:55.580Z</time>
      </trkpt>
      <trkpt lat="45.14297" lon="5.93259">
        <ele>2148</ele>
        <time>2015-04-12T03:08:19.580Z</time>
      </trkpt>
      <trkpt lat="45.14335" lon="5.93321">
        <ele>2153</ele>
        <time>2015-04-12T03:08:56.590Z</time>
      </trkpt>
      <trkpt lat="45.14345" lon="5.9333">
        <ele>2153</ele>
        <time>2015-04-12T03:09:04.480Z</time>
      </trkpt>
      <trkpt lat="45.1435" lon="5.93345">
        <ele>2153.9</ele>
        <time>2015-04-12T03:09:12.480Z</time>
      </trkpt>
      <trkpt lat="45.14364" lon="5.93374">
        <ele>2161.8</ele>
        <time>2015-04-12T03:09:36.480Z</time>
      </trkpt>
      <trkpt lat="45.14368" lon="5.93387">
        <ele>2164</ele>
        <time>2015-04-12T03:09:44.480Z</time>
      </trkpt>
      <trkpt lat="45.14372" lon="5.93399">
        <ele>2165.9</ele>
        <time>2015-04-12T03:09:52.480Z</time>
      </trkpt>
      <trkpt lat="45.14382" lon="5.9342">
        <ele>2170.7</ele>
        <time>2015-04-12T03:10:08.480Z</time>
      </trkpt>
      <trkpt lat="45.14385" lon="5.93429">
        <ele>2172.4</ele>
        <time>2015-04-12T03:10:16.480Z</time>
      </trkpt>
      <trkpt lat="45.1439" lon="5.93436">
        <ele>2174.5</ele>
        <time>2015-04-12T03:10:24.480Z</time>
      </trkpt>
      <trkpt lat="45.14399" lon="5.93442">
        <ele>2176.9</ele>
        <time>2015-04-12T03:10:32.490Z</time>
      </trkpt>
      <trkpt lat="45.14403" lon="5.93448">
        <ele>2179.3</ele>
        <time>2015-04-12T03:10:40.480Z</time>
      </trkpt>
      <trkpt lat="45.14409" lon="5.93455">
        <ele>2181.7</ele>
        <time>2015-04-12T03:10:48.480Z</time>
      </trkpt>
      <trkpt lat="45.14404" lon="5.93468">
        <ele>2184.1</ele>
        <time>2015-04-12T03:10:56.480Z</time>
      </trkpt>
      <trkpt lat="45.14398" lon="5.93485">
        <ele>2185.5</ele>
        <time>2015-04-12T03:11:04.480Z</time>
      </trkpt>
      <trkpt lat="45.14397" lon="5.93498">
        <ele>2187.4</ele>
        <time>2015-04-12T03:11:16.480Z</time>
      </trkpt>
      <trkpt lat="45.14486" lon="5.93739">
        <ele>2179</ele>
        <time>2015-04-12T03:13:04.580Z</time>
      </trkpt>
      <trkpt lat="45.14498" lon="5.93795">
        <ele>2176.5</ele>
        <time>2015-04-12T03:13:12.580Z</time>
      </trkpt>
      <trkpt lat="45.14579" lon="5.93912">
        <ele>2168.7</ele>
        <time>2015-04-12T03:13:36.580Z</time>
      </trkpt>
      <trkpt lat="45.14592" lon="5.93952">
        <ele>2163.4</ele>
        <time>2015-04-12T03:13:44.580Z</time>
      </trkpt>
      <trkpt lat="45.14633" lon="5.94024">
        <ele>2158</ele>
        <time>2015-04-12T03:14:08.580Z</time>
      </trkpt>
      <trkpt lat="45.14642" lon="5.9403">
        <ele>2158.7</ele>
        <time>2015-04-12T03:14:16.580Z</time>
      </trkpt>
      <trkpt lat="45.14635" lon="5.94051">
        <ele>2164</ele>
        <time>2015-04-12T03:15:20.580Z</time>
      </trkpt>
      <trkpt lat="45.14632" lon="5.94069">
        <ele>2170.4</ele>
        <time>2015-04-12T03:15:40.590Z</time>
      </trkpt>
      <trkpt lat="45.14637" lon="5.94105">
        <ele>2178.5</ele>
        <time>2015-04-12T03:16:04.590Z</time>
      </trkpt>
      <trkpt lat="45.14632" lon="5.94121">
        <ele>2181.4</ele>
        <time>2015-04-12T03:16:16.580Z</time>
      </trkpt>
      <trkpt lat="45.14621" lon="5.94126">
        <ele>2183.5</ele>
        <time>2015-04-12T03:16:24.580Z</time>
      </trkpt>
      <trkpt lat="45.1462" lon="5.94144">
        <ele>2185.6</ele>
        <time>2015-04-12T03:16:32.580Z</time>
      </trkpt>
      <trkpt lat="45.14624" lon="5.94164">
        <ele>2188</ele>
        <time>2015-04-12T03:16:44.580Z</time>
      </trkpt>
      <trkpt lat="45.14622" lon="5.94198">
        <ele>2196.5</ele>
        <time>2015-04-12T03:17:08.580Z</time>
      </trkpt>
      <trkpt lat="45.1462" lon="5.94212">
        <ele>2198.4</ele>
        <time>2015-04-12T03:17:16.580Z</time>
      </trkpt>
      <trkpt lat="45.14608" lon="5.94218">
        <ele>2200.5</ele>
        <time>2015-04-12T03:17:24.580Z</time>
      </trkpt>
      <trkpt lat="45.14606" lon="5.94237">
        <ele>2202.6</ele>
        <time>2015-04-12T03:17:32.580Z</time>
      </trkpt>
      <trkpt lat="45.1461" lon="5.94264">
        <ele>2204</ele>
        <time>2015-04-12T03:17:44.590Z</time>
      </trkpt>
      <trkpt lat="45.14624" lon="5.94286">
        <ele>2204.3</ele>
        <time>2015-04-12T03:17:52.580Z</time>
      </trkpt>
      <trkpt lat="45.1463" lon="5.943">
        <ele>2205.4</ele>
        <time>2015-04-12T03:18:00.580Z</time>
      </trkpt>
      <trkpt lat="45.14628" lon="5.94316">
        <ele>2209.6</ele>
        <time>2015-04-12T03:18:12.580Z</time>
      </trkpt>
      <trkpt lat="45.14632" lon="5.94334">
        <ele>2214.6</ele>
        <time>2015-04-12T03:18:28.580Z</time>
      </trkpt>
      <trkpt lat="45.14622" lon="5.94344">
        <ele>2217.1</ele>
        <time>2015-04-12T03:18:36.580Z</time>
      </trkpt>
      <trkpt lat="45.1463" lon="5.94365">
        <ele>2219.5</ele>
        <time>2015-04-12T03:18:44.580Z</time>
      </trkpt>
      <trkpt lat="45.14638" lon="5.9438">
        <ele>2221</ele>
        <time>2015-04-12T03:18:52.590Z</time>
      </trkpt>
      <trkpt lat="45.14636" lon="5.94397">
        <ele>2221.1</ele>
        <time>2015-04-12T03:19:00.590Z</time>
      </trkpt>
      <trkpt lat="45.14632" lon="5.94413">
        <ele>2223.2</ele>
        <time>2015-04-12T03:19:12.580Z</time>
      </trkpt>
      <trkpt lat="45.14624" lon="5.94432">
        <ele>2230.2</ele>
        <time>2015-04-12T03:19:33.480Z</time>
      </trkpt>
      <trkpt lat="45.14634" lon="5.94447">
        <ele>2232.4</ele>
        <time>2015-04-12T03:19:40.580Z</time>
      </trkpt>
      <trkpt lat="45.14639" lon="5.94476">
        <ele>2238.1</ele>
        <time>2015-04-12T03:19:56.580Z</time>
      </trkpt>
      <trkpt lat="45.14646" lon="5.94492">
        <ele>2247.9</ele>
        <time>2015-04-12T03:20:28.580Z</time>
      </trkpt>
      <trkpt lat="45.14641" lon="5.94507">
        <ele>2250.2</ele>
        <time>2015-04-12T03:20:40.580Z</time>
      </trkpt>
      <trkpt lat="45.14636" lon="5.94519">
        <ele>2260.9</ele>
        <time>2015-04-12T03:21:12.580Z</time>
      </trkpt>
      <trkpt lat="45.14644" lon="5.94536">
        <ele>2265.7</ele>
        <time>2015-04-12T03:21:28.580Z</time>
      </trkpt>
      <trkpt lat="45.14637" lon="5.94548">
        <ele>2270.8</ele>
        <time>2015-04-12T03:21:48.580Z</time>
      </trkpt>
      <trkpt lat="45.14645" lon="5.9456">
        <ele>2275.3</ele>
        <time>2015-04-12T03:22:00.580Z</time>
      </trkpt>
      <trkpt lat="45.14652" lon="5.94577">
        <ele>2278.9</ele>
        <time>2015-04-12T03:22:12.590Z</time>
      </trkpt>
      <trkpt lat="45.14662" lon="5.94586">
        <ele>2283</ele>
        <time>2015-04-12T03:22:24.580Z</time>
      </trkpt>
      <trkpt lat="45.14656" lon="5.94601">
        <ele>2285.3</ele>
        <time>2015-04-12T03:22:32.580Z</time>
      </trkpt>
      <trkpt lat="45.14659" lon="5.94629">
        <ele>2286.6</ele>
        <time>2015-04-12T03:22:45.480Z</time>
      </trkpt>
      <trkpt lat="45.14667" lon="5.94645">
        <ele>2287.4</ele>
        <time>2015-04-12T03:22:53.480Z</time>
      </trkpt>
      <trkpt lat="45.14679" lon="5.94658">
        <ele>2289.5</ele>
        <time>2015-04-12T03:23:04.580Z</time>
      </trkpt>
      <trkpt lat="45.14683" lon="5.94672">
        <ele>2291.6</ele>
        <time>2015-04-12T03:23:12.580Z</time>
      </trkpt>
      <trkpt lat="45.14694" lon="5.94685">
        <ele>2296</ele>
        <time>2015-04-12T03:23:29.490Z</time>
      </trkpt>
      <trkpt lat="45.14705" lon="5.94694">
        <ele>2297.4</ele>
        <time>2015-04-12T03:23:36.590Z</time>
      </trkpt>
      <trkpt lat="45.14719" lon="5.94721">
        <ele>2300.7</ele>
        <time>2015-04-12T03:23:56.580Z</time>
      </trkpt>
      <trkpt lat="45.14725" lon="5.94736">
        <ele>2304</ele>
        <time>2015-04-12T03:24:05.480Z</time>
      </trkpt>
      <trkpt lat="45.14732" lon="5.94759">
        <ele>2305.2</ele>
        <time>2015-04-12T03:24:17.480Z</time>
      </trkpt>
      <trkpt lat="45.14741" lon="5.94772">
        <ele>2305.6</ele>
        <time>2015-04-12T03:24:25.480Z</time>
      </trkpt>
      <trkpt lat="45.1475" lon="5.94808">
        <ele>2310.6</ele>
        <time>2015-04-12T03:24:45.580Z</time>
      </trkpt>
      <trkpt lat="45.1474" lon="5.94821">
        <ele>2314.6</ele>
        <time>2015-04-12T03:24:58.480Z</time>
      </trkpt>
      <trkpt lat="45.14736" lon="5.94836">
        <ele>2317.4</ele>
        <time>2015-04-12T03:25:10.480Z</time>
      </trkpt>
      <trkpt lat="45.14749" lon="5.94859">
        <ele>2328.1</ele>
        <time>2015-04-12T03:25:46.490Z</time>
      </trkpt>
      <trkpt lat="45.14756" lon="5.94877">
        <ele>2334.4</ele>
        <time>2015-04-12T03:26:10.480Z</time>
      </trkpt>
      <trkpt lat="45.14768" lon="5.94875">
        <ele>2340.3</ele>
        <time>2015-04-12T03:26:30.480Z</time>
      </trkpt>
      <trkpt lat="45.14764" lon="5.94891">
        <ele>2348.1</ele>
        <time>2015-04-12T03:26:50.480Z</time>
      </trkpt>
      <trkpt lat="45.14763" lon="5.94909">
        <ele>2349.8</ele>
        <time>2015-04-12T03:27:03.480Z</time>
      </trkpt>
      <trkpt lat="45.14774" lon="5.94902">
        <ele>2355.6</ele>
        <time>2015-04-12T03:27:27.580Z</time>
      </trkpt>
      <trkpt lat="45.14786" lon="5.949">
        <ele>2358.8</ele>
        <time>2015-04-12T03:27:36.480Z</time>
      </trkpt>
      <trkpt lat="45.14794" lon="5.94917">
        <ele>2362.7</ele>
        <time>2015-04-12T03:27:48.580Z</time>
      </trkpt>
      <trkpt lat="45.14789" lon="5.94931">
        <ele>2366.6</ele>
        <time>2015-04-12T03:28:01.480Z</time>
      </trkpt>
      <trkpt lat="45.14797" lon="5.94939">
        <ele>2372.2</ele>
        <time>2015-04-12T03:28:17.480Z</time>
      </trkpt>
      <trkpt lat="45.14803" lon="5.94952">
        <ele>2378</ele>
        <time>2015-04-12T03:28:29.490Z</time>
      </trkpt>
      <trkpt lat="45.14813" lon="5.94961">
        <ele>2381.2</ele>
        <time>2015-04-12T03:28:45.490Z</time>
      </trkpt>
      <trkpt lat="45.14829" lon="5.94983">
        <ele>2391.6</ele>
        <time>2015-04-12T03:29:21.480Z</time>
      </trkpt>
      <trkpt lat="45.14855" lon="5.94993">
        <ele>2408.6</ele>
        <time>2015-04-12T03:30:13.480Z</time>
      </trkpt>
      <trkpt lat="45.14856" lon="5.94975">
        <ele>2412.8</ele>
        <time>2015-04-12T03:30:37.480Z</time>
      </trkpt>
      <trkpt lat="45.1487" lon="5.94979">
        <ele>2417</ele>
        <time>2015-04-12T03:30:49.480Z</time>
      </trkpt>
      <trkpt lat="45.1488" lon="5.94976">
        <ele>2423</ele>
        <time>2015-04-12T03:31:09.500Z</time>
      </trkpt>
      <trkpt lat="45.14882" lon="5.95009">
        <ele>2430.6</ele>
        <time>2015-04-12T03:31:31.480Z</time>
      </trkpt>
      <trkpt lat="45.14882" lon="5.95023">
        <ele>2433</ele>
        <time>2015-04-12T03:31:43.480Z</time>
      </trkpt>
      <trkpt lat="45.14888" lon="5.95011">
        <ele>2437</ele>
        <time>2015-04-12T03:31:59.490Z</time>
      </trkpt>
      <trkpt lat="45.14898" lon="5.95021">
        <ele>2440.2</ele>
        <time>2015-04-12T03:32:23.490Z</time>
      </trkpt>
      <trkpt lat="45.14906" lon="5.95035">
        <ele>2454</ele>
        <time>2015-04-12T03:32:59.480Z</time>
      </trkpt>
      <trkpt lat="45.14916" lon="5.95042">
        <ele>2456.4</ele>
        <time>2015-04-12T03:33:11.480Z</time>
      </trkpt>
      <trkpt lat="45.14912" lon="5.95059">
        <ele>2461.8</ele>
        <time>2015-04-12T03:33:35.480Z</time>
      </trkpt>
      <trkpt lat="45.14916" lon="5.95072">
        <ele>2465.2</ele>
        <time>2015-04-12T03:33:51.480Z</time>
      </trkpt>
      <trkpt lat="45.14924" lon="5.95085">
        <ele>2466</ele>
        <time>2015-04-12T03:34:11.480Z</time>
      </trkpt>
      <trkpt lat="45.14926" lon="5.95104">
        <ele>2471.6</ele>
        <time>2015-04-12T03:34:23.480Z</time>
      </trkpt>
      <trkpt lat="45.14941" lon="5.95133">
        <ele>2481.9</ele>
        <time>2015-04-12T03:34:52.480Z</time>
      </trkpt>
      <trkpt lat="45.14943" lon="5.95152">
        <ele>2487.6</ele>
        <time>2015-04-12T03:35:12.480Z</time>
      </trkpt>
      <trkpt lat="45.14948" lon="5.95164">
        <ele>2490</ele>
        <time>2015-04-12T03:35:24.490Z</time>
      </trkpt>
      <trkpt lat="45.14956" lon="5.95177">
        <ele>2493.8</ele>
        <time>2015-04-12T03:35:36.480Z</time>
      </trkpt>
      <trkpt lat="45.14977" lon="5.95198">
        <ele>2501</ele>
        <time>2015-04-12T03:36:04.480Z</time>
      </trkpt>
      <trkpt lat="45.1499" lon="5.95204">
        <ele>2503</ele>
        <time>2015-04-12T03:36:16.480Z</time>
      </trkpt>
      <trkpt lat="45.15009" lon="5.9522">
        <ele>2508.2</ele>
        <time>2015-04-12T03:36:32.480Z</time>
      </trkpt>
      <trkpt lat="45.15016" lon="5.95232">
        <ele>2515.1</ele>
        <time>2015-04-12T03:36:56.490Z</time>
      </trkpt>
      <trkpt lat="45.15027" lon="5.95237">
        <ele>2518</ele>
        <time>2015-04-12T03:37:04.490Z</time>
      </trkpt>
      <trkpt lat="45.15037" lon="5.95239">
        <ele>2520.6</ele>
        <time>2015-04-12T03:37:12.490Z</time>
      </trkpt>
      <trkpt lat="45.15047" lon="5.95255">
        <ele>2522</ele>
        <time>2015-04-12T03:37:20.490Z</time>
      </trkpt>
      <trkpt lat="45.15059" lon="5.95262">
        <ele>2528.2</ele>
        <time>2015-04-12T03:37:40.480Z</time>
      </trkpt>
      <trkpt lat="45.1508" lon="5.95264">
        <ele>2529.8</ele>
        <time>2015-04-12T03:37:48.480Z</time>
      </trkpt>
      <trkpt lat="45.15109" lon="5.95282">
        <ele>2529.9</ele>
        <time>2015-04-12T03:38:00.480Z</time>
      </trkpt>
      <trkpt lat="45.15117" lon="5.95294">
        <ele>2529.1</ele>
        <time>2015-04-12T03:38:08.480Z</time>
      </trkpt>
      <trkpt lat="45.15128" lon="5.95307">
        <ele>2529</ele>
        <time>2015-04-12T03:38:24.480Z</time>
      </trkpt>
      <trkpt lat="45.15143" lon="5.9533">
        <ele>2535.6</ele>
        <time>2015-04-12T03:38:48.480Z</time>
      </trkpt>
      <trkpt lat="45.15147" lon="5.95343">
        <ele>2539.1</ele>
        <time>2015-04-12T03:39:00.490Z</time>
      </trkpt>
      <trkpt lat="45.1516" lon="5.95349">
        <ele>2539.9</ele>
        <time>2015-04-12T03:39:08.490Z</time>
      </trkpt>
      <trkpt lat="45.15172" lon="5.95365">
        <ele>2546.6</ele>
        <time>2015-04-12T03:39:28.480Z</time>
      </trkpt>
      <trkpt lat="45.1518" lon="5.9538">
        <ele>2548.4</ele>
        <time>2015-04-12T03:39:36.480Z</time>
      </trkpt>
      <trkpt lat="45.1519" lon="5.95389">
        <ele>2553.7</ele>
        <time>2015-04-12T03:39:56.480Z</time>
      </trkpt>
      <trkpt lat="45.15199" lon="5.95402">
        <ele>2557.6</ele>
        <time>2015-04-12T03:40:08.480Z</time>
      </trkpt>
      <trkpt lat="45.15205" lon="5.95418">
        <ele>2562</ele>
        <time>2015-04-12T03:40:24.480Z</time>
      </trkpt>
      <trkpt lat="45.15214" lon="5.95433">
        <ele>2565.1</ele>
        <time>2015-04-12T03:40:36.490Z</time>
      </trkpt>
      <trkpt lat="45.15219" lon="5.95446">
        <ele>2570.2</ele>
        <time>2015-04-12T03:40:52.490Z</time>
      </trkpt>
      <trkpt lat="45.15226" lon="5.95459">
        <ele>2574.8</ele>
        <time>2015-04-12T03:41:08.490Z</time>
      </trkpt>
      <trkpt lat="45.1525" lon="5.95469">
        <ele>2579</ele>
        <time>2015-04-12T03:41:24.480Z</time>
      </trkpt>
      <trkpt lat="45.1526" lon="5.95476">
        <ele>2580.6</ele>
        <time>2015-04-12T03:41:32.480Z</time>
      </trkpt>
      <trkpt lat="45.15271" lon="5.95491">
        <ele>2583</ele>
        <time>2015-04-12T03:41:44.480Z</time>
      </trkpt>
      <trkpt lat="45.15286" lon="5.95494">
        <ele>2584.7</ele>
        <time>2015-04-12T03:41:56.480Z</time>
      </trkpt>
      <trkpt lat="45.15299" lon="5.95504">
        <ele>2590.9</ele>
        <time>2015-04-12T03:42:12.480Z</time>
      </trkpt>
      <trkpt lat="45.15306" lon="5.95519">
        <ele>2594.5</ele>
        <time>2015-04-12T03:42:24.490Z</time>
      </trkpt>
      <trkpt lat="45.15315" lon="5.95536">
        <ele>2598.8</ele>
        <time>2015-04-12T03:42:36.480Z</time>
      </trkpt>
      <trkpt lat="45.15327" lon="5.95542">
        <ele>2601.8</ele>
        <time>2015-04-12T03:42:48.490Z</time>
      </trkpt>
      <trkpt lat="45.15338" lon="5.95546">
        <ele>2606</ele>
        <time>2015-04-12T03:43:04.480Z</time>
      </trkpt>
      <trkpt lat="45.15342" lon="5.95561">
        <ele>2608.9</ele>
        <time>2015-04-12T03:43:12.480Z</time>
      </trkpt>
      <trkpt lat="45.15348" lon="5.95575">
        <ele>2611.3</ele>
        <time>2015-04-12T03:43:20.480Z</time>
      </trkpt>
      <trkpt lat="45.15361" lon="5.95581">
        <ele>2614.6</ele>
        <time>2015-04-12T03:43:40.480Z</time>
      </trkpt>
      <trkpt lat="45.15371" lon="5.95593">
        <ele>2619.4</ele>
        <time>2015-04-12T03:43:48.500Z</time>
      </trkpt>
      <trkpt lat="45.15386" lon="5.95603">
        <ele>2621.6</ele>
        <time>2015-04-12T03:43:57.480Z</time>
      </trkpt>
      <trkpt lat="45.15397" lon="5.95604">
        <ele>2627.7</ele>
        <time>2015-04-12T03:44:18.480Z</time>
      </trkpt>
      <trkpt lat="45.15436" lon="5.95622">
        <ele>2634.1</ele>
        <time>2015-04-12T03:44:46.480Z</time>
      </trkpt>
      <trkpt lat="45.15447" lon="5.95622">
        <ele>2635.5</ele>
        <time>2015-04-12T03:44:54.490Z</time>
      </trkpt>
      <trkpt lat="45.15459" lon="5.95621">
        <ele>2636.6</ele>
        <time>2015-04-12T03:45:02.480Z</time>
      </trkpt>
      <trkpt lat="45.15471" lon="5.95629">
        <ele>2638.1</ele>
        <time>2015-04-12T03:45:10.490Z</time>
      </trkpt>
      <trkpt lat="45.15483" lon="5.95646">
        <ele>2640.5</ele>
        <time>2015-04-12T03:45:22.480Z</time>
      </trkpt>
      <trkpt lat="45.15492" lon="5.95652">
        <ele>2644.2</ele>
        <time>2015-04-12T03:45:30.480Z</time>
      </trkpt>
      <trkpt lat="45.15503" lon="5.95661">
        <ele>2645.8</ele>
        <time>2015-04-12T03:45:38.480Z</time>
      </trkpt>
      <trkpt lat="45.15515" lon="5.95666">
        <ele>2647.5</ele>
        <time>2015-04-12T03:45:54.480Z</time>
      </trkpt>
      <trkpt lat="45.15537" lon="5.95683">
        <ele>2654</ele>
        <time>2015-04-12T03:46:14.480Z</time>
      </trkpt>
      <trkpt lat="45.15548" lon="5.95686">
        <ele>2658.1</ele>
        <time>2015-04-12T03:46:26.490Z</time>
      </trkpt>
      <trkpt lat="45.15557" lon="5.95693">
        <ele>2660</ele>
        <time>2015-04-12T03:46:34.490Z</time>
      </trkpt>
      <trkpt lat="45.15564" lon="5.95711">
        <ele>2661.7</ele>
        <time>2015-04-12T03:46:46.480Z</time>
      </trkpt>
      <trkpt lat="45.15576" lon="5.95725">
        <ele>2662</ele>
        <time>2015-04-12T03:46:54.480Z</time>
      </trkpt>
      <trkpt lat="45.15584" lon="5.95736">
        <ele>2663.2</ele>
        <time>2015-04-12T03:47:02.480Z</time>
      </trkpt>
      <trkpt lat="45.1559" lon="5.95748">
        <ele>2667.2</ele>
        <time>2015-04-12T03:47:13.500Z</time>
      </trkpt>
      <trkpt lat="45.15592" lon="5.95765">
        <ele>2669.6</ele>
        <time>2015-04-12T03:47:22.480Z</time>
      </trkpt>
      <trkpt lat="45.15598" lon="5.95784">
        <ele>2672</ele>
        <time>2015-04-12T03:47:34.500Z</time>
      </trkpt>
      <trkpt lat="45.15605" lon="5.95795">
        <ele>2673</ele>
        <time>2015-04-12T03:47:39.480Z</time>
      </trkpt>
      <trkpt lat="45.15606" lon="5.95808">
        <ele>2674.4</ele>
        <time>2015-04-12T03:47:51.480Z</time>
      </trkpt>
      <trkpt lat="45.15615" lon="5.95825">
        <ele>2676</ele>
        <time>2015-04-12T03:48:00.480Z</time>
      </trkpt>
      <trkpt lat="45.15621" lon="5.95892">
        <ele>2687</ele>
        <time>2015-04-12T03:48:44.480Z</time>
      </trkpt>
      <trkpt lat="45.15628" lon="5.95901">
        <ele>2690.5</ele>
        <time>2015-04-12T03:49:20.480Z</time>
      </trkpt>
      <trkpt lat="45.15638" lon="5.95903">
        <ele>2694.5</ele>
        <time>2015-04-12T03:49:28.480Z</time>
      </trkpt>
      <trkpt lat="45.15646" lon="5.95897">
        <ele>2704.6</ele>
        <time>2015-04-12T03:50:01.480Z</time>
      </trkpt>
      <trkpt lat="45.15649" lon="5.95885">
        <ele>2713.8</ele>
        <time>2015-04-12T03:50:26.480Z</time>
      </trkpt>
      <trkpt lat="45.15657" lon="5.95876">
        <ele>2718</ele>
        <time>2015-04-12T03:50:43.480Z</time>
      </trkpt>
      <trkpt lat="45.15669" lon="5.95872">
        <ele>2734.6</ele>
        <time>2015-04-12T03:51:43.480Z</time>
      </trkpt>
      <trkpt lat="45.15681" lon="5.95873">
        <ele>2738.1</ele>
        <time>2015-04-12T03:52:03.200Z</time>
      </trkpt>
      <trkpt lat="45.15688" lon="5.9588">
        <ele>2740.2</ele>
        <time>2015-04-12T03:52:11.480Z</time>
      </trkpt>
      <trkpt lat="45.15695" lon="5.95885">
        <ele>2742.6</ele>
        <time>2015-04-12T03:52:23.480Z</time>
      </trkpt>
      <trkpt lat="45.15705" lon="5.95887">
        <ele>2747</ele>
        <time>2015-04-12T03:52:39.480Z</time>
      </trkpt>
      <trkpt lat="45.15715" lon="5.95892">
        <ele>2752.8</ele>
        <time>2015-04-12T03:52:56.480Z</time>
      </trkpt>
      <trkpt lat="45.15725" lon="5.95888">
        <ele>2755.9</ele>
        <time>2015-04-12T03:55:00.490Z</time>
      </trkpt>
      <trkpt lat="45.15719" lon="5.9589">
        <ele>2755.8</ele>
        <time>2015-04-12T03:55:51.680Z</time>
      </trkpt>
      <trkpt lat="45.15726" lon="5.95904">
        <ele>2754</ele>
        <time>2015-04-12T03:57:36.480Z</time>
      </trkpt>
      <trkpt lat="45.15759" lon="5.95922">
        <ele>2740.5</ele>
        <time>2015-04-12T03:57:44.480Z</time>
      </trkpt>
      <trkpt lat="45.15774" lon="5.95999">
        <ele>2720.7</ele>
        <time>2015-04-12T03:57:52.480Z</time>
      </trkpt>
      <trkpt lat="45.15809" lon="5.96114">
        <ele>2705.2</ele>
        <time>2015-04-12T03:58:00.480Z</time>
      </trkpt>
      <trkpt lat="45.15835" lon="5.96172">
        <ele>2698.8</ele>
        <time>2015-04-12T03:58:08.480Z</time>
      </trkpt>
      <trkpt lat="45.15866" lon="5.96213">
        <ele>2681</ele>
        <time>2015-04-12T03:58:24.480Z</time>
      </trkpt>
      <trkpt lat="45.15872" lon="5.96242">
        <ele>2663.5</ele>
        <time>2015-04-12T03:58:44.490Z</time>
      </trkpt>
      <trkpt lat="45.15882" lon="5.96264">
        <ele>2655.5</ele>
        <time>2015-04-12T03:58:52.480Z</time>
      </trkpt>
      <trkpt lat="45.15891" lon="5.96276">
        <ele>2642.6</ele>
        <time>2015-04-12T03:59:00.480Z</time>
      </trkpt>
      <trkpt lat="45.15921" lon="5.96292">
        <ele>2623.4</ele>
        <time>2015-04-12T03:59:08.480Z</time>
      </trkpt>
      <trkpt lat="45.15961" lon="5.96347">
        <ele>2608.4</ele>
        <time>2015-04-12T03:59:16.480Z</time>
      </trkpt>
      <trkpt lat="45.16021" lon="5.96395">
        <ele>2600.5</ele>
        <time>2015-04-12T03:59:24.480Z</time>
      </trkpt>
      <trkpt lat="45.16036" lon="5.96409">
        <ele>2597.7</ele>
        <time>2015-04-12T03:59:32.480Z</time>
      </trkpt>
      <trkpt lat="45.16059" lon="5.96446">
        <ele>2596.7</ele>
        <time>2015-04-12T03:59:40.480Z</time>
      </trkpt>
      <trkpt lat="45.16049" lon="5.96454">
        <ele>2593.5</ele>
        <time>2015-04-12T04:00:04.490Z</time>
      </trkpt>
      <trkpt lat="45.16053" lon="5.9648">
        <ele>2594.3</ele>
        <time>2015-04-12T04:00:12.490Z</time>
      </trkpt>
      <trkpt lat="45.16102" lon="5.96566">
        <ele>2590.4</ele>
        <time>2015-04-12T04:00:30.200Z</time>
      </trkpt>
      <trkpt lat="45.16127" lon="5.96591">
        <ele>2585</ele>
        <time>2015-04-12T04:02:16.480Z</time>
      </trkpt>
      <trkpt lat="45.16133" lon="5.96609">
        <ele>2591.6</ele>
        <time>2015-04-12T04:02:32.480Z</time>
      </trkpt>
      <trkpt lat="45.16132" lon="5.96625">
        <ele>2594.8</ele>
        <time>2015-04-12T04:02:48.480Z</time>
      </trkpt>
      <trkpt lat="45.16137" lon="5.96638">
        <ele>2595.7</ele>
        <time>2015-04-12T04:02:56.490Z</time>
      </trkpt>
      <trkpt lat="45.16138" lon="5.96653">
        <ele>2596.9</ele>
        <time>2015-04-12T04:03:08.480Z</time>
      </trkpt>
      <trkpt lat="45.1614" lon="5.96668">
        <ele>2601.2</ele>
        <time>2015-04-12T04:03:16.480Z</time>
      </trkpt>
      <trkpt lat="45.16138" lon="5.96685">
        <ele>2605.7</ele>
        <time>2015-04-12T04:03:28.490Z</time>
      </trkpt>
      <trkpt lat="45.16144" lon="5.96697">
        <ele>2614.8</ele>
        <time>2015-04-12T04:03:56.480Z</time>
      </trkpt>
      <trkpt lat="45.16149" lon="5.96712">
        <ele>2617.8</ele>
        <time>2015-04-12T04:04:08.480Z</time>
      </trkpt>
      <trkpt lat="45.16151" lon="5.96727">
        <ele>2621.2</ele>
        <time>2015-04-12T04:04:20.480Z</time>
      </trkpt>
      <trkpt lat="45.16158" lon="5.96744">
        <ele>2628</ele>
        <time>2015-04-12T04:04:40.480Z</time>
      </trkpt>
      <trkpt lat="45.16168" lon="5.96748">
        <ele>2632.4</ele>
        <time>2015-04-12T04:05:00.490Z</time>
      </trkpt>
      <trkpt lat="45.16164" lon="5.96778">
        <ele>2639</ele>
        <time>2015-04-12T04:05:24.490Z</time>
      </trkpt>
      <trkpt lat="45.16159" lon="5.96787">
        <ele>2642.1</ele>
        <time>2015-04-12T04:05:36.480Z</time>
      </trkpt>
      <trkpt lat="45.16155" lon="5.96802">
        <ele>2646.6</ele>
        <time>2015-04-12T04:05:52.480Z</time>
      </trkpt>
      <trkpt lat="45.16148" lon="5.96814">
        <ele>2648</ele>
        <time>2015-04-12T04:06:00.480Z</time>
      </trkpt>
      <trkpt lat="45.16154" lon="5.96827">
        <ele>2652.3</ele>
        <time>2015-04-12T04:06:15.680Z</time>
      </trkpt>
      <trkpt lat="45.16175" lon="5.96862">
        <ele>2667.7</ele>
        <time>2015-04-12T04:07:03.680Z</time>
      </trkpt>
      <trkpt lat="45.1618" lon="5.96875">
        <ele>2672</ele>
        <time>2015-04-12T04:07:19.580Z</time>
      </trkpt>
      <trkpt lat="45.16191" lon="5.96878">
        <ele>2676.2</ele>
        <time>2015-04-12T04:07:35.580Z</time>
      </trkpt>
      <trkpt lat="45.162" lon="5.96883">
        <ele>2682.6</ele>
        <time>2015-04-12T04:07:51.580Z</time>
      </trkpt>
      <trkpt lat="45.162" lon="5.96904">
        <ele>2687.8</ele>
        <time>2015-04-12T04:08:11.580Z</time>
      </trkpt>
      <trkpt lat="45.1621" lon="5.96911">
        <ele>2692.6</ele>
        <time>2015-04-12T04:08:31.580Z</time>
      </trkpt>
      <trkpt lat="45.16223" lon="5.9691">
        <ele>2699.2</ele>
        <time>2015-04-12T04:08:55.580Z</time>
      </trkpt>
      <trkpt lat="45.16222" lon="5.96927">
        <ele>2703.2</ele>
        <time>2015-04-12T04:09:07.580Z</time>
      </trkpt>
      <trkpt lat="45.16234" lon="5.96926">
        <ele>2709.8</ele>
        <time>2015-04-12T04:09:35.580Z</time>
      </trkpt>
      <trkpt lat="45.16241" lon="5.96935">
        <ele>2714.2</ele>
        <time>2015-04-12T04:09:55.580Z</time>
      </trkpt>
      <trkpt lat="45.16245" lon="5.96972">
        <ele>2719.2</ele>
        <time>2015-04-12T04:10:43.580Z</time>
      </trkpt>
      <trkpt lat="45.1625" lon="5.96986">
        <ele>2721.2</ele>
        <time>2015-04-12T04:10:51.580Z</time>
      </trkpt>
      <trkpt lat="45.16239" lon="5.96985">
        <ele>2721</ele>
        <time>2015-04-12T04:11:15.580Z</time>
      </trkpt>
      <trkpt lat="45.16256" lon="5.96984">
        <ele>2722</ele>
        <time>2015-04-12T04:12:33.580Z</time>
      </trkpt>
      <trkpt lat="45.16255" lon="5.97">
        <ele>2721.4</ele>
        <time>2015-04-12T04:12:45.580Z</time>
      </trkpt>
      <trkpt lat="45.16258" lon="5.97016">
        <ele>2721</ele>
        <time>2015-04-12T04:12:55.580Z</time>
      </trkpt>
      <trkpt lat="45.16257" lon="5.97031">
        <ele>2721.3</ele>
        <time>2015-04-12T04:13:12.300Z</time>
      </trkpt>
      <trkpt lat="45.16259" lon="5.97041">
        <ele>2723.3</ele>
        <time>2015-04-12T04:13:32.590Z</time>
      </trkpt>
      <trkpt lat="45.16257" lon="5.97064">
        <ele>2733.4</ele>
        <time>2015-04-12T04:14:16.580Z</time>
      </trkpt>
      <trkpt lat="45.16249" lon="5.97067">
        <ele>2738.5</ele>
        <time>2015-04-12T04:14:44.580Z</time>
      </trkpt>
      <trkpt lat="45.16243" lon="5.97072">
        <ele>2744.4</ele>
        <time>2015-04-12T04:15:16.580Z</time>
      </trkpt>
      <trkpt lat="45.16235" lon="5.97079">
        <ele>2752.9</ele>
        <time>2015-04-12T04:16:08.580Z</time>
      </trkpt>
      <trkpt lat="45.16225" lon="5.97082">
        <ele>2766.4</ele>
        <time>2015-04-12T04:17:20.580Z</time>
      </trkpt>
      <trkpt lat="45.16221" lon="5.9711">
        <ele>2789.6</ele>
        <time>2015-04-12T04:18:57.580Z</time>
      </trkpt>
      <trkpt lat="45.16211" lon="5.97106">
        <ele>2806.3</ele>
        <time>2015-04-12T04:20:12.580Z</time>
      </trkpt>
      <trkpt lat="45.16205" lon="5.97116">
        <ele>2806.3</ele>
        <time>2015-04-12T04:21:36.580Z</time>
      </trkpt>
      <trkpt lat="45.16206" lon="5.97137">
        <ele>2804.7</ele>
        <time>2015-04-12T04:24:36.580Z</time>
      </trkpt>
      <trkpt lat="45.162" lon="5.97169">
        <ele>2785.7</ele>
        <time>2015-04-12T04:24:44.580Z</time>
      </trkpt>
      <trkpt lat="45.16228" lon="5.97296">
        <ele>2735.3</ele>
        <time>2015-04-12T04:25:00.580Z</time>
      </trkpt>
      <trkpt lat="45.16244" lon="5.97349">
        <ele>2715.3</ele>
        <time>2015-04-12T04:25:08.580Z</time>
      </trkpt>
      <trkpt lat="45.16261" lon="5.97386">
        <ele>2695.3</ele>
        <time>2015-04-12T04:25:16.580Z</time>
      </trkpt>
      <trkpt lat="45.16274" lon="5.97482">
        <ele>2677.8</ele>
        <time>2015-04-12T04:25:24.580Z</time>
      </trkpt>
      <trkpt lat="45.16303" lon="5.97516">
        <ele>2669.9</ele>
        <time>2015-04-12T04:25:32.580Z</time>
      </trkpt>
      <trkpt lat="45.16304" lon="5.97504">
        <ele>2674</ele>
        <time>2015-04-12T04:26:08.580Z</time>
      </trkpt>
      <trkpt lat="45.16297" lon="5.97498">
        <ele>2674</ele>
        <time>2015-04-12T04:26:36.580Z</time>
      </trkpt>
      <trkpt lat="45.16305" lon="5.97508">
        <ele>2675</ele>
        <time>2015-04-12T04:27:00.580Z</time>
      </trkpt>
      <trkpt lat="45.16339" lon="5.97663">
        <ele>2685</ele>
        <time>2015-04-12T04:28:16.580Z</time>
      </trkpt>
      <trkpt lat="45.16348" lon="5.97671">
        <ele>2688.6</ele>
        <time>2015-04-12T04:28:28.580Z</time>
      </trkpt>
      <trkpt lat="45.16355" lon="5.97689">
        <ele>2692.5</ele>
        <time>2015-04-12T04:28:36.580Z</time>
      </trkpt>
      <trkpt lat="45.16364" lon="5.97701">
        <ele>2695.8</ele>
        <time>2015-04-12T04:28:48.580Z</time>
      </trkpt>
      <trkpt lat="45.16367" lon="5.97717">
        <ele>2698.2</ele>
        <time>2015-04-12T04:29:00.580Z</time>
      </trkpt>
      <trkpt lat="45.16386" lon="5.97745">
        <ele>2700</ele>
        <time>2015-04-12T04:29:16.580Z</time>
      </trkpt>
      <trkpt lat="45.16396" lon="5.97754">
        <ele>2701.5</ele>
        <time>2015-04-12T04:29:24.580Z</time>
      </trkpt>
      <trkpt lat="45.16403" lon="5.97766">
        <ele>2704.2</ele>
        <time>2015-04-12T04:29:32.580Z</time>
      </trkpt>
      <trkpt lat="45.16408" lon="5.9778">
        <ele>2707.5</ele>
        <time>2015-04-12T04:29:44.590Z</time>
      </trkpt>
      <trkpt lat="45.16415" lon="5.9779">
        <ele>2709.6</ele>
        <time>2015-04-12T04:29:52.590Z</time>
      </trkpt>
      <trkpt lat="45.16426" lon="5.978">
        <ele>2713</ele>
        <time>2015-04-12T04:30:00.580Z</time>
      </trkpt>
      <trkpt lat="45.16446" lon="5.97829">
        <ele>2712.3</ele>
        <time>2015-04-12T04:30:16.580Z</time>
      </trkpt>
      <trkpt lat="45.16452" lon="5.97845">
        <ele>2716.5</ele>
        <time>2015-04-12T04:30:28.580Z</time>
      </trkpt>
      <trkpt lat="45.16461" lon="5.97857">
        <ele>2717</ele>
        <time>2015-04-12T04:30:36.580Z</time>
      </trkpt>
      <trkpt lat="45.16472" lon="5.97892">
        <ele>2718.7</ele>
        <time>2015-04-12T04:30:56.580Z</time>
      </trkpt>
      <trkpt lat="45.16475" lon="5.97909">
        <ele>2719.5</ele>
        <time>2015-04-12T04:31:04.580Z</time>
      </trkpt>
      <trkpt lat="45.16493" lon="5.97941">
        <ele>2719.4</ele>
        <time>2015-04-12T04:31:20.580Z</time>
      </trkpt>
      <trkpt lat="45.165" lon="5.97959">
        <ele>2723.6</ele>
        <time>2015-04-12T04:31:32.580Z</time>
      </trkpt>
      <trkpt lat="45.16503" lon="5.97979">
        <ele>2726</ele>
        <time>2015-04-12T04:31:44.580Z</time>
      </trkpt>
      <trkpt lat="45.16509" lon="5.97994">
        <ele>2727</ele>
        <time>2015-04-12T04:31:52.580Z</time>
      </trkpt>
      <trkpt lat="45.16518" lon="5.98007">
        <ele>2727.1</ele>
        <time>2015-04-12T04:32:00.580Z</time>
      </trkpt>
      <trkpt lat="45.16529" lon="5.98035">
        <ele>2730.1</ele>
        <time>2015-04-12T04:32:16.590Z</time>
      </trkpt>
      <trkpt lat="45.16534" lon="5.98051">
        <ele>2732.8</ele>
        <time>2015-04-12T04:32:28.580Z</time>
      </trkpt>
      <trkpt lat="45.16532" lon="5.98065">
        <ele>2736.4</ele>
        <time>2015-04-12T04:32:40.590Z</time>
      </trkpt>
      <trkpt lat="45.16535" lon="5.98083">
        <ele>2741.2</ele>
        <time>2015-04-12T04:32:52.580Z</time>
      </trkpt>
      <trkpt lat="45.16529" lon="5.98096">
        <ele>2744.2</ele>
        <time>2015-04-12T04:33:00.580Z</time>
      </trkpt>
      <trkpt lat="45.1652" lon="5.9811">
        <ele>2747.2</ele>
        <time>2015-04-12T04:33:12.580Z</time>
      </trkpt>
      <trkpt lat="45.16527" lon="5.98126">
        <ele>2753.8</ele>
        <time>2015-04-12T04:33:32.300Z</time>
      </trkpt>
      <trkpt lat="45.16528" lon="5.98141">
        <ele>2757.5</ele>
        <time>2015-04-12T04:33:44.580Z</time>
      </trkpt>
      <trkpt lat="45.16534" lon="5.98161">
        <ele>2761.8</ele>
        <time>2015-04-12T04:33:56.580Z</time>
      </trkpt>
      <trkpt lat="45.16541" lon="5.98172">
        <ele>2762</ele>
        <time>2015-04-12T04:34:04.580Z</time>
      </trkpt>
      <trkpt lat="45.16544" lon="5.98188">
        <ele>2761.9</ele>
        <time>2015-04-12T04:34:12.580Z</time>
      </trkpt>
      <trkpt lat="45.16552" lon="5.98204">
        <ele>2764</ele>
        <time>2015-04-12T04:34:24.580Z</time>
      </trkpt>
      <trkpt lat="45.16556" lon="5.98219">
        <ele>2764.9</ele>
        <time>2015-04-12T04:34:32.580Z</time>
      </trkpt>
      <trkpt lat="45.16564" lon="5.98233">
        <ele>2768.5</ele>
        <time>2015-04-12T04:34:44.590Z</time>
      </trkpt>
      <trkpt lat="45.16581" lon="5.98306">
        <ele>2781</ele>
        <time>2015-04-12T04:35:24.580Z</time>
      </trkpt>
      <trkpt lat="45.16606" lon="5.98358">
        <ele>2782</ele>
        <time>2015-04-12T04:35:52.590Z</time>
      </trkpt>
      <trkpt lat="45.16618" lon="5.98371">
        <ele>2782.6</ele>
        <time>2015-04-12T04:36:00.590Z</time>
      </trkpt>
      <trkpt lat="45.16621" lon="5.98389">
        <ele>2787</ele>
        <time>2015-04-12T04:36:12.580Z</time>
      </trkpt>
      <trkpt lat="45.16629" lon="5.98399">
        <ele>2787.4</ele>
        <time>2015-04-12T04:36:20.580Z</time>
      </trkpt>
      <trkpt lat="45.16638" lon="5.98407">
        <ele>2791.3</ele>
        <time>2015-04-12T04:36:32.580Z</time>
      </trkpt>
      <trkpt lat="45.16644" lon="5.9842">
        <ele>2794</ele>
        <time>2015-04-12T04:36:44.580Z</time>
      </trkpt>
      <trkpt lat="45.16648" lon="5.98434">
        <ele>2798.8</ele>
        <time>2015-04-12T04:36:56.580Z</time>
      </trkpt>
      <trkpt lat="45.1665" lon="5.9845">
        <ele>2802.7</ele>
        <time>2015-04-12T04:37:08.590Z</time>
      </trkpt>
      <trkpt lat="45.16649" lon="5.98467">
        <ele>2806</ele>
        <time>2015-04-12T04:37:24.590Z</time>
      </trkpt>
      <trkpt lat="45.1665" lon="5.98482">
        <ele>2807.9</ele>
        <time>2015-04-12T04:37:32.580Z</time>
      </trkpt>
      <trkpt lat="45.16656" lon="5.98494">
        <ele>2810.4</ele>
        <time>2015-04-12T04:37:40.580Z</time>
      </trkpt>
      <trkpt lat="45.16656" lon="5.98513">
        <ele>2816.1</ele>
        <time>2015-04-12T04:37:56.580Z</time>
      </trkpt>
      <trkpt lat="45.16666" lon="5.98521">
        <ele>2821.4</ele>
        <time>2015-04-12T04:38:16.590Z</time>
      </trkpt>
      <trkpt lat="45.16664" lon="5.98534">
        <ele>2824.7</ele>
        <time>2015-04-12T04:38:28.580Z</time>
      </trkpt>
      <trkpt lat="45.16667" lon="5.98555">
        <ele>2827</ele>
        <time>2015-04-12T04:38:44.580Z</time>
      </trkpt>
      <trkpt lat="45.16675" lon="5.98586">
        <ele>2834</ele>
        <time>2015-04-12T04:39:04.580Z</time>
      </trkpt>
      <trkpt lat="45.16682" lon="5.98597">
        <ele>2837.1</ele>
        <time>2015-04-12T04:39:16.580Z</time>
      </trkpt>
      <trkpt lat="45.16684" lon="5.98615">
        <ele>2839.8</ele>
        <time>2015-04-12T04:39:28.580Z</time>
      </trkpt>
      <trkpt lat="45.16692" lon="5.98643">
        <ele>2843.5</ele>
        <time>2015-04-12T04:39:44.580Z</time>
      </trkpt>
      <trkpt lat="45.16692" lon="5.98661">
        <ele>2847.4</ele>
        <time>2015-04-12T04:39:56.590Z</time>
      </trkpt>
      <trkpt lat="45.16693" lon="5.98679">
        <ele>2851.6</ele>
        <time>2015-04-12T04:40:08.580Z</time>
      </trkpt>
      <trkpt lat="45.16697" lon="5.98695">
        <ele>2854.2</ele>
        <time>2015-04-12T04:40:20.580Z</time>
      </trkpt>
      <trkpt lat="45.16698" lon="5.98711">
        <ele>2855.8</ele>
        <time>2015-04-12T04:40:28.580Z</time>
      </trkpt>
      <trkpt lat="45.16704" lon="5.98731">
        <ele>2861</ele>
        <time>2015-04-12T04:40:44.580Z</time>
      </trkpt>
      <trkpt lat="45.16708" lon="5.98777">
        <ele>2871.6</ele>
        <time>2015-04-12T04:41:28.580Z</time>
      </trkpt>
      <trkpt lat="45.16718" lon="5.9878">
        <ele>2874.4</ele>
        <time>2015-04-12T04:42:20.590Z</time>
      </trkpt>
      <trkpt lat="45.16728" lon="5.98778">
        <ele>2879.9</ele>
        <time>2015-04-12T04:42:32.580Z</time>
      </trkpt>
      <trkpt lat="45.16743" lon="5.98787">
        <ele>2885.8</ele>
        <time>2015-04-12T04:42:48.580Z</time>
      </trkpt>
      <trkpt lat="45.16757" lon="5.98791">
        <ele>2888.1</ele>
        <time>2015-04-12T04:42:56.580Z</time>
      </trkpt>
      <trkpt lat="45.16765" lon="5.98802">
        <ele>2892.5</ele>
        <time>2015-04-12T04:43:12.580Z</time>
      </trkpt>
      <trkpt lat="45.16784" lon="5.98795">
        <ele>2900.1</ele>
        <time>2015-04-12T04:43:36.590Z</time>
      </trkpt>
      <trkpt lat="45.16795" lon="5.98792">
        <ele>2903.7</ele>
        <time>2015-04-12T04:43:48.580Z</time>
      </trkpt>
      <trkpt lat="45.16806" lon="5.98791">
        <ele>2909.3</ele>
        <time>2015-04-12T04:44:00.590Z</time>
      </trkpt>
      <trkpt lat="45.16815" lon="5.98803">
        <ele>2912.9</ele>
        <time>2015-04-12T04:44:12.580Z</time>
      </trkpt>
      <trkpt lat="45.16825" lon="5.98802">
        <ele>2915.3</ele>
        <time>2015-04-12T04:44:20.580Z</time>
      </trkpt>
      <trkpt lat="45.16833" lon="5.98809">
        <ele>2919.2</ele>
        <time>2015-04-12T04:44:32.580Z</time>
      </trkpt>
      <trkpt lat="45.16845" lon="5.98805">
        <ele>2922.3</ele>
        <time>2015-04-12T04:44:40.580Z</time>
      </trkpt>
      <trkpt lat="45.16855" lon="5.98808">
        <ele>2925.6</ele>
        <time>2015-04-12T04:44:52.590Z</time>
      </trkpt>
      <trkpt lat="45.16803" lon="5.98776">
        <ele>2915.8</ele>
        <time>2015-04-12T04:48:44.590Z</time>
      </trkpt>
      <trkpt lat="45.16774" lon="5.98714">
        <ele>2893.9</ele>
        <time>2015-04-12T04:48:52.590Z</time>
      </trkpt>
      <trkpt lat="45.16734" lon="5.98658">
        <ele>2863.6</ele>
        <time>2015-04-12T04:49:00.590Z</time>
      </trkpt>
      <trkpt lat="45.16686" lon="5.98558">
        <ele>2838.8</ele>
        <time>2015-04-12T04:49:08.590Z</time>
      </trkpt>
      <trkpt lat="45.16681" lon="5.98443">
        <ele>2816.8</ele>
        <time>2015-04-12T04:49:16.590Z</time>
      </trkpt>
      <trkpt lat="45.16704" lon="5.98339">
        <ele>2806.4</ele>
        <time>2015-04-12T04:49:24.590Z</time>
      </trkpt>
      <trkpt lat="45.16678" lon="5.98287">
        <ele>2803.7</ele>
        <time>2015-04-12T04:49:32.590Z</time>
      </trkpt>
      <trkpt lat="45.16662" lon="5.98238">
        <ele>2802.8</ele>
        <time>2015-04-12T04:49:40.580Z</time>
      </trkpt>
      <trkpt lat="45.16661" lon="5.98189">
        <ele>2801.2</ele>
        <time>2015-04-12T04:49:48.580Z</time>
      </trkpt>
      <trkpt lat="45.16694" lon="5.98122">
        <ele>2801</ele>
        <time>2015-04-12T04:50:04.580Z</time>
      </trkpt>
      <trkpt lat="45.16727" lon="5.98092">
        <ele>2801</ele>
        <time>2015-04-12T04:50:12.580Z</time>
      </trkpt>
      <trkpt lat="45.16739" lon="5.98093">
        <ele>2801</ele>
        <time>2015-04-12T04:50:24.580Z</time>
      </trkpt>
      <trkpt lat="45.16758" lon="5.98108">
        <ele>2799.4</ele>
        <time>2015-04-12T04:50:40.590Z</time>
      </trkpt>
      <trkpt lat="45.16769" lon="5.98099">
        <ele>2792.8</ele>
        <time>2015-04-12T04:51:00.580Z</time>
      </trkpt>
      <trkpt lat="45.16773" lon="5.98115">
        <ele>2785.7</ele>
        <time>2015-04-12T04:51:24.300Z</time>
      </trkpt>
      <trkpt lat="45.16781" lon="5.98128">
        <ele>2770.7</ele>
        <time>2015-04-12T04:51:38.780Z</time>
      </trkpt>
      <trkpt lat="45.168" lon="5.98125">
        <ele>2753.6</ele>
        <time>2015-04-12T04:52:01.500Z</time>
      </trkpt>
      <trkpt lat="45.16812" lon="5.9813">
        <ele>2745.9</ele>
        <time>2015-04-12T04:52:26.300Z</time>
      </trkpt>
      <trkpt lat="45.16814" lon="5.98149">
        <ele>2737.4</ele>
        <time>2015-04-12T04:52:32.780Z</time>
      </trkpt>
      <trkpt lat="45.16827" lon="5.98158">
        <ele>2723.6</ele>
        <time>2015-04-12T04:52:44.300Z</time>
      </trkpt>
      <trkpt lat="45.16831" lon="5.98141">
        <ele>2711</ele>
        <time>2015-04-12T04:53:02.200Z</time>
      </trkpt>
      <trkpt lat="45.16859" lon="5.98185">
        <ele>2671</ele>
        <time>2015-04-12T04:53:20.400Z</time>
      </trkpt>
      <trkpt lat="45.16863" lon="5.98233">
        <ele>2653.6</ele>
        <time>2015-04-12T04:53:28.300Z</time>
      </trkpt>
      <trkpt lat="45.16857" lon="5.98279">
        <ele>2640.8</ele>
        <time>2015-04-12T04:53:36.780Z</time>
      </trkpt>
      <trkpt lat="45.16899" lon="5.9829">
        <ele>2625.9</ele>
        <time>2015-04-12T04:53:44.780Z</time>
      </trkpt>
      <trkpt lat="45.16926" lon="5.98209">
        <ele>2608</ele>
        <time>2015-04-12T04:53:52.580Z</time>
      </trkpt>
      <trkpt lat="45.16957" lon="5.98192">
        <ele>2587.1</ele>
        <time>2015-04-12T04:54:00.580Z</time>
      </trkpt>
      <trkpt lat="45.16994" lon="5.98215">
        <ele>2565.5</ele>
        <time>2015-04-12T04:54:08.580Z</time>
      </trkpt>
      <trkpt lat="45.17044" lon="5.98258">
        <ele>2536.1</ele>
        <time>2015-04-12T04:54:16.580Z</time>
      </trkpt>
      <trkpt lat="45.17135" lon="5.98301">
        <ele>2502.6</ele>
        <time>2015-04-12T04:54:24.580Z</time>
      </trkpt>
      <trkpt lat="45.1722" lon="5.9839">
        <ele>2476.1</ele>
        <time>2015-04-12T04:54:32.580Z</time>
      </trkpt>
      <trkpt lat="45.17294" lon="5.98412">
        <ele>2461.3</ele>
        <time>2015-04-12T04:54:40.580Z</time>
      </trkpt>
      <trkpt lat="45.17367" lon="5.98419">
        <ele>2433.4</ele>
        <time>2015-04-12T04:54:48.780Z</time>
      </trkpt>
      <trkpt lat="45.17445" lon="5.98461">
        <ele>2421.1</ele>
        <time>2015-04-12T04:54:56.580Z</time>
      </trkpt>
      <trkpt lat="45.17505" lon="5.98386">
        <ele>2413.4</ele>
        <time>2015-04-12T04:55:04.580Z</time>
      </trkpt>
      <trkpt lat="45.17556" lon="5.98333">
        <ele>2408.5</ele>
        <time>2015-04-12T04:55:12.580Z</time>
      </trkpt>
      <trkpt lat="45.17596" lon="5.98331">
        <ele>2399.9</ele>
        <time>2015-04-12T04:55:24.580Z</time>
      </trkpt>
      <trkpt lat="45.17639" lon="5.98338">
        <ele>2393.7</ele>
        <time>2015-04-12T04:55:32.780Z</time>
      </trkpt>
      <trkpt lat="45.17669" lon="5.98323">
        <ele>2390</ele>
        <time>2015-04-12T04:55:44.590Z</time>
      </trkpt>
      <trkpt lat="45.17693" lon="5.98323">
        <ele>2388.7</ele>
        <time>2015-04-12T04:55:52.590Z</time>
      </trkpt>
      <trkpt lat="45.17717" lon="5.98334">
        <ele>2387.1</ele>
        <time>2015-04-12T04:56:00.780Z</time>
      </trkpt>
      <trkpt lat="45.17741" lon="5.98337">
        <ele>2381.5</ele>
        <time>2015-04-12T04:56:08.780Z</time>
      </trkpt>
      <trkpt lat="45.17751" lon="5.98331">
        <ele>2381</ele>
        <time>2015-04-12T04:56:16.580Z</time>
      </trkpt>
      <trkpt lat="45.17757" lon="5.98346">
        <ele>2385.3</ele>
        <time>2015-04-12T04:57:20.580Z</time>
      </trkpt>
      <trkpt lat="45.17765" lon="5.98358">
        <ele>2387.7</ele>
        <time>2015-04-12T04:57:28.580Z</time>
      </trkpt>
      <trkpt lat="45.17787" lon="5.98371">
        <ele>2403</ele>
        <time>2015-04-12T04:58:24.580Z</time>
      </trkpt>
      <trkpt lat="45.17798" lon="5.98368">
        <ele>2407</ele>
        <time>2015-04-12T04:58:44.580Z</time>
      </trkpt>
      <trkpt lat="45.1781" lon="5.98378">
        <ele>2412.5</ele>
        <time>2015-04-12T04:59:04.590Z</time>
      </trkpt>
      <trkpt lat="45.17822" lon="5.98371">
        <ele>2418.7</ele>
        <time>2015-04-12T04:59:28.020Z</time>
      </trkpt>
      <trkpt lat="45.17844" lon="5.98366">
        <ele>2428.5</ele>
        <time>2015-04-12T05:00:04.580Z</time>
      </trkpt>
      <trkpt lat="45.17855" lon="5.98365">
        <ele>2432.2</ele>
        <time>2015-04-12T05:00:32.580Z</time>
      </trkpt>
      <trkpt lat="45.17864" lon="5.98361">
        <ele>2435.9</ele>
        <time>2015-04-12T05:00:48.580Z</time>
      </trkpt>
      <trkpt lat="45.17874" lon="5.98373">
        <ele>2438.1</ele>
        <time>2015-04-12T05:00:56.590Z</time>
      </trkpt>
      <trkpt lat="45.17889" lon="5.98374">
        <ele>2448.6</ele>
        <time>2015-04-12T05:01:32.580Z</time>
      </trkpt>
      <trkpt lat="45.17902" lon="5.98378">
        <ele>2454.4</ele>
        <time>2015-04-12T05:01:56.580Z</time>
      </trkpt>
      <trkpt lat="45.17913" lon="5.98383">
        <ele>2455</ele>
        <time>2015-04-12T05:02:04.580Z</time>
      </trkpt>
      <trkpt lat="45.17927" lon="5.98393">
        <ele>2455</ele>
        <time>2015-04-12T05:02:16.580Z</time>
      </trkpt>
      <trkpt lat="45.17939" lon="5.98394">
        <ele>2454.5</ele>
        <time>2015-04-12T05:02:24.580Z</time>
      </trkpt>
      <trkpt lat="45.17949" lon="5.98395">
        <ele>2454.3</ele>
        <time>2015-04-12T05:02:32.580Z</time>
      </trkpt>
      <trkpt lat="45.17961" lon="5.98394">
        <ele>2456.5</ele>
        <time>2015-04-12T05:02:44.590Z</time>
      </trkpt>
      <trkpt lat="45.17972" lon="5.98388">
        <ele>2458</ele>
        <time>2015-04-12T05:02:52.590Z</time>
      </trkpt>
      <trkpt lat="45.17988" lon="5.98383">
        <ele>2459</ele>
        <time>2015-04-12T05:03:04.580Z</time>
      </trkpt>
      <trkpt lat="45.18002" lon="5.98391">
        <ele>2462.1</ele>
        <time>2015-04-12T05:03:16.590Z</time>
      </trkpt>
      <trkpt lat="45.18015" lon="5.9839">
        <ele>2463</ele>
        <time>2015-04-12T05:03:32.590Z</time>
      </trkpt>
      <trkpt lat="45.18027" lon="5.98383">
        <ele>2468.9</ele>
        <time>2015-04-12T05:03:52.580Z</time>
      </trkpt>
      <trkpt lat="45.18036" lon="5.98374">
        <ele>2472.9</ele>
        <time>2015-04-12T05:04:12.580Z</time>
      </trkpt>
      <trkpt lat="45.1805" lon="5.98365">
        <ele>2479.8</ele>
        <time>2015-04-12T05:04:36.580Z</time>
      </trkpt>
      <trkpt lat="45.18061" lon="5.98366">
        <ele>2485.4</ele>
        <time>2015-04-12T05:04:56.590Z</time>
      </trkpt>
      <trkpt lat="45.18071" lon="5.98362">
        <ele>2490.1</ele>
        <time>2015-04-12T05:05:16.580Z</time>
      </trkpt>
      <trkpt lat="45.1808" lon="5.98367">
        <ele>2492</ele>
        <time>2015-04-12T05:05:24.580Z</time>
      </trkpt>
      <trkpt lat="45.18101" lon="5.98355">
        <ele>2501.9</ele>
        <time>2015-04-12T05:06:00.580Z</time>
      </trkpt>
      <trkpt lat="45.18113" lon="5.98356">
        <ele>2501.1</ele>
        <time>2015-04-12T05:06:08.580Z</time>
      </trkpt>
      <trkpt lat="45.18124" lon="5.98367">
        <ele>2506.1</ele>
        <time>2015-04-12T05:08:00.580Z</time>
      </trkpt>
      <trkpt lat="45.18133" lon="5.98381">
        <ele>2506.9</ele>
        <time>2015-04-12T05:08:08.580Z</time>
      </trkpt>
      <trkpt lat="45.18141" lon="5.98391">
        <ele>2509.8</ele>
        <time>2015-04-12T05:08:16.580Z</time>
      </trkpt>
      <trkpt lat="45.18166" lon="5.98409">
        <ele>2510.7</ele>
        <time>2015-04-12T05:08:32.590Z</time>
      </trkpt>
      <trkpt lat="45.18203" lon="5.98423">
        <ele>2511.1</ele>
        <time>2015-04-12T05:08:56.590Z</time>
      </trkpt>
      <trkpt lat="45.18327" lon="5.98486">
        <ele>2496.7</ele>
        <time>2015-04-12T05:09:36.580Z</time>
      </trkpt>
      <trkpt lat="45.18363" lon="5.98511">
        <ele>2491.4</ele>
        <time>2015-04-12T05:09:44.580Z</time>
      </trkpt>
      <trkpt lat="45.18393" lon="5.98527">
        <ele>2488</ele>
        <time>2015-04-12T05:09:56.580Z</time>
      </trkpt>
      <trkpt lat="45.18405" lon="5.98535">
        <ele>2487.5</ele>
        <time>2015-04-12T05:10:04.580Z</time>
      </trkpt>
      <trkpt lat="45.18419" lon="5.98568">
        <ele>2488.5</ele>
        <time>2015-04-12T05:10:24.580Z</time>
      </trkpt>
      <trkpt lat="45.18437" lon="5.98587">
        <ele>2493.9</ele>
        <time>2015-04-12T05:10:48.580Z</time>
      </trkpt>
      <trkpt lat="45.18453" lon="5.98616">
        <ele>2496.3</ele>
        <time>2015-04-12T05:11:00.590Z</time>
      </trkpt>
      <trkpt lat="45.18465" lon="5.98617">
        <ele>2503.5</ele>
        <time>2015-04-12T05:11:24.590Z</time>
      </trkpt>
      <trkpt lat="45.18473" lon="5.98603">
        <ele>2505.9</ele>
        <time>2015-04-12T05:11:32.590Z</time>
      </trkpt>
      <trkpt lat="45.18482" lon="5.98596">
        <ele>2508.3</ele>
        <time>2015-04-12T05:11:40.580Z</time>
      </trkpt>
      <trkpt lat="45.18485" lon="5.98581">
        <ele>2513.1</ele>
        <time>2015-04-12T05:11:56.580Z</time>
      </trkpt>
      <trkpt lat="45.18491" lon="5.98569">
        <ele>2515.5</ele>
        <time>2015-04-12T05:12:04.580Z</time>
      </trkpt>
      <trkpt lat="45.18499" lon="5.9856">
        <ele>2518.4</ele>
        <time>2015-04-12T05:12:16.580Z</time>
      </trkpt>
      <trkpt lat="45.1851" lon="5.98567">
        <ele>2527</ele>
        <time>2015-04-12T05:12:44.580Z</time>
      </trkpt>
      <trkpt lat="45.18519" lon="5.98556">
        <ele>2529.3</ele>
        <time>2015-04-12T05:13:00.580Z</time>
      </trkpt>
      <trkpt lat="45.18529" lon="5.9855">
        <ele>2535.3</ele>
        <time>2015-04-12T05:13:20.590Z</time>
      </trkpt>
      <trkpt lat="45.1854" lon="5.98546">
        <ele>2538</ele>
        <time>2015-04-12T05:13:36.590Z</time>
      </trkpt>
      <trkpt lat="45.18549" lon="5.98541">
        <ele>2539.5</ele>
        <time>2015-04-12T05:13:44.580Z</time>
      </trkpt>
      <trkpt lat="45.18568" lon="5.98519">
        <ele>2545</ele>
        <time>2015-04-12T05:14:04.580Z</time>
      </trkpt>
      <trkpt lat="45.18577" lon="5.98514">
        <ele>2548.1</ele>
        <time>2015-04-12T05:14:16.580Z</time>
      </trkpt>
      <trkpt lat="45.18587" lon="5.98518">
        <ele>2550.5</ele>
        <time>2015-04-12T05:14:24.580Z</time>
      </trkpt>
      <trkpt lat="45.18597" lon="5.98521">
        <ele>2552.6</ele>
        <time>2015-04-12T05:14:32.580Z</time>
      </trkpt>
      <trkpt lat="45.18605" lon="5.98505">
        <ele>2557.6</ele>
        <time>2015-04-12T05:14:48.580Z</time>
      </trkpt>
      <trkpt lat="45.18615" lon="5.98511">
        <ele>2562.5</ele>
        <time>2015-04-12T05:15:04.580Z</time>
      </trkpt>
      <trkpt lat="45.18626" lon="5.9851">
        <ele>2566.3</ele>
        <time>2015-04-12T05:15:20.580Z</time>
      </trkpt>
      <trkpt lat="45.18634" lon="5.985">
        <ele>2574</ele>
        <time>2015-04-12T05:15:44.580Z</time>
      </trkpt>
      <trkpt lat="45.18648" lon="5.98507">
        <ele>2578.1</ele>
        <time>2015-04-12T05:15:56.580Z</time>
      </trkpt>
      <trkpt lat="45.18659" lon="5.98505">
        <ele>2580</ele>
        <time>2015-04-12T05:16:04.580Z</time>
      </trkpt>
      <trkpt lat="45.18671" lon="5.985">
        <ele>2581.3</ele>
        <time>2015-04-12T05:16:12.580Z</time>
      </trkpt>
      <trkpt lat="45.1868" lon="5.98507">
        <ele>2583.5</ele>
        <time>2015-04-12T05:16:24.580Z</time>
      </trkpt>
      <trkpt lat="45.1869" lon="5.98517">
        <ele>2587.3</ele>
        <time>2015-04-12T05:16:40.580Z</time>
      </trkpt>
      <trkpt lat="45.18702" lon="5.98519">
        <ele>2592.8</ele>
        <time>2015-04-12T05:16:56.590Z</time>
      </trkpt>
      <trkpt lat="45.1872" lon="5.98517">
        <ele>2595.6</ele>
        <time>2015-04-12T05:17:04.780Z</time>
      </trkpt>
      <trkpt lat="45.18733" lon="5.98521">
        <ele>2600.1</ele>
        <time>2015-04-12T05:17:24.780Z</time>
      </trkpt>
      <trkpt lat="45.1874" lon="5.98531">
        <ele>2603.2</ele>
        <time>2015-04-12T05:17:36.780Z</time>
      </trkpt>
      <trkpt lat="45.18745" lon="5.98566">
        <ele>2612.7</ele>
        <time>2015-04-12T05:18:12.780Z</time>
      </trkpt>
      <trkpt lat="45.18741" lon="5.98579">
        <ele>2614</ele>
        <time>2015-04-12T05:18:28.790Z</time>
      </trkpt>
      <trkpt lat="45.18746" lon="5.98585">
        <ele>2618.1</ele>
        <time>2015-04-12T05:19:04.780Z</time>
      </trkpt>
      <trkpt lat="45.18748" lon="5.98597">
        <ele>2624.3</ele>
        <time>2015-04-12T05:19:20.780Z</time>
      </trkpt>
      <trkpt lat="45.18757" lon="5.98622">
        <ele>2639.7</ele>
        <time>2015-04-12T05:20:08.790Z</time>
      </trkpt>
      <trkpt lat="45.18759" lon="5.98631">
        <ele>2645</ele>
        <time>2015-04-12T05:20:32.790Z</time>
      </trkpt>
      <trkpt lat="45.18767" lon="5.98639">
        <ele>2654.1</ele>
        <time>2015-04-12T05:21:04.780Z</time>
      </trkpt>
      <trkpt lat="45.18769" lon="5.98658">
        <ele>2659.9</ele>
        <time>2015-04-12T05:21:28.580Z</time>
      </trkpt>
      <trkpt lat="45.18788" lon="5.98676">
        <ele>2676.7</ele>
        <time>2015-04-12T05:22:28.580Z</time>
      </trkpt>
      <trkpt lat="45.18789" lon="5.9869">
        <ele>2688</ele>
        <time>2015-04-12T05:23:12.780Z</time>
      </trkpt>
      <trkpt lat="45.18797" lon="5.98718">
        <ele>2708.6</ele>
        <time>2015-04-12T05:25:18.590Z</time>
      </trkpt>
      <trkpt lat="45.18807" lon="5.98723">
        <ele>2716.5</ele>
        <time>2015-04-12T05:25:54.580Z</time>
      </trkpt>
      <trkpt lat="45.18799" lon="5.98736">
        <ele>2721.2</ele>
        <time>2015-04-12T05:26:10.580Z</time>
      </trkpt>
      <trkpt lat="45.1881" lon="5.98742">
        <ele>2727.8</ele>
        <time>2015-04-12T05:26:38.580Z</time>
      </trkpt>
      <trkpt lat="45.18811" lon="5.98757">
        <ele>2737.5</ele>
        <time>2015-04-12T05:27:14.590Z</time>
      </trkpt>
      <trkpt lat="45.18807" lon="5.98765">
        <ele>2750.4</ele>
        <time>2015-04-12T05:28:10.780Z</time>
      </trkpt>
      <trkpt lat="45.18807" lon="5.98773">
        <ele>2757.3</ele>
        <time>2015-04-12T05:28:30.780Z</time>
      </trkpt>
      <trkpt lat="45.18807" lon="5.98779">
        <ele>2760</ele>
        <time>2015-04-12T05:29:10.780Z</time>
      </trkpt>
      <trkpt lat="45.18811" lon="5.98782">
        <ele>2761.5</ele>
        <time>2015-04-12T05:29:30.780Z</time>
      </trkpt>
      <trkpt lat="45.18816" lon="5.98789">
        <ele>2767</ele>
        <time>2015-04-12T05:30:18.780Z</time>
      </trkpt>
      <trkpt lat="45.1882" lon="5.98792">
        <ele>2767</ele>
        <time>2015-04-12T05:31:02.790Z</time>
      </trkpt>
      <trkpt lat="45.18823" lon="5.98796">
        <ele>2768.1</ele>
        <time>2015-04-12T05:31:14.780Z</time>
      </trkpt>
      <trkpt lat="45.18817" lon="5.98792">
        <ele>2768.5</ele>
        <time>2015-04-12T05:32:06.780Z</time>
      </trkpt>
      <trkpt lat="45.18812" lon="5.98784">
        <ele>2768.5</ele>
        <time>2015-04-12T05:32:14.780Z</time>
      </trkpt>
      <trkpt lat="45.18805" lon="5.98781">
        <ele>2768</ele>
        <time>2015-04-12T05:32:22.780Z</time>
      </trkpt>
      <trkpt lat="45.18804" lon="5.98772">
        <ele>2766.2</ele>
        <time>2015-04-12T05:32:50.790Z</time>
      </trkpt>
      <trkpt lat="45.18805" lon="5.98764">
        <ele>2761.4</ele>
        <time>2015-04-12T05:32:58.790Z</time>
      </trkpt>
      <trkpt lat="45.18809" lon="5.98756">
        <ele>2755.9</ele>
        <time>2015-04-12T05:33:06.790Z</time>
      </trkpt>
      <trkpt lat="45.1883" lon="5.98764">
        <ele>2744</ele>
        <time>2015-04-12T05:38:21.400Z</time>
      </trkpt>
      <trkpt lat="45.1884" lon="5.9876">
        <ele>2728.6</ele>
        <time>2015-04-12T05:38:51.500Z</time>
      </trkpt>
      <trkpt lat="45.18854" lon="5.98761">
        <ele>2721.8</ele>
        <time>2015-04-12T05:39:19.780Z</time>
      </trkpt>
      <trkpt lat="45.18883" lon="5.98752">
        <ele>2700</ele>
        <time>2015-04-12T05:39:44.500Z</time>
      </trkpt>
      <trkpt lat="45.18906" lon="5.9876">
        <ele>2687.5</ele>
        <time>2015-04-12T05:39:52.500Z</time>
      </trkpt>
      <trkpt lat="45.18902" lon="5.98772">
        <ele>2674.8</ele>
        <time>2015-04-12T05:40:00.790Z</time>
      </trkpt>
      <trkpt lat="45.18907" lon="5.98793">
        <ele>2655.8</ele>
        <time>2015-04-12T05:40:40.790Z</time>
      </trkpt>
      <trkpt lat="45.18956" lon="5.98813">
        <ele>2630.3</ele>
        <time>2015-04-12T05:40:48.780Z</time>
      </trkpt>
      <trkpt lat="45.18998" lon="5.98824">
        <ele>2606.9</ele>
        <time>2015-04-12T05:40:56.780Z</time>
      </trkpt>
      <trkpt lat="45.19033" lon="5.98822">
        <ele>2581</ele>
        <time>2015-04-12T05:41:04.780Z</time>
      </trkpt>
      <trkpt lat="45.19074" lon="5.98796">
        <ele>2556.8</ele>
        <time>2015-04-12T05:41:12.780Z</time>
      </trkpt>
      <trkpt lat="45.19109" lon="5.98806">
        <ele>2527.3</ele>
        <time>2015-04-12T05:41:24.780Z</time>
      </trkpt>
      <trkpt lat="45.19135" lon="5.98845">
        <ele>2506.8</ele>
        <time>2015-04-12T05:41:32.780Z</time>
      </trkpt>
      <trkpt lat="45.19236" lon="5.98942">
        <ele>2479.6</ele>
        <time>2015-04-12T05:41:48.790Z</time>
      </trkpt>
      <trkpt lat="45.193" lon="5.98935">
        <ele>2471</ele>
        <time>2015-04-12T05:41:56.790Z</time>
      </trkpt>
      <trkpt lat="45.19349" lon="5.98924">
        <ele>2465.9</ele>
        <time>2015-04-12T05:42:04.790Z</time>
      </trkpt>
      <trkpt lat="45.19418" lon="5.98925">
        <ele>2461.4</ele>
        <time>2015-04-12T05:42:12.790Z</time>
      </trkpt>
      <trkpt lat="45.1945" lon="5.98902">
        <ele>2444.1</ele>
        <time>2015-04-12T05:42:32.780Z</time>
      </trkpt>
      <trkpt lat="45.19461" lon="5.98891">
        <ele>2424.5</ele>
        <time>2015-04-12T05:42:40.780Z</time>
      </trkpt>
      <trkpt lat="45.19499" lon="5.98879">
        <ele>2414.9</ele>
        <time>2015-04-12T05:42:48.780Z</time>
      </trkpt>
      <trkpt lat="45.19543" lon="5.98874">
        <ele>2410.6</ele>
        <time>2015-04-12T05:43:00.780Z</time>
      </trkpt>
      <trkpt lat="45.19568" lon="5.9888">
        <ele>2408.2</ele>
        <time>2015-04-12T05:43:08.780Z</time>
      </trkpt>
      <trkpt lat="45.19599" lon="5.9887">
        <ele>2405.8</ele>
        <time>2015-04-12T05:43:16.780Z</time>
      </trkpt>
      <trkpt lat="45.19631" lon="5.98844">
        <ele>2403.4</ele>
        <time>2015-04-12T05:43:24.780Z</time>
      </trkpt>
      <trkpt lat="45.19644" lon="5.98839">
        <ele>2402</ele>
        <time>2015-04-12T05:43:36.790Z</time>
      </trkpt>
      <trkpt lat="45.19655" lon="5.98849">
        <ele>2405</ele>
        <time>2015-04-12T05:44:12.780Z</time>
      </trkpt>
      <trkpt lat="45.19666" lon="5.98865">
        <ele>2417.8</ele>
        <time>2015-04-12T05:44:48.780Z</time>
      </trkpt>
      <trkpt lat="45.1968" lon="5.98863">
        <ele>2420.4</ele>
        <time>2015-04-12T05:45:00.790Z</time>
      </trkpt>
      <trkpt lat="45.19699" lon="5.98859">
        <ele>2425</ele>
        <time>2015-04-12T05:45:44.780Z</time>
      </trkpt>
      <trkpt lat="45.19722" lon="5.98901">
        <ele>2421.7</ele>
        <time>2015-04-12T05:45:52.780Z</time>
      </trkpt>
      <trkpt lat="45.19769" lon="5.99019">
        <ele>2412.3</ele>
        <time>2015-04-12T05:46:00.780Z</time>
      </trkpt>
      <trkpt lat="45.1979" lon="5.9912">
        <ele>2395.5</ele>
        <time>2015-04-12T05:46:08.780Z</time>
      </trkpt>
      <trkpt lat="45.19806" lon="5.99172">
        <ele>2389.7</ele>
        <time>2015-04-12T05:46:16.680Z</time>
      </trkpt>
      <trkpt lat="45.19839" lon="5.99361">
        <ele>2378</ele>
        <time>2015-04-12T05:46:39.780Z</time>
      </trkpt>
      <trkpt lat="45.19876" lon="5.99464">
        <ele>2346.7</ele>
        <time>2015-04-12T05:47:22.780Z</time>
      </trkpt>
      <trkpt lat="45.19864" lon="5.99465">
        <ele>2346</ele>
        <time>2015-04-12T05:47:38.680Z</time>
      </trkpt>
      <trkpt lat="45.1987" lon="5.99483">
        <ele>2346</ele>
        <time>2015-04-12T05:47:58.690Z</time>
      </trkpt>
      <trkpt lat="45.19882" lon="5.99489">
        <ele>2346</ele>
        <time>2015-04-12T05:48:22.780Z</time>
      </trkpt>
      <trkpt lat="45.19893" lon="5.99491">
        <ele>2346.2</ele>
        <time>2015-04-12T05:48:30.690Z</time>
      </trkpt>
      <trkpt lat="45.19906" lon="5.99499">
        <ele>2348</ele>
        <time>2015-04-12T05:48:42.680Z</time>
      </trkpt>
      <trkpt lat="45.19904" lon="5.9952">
        <ele>2348.4</ele>
        <time>2015-04-12T05:48:50.680Z</time>
      </trkpt>
      <trkpt lat="45.1991" lon="5.99535">
        <ele>2351</ele>
        <time>2015-04-12T05:49:02.680Z</time>
      </trkpt>
      <trkpt lat="45.19924" lon="5.99545">
        <ele>2356.3</ele>
        <time>2015-04-12T05:49:22.790Z</time>
      </trkpt>
      <trkpt lat="45.19927" lon="5.99562">
        <ele>2359.4</ele>
        <time>2015-04-12T05:49:30.780Z</time>
      </trkpt>
      <trkpt lat="45.19933" lon="5.99573">
        <ele>2361.8</ele>
        <time>2015-04-12T05:49:38.680Z</time>
      </trkpt>
      <trkpt lat="45.19945" lon="5.99577">
        <ele>2365.6</ele>
        <time>2015-04-12T05:49:50.680Z</time>
      </trkpt>
      <trkpt lat="45.1996" lon="5.99571">
        <ele>2370.3</ele>
        <time>2015-04-12T05:50:02.680Z</time>
      </trkpt>
      <trkpt lat="45.19972" lon="5.99598">
        <ele>2375</ele>
        <time>2015-04-12T05:50:22.690Z</time>
      </trkpt>
      <trkpt lat="45.19982" lon="5.99603">
        <ele>2377.4</ele>
        <time>2015-04-12T05:50:30.690Z</time>
      </trkpt>
      <trkpt lat="45.19994" lon="5.99609">
        <ele>2380.7</ele>
        <time>2015-04-12T05:50:46.680Z</time>
      </trkpt>
      <trkpt lat="45.1999" lon="5.99623">
        <ele>2385.6</ele>
        <time>2015-04-12T05:50:58.680Z</time>
      </trkpt>
      <trkpt lat="45.20003" lon="5.99634">
        <ele>2389.4</ele>
        <time>2015-04-12T05:51:10.680Z</time>
      </trkpt>
      <trkpt lat="45.20012" lon="5.99639">
        <ele>2393.3</ele>
        <time>2015-04-12T05:51:22.680Z</time>
      </trkpt>
      <trkpt lat="45.20018" lon="5.99654">
        <ele>2398.8</ele>
        <time>2015-04-12T05:51:38.690Z</time>
      </trkpt>
      <trkpt lat="45.20018" lon="5.99668">
        <ele>2405</ele>
        <time>2015-04-12T05:52:02.880Z</time>
      </trkpt>
      <trkpt lat="45.20032" lon="5.99669">
        <ele>2409.6</ele>
        <time>2015-04-12T05:52:14.680Z</time>
      </trkpt>
      <trkpt lat="45.20041" lon="5.99682">
        <ele>2414.2</ele>
        <time>2015-04-12T05:52:26.680Z</time>
      </trkpt>
      <trkpt lat="45.20043" lon="5.99697">
        <ele>2416.8</ele>
        <time>2015-04-12T05:52:38.680Z</time>
      </trkpt>
      <trkpt lat="45.20053" lon="5.99718">
        <ele>2420</ele>
        <time>2015-04-12T05:52:50.680Z</time>
      </trkpt>
      <trkpt lat="45.20064" lon="5.99728">
        <ele>2420</ele>
        <time>2015-04-12T05:52:58.690Z</time>
      </trkpt>
      <trkpt lat="45.20091" lon="5.99765">
        <ele>2430.2</ele>
        <time>2015-04-12T05:53:26.680Z</time>
      </trkpt>
      <trkpt lat="45.20096" lon="5.99779">
        <ele>2434.3</ele>
        <time>2015-04-12T05:53:37.680Z</time>
      </trkpt>
      <trkpt lat="45.20103" lon="5.99792">
        <ele>2436.9</ele>
        <time>2015-04-12T05:53:45.680Z</time>
      </trkpt>
      <trkpt lat="45.20115" lon="5.99823">
        <ele>2445.1</ele>
        <time>2015-04-12T05:54:09.680Z</time>
      </trkpt>
      <trkpt lat="45.20116" lon="5.99842">
        <ele>2450.2</ele>
        <time>2015-04-12T05:54:25.680Z</time>
      </trkpt>
      <trkpt lat="45.2012" lon="5.99856">
        <ele>2452.3</ele>
        <time>2015-04-12T05:54:33.680Z</time>
      </trkpt>
      <trkpt lat="45.20117" lon="5.99873">
        <ele>2455.9</ele>
        <time>2015-04-12T05:54:45.690Z</time>
      </trkpt>
      <trkpt lat="45.20124" lon="5.99889">
        <ele>2460.7</ele>
        <time>2015-04-12T05:55:01.680Z</time>
      </trkpt>
      <trkpt lat="45.20126" lon="5.99908">
        <ele>2463.8</ele>
        <time>2015-04-12T05:55:13.680Z</time>
      </trkpt>
      <trkpt lat="45.20137" lon="5.99924">
        <ele>2465.7</ele>
        <time>2015-04-12T05:55:21.680Z</time>
      </trkpt>
      <trkpt lat="45.20142" lon="5.99937">
        <ele>2471.3</ele>
        <time>2015-04-12T05:55:37.680Z</time>
      </trkpt>
      <trkpt lat="45.20152" lon="5.99939">
        <ele>2473</ele>
        <time>2015-04-12T05:56:19.680Z</time>
      </trkpt>
      <trkpt lat="45.20129" lon="5.99935">
        <ele>2473</ele>
        <time>2015-04-12T05:57:23.680Z</time>
      </trkpt>
      <trkpt lat="45.2014" lon="5.99941">
        <ele>2473</ele>
        <time>2015-04-12T05:57:47.680Z</time>
      </trkpt>
      <trkpt lat="45.2013" lon="5.9993">
        <ele>2474</ele>
        <time>2015-04-12T05:58:47.680Z</time>
      </trkpt>
      <trkpt lat="45.20142" lon="5.99933">
        <ele>2473</ele>
        <time>2015-04-12T05:58:59.680Z</time>
      </trkpt>
      <trkpt lat="45.20145" lon="5.9995">
        <ele>2473</ele>
        <time>2015-04-12T05:59:21.680Z</time>
      </trkpt>
      <trkpt lat="45.20177" lon="5.99995">
        <ele>2472.4</ele>
        <time>2015-04-12T05:59:29.680Z</time>
      </trkpt>
      <trkpt lat="45.202" lon="6.00064">
        <ele>2449.2</ele>
        <time>2015-04-12T05:59:37.680Z</time>
      </trkpt>
      <trkpt lat="45.2025" lon="6.00115">
        <ele>2419.9</ele>
        <time>2015-04-12T05:59:45.680Z</time>
      </trkpt>
      <trkpt lat="45.2026" lon="6.00196">
        <ele>2383.4</ele>
        <time>2015-04-12T05:59:54.880Z</time>
      </trkpt>
      <trkpt lat="45.20238" lon="6.00299">
        <ele>2355.7</ele>
        <time>2015-04-12T06:00:02.410Z</time>
      </trkpt>
      <trkpt lat="45.20249" lon="6.00375">
        <ele>2329.3</ele>
        <time>2015-04-12T06:00:10.680Z</time>
      </trkpt>
      <trkpt lat="45.20273" lon="6.00465">
        <ele>2304.5</ele>
        <time>2015-04-12T06:00:18.680Z</time>
      </trkpt>
      <trkpt lat="45.20282" lon="6.00553">
        <ele>2272.9</ele>
        <time>2015-04-12T06:00:28.880Z</time>
      </trkpt>
      <trkpt lat="45.20327" lon="6.00656">
        <ele>2248.2</ele>
        <time>2015-04-12T06:00:36.400Z</time>
      </trkpt>
      <trkpt lat="45.20323" lon="6.00742">
        <ele>2221.3</ele>
        <time>2015-04-12T06:00:44.400Z</time>
      </trkpt>
      <trkpt lat="45.20338" lon="6.00847">
        <ele>2192.2</ele>
        <time>2015-04-12T06:00:53.410Z</time>
      </trkpt>
      <trkpt lat="45.20412" lon="6.00908">
        <ele>2167.2</ele>
        <time>2015-04-12T06:01:01.680Z</time>
      </trkpt>
      <trkpt lat="45.20454" lon="6.01051">
        <ele>2142.7</ele>
        <time>2015-04-12T06:01:09.680Z</time>
      </trkpt>
      <trkpt lat="45.20457" lon="6.0116">
        <ele>2129.1</ele>
        <time>2015-04-12T06:01:17.680Z</time>
      </trkpt>
      <trkpt lat="45.20496" lon="6.01273">
        <ele>2116.1</ele>
        <time>2015-04-12T06:01:25.680Z</time>
      </trkpt>
      <trkpt lat="45.20525" lon="6.01409">
        <ele>2087.5</ele>
        <time>2015-04-12T06:01:38.880Z</time>
      </trkpt>
      <trkpt lat="45.20608" lon="6.01413">
        <ele>2074.9</ele>
        <time>2015-04-12T06:01:46.410Z</time>
      </trkpt>
      <trkpt lat="45.20669" lon="6.01484">
        <ele>2067.4</ele>
        <time>2015-04-12T06:01:54.680Z</time>
      </trkpt>
      <trkpt lat="45.20661" lon="6.01553">
        <ele>2064.7</ele>
        <time>2015-04-12T06:02:02.680Z</time>
      </trkpt>
      <trkpt lat="45.20632" lon="6.0158">
        <ele>2064</ele>
        <time>2015-04-12T06:02:10.680Z</time>
      </trkpt>
      <trkpt lat="45.20624" lon="6.01623">
        <ele>2064</ele>
        <time>2015-04-12T06:02:18.680Z</time>
      </trkpt>
      <trkpt lat="45.20606" lon="6.01651">
        <ele>2064.7</ele>
        <time>2015-04-12T06:02:26.680Z</time>
      </trkpt>
      <trkpt lat="45.20623" lon="6.01757">
        <ele>2067</ele>
        <time>2015-04-12T06:02:50.680Z</time>
      </trkpt>
      <trkpt lat="45.20621" lon="6.01798">
        <ele>2067</ele>
        <time>2015-04-12T06:02:58.680Z</time>
      </trkpt>
      <trkpt lat="45.20632" lon="6.0185">
        <ele>2063.4</ele>
        <time>2015-04-12T06:03:06.680Z</time>
      </trkpt>
      <trkpt lat="45.20666" lon="6.0189">
        <ele>2057.3</ele>
        <time>2015-04-12T06:03:14.680Z</time>
      </trkpt>
      <trkpt lat="45.20701" lon="6.01914">
        <ele>2048.8</ele>
        <time>2015-04-12T06:03:26.410Z</time>
      </trkpt>
      <trkpt lat="45.20728" lon="6.01979">
        <ele>2044.3</ele>
        <time>2015-04-12T06:03:34.880Z</time>
      </trkpt>
      <trkpt lat="45.20772" lon="6.02021">
        <ele>2039.4</ele>
        <time>2015-04-12T06:03:42.680Z</time>
      </trkpt>
      <trkpt lat="45.20821" lon="6.02014">
        <ele>2033.2</ele>
        <time>2015-04-12T06:03:50.680Z</time>
      </trkpt>
      <trkpt lat="45.20864" lon="6.01993">
        <ele>2027.6</ele>
        <time>2015-04-12T06:03:58.680Z</time>
      </trkpt>
      <trkpt lat="45.2091" lon="6.01994">
        <ele>2024.1</ele>
        <time>2015-04-12T06:04:06.680Z</time>
      </trkpt>
      <trkpt lat="45.20975" lon="6.02005">
        <ele>2019.9</ele>
        <time>2015-04-12T06:04:14.680Z</time>
      </trkpt>
      <trkpt lat="45.21037" lon="6.02065">
        <ele>2012.3</ele>
        <time>2015-04-12T06:04:22.880Z</time>
      </trkpt>
      <trkpt lat="45.211" lon="6.0221">
        <ele>1997.7</ele>
        <time>2015-04-12T06:04:34.780Z</time>
      </trkpt>
      <trkpt lat="45.2113" lon="6.02386">
        <ele>1987</ele>
        <time>2015-04-12T06:04:50.880Z</time>
      </trkpt>
      <trkpt lat="45.21156" lon="6.02458">
        <ele>1981.6</ele>
        <time>2015-04-12T06:04:58.680Z</time>
      </trkpt>
      <trkpt lat="45.21163" lon="6.02543">
        <ele>1983.9</ele>
        <time>2015-04-12T06:05:06.690Z</time>
      </trkpt>
      <trkpt lat="45.21158" lon="6.02598">
        <ele>1980.8</ele>
        <time>2015-04-12T06:05:14.690Z</time>
      </trkpt>
      <trkpt lat="45.21161" lon="6.02644">
        <ele>1976.7</ele>
        <time>2015-04-12T06:05:22.690Z</time>
      </trkpt>
      <trkpt lat="45.21177" lon="6.02689">
        <ele>1975.6</ele>
        <time>2015-04-12T06:05:30.690Z</time>
      </trkpt>
      <trkpt lat="45.21207" lon="6.02739">
        <ele>1973.2</ele>
        <time>2015-04-12T06:05:38.690Z</time>
      </trkpt>
      <trkpt lat="45.21236" lon="6.02767">
        <ele>1973</ele>
        <time>2015-04-12T06:05:46.690Z</time>
      </trkpt>
      <trkpt lat="45.21269" lon="6.02789">
        <ele>1971.4</ele>
        <time>2015-04-12T06:05:54.690Z</time>
      </trkpt>
      <trkpt lat="45.21337" lon="6.02819">
        <ele>1967.5</ele>
        <time>2015-04-12T06:06:05.680Z</time>
      </trkpt>
      <trkpt lat="45.21377" lon="6.02847">
        <ele>1963.5</ele>
        <time>2015-04-12T06:06:13.600Z</time>
      </trkpt>
      <trkpt lat="45.21417" lon="6.02891">
        <ele>1961.2</ele>
        <time>2015-04-12T06:06:37.680Z</time>
      </trkpt>
      <trkpt lat="45.21428" lon="6.02889">
        <ele>1961.8</ele>
        <time>2015-04-12T06:06:57.680Z</time>
      </trkpt>
      <trkpt lat="45.21437" lon="6.02897">
        <ele>1966.2</ele>
        <time>2015-04-12T06:07:12.400Z</time>
      </trkpt>
      <trkpt lat="45.21449" lon="6.02901">
        <ele>1974.2</ele>
        <time>2015-04-12T06:07:36.680Z</time>
      </trkpt>
      <trkpt lat="45.21462" lon="6.02912">
        <ele>1975.9</ele>
        <time>2015-04-12T06:07:48.680Z</time>
      </trkpt>
      <trkpt lat="45.21472" lon="6.02909">
        <ele>1982</ele>
        <time>2015-04-12T06:08:12.680Z</time>
      </trkpt>
      <trkpt lat="45.21481" lon="6.02904">
        <ele>1984</ele>
        <time>2015-04-12T06:08:24.680Z</time>
      </trkpt>
      <trkpt lat="45.21509" lon="6.02931">
        <ele>1986.7</ele>
        <time>2015-04-12T06:08:56.680Z</time>
      </trkpt>
      <trkpt lat="45.2153" lon="6.02934">
        <ele>1983.9</ele>
        <time>2015-04-12T06:09:04.680Z</time>
      </trkpt>
      <trkpt lat="45.21662" lon="6.03004">
        <ele>1944.6</ele>
        <time>2015-04-12T06:09:20.680Z</time>
      </trkpt>
      <trkpt lat="45.21681" lon="6.03022">
        <ele>1949.8</ele>
        <time>2015-04-12T06:09:57.410Z</time>
      </trkpt>
      <trkpt lat="45.21692" lon="6.03022">
        <ele>1951.2</ele>
        <time>2015-04-12T06:10:05.680Z</time>
      </trkpt>
      <trkpt lat="45.21702" lon="6.03031">
        <ele>1952.9</ele>
        <time>2015-04-12T06:10:21.680Z</time>
      </trkpt>
      <trkpt lat="45.21709" lon="6.03044">
        <ele>1956.4</ele>
        <time>2015-04-12T06:10:33.680Z</time>
      </trkpt>
      <trkpt lat="45.21723" lon="6.03046">
        <ele>1957.6</ele>
        <time>2015-04-12T06:10:45.680Z</time>
      </trkpt>
      <trkpt lat="45.21731" lon="6.03073">
        <ele>1961.7</ele>
        <time>2015-04-12T06:11:13.690Z</time>
      </trkpt>
      <trkpt lat="45.21729" lon="6.03087">
        <ele>1966</ele>
        <time>2015-04-12T06:11:29.690Z</time>
      </trkpt>
      <trkpt lat="45.21735" lon="6.031">
        <ele>1969.9</ele>
        <time>2015-04-12T06:12:21.680Z</time>
      </trkpt>
      <trkpt lat="45.21744" lon="6.03107">
        <ele>1973.8</ele>
        <time>2015-04-12T06:12:37.680Z</time>
      </trkpt>
      <trkpt lat="45.21759" lon="6.03121">
        <ele>1975.7</ele>
        <time>2015-04-12T06:12:53.680Z</time>
      </trkpt>
      <trkpt lat="45.21768" lon="6.03125">
        <ele>1978.7</ele>
        <time>2015-04-12T06:13:01.680Z</time>
      </trkpt>
      <trkpt lat="45.21778" lon="6.03138">
        <ele>1981.1</ele>
        <time>2015-04-12T06:13:09.680Z</time>
      </trkpt>
      <trkpt lat="45.2178" lon="6.03156">
        <ele>1989.6</ele>
        <time>2015-04-12T06:13:37.680Z</time>
      </trkpt>
      <trkpt lat="45.2179" lon="6.03191">
        <ele>1991</ele>
        <time>2015-04-12T06:13:57.690Z</time>
      </trkpt>
      <trkpt lat="45.218" lon="6.03262">
        <ele>2000.6</ele>
        <time>2015-04-12T06:14:45.680Z</time>
      </trkpt>
      <trkpt lat="45.21806" lon="6.03278">
        <ele>2001.8</ele>
        <time>2015-04-12T06:14:53.680Z</time>
      </trkpt>
      <trkpt lat="45.21815" lon="6.03286">
        <ele>2003.7</ele>
        <time>2015-04-12T06:15:01.680Z</time>
      </trkpt>
      <trkpt lat="45.21824" lon="6.033">
        <ele>2007.6</ele>
        <time>2015-04-12T06:15:17.680Z</time>
      </trkpt>
      <trkpt lat="45.21817" lon="6.03284">
        <ele>2007</ele>
        <time>2015-04-12T06:15:33.680Z</time>
      </trkpt>
      <trkpt lat="45.21823" lon="6.03299">
        <ele>2007.2</ele>
        <time>2015-04-12T06:15:41.680Z</time>
      </trkpt>
      <trkpt lat="45.21866" lon="6.03364">
        <ele>2007.8</ele>
        <time>2015-04-12T06:15:49.680Z</time>
      </trkpt>
      <trkpt lat="45.21925" lon="6.03414">
        <ele>1997.4</ele>
        <time>2015-04-12T06:15:57.680Z</time>
      </trkpt>
      <trkpt lat="45.21987" lon="6.03444">
        <ele>1974.5</ele>
        <time>2015-04-12T06:16:05.900Z</time>
      </trkpt>
      <trkpt lat="45.22071" lon="6.03462">
        <ele>1956.7</ele>
        <time>2015-04-12T06:16:13.680Z</time>
      </trkpt>
      <trkpt lat="45.22144" lon="6.03486">
        <ele>1947.1</ele>
        <time>2015-04-12T06:16:21.680Z</time>
      </trkpt>
      <trkpt lat="45.22226" lon="6.03529">
        <ele>1942.5</ele>
        <time>2015-04-12T06:16:36.880Z</time>
      </trkpt>
      <trkpt lat="45.22235" lon="6.03537">
        <ele>1942</ele>
        <time>2015-04-12T06:16:44.130Z</time>
      </trkpt>
      <trkpt lat="45.22266" lon="6.03546">
        <ele>1941</ele>
        <time>2015-04-12T06:16:52.690Z</time>
      </trkpt>
      <trkpt lat="45.22284" lon="6.03558">
        <ele>1938.3</ele>
        <time>2015-04-12T06:17:00.690Z</time>
      </trkpt>
      <trkpt lat="45.22319" lon="6.03571">
        <ele>1933.5</ele>
        <time>2015-04-12T06:17:08.690Z</time>
      </trkpt>
      <trkpt lat="45.22334" lon="6.03599">
        <ele>1932.3</ele>
        <time>2015-04-12T06:17:36.610Z</time>
      </trkpt>
      <trkpt lat="45.22356" lon="6.03667">
        <ele>1920.2</ele>
        <time>2015-04-12T06:17:44.410Z</time>
      </trkpt>
      <trkpt lat="45.22393" lon="6.03697">
        <ele>1907.3</ele>
        <time>2015-04-12T06:17:56.690Z</time>
      </trkpt>
      <trkpt lat="45.2238" lon="6.03714">
        <ele>1906.4</ele>
        <time>2015-04-12T06:18:12.680Z</time>
      </trkpt>
      <trkpt lat="45.22395" lon="6.03751">
        <ele>1904.4</ele>
        <time>2015-04-12T06:18:20.680Z</time>
      </trkpt>
      <trkpt lat="45.22405" lon="6.03765">
        <ele>1900</ele>
        <time>2015-04-12T06:18:36.680Z</time>
      </trkpt>
      <trkpt lat="45.22421" lon="6.03782">
        <ele>1899</ele>
        <time>2015-04-12T06:18:44.680Z</time>
      </trkpt>
      <trkpt lat="45.22435" lon="6.038">
        <ele>1897.3</ele>
        <time>2015-04-12T06:18:56.680Z</time>
      </trkpt>
      <trkpt lat="45.2244" lon="6.03814">
        <ele>1896</ele>
        <time>2015-04-12T06:19:04.680Z</time>
      </trkpt>
      <trkpt lat="45.22462" lon="6.0386">
        <ele>1894</ele>
        <time>2015-04-12T06:19:24.680Z</time>
      </trkpt>
      <trkpt lat="45.22452" lon="6.03855">
        <ele>1891</ele>
        <time>2015-04-12T06:20:06.680Z</time>
      </trkpt>
      <trkpt lat="45.22461" lon="6.0386">
        <ele>1891.5</ele>
        <time>2015-04-12T06:22:04.780Z</time>
      </trkpt>
      <trkpt lat="45.22469" lon="6.03853">
        <ele>1896.2</ele>
        <time>2015-04-12T06:22:24.780Z</time>
      </trkpt>
      <trkpt lat="45.2247" lon="6.03841">
        <ele>1901</ele>
        <time>2015-04-12T06:22:44.780Z</time>
      </trkpt>
      <trkpt lat="45.22483" lon="6.0384">
        <ele>1909.3</ele>
        <time>2015-04-12T06:23:12.780Z</time>
      </trkpt>
      <trkpt lat="45.22495" lon="6.03846">
        <ele>1912.5</ele>
        <time>2015-04-12T06:23:24.790Z</time>
      </trkpt>
      <trkpt lat="45.22514" lon="6.0387">
        <ele>1916.1</ele>
        <time>2015-04-12T06:23:44.780Z</time>
      </trkpt>
      <trkpt lat="45.22522" lon="6.03892">
        <ele>1919.4</ele>
        <time>2015-04-12T06:24:00.780Z</time>
      </trkpt>
      <trkpt lat="45.22523" lon="6.03883">
        <ele>1922</ele>
        <time>2015-04-12T06:24:16.780Z</time>
      </trkpt>
      <trkpt lat="45.22537" lon="6.03887">
        <ele>1925.1</ele>
        <time>2015-04-12T06:26:18.410Z</time>
      </trkpt>
      <trkpt lat="45.22529" lon="6.03878">
        <ele>1926.6</ele>
        <time>2015-04-12T06:26:42.690Z</time>
      </trkpt>
      <trkpt lat="45.22538" lon="6.03882">
        <ele>1929.8</ele>
        <time>2015-04-12T06:26:58.690Z</time>
      </trkpt>
      <trkpt lat="45.22548" lon="6.03888">
        <ele>1939.7</ele>
        <time>2015-04-12T06:27:18.680Z</time>
      </trkpt>
      <trkpt lat="45.22558" lon="6.03888">
        <ele>1942.8</ele>
        <time>2015-04-12T06:27:38.680Z</time>
      </trkpt>
      <trkpt lat="45.22567" lon="6.03896">
        <ele>1949</ele>
        <time>2015-04-12T06:27:54.680Z</time>
      </trkpt>
      <trkpt lat="45.22574" lon="6.03909">
        <ele>1951</ele>
        <time>2015-04-12T06:28:02.680Z</time>
      </trkpt>
      <trkpt lat="45.22587" lon="6.03916">
        <ele>1954.6</ele>
        <time>2015-04-12T06:28:14.690Z</time>
      </trkpt>
      <trkpt lat="45.22597" lon="6.03907">
        <ele>1965</ele>
        <time>2015-04-12T06:28:58.680Z</time>
      </trkpt>
      <trkpt lat="45.22609" lon="6.03918">
        <ele>1969.5</ele>
        <time>2015-04-12T06:29:10.680Z</time>
      </trkpt>
      <trkpt lat="45.22617" lon="6.03907">
        <ele>1982.2</ele>
        <time>2015-04-12T06:29:46.680Z</time>
      </trkpt>
      <trkpt lat="45.22623" lon="6.03918">
        <ele>1986.7</ele>
        <time>2015-04-12T06:29:58.680Z</time>
      </trkpt>
      <trkpt lat="45.22634" lon="6.03922">
        <ele>1992.8</ele>
        <time>2015-04-12T06:30:18.690Z</time>
      </trkpt>
      <trkpt lat="45.22647" lon="6.03913">
        <ele>1995.2</ele>
        <time>2015-04-12T06:30:30.680Z</time>
      </trkpt>
      <trkpt lat="45.22655" lon="6.03905">
        <ele>1998</ele>
        <time>2015-04-12T06:30:42.690Z</time>
      </trkpt>
      <trkpt lat="45.22668" lon="6.03913">
        <ele>2001</ele>
        <time>2015-04-12T06:30:54.680Z</time>
      </trkpt>
      <trkpt lat="45.22691" lon="6.03932">
        <ele>2019.8</ele>
        <time>2015-04-12T06:31:58.680Z</time>
      </trkpt>
      <trkpt lat="45.22729" lon="6.03956">
        <ele>2035.8</ele>
        <time>2015-04-12T06:32:58.680Z</time>
      </trkpt>
      <trkpt lat="45.22736" lon="6.03964">
        <ele>2043.7</ele>
        <time>2015-04-12T06:33:22.880Z</time>
      </trkpt>
      <trkpt lat="45.22747" lon="6.0397">
        <ele>2045.2</ele>
        <time>2015-04-12T06:33:30.680Z</time>
      </trkpt>
      <trkpt lat="45.22751" lon="6.04003">
        <ele>2049.6</ele>
        <time>2015-04-12T06:33:54.680Z</time>
      </trkpt>
      <trkpt lat="45.22761" lon="6.0401">
        <ele>2056</ele>
        <time>2015-04-12T06:34:22.680Z</time>
      </trkpt>
      <trkpt lat="45.22772" lon="6.0402">
        <ele>2058.2</ele>
        <time>2015-04-12T06:34:34.880Z</time>
      </trkpt>
      <trkpt lat="45.22783" lon="6.04028">
        <ele>2060.7</ele>
        <time>2015-04-12T06:34:42.880Z</time>
      </trkpt>
      <trkpt lat="45.22796" lon="6.04034">
        <ele>2063.6</ele>
        <time>2015-04-12T06:34:54.680Z</time>
      </trkpt>
      <trkpt lat="45.22808" lon="6.04033">
        <ele>2067.2</ele>
        <time>2015-04-12T06:35:06.680Z</time>
      </trkpt>
      <trkpt lat="45.22819" lon="6.04043">
        <ele>2070.8</ele>
        <time>2015-04-12T06:35:18.880Z</time>
      </trkpt>
      <trkpt lat="45.22829" lon="6.04047">
        <ele>2072.4</ele>
        <time>2015-04-12T06:35:26.680Z</time>
      </trkpt>
      <trkpt lat="45.22841" lon="6.04065">
        <ele>2073.9</ele>
        <time>2015-04-12T06:35:38.880Z</time>
      </trkpt>
      <trkpt lat="45.22848" lon="6.04081">
        <ele>2078.5</ele>
        <time>2015-04-12T06:35:50.690Z</time>
      </trkpt>
      <trkpt lat="45.22874" lon="6.04107">
        <ele>2087.8</ele>
        <time>2015-04-12T06:36:18.680Z</time>
      </trkpt>
      <trkpt lat="45.22895" lon="6.04118">
        <ele>2098.1</ele>
        <time>2015-04-12T06:36:54.680Z</time>
      </trkpt>
      <trkpt lat="45.22908" lon="6.04133">
        <ele>2101.4</ele>
        <time>2015-04-12T06:37:06.680Z</time>
      </trkpt>
      <trkpt lat="45.2292" lon="6.04139">
        <ele>2104.8</ele>
        <time>2015-04-12T06:37:18.880Z</time>
      </trkpt>
      <trkpt lat="45.22929" lon="6.04151">
        <ele>2110.6</ele>
        <time>2015-04-12T06:37:34.680Z</time>
      </trkpt>
      <trkpt lat="45.22931" lon="6.04167">
        <ele>2113</ele>
        <time>2015-04-12T06:37:42.680Z</time>
      </trkpt>
      <trkpt lat="45.22943" lon="6.04166">
        <ele>2115.4</ele>
        <time>2015-04-12T06:37:50.680Z</time>
      </trkpt>
      <trkpt lat="45.2295" lon="6.04177">
        <ele>2119</ele>
        <time>2015-04-12T06:38:02.680Z</time>
      </trkpt>
      <trkpt lat="45.22964" lon="6.04182">
        <ele>2124</ele>
        <time>2015-04-12T06:38:22.680Z</time>
      </trkpt>
      <trkpt lat="45.22971" lon="6.04194">
        <ele>2127.6</ele>
        <time>2015-04-12T06:38:34.690Z</time>
      </trkpt>
      <trkpt lat="45.22985" lon="6.04188">
        <ele>2132.6</ele>
        <time>2015-04-12T06:38:50.880Z</time>
      </trkpt>
      <trkpt lat="45.23012" lon="6.04199">
        <ele>2139.2</ele>
        <time>2015-04-12T06:39:10.680Z</time>
      </trkpt>
      <trkpt lat="45.23019" lon="6.04214">
        <ele>2142</ele>
        <time>2015-04-12T06:39:22.880Z</time>
      </trkpt>
      <trkpt lat="45.23033" lon="6.04222">
        <ele>2144.2</ele>
        <time>2015-04-12T06:39:30.680Z</time>
      </trkpt>
      <trkpt lat="45.23047" lon="6.04221">
        <ele>2147.4</ele>
        <time>2015-04-12T06:39:42.880Z</time>
      </trkpt>
      <trkpt lat="45.23058" lon="6.04222">
        <ele>2151.8</ele>
        <time>2015-04-12T06:39:58.690Z</time>
      </trkpt>
      <trkpt lat="45.23072" lon="6.04234">
        <ele>2156</ele>
        <time>2015-04-12T06:40:14.690Z</time>
      </trkpt>
      <trkpt lat="45.23085" lon="6.0423">
        <ele>2162.8</ele>
        <time>2015-04-12T06:40:35.410Z</time>
      </trkpt>
      <trkpt lat="45.23096" lon="6.0424">
        <ele>2168.9</ele>
        <time>2015-04-12T06:40:55.890Z</time>
      </trkpt>
      <trkpt lat="45.23109" lon="6.04263">
        <ele>2171.7</ele>
        <time>2015-04-12T06:41:07.880Z</time>
      </trkpt>
      <trkpt lat="45.23114" lon="6.04282">
        <ele>2181.2</ele>
        <time>2015-04-12T06:41:39.880Z</time>
      </trkpt>
      <trkpt lat="45.23114" lon="6.04299">
        <ele>2187.3</ele>
        <time>2015-04-12T06:41:55.880Z</time>
      </trkpt>
      <trkpt lat="45.23103" lon="6.043">
        <ele>2189.3</ele>
        <time>2015-04-12T06:42:03.880Z</time>
      </trkpt>
      <trkpt lat="45.2309" lon="6.04323">
        <ele>2195.3</ele>
        <time>2015-04-12T06:42:23.680Z</time>
      </trkpt>
      <trkpt lat="45.23083" lon="6.04338">
        <ele>2200.2</ele>
        <time>2015-04-12T06:42:40.320Z</time>
      </trkpt>
      <trkpt lat="45.23083" lon="6.04357">
        <ele>2202.8</ele>
        <time>2015-04-12T06:42:51.610Z</time>
      </trkpt>
      <trkpt lat="45.23102" lon="6.04381">
        <ele>2220.3</ele>
        <time>2015-04-12T06:43:43.880Z</time>
      </trkpt>
      <trkpt lat="45.23126" lon="6.04391">
        <ele>2229.5</ele>
        <time>2015-04-12T06:44:11.880Z</time>
      </trkpt>
      <trkpt lat="45.23117" lon="6.04406">
        <ele>2232.3</ele>
        <time>2015-04-12T06:44:23.880Z</time>
      </trkpt>
      <trkpt lat="45.23113" lon="6.04422">
        <ele>2239.3</ele>
        <time>2015-04-12T06:44:43.880Z</time>
      </trkpt>
      <trkpt lat="45.23103" lon="6.04428">
        <ele>2245.1</ele>
        <time>2015-04-12T06:44:59.880Z</time>
      </trkpt>
      <trkpt lat="45.2311" lon="6.0444">
        <ele>2248.7</ele>
        <time>2015-04-12T06:45:11.890Z</time>
      </trkpt>
      <trkpt lat="45.23119" lon="6.04445">
        <ele>2257.1</ele>
        <time>2015-04-12T06:45:39.880Z</time>
      </trkpt>
      <trkpt lat="45.23128" lon="6.04453">
        <ele>2260.5</ele>
        <time>2015-04-12T06:45:51.880Z</time>
      </trkpt>
      <trkpt lat="45.23128" lon="6.04469">
        <ele>2264.6</ele>
        <time>2015-04-12T06:46:03.880Z</time>
      </trkpt>
      <trkpt lat="45.23117" lon="6.04478">
        <ele>2270.1</ele>
        <time>2015-04-12T06:46:19.880Z</time>
      </trkpt>
      <trkpt lat="45.23127" lon="6.04492">
        <ele>2281.6</ele>
        <time>2015-04-12T06:46:55.880Z</time>
      </trkpt>
      <trkpt lat="45.2314" lon="6.04497">
        <ele>2283.8</ele>
        <time>2015-04-12T06:47:07.890Z</time>
      </trkpt>
      <trkpt lat="45.23131" lon="6.04506">
        <ele>2290</ele>
        <time>2015-04-12T06:47:31.890Z</time>
      </trkpt>
      <trkpt lat="45.23144" lon="6.0453">
        <ele>2305.9</ele>
        <time>2015-04-12T06:48:35.880Z</time>
      </trkpt>
      <trkpt lat="45.23155" lon="6.04558">
        <ele>2318.1</ele>
        <time>2015-04-12T06:49:19.890Z</time>
      </trkpt>
      <trkpt lat="45.23165" lon="6.04563">
        <ele>2329.1</ele>
        <time>2015-04-12T06:49:59.880Z</time>
      </trkpt>
      <trkpt lat="45.23167" lon="6.0458">
        <ele>2331.2</ele>
        <time>2015-04-12T06:50:19.880Z</time>
      </trkpt>
      <trkpt lat="45.23172" lon="6.04594">
        <ele>2336.7</ele>
        <time>2015-04-12T06:50:31.880Z</time>
      </trkpt>
      <trkpt lat="45.23169" lon="6.04607">
        <ele>2340.7</ele>
        <time>2015-04-12T06:50:47.880Z</time>
      </trkpt>
      <trkpt lat="45.23178" lon="6.04617">
        <ele>2348.4</ele>
        <time>2015-04-12T06:51:07.890Z</time>
      </trkpt>
      <trkpt lat="45.23186" lon="6.0463">
        <ele>2352.4</ele>
        <time>2015-04-12T06:51:23.890Z</time>
      </trkpt>
      <trkpt lat="45.23197" lon="6.04638">
        <ele>2356.5</ele>
        <time>2015-04-12T06:52:11.880Z</time>
      </trkpt>
      <trkpt lat="45.23211" lon="6.04652">
        <ele>2365.1</ele>
        <time>2015-04-12T06:52:39.880Z</time>
      </trkpt>
      <trkpt lat="45.23227" lon="6.04685">
        <ele>2374.9</ele>
        <time>2015-04-12T06:53:11.780Z</time>
      </trkpt>
      <trkpt lat="45.23229" lon="6.04703">
        <ele>2380.2</ele>
        <time>2015-04-12T06:53:23.880Z</time>
      </trkpt>
      <trkpt lat="45.23243" lon="6.04727">
        <ele>2389.2</ele>
        <time>2015-04-12T06:53:47.880Z</time>
      </trkpt>
      <trkpt lat="45.23252" lon="6.04778">
        <ele>2407.1</ele>
        <time>2015-04-12T06:54:51.780Z</time>
      </trkpt>
      <trkpt lat="45.23268" lon="6.04799">
        <ele>2414.9</ele>
        <time>2015-04-12T06:55:15.890Z</time>
      </trkpt>
      <trkpt lat="45.23277" lon="6.04808">
        <ele>2417.3</ele>
        <time>2015-04-12T06:55:23.780Z</time>
      </trkpt>
      <trkpt lat="45.23271" lon="6.04823">
        <ele>2424</ele>
        <time>2015-04-12T06:55:39.880Z</time>
      </trkpt>
      <trkpt lat="45.23277" lon="6.04838">
        <ele>2428.1</ele>
        <time>2015-04-12T06:55:59.790Z</time>
      </trkpt>
      <trkpt lat="45.23276" lon="6.04856">
        <ele>2431.3</ele>
        <time>2015-04-12T06:56:07.790Z</time>
      </trkpt>
      <trkpt lat="45.23279" lon="6.04873">
        <ele>2436.7</ele>
        <time>2015-04-12T06:56:27.780Z</time>
      </trkpt>
      <trkpt lat="45.23288" lon="6.04882">
        <ele>2440</ele>
        <time>2015-04-12T06:56:39.780Z</time>
      </trkpt>
      <trkpt lat="45.233" lon="6.04889">
        <ele>2440</ele>
        <time>2015-04-12T06:56:47.880Z</time>
      </trkpt>
      <trkpt lat="45.23318" lon="6.04913">
        <ele>2441</ele>
        <time>2015-04-12T06:57:07.780Z</time>
      </trkpt>
      <trkpt lat="45.23323" lon="6.04927">
        <ele>2441.2</ele>
        <time>2015-04-12T06:57:31.790Z</time>
      </trkpt>
      <trkpt lat="45.23338" lon="6.04943">
        <ele>2442.1</ele>
        <time>2015-04-12T06:57:39.790Z</time>
      </trkpt>
      <trkpt lat="45.23349" lon="6.04976">
        <ele>2446.5</ele>
        <time>2015-04-12T06:57:55.790Z</time>
      </trkpt>
      <trkpt lat="45.23357" lon="6.04988">
        <ele>2448.8</ele>
        <time>2015-04-12T06:58:07.780Z</time>
      </trkpt>
      <trkpt lat="45.23369" lon="6.04997">
        <ele>2453.1</ele>
        <time>2015-04-12T06:58:19.790Z</time>
      </trkpt>
      <trkpt lat="45.23375" lon="6.05011">
        <ele>2457.5</ele>
        <time>2015-04-12T06:58:31.780Z</time>
      </trkpt>
      <trkpt lat="45.23384" lon="6.05018">
        <ele>2459.1</ele>
        <time>2015-04-12T06:58:39.780Z</time>
      </trkpt>
      <trkpt lat="45.23398" lon="6.05027">
        <ele>2462.7</ele>
        <time>2015-04-12T06:58:51.780Z</time>
      </trkpt>
      <trkpt lat="45.23412" lon="6.05061">
        <ele>2472.7</ele>
        <time>2015-04-12T06:59:23.780Z</time>
      </trkpt>
      <trkpt lat="45.23424" lon="6.05068">
        <ele>2478.1</ele>
        <time>2015-04-12T06:59:39.780Z</time>
      </trkpt>
      <trkpt lat="45.23431" lon="6.05084">
        <ele>2480.7</ele>
        <time>2015-04-12T06:59:51.780Z</time>
      </trkpt>
      <trkpt lat="45.23441" lon="6.0509">
        <ele>2484.3</ele>
        <time>2015-04-12T07:00:03.780Z</time>
      </trkpt>
      <trkpt lat="45.23445" lon="6.05106">
        <ele>2490.7</ele>
        <time>2015-04-12T07:00:23.780Z</time>
      </trkpt>
      <trkpt lat="45.23452" lon="6.05119">
        <ele>2494.3</ele>
        <time>2015-04-12T07:00:35.780Z</time>
      </trkpt>
      <trkpt lat="45.23461" lon="6.0513">
        <ele>2500.2</ele>
        <time>2015-04-12T07:00:51.780Z</time>
      </trkpt>
      <trkpt lat="45.23467" lon="6.05142">
        <ele>2502.7</ele>
        <time>2015-04-12T07:01:03.790Z</time>
      </trkpt>
      <trkpt lat="45.23473" lon="6.05158">
        <ele>2507.5</ele>
        <time>2015-04-12T07:01:15.780Z</time>
      </trkpt>
      <trkpt lat="45.23484" lon="6.05159">
        <ele>2510.7</ele>
        <time>2015-04-12T07:01:27.780Z</time>
      </trkpt>
      <trkpt lat="45.23491" lon="6.05169">
        <ele>2517.3</ele>
        <time>2015-04-12T07:01:47.780Z</time>
      </trkpt>
      <trkpt lat="45.235" lon="6.05178">
        <ele>2521.1</ele>
        <time>2015-04-12T07:01:59.880Z</time>
      </trkpt>
      <trkpt lat="45.23511" lon="6.05179">
        <ele>2532.3</ele>
        <time>2015-04-12T07:02:35.790Z</time>
      </trkpt>
      <trkpt lat="45.23517" lon="6.05196">
        <ele>2535.5</ele>
        <time>2015-04-12T07:02:47.780Z</time>
      </trkpt>
      <trkpt lat="45.23519" lon="6.05212">
        <ele>2539.1</ele>
        <time>2015-04-12T07:02:59.780Z</time>
      </trkpt>
      <trkpt lat="45.23532" lon="6.05208">
        <ele>2543</ele>
        <time>2015-04-12T07:03:15.780Z</time>
      </trkpt>
      <trkpt lat="45.23543" lon="6.05211">
        <ele>2548.9</ele>
        <time>2015-04-12T07:03:35.780Z</time>
      </trkpt>
      <trkpt lat="45.23549" lon="6.05225">
        <ele>2556.1</ele>
        <time>2015-04-12T07:03:59.790Z</time>
      </trkpt>
      <trkpt lat="45.2356" lon="6.05225">
        <ele>2562.7</ele>
        <time>2015-04-12T07:04:31.790Z</time>
      </trkpt>
      <trkpt lat="45.23571" lon="6.05218">
        <ele>2572</ele>
        <time>2015-04-12T07:04:59.780Z</time>
      </trkpt>
      <trkpt lat="45.23578" lon="6.05235">
        <ele>2577</ele>
        <time>2015-04-12T07:05:19.780Z</time>
      </trkpt>
      <trkpt lat="45.23589" lon="6.05225">
        <ele>2580.5</ele>
        <time>2015-04-12T07:05:35.780Z</time>
      </trkpt>
      <trkpt lat="45.23597" lon="6.05215">
        <ele>2582.9</ele>
        <time>2015-04-12T07:05:43.780Z</time>
      </trkpt>
      <trkpt lat="45.23604" lon="6.05228">
        <ele>2590.3</ele>
        <time>2015-04-12T07:06:15.780Z</time>
      </trkpt>
      <trkpt lat="45.23613" lon="6.05232">
        <ele>2592.7</ele>
        <time>2015-04-12T07:06:27.790Z</time>
      </trkpt>
      <trkpt lat="45.23603" lon="6.05242">
        <ele>2594.3</ele>
        <time>2015-04-12T07:06:35.790Z</time>
      </trkpt>
      <trkpt lat="45.23606" lon="6.05256">
        <ele>2595.4</ele>
        <time>2015-04-12T07:06:43.780Z</time>
      </trkpt>
      <trkpt lat="45.23607" lon="6.05275">
        <ele>2602.3</ele>
        <time>2015-04-12T07:07:03.780Z</time>
      </trkpt>
      <trkpt lat="45.23596" lon="6.05268">
        <ele>2605</ele>
        <time>2015-04-12T07:07:27.790Z</time>
      </trkpt>
      <trkpt lat="45.23601" lon="6.05284">
        <ele>2605.2</ele>
        <time>2015-04-12T07:07:41.500Z</time>
      </trkpt>
      <trkpt lat="45.2361" lon="6.05278">
        <ele>2606.6</ele>
        <time>2015-04-12T07:08:25.780Z</time>
      </trkpt>
      <trkpt lat="45.23609" lon="6.05264">
        <ele>2607</ele>
        <time>2015-04-12T07:08:33.780Z</time>
      </trkpt>
      <trkpt lat="45.23619" lon="6.05276">
        <ele>2606</ele>
        <time>2015-04-12T07:08:58.500Z</time>
      </trkpt>
      <trkpt lat="45.2363" lon="6.05281">
        <ele>2626.3</ele>
        <time>2015-04-12T07:09:50.780Z</time>
      </trkpt>
      <trkpt lat="45.23632" lon="6.05295">
        <ele>2630.9</ele>
        <time>2015-04-12T07:10:06.780Z</time>
      </trkpt>
      <trkpt lat="45.23644" lon="6.05298">
        <ele>2638</ele>
        <time>2015-04-12T07:10:32.980Z</time>
      </trkpt>
      <trkpt lat="45.23645" lon="6.05313">
        <ele>2642</ele>
        <time>2015-04-12T07:10:52.780Z</time>
      </trkpt>
      <trkpt lat="45.23655" lon="6.05314">
        <ele>2648.8</ele>
        <time>2015-04-12T07:11:08.780Z</time>
      </trkpt>
      <trkpt lat="45.23663" lon="6.05302">
        <ele>2654.1</ele>
        <time>2015-04-12T07:11:24.780Z</time>
      </trkpt>
      <trkpt lat="45.23669" lon="6.05317">
        <ele>2657.4</ele>
        <time>2015-04-12T07:11:40.780Z</time>
      </trkpt>
      <trkpt lat="45.23682" lon="6.05304">
        <ele>2666.7</ele>
        <time>2015-04-12T07:12:08.500Z</time>
      </trkpt>
      <trkpt lat="45.23686" lon="6.05321">
        <ele>2674.5</ele>
        <time>2015-04-12T07:12:40.780Z</time>
      </trkpt>
      <trkpt lat="45.23691" lon="6.05335">
        <ele>2684</ele>
        <time>2015-04-12T07:13:12.780Z</time>
      </trkpt>
      <trkpt lat="45.23701" lon="6.05342">
        <ele>2697</ele>
        <time>2015-04-12T07:14:00.780Z</time>
      </trkpt>
      <trkpt lat="45.2371" lon="6.05351">
        <ele>2705.9</ele>
        <time>2015-04-12T07:14:36.780Z</time>
      </trkpt>
      <trkpt lat="45.23699" lon="6.0536">
        <ele>2710.7</ele>
        <time>2015-04-12T07:14:48.790Z</time>
      </trkpt>
      <trkpt lat="45.23688" lon="6.05364">
        <ele>2719.7</ele>
        <time>2015-04-12T07:15:36.780Z</time>
      </trkpt>
      <trkpt lat="45.23692" lon="6.05375">
        <ele>2720</ele>
        <time>2015-04-12T07:15:52.780Z</time>
      </trkpt>
      <trkpt lat="45.2369" lon="6.05384">
        <ele>2722.5</ele>
        <time>2015-04-12T07:16:16.780Z</time>
      </trkpt>
      <trkpt lat="45.23681" lon="6.05389">
        <ele>2725</ele>
        <time>2015-04-12T07:17:12.780Z</time>
      </trkpt>
      <trkpt lat="45.2369" lon="6.05385">
        <ele>2725</ele>
        <time>2015-04-12T07:18:48.780Z</time>
      </trkpt>
      <trkpt lat="45.23679" lon="6.05382">
        <ele>2724.7</ele>
        <time>2015-04-12T07:19:56.780Z</time>
      </trkpt>
      <trkpt lat="45.2369" lon="6.05386">
        <ele>2726.3</ele>
        <time>2015-04-12T07:21:16.790Z</time>
      </trkpt>
      <trkpt lat="45.23681" lon="6.054">
        <ele>2726.2</ele>
        <time>2015-04-12T07:26:20.880Z</time>
      </trkpt>
      <trkpt lat="45.2369" lon="6.0543">
        <ele>2721.4</ele>
        <time>2015-04-12T07:26:28.880Z</time>
      </trkpt>
      <trkpt lat="45.23689" lon="6.05634">
        <ele>2625.7</ele>
        <time>2015-04-12T07:26:44.880Z</time>
      </trkpt>
      <trkpt lat="45.2367" lon="6.05731">
        <ele>2584.1</ele>
        <time>2015-04-12T07:26:52.880Z</time>
      </trkpt>
      <trkpt lat="45.23709" lon="6.05836">
        <ele>2550.1</ele>
        <time>2015-04-12T07:27:00.880Z</time>
      </trkpt>
      <trkpt lat="45.23745" lon="6.05977">
        <ele>2522.1</ele>
        <time>2015-04-12T07:27:08.880Z</time>
      </trkpt>
      <trkpt lat="45.23777" lon="6.06064">
        <ele>2512.6</ele>
        <time>2015-04-12T07:27:16.880Z</time>
      </trkpt>
      <trkpt lat="45.23835" lon="6.06143">
        <ele>2498.1</ele>
        <time>2015-04-12T07:27:24.880Z</time>
      </trkpt>
      <trkpt lat="45.23905" lon="6.06541">
        <ele>2458</ele>
        <time>2015-04-12T07:27:48.880Z</time>
      </trkpt>
      <trkpt lat="45.2389" lon="6.06683">
        <ele>2445.2</ele>
        <time>2015-04-12T07:27:56.880Z</time>
      </trkpt>
      <trkpt lat="45.23835" lon="6.06863">
        <ele>2427.6</ele>
        <time>2015-04-12T07:28:12.880Z</time>
      </trkpt>
      <trkpt lat="45.23839" lon="6.07036">
        <ele>2420.3</ele>
        <time>2015-04-12T07:28:28.880Z</time>
      </trkpt>
      <trkpt lat="45.23818" lon="6.07172">
        <ele>2406</ele>
        <time>2015-04-12T07:28:36.880Z</time>
      </trkpt>
      <trkpt lat="45.23828" lon="6.07289">
        <ele>2388.6</ele>
        <time>2015-04-12T07:28:44.880Z</time>
      </trkpt>
      <trkpt lat="45.23873" lon="6.07513">
        <ele>2363.9</ele>
        <time>2015-04-12T07:29:00.980Z</time>
      </trkpt>
      <trkpt lat="45.23881" lon="6.07618">
        <ele>2347.5</ele>
        <time>2015-04-12T07:29:08.780Z</time>
      </trkpt>
      <trkpt lat="45.23875" lon="6.07693">
        <ele>2327</ele>
        <time>2015-04-12T07:29:16.780Z</time>
      </trkpt>
      <trkpt lat="45.23834" lon="6.07821">
        <ele>2282.5</ele>
        <time>2015-04-12T07:29:32.780Z</time>
      </trkpt>
      <trkpt lat="45.23828" lon="6.07918">
        <ele>2264.2</ele>
        <time>2015-04-12T07:29:40.780Z</time>
      </trkpt>
      <trkpt lat="45.23817" lon="6.07954">
        <ele>2254.7</ele>
        <time>2015-04-12T07:30:00.780Z</time>
      </trkpt>
      <trkpt lat="45.23776" lon="6.08026">
        <ele>2228.3</ele>
        <time>2015-04-12T07:30:08.780Z</time>
      </trkpt>
      <trkpt lat="45.23749" lon="6.08129">
        <ele>2193</ele>
        <time>2015-04-12T07:30:16.980Z</time>
      </trkpt>
      <trkpt lat="45.23749" lon="6.08256">
        <ele>2178.3</ele>
        <time>2015-04-12T07:30:24.780Z</time>
      </trkpt>
      <trkpt lat="45.23763" lon="6.0831">
        <ele>2175.3</ele>
        <time>2015-04-12T07:30:32.780Z</time>
      </trkpt>
      <trkpt lat="45.23794" lon="6.08338">
        <ele>2176</ele>
        <time>2015-04-12T07:30:40.780Z</time>
      </trkpt>
      <trkpt lat="45.23833" lon="6.08348">
        <ele>2176.3</ele>
        <time>2015-04-12T07:30:52.780Z</time>
      </trkpt>
      <trkpt lat="45.23862" lon="6.08358">
        <ele>2177.1</ele>
        <time>2015-04-12T07:31:00.780Z</time>
      </trkpt>
      <trkpt lat="45.23886" lon="6.08392">
        <ele>2178.3</ele>
        <time>2015-04-12T07:31:12.780Z</time>
      </trkpt>
      <trkpt lat="45.23894" lon="6.08441">
        <ele>2179.5</ele>
        <time>2015-04-12T07:31:24.780Z</time>
      </trkpt>
      <trkpt lat="45.23917" lon="6.08511">
        <ele>2182</ele>
        <time>2015-04-12T07:31:56.790Z</time>
      </trkpt>
      <trkpt lat="45.23907" lon="6.08517">
        <ele>2182.9</ele>
        <time>2015-04-12T07:32:08.780Z</time>
      </trkpt>
      <trkpt lat="45.23922" lon="6.08517">
        <ele>2181.7</ele>
        <time>2015-04-12T07:32:32.780Z</time>
      </trkpt>
      <trkpt lat="45.23926" lon="6.08533">
        <ele>2182.4</ele>
        <time>2015-04-12T07:33:20.780Z</time>
      </trkpt>
      <trkpt lat="45.23927" lon="6.08555">
        <ele>2184.8</ele>
        <time>2015-04-12T07:33:28.780Z</time>
      </trkpt>
      <trkpt lat="45.23923" lon="6.0857">
        <ele>2189.1</ele>
        <time>2015-04-12T07:33:40.780Z</time>
      </trkpt>
      <trkpt lat="45.23924" lon="6.08589">
        <ele>2192.2</ele>
        <time>2015-04-12T07:33:56.780Z</time>
      </trkpt>
      <trkpt lat="45.23934" lon="6.08604">
        <ele>2194.6</ele>
        <time>2015-04-12T07:34:04.780Z</time>
      </trkpt>
      <trkpt lat="45.23939" lon="6.08619">
        <ele>2196.7</ele>
        <time>2015-04-12T07:34:16.780Z</time>
      </trkpt>
      <trkpt lat="45.23939" lon="6.08635">
        <ele>2198.6</ele>
        <time>2015-04-12T07:34:24.780Z</time>
      </trkpt>
      <trkpt lat="45.23947" lon="6.08645">
        <ele>2203.3</ele>
        <time>2015-04-12T07:34:40.790Z</time>
      </trkpt>
      <trkpt lat="45.23945" lon="6.0866">
        <ele>2206</ele>
        <time>2015-04-12T07:34:52.780Z</time>
      </trkpt>
      <trkpt lat="45.23948" lon="6.08677">
        <ele>2210.8</ele>
        <time>2015-04-12T07:35:08.780Z</time>
      </trkpt>
      <trkpt lat="45.23958" lon="6.08692">
        <ele>2213.6</ele>
        <time>2015-04-12T07:35:20.980Z</time>
      </trkpt>
      <trkpt lat="45.23973" lon="6.08706">
        <ele>2217.7</ele>
        <time>2015-04-12T07:35:32.780Z</time>
      </trkpt>
      <trkpt lat="45.23969" lon="6.0872">
        <ele>2221.8</ele>
        <time>2015-04-12T07:35:48.780Z</time>
      </trkpt>
      <trkpt lat="45.23973" lon="6.08735">
        <ele>2226.4</ele>
        <time>2015-04-12T07:36:00.980Z</time>
      </trkpt>
      <trkpt lat="45.23982" lon="6.08749">
        <ele>2230</ele>
        <time>2015-04-12T07:36:12.780Z</time>
      </trkpt>
      <trkpt lat="45.23995" lon="6.08761">
        <ele>2233.1</ele>
        <time>2015-04-12T07:36:24.780Z</time>
      </trkpt>
      <trkpt lat="45.24005" lon="6.08775">
        <ele>2242</ele>
        <time>2015-04-12T07:36:52.780Z</time>
      </trkpt>
      <trkpt lat="45.24019" lon="6.08788">
        <ele>2247.7</ele>
        <time>2015-04-12T07:37:08.780Z</time>
      </trkpt>
      <trkpt lat="45.24027" lon="6.088">
        <ele>2250.2</ele>
        <time>2015-04-12T07:37:16.780Z</time>
      </trkpt>
      <trkpt lat="45.2404" lon="6.08814">
        <ele>2252.6</ele>
        <time>2015-04-12T07:37:24.780Z</time>
      </trkpt>
      <trkpt lat="45.24045" lon="6.0883">
        <ele>2254</ele>
        <time>2015-04-12T07:37:32.780Z</time>
      </trkpt>
      <trkpt lat="45.24048" lon="6.08846">
        <ele>2260.5</ele>
        <time>2015-04-12T07:37:56.980Z</time>
      </trkpt>
      <trkpt lat="45.24058" lon="6.08854">
        <ele>2261</ele>
        <time>2015-04-12T07:38:04.980Z</time>
      </trkpt>
      <trkpt lat="45.24085" lon="6.08913">
        <ele>2262</ele>
        <time>2015-04-12T07:38:28.780Z</time>
      </trkpt>
      <trkpt lat="45.24093" lon="6.08944">
        <ele>2259</ele>
        <time>2015-04-12T07:38:40.780Z</time>
      </trkpt>
      <trkpt lat="45.24085" lon="6.09004">
        <ele>2260</ele>
        <time>2015-04-12T07:39:08.790Z</time>
      </trkpt>
      <trkpt lat="45.24079" lon="6.09032">
        <ele>2260</ele>
        <time>2015-04-12T07:39:16.980Z</time>
      </trkpt>
      <trkpt lat="45.24083" lon="6.09045">
        <ele>2260</ele>
        <time>2015-04-12T07:39:24.790Z</time>
      </trkpt>
      <trkpt lat="45.24076" lon="6.09071">
        <ele>2260</ele>
        <time>2015-04-12T07:39:36.990Z</time>
      </trkpt>
      <trkpt lat="45.24069" lon="6.09153">
        <ele>2272.1</ele>
        <time>2015-04-12T07:40:24.990Z</time>
      </trkpt>
      <trkpt lat="45.24051" lon="6.09232">
        <ele>2288.1</ele>
        <time>2015-04-12T07:41:24.980Z</time>
      </trkpt>
      <trkpt lat="45.24047" lon="6.09246">
        <ele>2292.7</ele>
        <time>2015-04-12T07:41:36.980Z</time>
      </trkpt>
      <trkpt lat="45.24043" lon="6.0926">
        <ele>2296.8</ele>
        <time>2015-04-12T07:41:48.980Z</time>
      </trkpt>
      <trkpt lat="45.24045" lon="6.09278">
        <ele>2301.6</ele>
        <time>2015-04-12T07:42:04.980Z</time>
      </trkpt>
      <trkpt lat="45.24039" lon="6.09289">
        <ele>2305.6</ele>
        <time>2015-04-12T07:42:20.980Z</time>
      </trkpt>
      <trkpt lat="45.24048" lon="6.09307">
        <ele>2316.2</ele>
        <time>2015-04-12T07:42:56.980Z</time>
      </trkpt>
      <trkpt lat="45.24058" lon="6.09304">
        <ele>2320.8</ele>
        <time>2015-04-12T07:43:08.990Z</time>
      </trkpt>
      <trkpt lat="45.24068" lon="6.09304">
        <ele>2324.3</ele>
        <time>2015-04-12T07:43:20.980Z</time>
      </trkpt>
      <trkpt lat="45.2408" lon="6.09315">
        <ele>2328.2</ele>
        <time>2015-04-12T07:43:36.980Z</time>
      </trkpt>
      <trkpt lat="45.24076" lon="6.09329">
        <ele>2333.3</ele>
        <time>2015-04-12T07:44:00.980Z</time>
      </trkpt>
      <trkpt lat="45.2407" lon="6.09335">
        <ele>2334.9</ele>
        <time>2015-04-12T07:44:08.980Z</time>
      </trkpt>
      <trkpt lat="45.24067" lon="6.09343">
        <ele>2338</ele>
        <time>2015-04-12T07:44:20.990Z</time>
      </trkpt>
      <trkpt lat="45.24075" lon="6.09349">
        <ele>2340.4</ele>
        <time>2015-04-12T07:44:32.980Z</time>
      </trkpt>
      <trkpt lat="45.2408" lon="6.09364">
        <ele>2346.6</ele>
        <time>2015-04-12T07:44:44.980Z</time>
      </trkpt>
      <trkpt lat="45.24082" lon="6.09378">
        <ele>2349.5</ele>
        <time>2015-04-12T07:44:56.980Z</time>
      </trkpt>
      <trkpt lat="45.24081" lon="6.09392">
        <ele>2353</ele>
        <time>2015-04-12T07:45:12.980Z</time>
      </trkpt>
      <trkpt lat="45.2407" lon="6.09387">
        <ele>2356.7</ele>
        <time>2015-04-12T07:45:24.990Z</time>
      </trkpt>
      <trkpt lat="45.24061" lon="6.09387">
        <ele>2360.2</ele>
        <time>2015-04-12T07:45:36.980Z</time>
      </trkpt>
      <trkpt lat="45.24064" lon="6.09404">
        <ele>2367.6</ele>
        <time>2015-04-12T07:46:04.980Z</time>
      </trkpt>
      <trkpt lat="45.24072" lon="6.09432">
        <ele>2373.8</ele>
        <time>2015-04-12T07:46:28.980Z</time>
      </trkpt>
      <trkpt lat="45.24097" lon="6.09484">
        <ele>2386.3</ele>
        <time>2015-04-12T07:47:20.990Z</time>
      </trkpt>
      <trkpt lat="45.24077" lon="6.09492">
        <ele>2394</ele>
        <time>2015-04-12T07:47:56.980Z</time>
      </trkpt>
      <trkpt lat="45.24078" lon="6.09509">
        <ele>2399.7</ele>
        <time>2015-04-12T07:48:12.980Z</time>
      </trkpt>
      <trkpt lat="45.24077" lon="6.09525">
        <ele>2404.8</ele>
        <time>2015-04-12T07:48:28.980Z</time>
      </trkpt>
      <trkpt lat="45.2407" lon="6.09539">
        <ele>2408.6</ele>
        <time>2015-04-12T07:48:44.980Z</time>
      </trkpt>
      <trkpt lat="45.24066" lon="6.09557">
        <ele>2410</ele>
        <time>2015-04-12T07:48:56.980Z</time>
      </trkpt>
      <trkpt lat="45.24063" lon="6.0959">
        <ele>2417.6</ele>
        <time>2015-04-12T07:49:24.980Z</time>
      </trkpt>
      <trkpt lat="45.24067" lon="6.09612">
        <ele>2422.2</ele>
        <time>2015-04-12T07:49:42.400Z</time>
      </trkpt>
      <trkpt lat="45.24057" lon="6.09618">
        <ele>2425.4</ele>
        <time>2015-04-12T07:49:50.700Z</time>
      </trkpt>
      <trkpt lat="45.24047" lon="6.09616">
        <ele>2430.4</ele>
        <time>2015-04-12T07:50:10.980Z</time>
      </trkpt>
      <trkpt lat="45.24037" lon="6.09626">
        <ele>2432.8</ele>
        <time>2015-04-12T07:50:18.980Z</time>
      </trkpt>
      <trkpt lat="45.24028" lon="6.09663">
        <ele>2439.7</ele>
        <time>2015-04-12T07:50:42.980Z</time>
      </trkpt>
      <trkpt lat="45.2403" lon="6.09677">
        <ele>2441.3</ele>
        <time>2015-04-12T07:50:50.980Z</time>
      </trkpt>
      <trkpt lat="45.24038" lon="6.09686">
        <ele>2451.3</ele>
        <time>2015-04-12T07:51:22.980Z</time>
      </trkpt>
      <trkpt lat="45.24047" lon="6.0972">
        <ele>2459.2</ele>
        <time>2015-04-12T07:51:54.980Z</time>
      </trkpt>
      <trkpt lat="45.24036" lon="6.09732">
        <ele>2463.6</ele>
        <time>2015-04-12T07:52:14.980Z</time>
      </trkpt>
      <trkpt lat="45.24026" lon="6.09738">
        <ele>2465.4</ele>
        <time>2015-04-12T07:52:21.700Z</time>
      </trkpt>
      <trkpt lat="45.24016" lon="6.09731">
        <ele>2471.5</ele>
        <time>2015-04-12T07:52:41.980Z</time>
      </trkpt>
      <trkpt lat="45.24009" lon="6.09752">
        <ele>2474.3</ele>
        <time>2015-04-12T07:52:53.980Z</time>
      </trkpt>
      <trkpt lat="45.2401" lon="6.09766">
        <ele>2476</ele>
        <time>2015-04-12T07:53:01.980Z</time>
      </trkpt>
      <trkpt lat="45.24002" lon="6.09777">
        <ele>2476.2</ele>
        <time>2015-04-12T07:53:09.980Z</time>
      </trkpt>
      <trkpt lat="45.23991" lon="6.09787">
        <ele>2482.9</ele>
        <time>2015-04-12T07:53:25.980Z</time>
      </trkpt>
      <trkpt lat="45.23989" lon="6.09805">
        <ele>2488.3</ele>
        <time>2015-04-12T07:53:45.980Z</time>
      </trkpt>
      <trkpt lat="45.23999" lon="6.09813">
        <ele>2491.5</ele>
        <time>2015-04-12T07:53:57.980Z</time>
      </trkpt>
      <trkpt lat="45.24" lon="6.09828">
        <ele>2498.5</ele>
        <time>2015-04-12T07:54:21.980Z</time>
      </trkpt>
      <trkpt lat="45.23979" lon="6.09841">
        <ele>2503.5</ele>
        <time>2015-04-12T07:54:41.990Z</time>
      </trkpt>
      <trkpt lat="45.23971" lon="6.09849">
        <ele>2506.7</ele>
        <time>2015-04-12T07:54:57.990Z</time>
      </trkpt>
      <trkpt lat="45.2396" lon="6.09859">
        <ele>2512</ele>
        <time>2015-04-12T07:55:21.990Z</time>
      </trkpt>
      <trkpt lat="45.23972" lon="6.09866">
        <ele>2512.3</ele>
        <time>2015-04-12T07:55:29.990Z</time>
      </trkpt>
      <trkpt lat="45.23982" lon="6.09871">
        <ele>2522</ele>
        <time>2015-04-12T07:56:01.880Z</time>
      </trkpt>
      <trkpt lat="45.23996" lon="6.09873">
        <ele>2525.9</ele>
        <time>2015-04-12T07:56:13.980Z</time>
      </trkpt>
      <trkpt lat="45.2401" lon="6.09882">
        <ele>2528.3</ele>
        <time>2015-04-12T07:56:25.990Z</time>
      </trkpt>
      <trkpt lat="45.24" lon="6.09893">
        <ele>2533.6</ele>
        <time>2015-04-12T07:56:45.980Z</time>
      </trkpt>
      <trkpt lat="45.23999" lon="6.0991">
        <ele>2537</ele>
        <time>2015-04-12T07:57:01.980Z</time>
      </trkpt>
      <trkpt lat="45.24003" lon="6.09925">
        <ele>2543.9</ele>
        <time>2015-04-12T07:57:13.890Z</time>
      </trkpt>
      <trkpt lat="45.24003" lon="6.09944">
        <ele>2548.5</ele>
        <time>2015-04-12T07:57:37.980Z</time>
      </trkpt>
      <trkpt lat="45.23991" lon="6.09974">
        <ele>2556.6</ele>
        <time>2015-04-12T07:58:05.880Z</time>
      </trkpt>
      <trkpt lat="45.23995" lon="6.09991">
        <ele>2560.7</ele>
        <time>2015-04-12T07:58:21.880Z</time>
      </trkpt>
      <trkpt lat="45.23982" lon="6.1">
        <ele>2563.9</ele>
        <time>2015-04-12T07:58:33.890Z</time>
      </trkpt>
      <trkpt lat="45.23973" lon="6.10007">
        <ele>2565.7</ele>
        <time>2015-04-12T07:58:41.980Z</time>
      </trkpt>
      <trkpt lat="45.23973" lon="6.10023">
        <ele>2568</ele>
        <time>2015-04-12T07:58:49.890Z</time>
      </trkpt>
      <trkpt lat="45.23964" lon="6.10053">
        <ele>2574.3</ele>
        <time>2015-04-12T07:59:13.890Z</time>
      </trkpt>
      <trkpt lat="45.23962" lon="6.1007">
        <ele>2577.3</ele>
        <time>2015-04-12T07:59:25.880Z</time>
      </trkpt>
      <trkpt lat="45.23952" lon="6.10102">
        <ele>2586.2</ele>
        <time>2015-04-12T08:00:01.880Z</time>
      </trkpt>
      <trkpt lat="45.23949" lon="6.1015">
        <ele>2595.7</ele>
        <time>2015-04-12T08:00:41.880Z</time>
      </trkpt>
      <trkpt lat="45.23955" lon="6.10165">
        <ele>2598.1</ele>
        <time>2015-04-12T08:00:49.880Z</time>
      </trkpt>
      <trkpt lat="45.2395" lon="6.10179">
        <ele>2601</ele>
        <time>2015-04-12T08:01:01.880Z</time>
      </trkpt>
      <trkpt lat="45.2395" lon="6.10213">
        <ele>2609.9</ele>
        <time>2015-04-12T08:01:33.880Z</time>
      </trkpt>
      <trkpt lat="45.23944" lon="6.10229">
        <ele>2611.5</ele>
        <time>2015-04-12T08:01:41.880Z</time>
      </trkpt>
      <trkpt lat="45.23943" lon="6.10245">
        <ele>2613.2</ele>
        <time>2015-04-12T08:01:49.880Z</time>
      </trkpt>
      <trkpt lat="45.23949" lon="6.1026">
        <ele>2617.5</ele>
        <time>2015-04-12T08:02:01.880Z</time>
      </trkpt>
      <trkpt lat="45.23947" lon="6.10274">
        <ele>2624.2</ele>
        <time>2015-04-12T08:02:29.880Z</time>
      </trkpt>
      <trkpt lat="45.2395" lon="6.10295">
        <ele>2628.5</ele>
        <time>2015-04-12T08:02:41.890Z</time>
      </trkpt>
      <trkpt lat="45.23949" lon="6.10311">
        <ele>2631.7</ele>
        <time>2015-04-12T08:02:57.890Z</time>
      </trkpt>
      <trkpt lat="45.23942" lon="6.10326">
        <ele>2632.6</ele>
        <time>2015-04-12T08:03:05.890Z</time>
      </trkpt>
      <trkpt lat="45.2393" lon="6.10342">
        <ele>2635.5</ele>
        <time>2015-04-12T08:03:17.880Z</time>
      </trkpt>
      <trkpt lat="45.23928" lon="6.10356">
        <ele>2641.4</ele>
        <time>2015-04-12T08:03:37.890Z</time>
      </trkpt>
      <trkpt lat="45.23936" lon="6.10403">
        <ele>2649.1</ele>
        <time>2015-04-12T08:04:09.890Z</time>
      </trkpt>
      <trkpt lat="45.23929" lon="6.10418">
        <ele>2652.5</ele>
        <time>2015-04-12T08:04:21.880Z</time>
      </trkpt>
      <trkpt lat="45.23921" lon="6.10428">
        <ele>2659</ele>
        <time>2015-04-12T08:04:53.880Z</time>
      </trkpt>
      <trkpt lat="45.23925" lon="6.10449">
        <ele>2662.2</ele>
        <time>2015-04-12T08:05:13.880Z</time>
      </trkpt>
      <trkpt lat="45.23923" lon="6.10468">
        <ele>2665.5</ele>
        <time>2015-04-12T08:05:21.880Z</time>
      </trkpt>
      <trkpt lat="45.23915" lon="6.10482">
        <ele>2669.5</ele>
        <time>2015-04-12T08:05:37.880Z</time>
      </trkpt>
      <trkpt lat="45.23906" lon="6.10492">
        <ele>2676.4</ele>
        <time>2015-04-12T08:05:57.880Z</time>
      </trkpt>
      <trkpt lat="45.23903" lon="6.10509">
        <ele>2680.7</ele>
        <time>2015-04-12T08:06:17.880Z</time>
      </trkpt>
      <trkpt lat="45.23905" lon="6.10539">
        <ele>2684.3</ele>
        <time>2015-04-12T08:06:33.880Z</time>
      </trkpt>
      <trkpt lat="45.23908" lon="6.10556">
        <ele>2690.9</ele>
        <time>2015-04-12T08:06:53.890Z</time>
      </trkpt>
      <trkpt lat="45.23914" lon="6.1057">
        <ele>2694.8</ele>
        <time>2015-04-12T08:07:13.880Z</time>
      </trkpt>
      <trkpt lat="45.23914" lon="6.10607">
        <ele>2703.6</ele>
        <time>2015-04-12T08:07:45.880Z</time>
      </trkpt>
      <trkpt lat="45.23921" lon="6.10621">
        <ele>2707.4</ele>
        <time>2015-04-12T08:07:57.890Z</time>
      </trkpt>
      <trkpt lat="45.23917" lon="6.10635">
        <ele>2711.8</ele>
        <time>2015-04-12T08:08:13.890Z</time>
      </trkpt>
      <trkpt lat="45.23903" lon="6.10641">
        <ele>2718.7</ele>
        <time>2015-04-12T08:08:37.890Z</time>
      </trkpt>
      <trkpt lat="45.23894" lon="6.10634">
        <ele>2719</ele>
        <time>2015-04-12T08:08:45.890Z</time>
      </trkpt>
      <trkpt lat="45.23883" lon="6.10634">
        <ele>2723.7</ele>
        <time>2015-04-12T08:09:01.890Z</time>
      </trkpt>
      <trkpt lat="45.23873" lon="6.10631">
        <ele>2728.6</ele>
        <time>2015-04-12T08:09:25.890Z</time>
      </trkpt>
      <trkpt lat="45.23865" lon="6.10619">
        <ele>2729.8</ele>
        <time>2015-04-12T08:09:37.890Z</time>
      </trkpt>
      <trkpt lat="45.23856" lon="6.10628">
        <ele>2733.2</ele>
        <time>2015-04-12T08:09:49.890Z</time>
      </trkpt>
      <trkpt lat="45.23864" lon="6.10642">
        <ele>2737.6</ele>
        <time>2015-04-12T08:10:05.890Z</time>
      </trkpt>
      <trkpt lat="45.23873" lon="6.10655">
        <ele>2740.5</ele>
        <time>2015-04-12T08:10:17.880Z</time>
      </trkpt>
      <trkpt lat="45.23869" lon="6.10688">
        <ele>2745</ele>
        <time>2015-04-12T08:10:45.880Z</time>
      </trkpt>
      <trkpt lat="45.23878" lon="6.10719">
        <ele>2757.3</ele>
        <time>2015-04-12T08:12:05.880Z</time>
      </trkpt>
      <trkpt lat="45.2387" lon="6.10733">
        <ele>2765.7</ele>
        <time>2015-04-12T08:12:37.880Z</time>
      </trkpt>
      <trkpt lat="45.23875" lon="6.10747">
        <ele>2773.1</ele>
        <time>2015-04-12T08:13:09.880Z</time>
      </trkpt>
      <trkpt lat="45.23866" lon="6.10754">
        <ele>2784</ele>
        <time>2015-04-12T08:14:01.610Z</time>
      </trkpt>
      <trkpt lat="45.23859" lon="6.10765">
        <ele>2788.2</ele>
        <time>2015-04-12T08:14:17.890Z</time>
      </trkpt>
      <trkpt lat="45.23847" lon="6.10766">
        <ele>2794.6</ele>
        <time>2015-04-12T08:14:45.880Z</time>
      </trkpt>
      <trkpt lat="45.23851" lon="6.10782">
        <ele>2803.6</ele>
        <time>2015-04-12T08:15:25.880Z</time>
      </trkpt>
      <trkpt lat="45.23862" lon="6.10789">
        <ele>2813</ele>
        <time>2015-04-12T08:16:09.880Z</time>
      </trkpt>
      <trkpt lat="45.2387" lon="6.108">
        <ele>2817</ele>
        <time>2015-04-12T08:16:33.880Z</time>
      </trkpt>
      <trkpt lat="45.23876" lon="6.1079">
        <ele>2817.2</ele>
        <time>2015-04-12T08:17:01.880Z</time>
      </trkpt>
      <trkpt lat="45.23903" lon="6.10795">
        <ele>2818</ele>
        <time>2015-04-12T08:17:41.880Z</time>
      </trkpt>
      <trkpt lat="45.23927" lon="6.10787">
        <ele>2818</ele>
        <time>2015-04-12T08:17:53.880Z</time>
      </trkpt>
      <trkpt lat="45.23938" lon="6.10788">
        <ele>2818</ele>
        <time>2015-04-12T08:18:05.890Z</time>
      </trkpt>
      <trkpt lat="45.23948" lon="6.10792">
        <ele>2820</ele>
        <time>2015-04-12T08:18:21.890Z</time>
      </trkpt>
      <trkpt lat="45.23959" lon="6.10794">
        <ele>2823</ele>
        <time>2015-04-12T08:18:37.890Z</time>
      </trkpt>
      <trkpt lat="45.23968" lon="6.10782">
        <ele>2826.1</ele>
        <time>2015-04-12T08:18:49.880Z</time>
      </trkpt>
      <trkpt lat="45.23982" lon="6.10779">
        <ele>2830.6</ele>
        <time>2015-04-12T08:19:05.880Z</time>
      </trkpt>
      <trkpt lat="45.23992" lon="6.10784">
        <ele>2834.5</ele>
        <time>2015-04-12T08:19:21.880Z</time>
      </trkpt>
      <trkpt lat="45.24004" lon="6.10783">
        <ele>2836</ele>
        <time>2015-04-12T08:19:33.880Z</time>
      </trkpt>
      <trkpt lat="45.24011" lon="6.10766">
        <ele>2840.2</ele>
        <time>2015-04-12T08:19:49.880Z</time>
      </trkpt>
      <trkpt lat="45.24021" lon="6.10762">
        <ele>2846.1</ele>
        <time>2015-04-12T08:20:09.880Z</time>
      </trkpt>
      <trkpt lat="45.24032" lon="6.1077">
        <ele>2848.2</ele>
        <time>2015-04-12T08:20:21.880Z</time>
      </trkpt>
      <trkpt lat="45.24041" lon="6.10778">
        <ele>2852.4</ele>
        <time>2015-04-12T08:20:37.880Z</time>
      </trkpt>
      <trkpt lat="45.24052" lon="6.10786">
        <ele>2857.9</ele>
        <time>2015-04-12T08:20:53.880Z</time>
      </trkpt>
      <trkpt lat="45.24059" lon="6.1077">
        <ele>2870.9</ele>
        <time>2015-04-12T08:21:45.890Z</time>
      </trkpt>
      <trkpt lat="45.24061" lon="6.10755">
        <ele>2872.8</ele>
        <time>2015-04-12T08:21:57.880Z</time>
      </trkpt>
      <trkpt lat="45.24066" lon="6.1074">
        <ele>2876.1</ele>
        <time>2015-04-12T08:22:09.880Z</time>
      </trkpt>
      <trkpt lat="45.24069" lon="6.10756">
        <ele>2883.8</ele>
        <time>2015-04-12T08:22:37.880Z</time>
      </trkpt>
      <trkpt lat="45.24081" lon="6.10748">
        <ele>2888.6</ele>
        <time>2015-04-12T08:23:05.890Z</time>
      </trkpt>
      <trkpt lat="45.24088" lon="6.10734">
        <ele>2891.2</ele>
        <time>2015-04-12T08:23:13.890Z</time>
      </trkpt>
      <trkpt lat="45.24093" lon="6.10721">
        <ele>2901.1</ele>
        <time>2015-04-12T08:23:49.880Z</time>
      </trkpt>
      <trkpt lat="45.24105" lon="6.1072">
        <ele>2907.3</ele>
        <time>2015-04-12T08:24:13.880Z</time>
      </trkpt>
      <trkpt lat="45.24114" lon="6.10728">
        <ele>2918.5</ele>
        <time>2015-04-12T08:24:57.890Z</time>
      </trkpt>
      <trkpt lat="45.24116" lon="6.10743">
        <ele>2921.1</ele>
        <time>2015-04-12T08:25:09.880Z</time>
      </trkpt>
      <trkpt lat="45.24127" lon="6.10744">
        <ele>2923.2</ele>
        <time>2015-04-12T08:25:21.890Z</time>
      </trkpt>
      <trkpt lat="45.24131" lon="6.1076">
        <ele>2926.5</ele>
        <time>2015-04-12T08:25:37.890Z</time>
      </trkpt>
      <trkpt lat="45.24141" lon="6.10757">
        <ele>2936</ele>
        <time>2015-04-12T08:26:17.890Z</time>
      </trkpt>
      <trkpt lat="45.24145" lon="6.10761">
        <ele>2936</ele>
        <time>2015-04-12T08:32:18.990Z</time>
      </trkpt>
      <trkpt lat="45.24185" lon="6.10837">
        <ele>2920</ele>
        <time>2015-04-12T08:40:24.890Z</time>
      </trkpt>
      <trkpt lat="45.24202" lon="6.10852">
        <ele>2907.4</ele>
        <time>2015-04-12T08:40:29.890Z</time>
      </trkpt>
      <trkpt lat="45.24218" lon="6.10869">
        <ele>2899.4</ele>
        <time>2015-04-12T08:40:34.880Z</time>
      </trkpt>
      <trkpt lat="45.24215" lon="6.10895">
        <ele>2891.2</ele>
        <time>2015-04-12T08:40:47.880Z</time>
      </trkpt>
      <trkpt lat="45.24216" lon="6.10953">
        <ele>2884.4</ele>
        <time>2015-04-12T08:41:01.090Z</time>
      </trkpt>
      <trkpt lat="45.24307" lon="6.11368">
        <ele>2762.2</ele>
        <time>2015-04-12T08:41:41.090Z</time>
      </trkpt>
      <trkpt lat="45.24398" lon="6.11641">
        <ele>2703.4</ele>
        <time>2015-04-12T08:42:05.090Z</time>
      </trkpt>
      <trkpt lat="45.24459" lon="6.11695">
        <ele>2680.8</ele>
        <time>2015-04-12T08:42:13.090Z</time>
      </trkpt>
      <trkpt lat="45.24516" lon="6.11762">
        <ele>2655.9</ele>
        <time>2015-04-12T08:42:21.090Z</time>
      </trkpt>
      <trkpt lat="45.24578" lon="6.11851">
        <ele>2630.3</ele>
        <time>2015-04-12T08:42:29.090Z</time>
      </trkpt>
      <trkpt lat="45.24631" lon="6.11913">
        <ele>2610</ele>
        <time>2015-04-12T08:42:37.090Z</time>
      </trkpt>
      <trkpt lat="45.24688" lon="6.11954">
        <ele>2587.8</ele>
        <time>2015-04-12T08:42:44.880Z</time>
      </trkpt>
      <trkpt lat="45.24712" lon="6.12052">
        <ele>2563.2</ele>
        <time>2015-04-12T08:42:52.880Z</time>
      </trkpt>
      <trkpt lat="45.24748" lon="6.12121">
        <ele>2538.1</ele>
        <time>2015-04-12T08:43:00.880Z</time>
      </trkpt>
      <trkpt lat="45.24788" lon="6.12218">
        <ele>2515.7</ele>
        <time>2015-04-12T08:43:08.880Z</time>
      </trkpt>
      <trkpt lat="45.24839" lon="6.12303">
        <ele>2494.5</ele>
        <time>2015-04-12T08:43:17.280Z</time>
      </trkpt>
      <trkpt lat="45.24872" lon="6.12291">
        <ele>2476.3</ele>
        <time>2015-04-12T08:43:25.280Z</time>
      </trkpt>
      <trkpt lat="45.24938" lon="6.12257">
        <ele>2460.2</ele>
        <time>2015-04-12T08:43:32.880Z</time>
      </trkpt>
      <trkpt lat="45.25024" lon="6.12322">
        <ele>2441.8</ele>
        <time>2015-04-12T08:43:41.080Z</time>
      </trkpt>
      <trkpt lat="45.25163" lon="6.12548">
        <ele>2396.5</ele>
        <time>2015-04-12T08:43:57.080Z</time>
      </trkpt>
      <trkpt lat="45.25267" lon="6.12674">
        <ele>2362.3</ele>
        <time>2015-04-12T08:44:13.080Z</time>
      </trkpt>
      <trkpt lat="45.25315" lon="6.12702">
        <ele>2344.2</ele>
        <time>2015-04-12T08:44:21.080Z</time>
      </trkpt>
      <trkpt lat="45.25305" lon="6.12699">
        <ele>2340.2</ele>
        <time>2015-04-12T08:44:29.080Z</time>
      </trkpt>
      <trkpt lat="45.25306" lon="6.12717">
        <ele>2340</ele>
        <time>2015-04-12T08:44:37.080Z</time>
      </trkpt>
      <trkpt lat="45.25394" lon="6.1281">
        <ele>2281.7</ele>
        <time>2015-04-12T08:44:53.080Z</time>
      </trkpt>
      <trkpt lat="45.25462" lon="6.12863">
        <ele>2245</ele>
        <time>2015-04-12T08:45:01.080Z</time>
      </trkpt>
      <trkpt lat="45.25511" lon="6.12944">
        <ele>2225</ele>
        <time>2015-04-12T08:45:09.080Z</time>
      </trkpt>
      <trkpt lat="45.2558" lon="6.12986">
        <ele>2209.6</ele>
        <time>2015-04-12T08:45:17.080Z</time>
      </trkpt>
      <trkpt lat="45.25646" lon="6.13016">
        <ele>2193.3</ele>
        <time>2015-04-12T08:45:25.080Z</time>
      </trkpt>
      <trkpt lat="45.25655" lon="6.12988">
        <ele>2182</ele>
        <time>2015-04-12T08:45:49.080Z</time>
      </trkpt>
      <trkpt lat="45.25649" lon="6.12975">
        <ele>2182</ele>
        <time>2015-04-12T08:45:57.080Z</time>
      </trkpt>
      <trkpt lat="45.25639" lon="6.12966">
        <ele>2182</ele>
        <time>2015-04-12T08:46:13.080Z</time>
      </trkpt>
      <trkpt lat="45.2563" lon="6.12974">
        <ele>2182</ele>
        <time>2015-04-12T08:46:29.080Z</time>
      </trkpt>
      <trkpt lat="45.25644" lon="6.12977">
        <ele>2182</ele>
        <time>2015-04-12T08:47:25.080Z</time>
      </trkpt>
      <trkpt lat="45.25696" lon="6.12994">
        <ele>2173.7</ele>
        <time>2015-04-12T08:47:33.090Z</time>
      </trkpt>
      <trkpt lat="45.25719" lon="6.12958">
        <ele>2158.7</ele>
        <time>2015-04-12T08:47:41.090Z</time>
      </trkpt>
      <trkpt lat="45.25729" lon="6.12959">
        <ele>2157</ele>
        <time>2015-04-12T08:47:57.090Z</time>
      </trkpt>
      <trkpt lat="45.25719" lon="6.12966">
        <ele>2157</ele>
        <time>2015-04-12T08:48:17.080Z</time>
      </trkpt>
      <trkpt lat="45.25729" lon="6.12965">
        <ele>2156</ele>
        <time>2015-04-12T08:48:53.080Z</time>
      </trkpt>
      <trkpt lat="45.25715" lon="6.1297">
        <ele>2156.8</ele>
        <time>2015-04-12T08:49:17.080Z</time>
      </trkpt>
      <trkpt lat="45.25727" lon="6.1297">
        <ele>2156.8</ele>
        <time>2015-04-12T08:49:57.080Z</time>
      </trkpt>
      <trkpt lat="45.25717" lon="6.1297">
        <ele>2157</ele>
        <time>2015-04-12T08:50:09.090Z</time>
      </trkpt>
      <trkpt lat="45.25729" lon="6.12972">
        <ele>2156</ele>
        <time>2015-04-12T08:51:21.080Z</time>
      </trkpt>
      <trkpt lat="45.25717" lon="6.12975">
        <ele>2156</ele>
        <time>2015-04-12T08:51:41.080Z</time>
      </trkpt>
      <trkpt lat="45.25708" lon="6.1298">
        <ele>2156</ele>
        <time>2015-04-12T08:52:37.090Z</time>
      </trkpt>
      <trkpt lat="45.2572" lon="6.12975">
        <ele>2156.8</ele>
        <time>2015-04-12T08:53:01.090Z</time>
      </trkpt>
      <trkpt lat="45.25709" lon="6.1297">
        <ele>2156.1</ele>
        <time>2015-04-12T08:53:48.710Z</time>
      </trkpt>
      <trkpt lat="45.2572" lon="6.12967">
        <ele>2157</ele>
        <time>2015-04-12T08:54:01.080Z</time>
      </trkpt>
      <trkpt lat="45.2571" lon="6.12973">
        <ele>2157</ele>
        <time>2015-04-12T08:54:29.080Z</time>
      </trkpt>
      <trkpt lat="45.25721" lon="6.12972">
        <ele>2156</ele>
        <time>2015-04-12T08:57:32.980Z</time>
      </trkpt>
      <trkpt lat="45.25712" lon="6.12982">
        <ele>2155.5</ele>
        <time>2015-04-12T08:58:04.980Z</time>
      </trkpt>
      <trkpt lat="45.25716" lon="6.12968">
        <ele>2156</ele>
        <time>2015-04-12T08:58:17.180Z</time>
      </trkpt>
      <trkpt lat="45.25726" lon="6.12976">
        <ele>2155</ele>
        <time>2015-04-12T09:00:08.980Z</time>
      </trkpt>
      <trkpt lat="45.25715" lon="6.12976">
        <ele>2155</ele>
        <time>2015-04-12T09:00:16.980Z</time>
      </trkpt>
      <trkpt lat="45.25723" lon="6.12966">
        <ele>2158</ele>
        <time>2015-04-12T09:00:53.710Z</time>
      </trkpt>
      <trkpt lat="45.2571" lon="6.12965">
        <ele>2155</ele>
        <time>2015-04-12T09:01:41.700Z</time>
      </trkpt>
      <trkpt lat="45.25722" lon="6.1297">
        <ele>2155</ele>
        <time>2015-04-12T09:01:59.810Z</time>
      </trkpt>
      <trkpt lat="45.25708" lon="6.12973">
        <ele>2155</ele>
        <time>2015-04-12T09:02:30.810Z</time>
      </trkpt>
      <trkpt lat="45.25706" lon="6.12958">
        <ele>2155</ele>
        <time>2015-04-12T09:02:38.710Z</time>
      </trkpt>
      <trkpt lat="45.25715" lon="6.12968">
        <ele>2155</ele>
        <time>2015-04-12T09:03:02.980Z</time>
      </trkpt>
      <trkpt lat="45.25706" lon="6.12976">
        <ele>2156</ele>
        <time>2015-04-12T09:04:54.980Z</time>
      </trkpt>
      <trkpt lat="45.25718" lon="6.12972">
        <ele>2156</ele>
        <time>2015-04-12T09:05:18.980Z</time>
      </trkpt>
      <trkpt lat="45.25727" lon="6.12967">
        <ele>2156</ele>
        <time>2015-04-12T09:05:39.180Z</time>
      </trkpt>
      <trkpt lat="45.25703" lon="6.12968">
        <ele>2156</ele>
        <time>2015-04-12T09:06:02.980Z</time>
      </trkpt>
      <trkpt lat="45.25859" lon="6.12995">
        <ele>2150.4</ele>
        <time>2015-04-12T09:06:42.980Z</time>
      </trkpt>
      <trkpt lat="45.25968" lon="6.12928">
        <ele>2133.4</ele>
        <time>2015-04-12T09:06:58.980Z</time>
      </trkpt>
      <trkpt lat="45.26002" lon="6.12882">
        <ele>2132.1</ele>
        <time>2015-04-12T09:07:18.980Z</time>
      </trkpt>
      <trkpt lat="45.26024" lon="6.12864">
        <ele>2135.5</ele>
        <time>2015-04-12T09:09:54.980Z</time>
      </trkpt>
      <trkpt lat="45.26037" lon="6.1286">
        <ele>2136.5</ele>
        <time>2015-04-12T09:10:14.990Z</time>
      </trkpt>
      <trkpt lat="45.26051" lon="6.12861">
        <ele>2141.2</ele>
        <time>2015-04-12T09:10:30.990Z</time>
      </trkpt>
      <trkpt lat="45.26074" lon="6.12839">
        <ele>2144.6</ele>
        <time>2015-04-12T09:10:50.980Z</time>
      </trkpt>
      <trkpt lat="45.26075" lon="6.12825">
        <ele>2150.2</ele>
        <time>2015-04-12T09:11:06.980Z</time>
      </trkpt>
      <trkpt lat="45.26082" lon="6.12816">
        <ele>2155.4</ele>
        <time>2015-04-12T09:11:30.980Z</time>
      </trkpt>
      <trkpt lat="45.26082" lon="6.12834">
        <ele>2158.7</ele>
        <time>2015-04-12T09:11:42.990Z</time>
      </trkpt>
      <trkpt lat="45.2609" lon="6.12865">
        <ele>2166.3</ele>
        <time>2015-04-12T09:12:10.980Z</time>
      </trkpt>
      <trkpt lat="45.26083" lon="6.12877">
        <ele>2169.5</ele>
        <time>2015-04-12T09:12:26.980Z</time>
      </trkpt>
      <trkpt lat="45.26108" lon="6.12883">
        <ele>2184.7</ele>
        <time>2015-04-12T09:13:34.990Z</time>
      </trkpt>
      <trkpt lat="45.26117" lon="6.12871">
        <ele>2186</ele>
        <time>2015-04-12T09:13:46.980Z</time>
      </trkpt>
      <trkpt lat="45.26124" lon="6.12836">
        <ele>2192.9</ele>
        <time>2015-04-12T09:14:18.790Z</time>
      </trkpt>
      <trkpt lat="45.26126" lon="6.12854">
        <ele>2198.1</ele>
        <time>2015-04-12T09:14:34.790Z</time>
      </trkpt>
      <trkpt lat="45.26118" lon="6.12872">
        <ele>2199.7</ele>
        <time>2015-04-12T09:14:46.780Z</time>
      </trkpt>
      <trkpt lat="45.26122" lon="6.12856">
        <ele>2202.1</ele>
        <time>2015-04-12T09:15:03.180Z</time>
      </trkpt>
      <trkpt lat="45.26128" lon="6.12843">
        <ele>2204</ele>
        <time>2015-04-12T09:15:18.780Z</time>
      </trkpt>
      <trkpt lat="45.2614" lon="6.12837">
        <ele>2208</ele>
        <time>2015-04-12T09:15:30.790Z</time>
      </trkpt>
      <trkpt lat="45.26152" lon="6.12836">
        <ele>2209.6</ele>
        <time>2015-04-12T09:15:42.780Z</time>
      </trkpt>
      <trkpt lat="45.26164" lon="6.1283">
        <ele>2222.9</ele>
        <time>2015-04-12T09:16:39.180Z</time>
      </trkpt>
      <trkpt lat="45.26171" lon="6.1284">
        <ele>2226.9</ele>
        <time>2015-04-12T09:16:59.180Z</time>
      </trkpt>
      <trkpt lat="45.26174" lon="6.12856">
        <ele>2229.3</ele>
        <time>2015-04-12T09:17:11.180Z</time>
      </trkpt>
      <trkpt lat="45.2618" lon="6.12837">
        <ele>2235.7</ele>
        <time>2015-04-12T09:17:38.780Z</time>
      </trkpt>
      <trkpt lat="45.26189" lon="6.12827">
        <ele>2239.6</ele>
        <time>2015-04-12T09:17:54.780Z</time>
      </trkpt>
      <trkpt lat="45.26206" lon="6.12834">
        <ele>2241.7</ele>
        <time>2015-04-12T09:18:06.780Z</time>
      </trkpt>
      <trkpt lat="45.26217" lon="6.12834">
        <ele>2243.9</ele>
        <time>2015-04-12T09:18:18.780Z</time>
      </trkpt>
      <trkpt lat="45.26229" lon="6.12828">
        <ele>2245.5</ele>
        <time>2015-04-12T09:18:26.780Z</time>
      </trkpt>
      <trkpt lat="45.26243" lon="6.12816">
        <ele>2246.9</ele>
        <time>2015-04-12T09:18:38.780Z</time>
      </trkpt>
      <trkpt lat="45.26254" lon="6.12812">
        <ele>2249.3</ele>
        <time>2015-04-12T09:18:47.180Z</time>
      </trkpt>
      <trkpt lat="45.26291" lon="6.12773">
        <ele>2260.4</ele>
        <time>2015-04-12T09:19:30.780Z</time>
      </trkpt>
      <trkpt lat="45.26303" lon="6.12773">
        <ele>2263.7</ele>
        <time>2015-04-12T09:19:42.780Z</time>
      </trkpt>
      <trkpt lat="45.26313" lon="6.12775">
        <ele>2265.3</ele>
        <time>2015-04-12T09:19:50.780Z</time>
      </trkpt>
      <trkpt lat="45.26321" lon="6.12764">
        <ele>2269.2</ele>
        <time>2015-04-12T09:20:06.790Z</time>
      </trkpt>
      <trkpt lat="45.2633" lon="6.12755">
        <ele>2275.2</ele>
        <time>2015-04-12T09:20:26.780Z</time>
      </trkpt>
      <trkpt lat="45.2634" lon="6.12752">
        <ele>2276</ele>
        <time>2015-04-12T09:20:35.180Z</time>
      </trkpt>
      <trkpt lat="45.26348" lon="6.12769">
        <ele>2287</ele>
        <time>2015-04-12T09:21:14.780Z</time>
      </trkpt>
      <trkpt lat="45.26354" lon="6.12756">
        <ele>2288.5</ele>
        <time>2015-04-12T09:21:23.180Z</time>
      </trkpt>
      <trkpt lat="45.26356" lon="6.12741">
        <ele>2291.3</ele>
        <time>2015-04-12T09:21:30.780Z</time>
      </trkpt>
      <trkpt lat="45.26368" lon="6.12733">
        <ele>2292.9</ele>
        <time>2015-04-12T09:21:38.780Z</time>
      </trkpt>
      <trkpt lat="45.26379" lon="6.12737">
        <ele>2298.1</ele>
        <time>2015-04-12T09:21:54.780Z</time>
      </trkpt>
      <trkpt lat="45.2639" lon="6.12733">
        <ele>2301</ele>
        <time>2015-04-12T09:22:02.780Z</time>
      </trkpt>
      <trkpt lat="45.26401" lon="6.12733">
        <ele>2304.9</ele>
        <time>2015-04-12T09:22:18.780Z</time>
      </trkpt>
      <trkpt lat="45.26433" lon="6.12753">
        <ele>2314.3</ele>
        <time>2015-04-12T09:22:50.780Z</time>
      </trkpt>
      <trkpt lat="45.2645" lon="6.12751">
        <ele>2317.5</ele>
        <time>2015-04-12T09:23:06.780Z</time>
      </trkpt>
      <trkpt lat="45.26459" lon="6.12737">
        <ele>2322.5</ele>
        <time>2015-04-12T09:23:26.790Z</time>
      </trkpt>
      <trkpt lat="45.26472" lon="6.12732">
        <ele>2324.7</ele>
        <time>2015-04-12T09:23:35.190Z</time>
      </trkpt>
      <trkpt lat="45.26488" lon="6.12703">
        <ele>2334</ele>
        <time>2015-04-12T09:24:11.180Z</time>
      </trkpt>
      <trkpt lat="45.26518" lon="6.12702">
        <ele>2335.5</ele>
        <time>2015-04-12T09:24:23.190Z</time>
      </trkpt>
      <trkpt lat="45.26528" lon="6.12693">
        <ele>2338.4</ele>
        <time>2015-04-12T09:24:30.790Z</time>
      </trkpt>
      <trkpt lat="45.26535" lon="6.1268">
        <ele>2340.8</ele>
        <time>2015-04-12T09:24:38.790Z</time>
      </trkpt>
      <trkpt lat="45.26535" lon="6.12662">
        <ele>2345.6</ele>
        <time>2015-04-12T09:24:54.790Z</time>
      </trkpt>
      <trkpt lat="45.26546" lon="6.12664">
        <ele>2349.5</ele>
        <time>2015-04-12T09:25:11.200Z</time>
      </trkpt>
      <trkpt lat="45.26556" lon="6.12654">
        <ele>2353.1</ele>
        <time>2015-04-12T09:25:23.180Z</time>
      </trkpt>
      <trkpt lat="45.26565" lon="6.12665">
        <ele>2362.3</ele>
        <time>2015-04-12T09:25:55.180Z</time>
      </trkpt>
      <trkpt lat="45.2657" lon="6.1268">
        <ele>2364.3</ele>
        <time>2015-04-12T09:26:02.510Z</time>
      </trkpt>
      <trkpt lat="45.26566" lon="6.12664">
        <ele>2366.6</ele>
        <time>2015-04-12T09:26:14.780Z</time>
      </trkpt>
      <trkpt lat="45.26564" lon="6.12647">
        <ele>2369</ele>
        <time>2015-04-12T09:26:22.780Z</time>
      </trkpt>
      <trkpt lat="45.26575" lon="6.12634">
        <ele>2372.1</ele>
        <time>2015-04-12T09:26:34.790Z</time>
      </trkpt>
      <trkpt lat="45.26587" lon="6.12642">
        <ele>2374.1</ele>
        <time>2015-04-12T09:26:43.180Z</time>
      </trkpt>
      <trkpt lat="45.26598" lon="6.12652">
        <ele>2377.7</ele>
        <time>2015-04-12T09:26:55.180Z</time>
      </trkpt>
      <trkpt lat="45.26598" lon="6.12636">
        <ele>2385</ele>
        <time>2015-04-12T09:27:22.780Z</time>
      </trkpt>
      <trkpt lat="45.26608" lon="6.12639">
        <ele>2387.3</ele>
        <time>2015-04-12T09:27:31.180Z</time>
      </trkpt>
      <trkpt lat="45.26629" lon="6.12652">
        <ele>2389.7</ele>
        <time>2015-04-12T09:27:46.780Z</time>
      </trkpt>
      <trkpt lat="45.26626" lon="6.12635">
        <ele>2397.5</ele>
        <time>2015-04-12T09:28:10.780Z</time>
      </trkpt>
      <trkpt lat="45.26652" lon="6.1266">
        <ele>2405.7</ele>
        <time>2015-04-12T09:28:43.180Z</time>
      </trkpt>
      <trkpt lat="45.26653" lon="6.12676">
        <ele>2410.7</ele>
        <time>2015-04-12T09:28:58.780Z</time>
      </trkpt>
      <trkpt lat="45.26663" lon="6.12662">
        <ele>2414.1</ele>
        <time>2015-04-12T09:29:14.780Z</time>
      </trkpt>
      <trkpt lat="45.26664" lon="6.12641">
        <ele>2417.2</ele>
        <time>2015-04-12T09:29:26.790Z</time>
      </trkpt>
      <trkpt lat="45.26672" lon="6.12623">
        <ele>2421.4</ele>
        <time>2015-04-12T09:29:43.190Z</time>
      </trkpt>
      <trkpt lat="45.26692" lon="6.12644">
        <ele>2426</ele>
        <time>2015-04-12T09:30:02.780Z</time>
      </trkpt>
      <trkpt lat="45.26701" lon="6.12658">
        <ele>2429.9</ele>
        <time>2015-04-12T09:30:19.180Z</time>
      </trkpt>
      <trkpt lat="45.26708" lon="6.12678">
        <ele>2435.1</ele>
        <time>2015-04-12T09:30:34.780Z</time>
      </trkpt>
      <trkpt lat="45.26721" lon="6.12674">
        <ele>2444.3</ele>
        <time>2015-04-12T09:31:10.790Z</time>
      </trkpt>
      <trkpt lat="45.2674" lon="6.1266">
        <ele>2451.9</ele>
        <time>2015-04-12T09:31:39.180Z</time>
      </trkpt>
      <trkpt lat="45.26755" lon="6.12685">
        <ele>2455.7</ele>
        <time>2015-04-12T09:31:55.180Z</time>
      </trkpt>
      <trkpt lat="45.26762" lon="6.12694">
        <ele>2460.1</ele>
        <time>2015-04-12T09:32:07.180Z</time>
      </trkpt>
      <trkpt lat="45.26766" lon="6.12706">
        <ele>2462.9</ele>
        <time>2015-04-12T09:32:19.180Z</time>
      </trkpt>
      <trkpt lat="45.26765" lon="6.12722">
        <ele>2467.1</ele>
        <time>2015-04-12T09:32:35.180Z</time>
      </trkpt>
      <trkpt lat="45.26774" lon="6.12732">
        <ele>2470.2</ele>
        <time>2015-04-12T09:32:46.980Z</time>
      </trkpt>
      <trkpt lat="45.26784" lon="6.1273">
        <ele>2475.3</ele>
        <time>2015-04-12T09:33:00.890Z</time>
      </trkpt>
      <trkpt lat="45.26794" lon="6.12734">
        <ele>2478.5</ele>
        <time>2015-04-12T09:33:17.080Z</time>
      </trkpt>
      <trkpt lat="45.26803" lon="6.12733">
        <ele>2481.9</ele>
        <time>2015-04-12T09:33:29.090Z</time>
      </trkpt>
      <trkpt lat="45.26811" lon="6.12729">
        <ele>2485.5</ele>
        <time>2015-04-12T09:33:41.080Z</time>
      </trkpt>
      <trkpt lat="45.2682" lon="6.12727">
        <ele>2488.7</ele>
        <time>2015-04-12T09:33:53.090Z</time>
      </trkpt>
      <trkpt lat="45.26828" lon="6.12723">
        <ele>2491.7</ele>
        <time>2015-04-12T09:34:05.080Z</time>
      </trkpt>
      <trkpt lat="45.26833" lon="6.12734">
        <ele>2493.8</ele>
        <time>2015-04-12T09:34:17.090Z</time>
      </trkpt>
      <trkpt lat="45.26837" lon="6.12758">
        <ele>2498.5</ele>
        <time>2015-04-12T09:34:37.080Z</time>
      </trkpt>
      <trkpt lat="45.26838" lon="6.12802">
        <ele>2506.8</ele>
        <time>2015-04-12T09:35:13.080Z</time>
      </trkpt>
      <trkpt lat="45.2684" lon="6.12815">
        <ele>2512.2</ele>
        <time>2015-04-12T09:35:25.080Z</time>
      </trkpt>
      <trkpt lat="45.26841" lon="6.12826">
        <ele>2514.7</ele>
        <time>2015-04-12T09:35:33.090Z</time>
      </trkpt>
      <trkpt lat="45.26843" lon="6.12837">
        <ele>2517.7</ele>
        <time>2015-04-12T09:35:45.080Z</time>
      </trkpt>
      <trkpt lat="45.26861" lon="6.12828">
        <ele>2523.9</ele>
        <time>2015-04-12T09:36:09.080Z</time>
      </trkpt>
      <trkpt lat="45.26862" lon="6.12838">
        <ele>2527</ele>
        <time>2015-04-12T09:36:17.080Z</time>
      </trkpt>
      <trkpt lat="45.26862" lon="6.12846">
        <ele>2529.7</ele>
        <time>2015-04-12T09:36:25.080Z</time>
      </trkpt>
      <trkpt lat="45.26865" lon="6.1286">
        <ele>2532.5</ele>
        <time>2015-04-12T09:36:37.090Z</time>
      </trkpt>
      <trkpt lat="45.26872" lon="6.12864">
        <ele>2537.4</ele>
        <time>2015-04-12T09:36:53.090Z</time>
      </trkpt>
      <trkpt lat="45.2688" lon="6.12851">
        <ele>2541.1</ele>
        <time>2015-04-12T09:37:05.180Z</time>
      </trkpt>
      <trkpt lat="45.26892" lon="6.12849">
        <ele>2543.5</ele>
        <time>2015-04-12T09:37:17.180Z</time>
      </trkpt>
      <trkpt lat="45.269" lon="6.12839">
        <ele>2545.9</ele>
        <time>2015-04-12T09:37:29.180Z</time>
      </trkpt>
      <trkpt lat="45.26908" lon="6.12848">
        <ele>2549.7</ele>
        <time>2015-04-12T09:37:41.180Z</time>
      </trkpt>
      <trkpt lat="45.26914" lon="6.12864">
        <ele>2555.3</ele>
        <time>2015-04-12T09:37:57.180Z</time>
      </trkpt>
      <trkpt lat="45.26922" lon="6.12872">
        <ele>2566.3</ele>
        <time>2015-04-12T09:38:37.180Z</time>
      </trkpt>
      <trkpt lat="45.26926" lon="6.12888">
        <ele>2569</ele>
        <time>2015-04-12T09:38:57.180Z</time>
      </trkpt>
      <trkpt lat="45.26935" lon="6.12873">
        <ele>2578.7</ele>
        <time>2015-04-12T09:39:25.180Z</time>
      </trkpt>
      <trkpt lat="45.2695" lon="6.1288">
        <ele>2583.7</ele>
        <time>2015-04-12T09:39:45.180Z</time>
      </trkpt>
      <trkpt lat="45.26946" lon="6.12911">
        <ele>2590.8</ele>
        <time>2015-04-12T09:40:09.180Z</time>
      </trkpt>
      <trkpt lat="45.26955" lon="6.129">
        <ele>2592.3</ele>
        <time>2015-04-12T09:40:21.190Z</time>
      </trkpt>
      <trkpt lat="45.26962" lon="6.12886">
        <ele>2597.7</ele>
        <time>2015-04-12T09:40:41.180Z</time>
      </trkpt>
      <trkpt lat="45.26976" lon="6.12877">
        <ele>2601.7</ele>
        <time>2015-04-12T09:40:53.180Z</time>
      </trkpt>
      <trkpt lat="45.26986" lon="6.12862">
        <ele>2607.1</ele>
        <time>2015-04-12T09:41:13.180Z</time>
      </trkpt>
      <trkpt lat="45.26988" lon="6.12878">
        <ele>2611.9</ele>
        <time>2015-04-12T09:41:29.180Z</time>
      </trkpt>
      <trkpt lat="45.27" lon="6.12872">
        <ele>2618.1</ele>
        <time>2015-04-12T09:41:57.180Z</time>
      </trkpt>
      <trkpt lat="45.27007" lon="6.12862">
        <ele>2620.9</ele>
        <time>2015-04-12T09:42:09.180Z</time>
      </trkpt>
      <trkpt lat="45.27017" lon="6.12873">
        <ele>2628</ele>
        <time>2015-04-12T09:42:33.190Z</time>
      </trkpt>
      <trkpt lat="45.27026" lon="6.12864">
        <ele>2635.7</ele>
        <time>2015-04-12T09:43:05.190Z</time>
      </trkpt>
      <trkpt lat="45.27035" lon="6.12877">
        <ele>2640.3</ele>
        <time>2015-04-12T09:43:21.190Z</time>
      </trkpt>
      <trkpt lat="45.27046" lon="6.12887">
        <ele>2648.4</ele>
        <time>2015-04-12T09:43:55.180Z</time>
      </trkpt>
      <trkpt lat="45.27058" lon="6.12895">
        <ele>2651.7</ele>
        <time>2015-04-12T09:44:02.910Z</time>
      </trkpt>
      <trkpt lat="45.27075" lon="6.12898">
        <ele>2654</ele>
        <time>2015-04-12T09:44:21.910Z</time>
      </trkpt>
      <trkpt lat="45.2709" lon="6.12899">
        <ele>2655.7</ele>
        <time>2015-04-12T09:44:37.910Z</time>
      </trkpt>
      <trkpt lat="45.27101" lon="6.12902">
        <ele>2658.7</ele>
        <time>2015-04-12T09:44:46.180Z</time>
      </trkpt>
      <trkpt lat="45.27114" lon="6.12907">
        <ele>2660.3</ele>
        <time>2015-04-12T09:45:02.180Z</time>
      </trkpt>
      <trkpt lat="45.27172" lon="6.12917">
        <ele>2664.5</ele>
        <time>2015-04-12T09:45:54.190Z</time>
      </trkpt>
      <trkpt lat="45.27184" lon="6.12922">
        <ele>2665</ele>
        <time>2015-04-12T09:46:02.190Z</time>
      </trkpt>
      <trkpt lat="45.27205" lon="6.1294">
        <ele>2665</ele>
        <time>2015-04-12T09:46:10.190Z</time>
      </trkpt>
      <trkpt lat="45.27213" lon="6.12946">
        <ele>2665</ele>
        <time>2015-04-12T09:46:18.190Z</time>
      </trkpt>
      <trkpt lat="45.27245" lon="6.12944">
        <ele>2667.4</ele>
        <time>2015-04-12T09:46:50.180Z</time>
      </trkpt>
      <trkpt lat="45.27251" lon="6.12955">
        <ele>2673.3</ele>
        <time>2015-04-12T09:47:02.090Z</time>
      </trkpt>
      <trkpt lat="45.27263" lon="6.12966">
        <ele>2674</ele>
        <time>2015-04-12T09:47:10.280Z</time>
      </trkpt>
      <trkpt lat="45.27273" lon="6.12974">
        <ele>2674</ele>
        <time>2015-04-12T09:47:18.280Z</time>
      </trkpt>
      <trkpt lat="45.27282" lon="6.12982">
        <ele>2674.7</ele>
        <time>2015-04-12T09:47:26.280Z</time>
      </trkpt>
      <trkpt lat="45.27291" lon="6.12988">
        <ele>2676.9</ele>
        <time>2015-04-12T09:47:34.280Z</time>
      </trkpt>
      <trkpt lat="45.27299" lon="6.12988">
        <ele>2679.7</ele>
        <time>2015-04-12T09:47:46.280Z</time>
      </trkpt>
      <trkpt lat="45.27309" lon="6.12985">
        <ele>2681.9</ele>
        <time>2015-04-12T09:47:54.280Z</time>
      </trkpt>
      <trkpt lat="45.27318" lon="6.12989">
        <ele>2684.6</ele>
        <time>2015-04-12T09:48:02.280Z</time>
      </trkpt>
      <trkpt lat="45.27335" lon="6.13006">
        <ele>2686</ele>
        <time>2015-04-12T09:48:14.180Z</time>
      </trkpt>
      <trkpt lat="45.27346" lon="6.13022">
        <ele>2686.5</ele>
        <time>2015-04-12T09:48:22.190Z</time>
      </trkpt>
      <trkpt lat="45.27359" lon="6.13031">
        <ele>2688</ele>
        <time>2015-04-12T09:48:34.080Z</time>
      </trkpt>
      <trkpt lat="45.27396" lon="6.13038">
        <ele>2685.7</ele>
        <time>2015-04-12T09:48:42.080Z</time>
      </trkpt>
      <trkpt lat="45.27432" lon="6.13054">
        <ele>2678.9</ele>
        <time>2015-04-12T09:48:50.090Z</time>
      </trkpt>
      <trkpt lat="45.27445" lon="6.13053">
        <ele>2677.5</ele>
        <time>2015-04-12T09:49:02.080Z</time>
      </trkpt>
      <trkpt lat="45.27443" lon="6.13072">
        <ele>2680.8</ele>
        <time>2015-04-12T09:49:14.090Z</time>
      </trkpt>
      <trkpt lat="45.27444" lon="6.13087">
        <ele>2683.7</ele>
        <time>2015-04-12T09:49:26.080Z</time>
      </trkpt>
      <trkpt lat="45.2744" lon="6.131">
        <ele>2687.5</ele>
        <time>2015-04-12T09:49:38.280Z</time>
      </trkpt>
      <trkpt lat="45.27455" lon="6.13116">
        <ele>2691.7</ele>
        <time>2015-04-12T09:49:57.890Z</time>
      </trkpt>
      <trkpt lat="45.27465" lon="6.13124">
        <ele>2695</ele>
        <time>2015-04-12T09:50:09.880Z</time>
      </trkpt>
      <trkpt lat="45.27483" lon="6.13151">
        <ele>2697</ele>
        <time>2015-04-12T09:50:29.880Z</time>
      </trkpt>
      <trkpt lat="45.27491" lon="6.13165">
        <ele>2697.9</ele>
        <time>2015-04-12T09:50:38.280Z</time>
      </trkpt>
      <trkpt lat="45.27504" lon="6.13179">
        <ele>2698.6</ele>
        <time>2015-04-12T09:50:45.880Z</time>
      </trkpt>
      <trkpt lat="45.27537" lon="6.1319">
        <ele>2701.5</ele>
        <time>2015-04-12T09:51:14.280Z</time>
      </trkpt>
      <trkpt lat="45.27552" lon="6.13191">
        <ele>2702.2</ele>
        <time>2015-04-12T09:51:21.880Z</time>
      </trkpt>
      <trkpt lat="45.27561" lon="6.13179">
        <ele>2704.8</ele>
        <time>2015-04-12T09:51:33.880Z</time>
      </trkpt>
      <trkpt lat="45.27572" lon="6.13187">
        <ele>2707</ele>
        <time>2015-04-12T09:51:41.880Z</time>
      </trkpt>
      <trkpt lat="45.27584" lon="6.13188">
        <ele>2708.3</ele>
        <time>2015-04-12T09:51:53.880Z</time>
      </trkpt>
      <trkpt lat="45.27592" lon="6.13205">
        <ele>2713</ele>
        <time>2015-04-12T09:52:09.880Z</time>
      </trkpt>
      <trkpt lat="45.27607" lon="6.13207">
        <ele>2713.8</ele>
        <time>2015-04-12T09:52:17.880Z</time>
      </trkpt>
      <trkpt lat="45.27618" lon="6.13214">
        <ele>2714</ele>
        <time>2015-04-12T09:52:26.290Z</time>
      </trkpt>
      <trkpt lat="45.27635" lon="6.13224">
        <ele>2714</ele>
        <time>2015-04-12T09:52:33.890Z</time>
      </trkpt>
      <trkpt lat="45.2765" lon="6.13226">
        <ele>2713.3</ele>
        <time>2015-04-12T09:52:41.890Z</time>
      </trkpt>
      <trkpt lat="45.27661" lon="6.13229">
        <ele>2710.8</ele>
        <time>2015-04-12T09:52:50.290Z</time>
      </trkpt>
      <trkpt lat="45.27709" lon="6.13253">
        <ele>2702</ele>
        <time>2015-04-12T09:53:09.880Z</time>
      </trkpt>
      <trkpt lat="45.27733" lon="6.13253">
        <ele>2700.8</ele>
        <time>2015-04-12T09:53:21.890Z</time>
      </trkpt>
      <trkpt lat="45.27742" lon="6.13263">
        <ele>2700</ele>
        <time>2015-04-12T09:53:29.880Z</time>
      </trkpt>
      <trkpt lat="45.27755" lon="6.13259">
        <ele>2700.9</ele>
        <time>2015-04-12T09:53:38.280Z</time>
      </trkpt>
      <trkpt lat="45.27799" lon="6.13264">
        <ele>2707</ele>
        <time>2015-04-12T09:54:05.880Z</time>
      </trkpt>
      <trkpt lat="45.278" lon="6.13283">
        <ele>2713</ele>
        <time>2015-04-12T09:54:26.280Z</time>
      </trkpt>
      <trkpt lat="45.2781" lon="6.13291">
        <ele>2717.5</ele>
        <time>2015-04-12T09:54:38.280Z</time>
      </trkpt>
      <trkpt lat="45.27821" lon="6.13299">
        <ele>2721.2</ele>
        <time>2015-04-12T09:54:50.280Z</time>
      </trkpt>
      <trkpt lat="45.27825" lon="6.13311">
        <ele>2723.8</ele>
        <time>2015-04-12T09:55:02.290Z</time>
      </trkpt>
      <trkpt lat="45.27816" lon="6.13316">
        <ele>2725.5</ele>
        <time>2015-04-12T09:58:34.280Z</time>
      </trkpt>
      <trkpt lat="45.27831" lon="6.13331">
        <ele>2726</ele>
        <time>2015-04-12T09:58:46.280Z</time>
      </trkpt>
      <trkpt lat="45.2792" lon="6.13468">
        <ele>2672.7</ele>
        <time>2015-04-12T09:59:01.880Z</time>
      </trkpt>
      <trkpt lat="45.27977" lon="6.13478">
        <ele>2654.5</ele>
        <time>2015-04-12T09:59:10.280Z</time>
      </trkpt>
      <trkpt lat="45.28038" lon="6.13474">
        <ele>2640.1</ele>
        <time>2015-04-12T09:59:17.880Z</time>
      </trkpt>
      <trkpt lat="45.28175" lon="6.13567">
        <ele>2615.6</ele>
        <time>2015-04-12T09:59:34.280Z</time>
      </trkpt>
      <trkpt lat="45.28214" lon="6.13601">
        <ele>2612</ele>
        <time>2015-04-12T09:59:41.880Z</time>
      </trkpt>
      <trkpt lat="45.28221" lon="6.13659">
        <ele>2608.6</ele>
        <time>2015-04-12T09:59:49.880Z</time>
      </trkpt>
      <trkpt lat="45.28218" lon="6.13705">
        <ele>2601.1</ele>
        <time>2015-04-12T09:59:58.280Z</time>
      </trkpt>
      <trkpt lat="45.28233" lon="6.13866">
        <ele>2588</ele>
        <time>2015-04-12T10:00:29.880Z</time>
      </trkpt>
      <trkpt lat="45.28244" lon="6.1386">
        <ele>2588.7</ele>
        <time>2015-04-12T10:02:02.090Z</time>
      </trkpt>
      <trkpt lat="45.28253" lon="6.13867">
        <ele>2588.1</ele>
        <time>2015-04-12T10:02:30.080Z</time>
      </trkpt>
      <trkpt lat="45.28255" lon="6.13882">
        <ele>2588.9</ele>
        <time>2015-04-12T10:02:38.080Z</time>
      </trkpt>
      <trkpt lat="45.28256" lon="6.13902">
        <ele>2593.9</ele>
        <time>2015-04-12T10:02:54.080Z</time>
      </trkpt>
      <trkpt lat="45.28252" lon="6.13916">
        <ele>2595.3</ele>
        <time>2015-04-12T10:03:02.080Z</time>
      </trkpt>
      <trkpt lat="45.28266" lon="6.13923">
        <ele>2597.4</ele>
        <time>2015-04-12T10:03:14.080Z</time>
      </trkpt>
      <trkpt lat="45.28273" lon="6.13938">
        <ele>2601</ele>
        <time>2015-04-12T10:03:26.080Z</time>
      </trkpt>
      <trkpt lat="45.28281" lon="6.13973">
        <ele>2605.8</ele>
        <time>2015-04-12T10:03:49.080Z</time>
      </trkpt>
      <trkpt lat="45.28294" lon="6.13992">
        <ele>2608.8</ele>
        <time>2015-04-12T10:04:37.080Z</time>
      </trkpt>
      <trkpt lat="45.28323" lon="6.1399">
        <ele>2608.4</ele>
        <time>2015-04-12T10:04:45.080Z</time>
      </trkpt>
      <trkpt lat="45.28377" lon="6.1394">
        <ele>2591.5</ele>
        <time>2015-04-12T10:04:53.080Z</time>
      </trkpt>
      <trkpt lat="45.28466" lon="6.13912">
        <ele>2553.3</ele>
        <time>2015-04-12T10:05:01.080Z</time>
      </trkpt>
      <trkpt lat="45.28614" lon="6.13959">
        <ele>2509.3</ele>
        <time>2015-04-12T10:05:09.080Z</time>
      </trkpt>
      <trkpt lat="45.28691" lon="6.13933">
        <ele>2494.9</ele>
        <time>2015-04-12T10:05:17.080Z</time>
      </trkpt>
      <trkpt lat="45.28765" lon="6.13884">
        <ele>2477</ele>
        <time>2015-04-12T10:05:25.090Z</time>
      </trkpt>
      <trkpt lat="45.28846" lon="6.13974">
        <ele>2464.5</ele>
        <time>2015-04-12T10:05:33.280Z</time>
      </trkpt>
      <trkpt lat="45.28887" lon="6.14264">
        <ele>2444.4</ele>
        <time>2015-04-12T10:06:17.080Z</time>
      </trkpt>
      <trkpt lat="45.289" lon="6.14312">
        <ele>2441</ele>
        <time>2015-04-12T10:06:45.090Z</time>
      </trkpt>
      <trkpt lat="45.28909" lon="6.14326">
        <ele>2444.1</ele>
        <time>2015-04-12T10:07:50.080Z</time>
      </trkpt>
      <trkpt lat="45.28915" lon="6.14343">
        <ele>2446.8</ele>
        <time>2015-04-12T10:08:02.090Z</time>
      </trkpt>
      <trkpt lat="45.28912" lon="6.14358">
        <ele>2451.6</ele>
        <time>2015-04-12T10:08:18.090Z</time>
      </trkpt>
      <trkpt lat="45.2892" lon="6.14366">
        <ele>2461.3</ele>
        <time>2015-04-12T10:09:06.090Z</time>
      </trkpt>
      <trkpt lat="45.28927" lon="6.14384">
        <ele>2464.6</ele>
        <time>2015-04-12T10:09:26.080Z</time>
      </trkpt>
      <trkpt lat="45.28929" lon="6.14398">
        <ele>2467.7</ele>
        <time>2015-04-12T10:09:38.080Z</time>
      </trkpt>
      <trkpt lat="45.28933" lon="6.14409">
        <ele>2470</ele>
        <time>2015-04-12T10:09:46.080Z</time>
      </trkpt>
      <trkpt lat="45.28941" lon="6.14421">
        <ele>2471</ele>
        <time>2015-04-12T10:09:58.080Z</time>
      </trkpt>
      <trkpt lat="45.28952" lon="6.14426">
        <ele>2477</ele>
        <time>2015-04-12T10:10:10.080Z</time>
      </trkpt>
      <trkpt lat="45.28967" lon="6.1444">
        <ele>2477</ele>
        <time>2015-04-12T10:10:18.080Z</time>
      </trkpt>
      <trkpt lat="45.28978" lon="6.14447">
        <ele>2475</ele>
        <time>2015-04-12T10:10:26.080Z</time>
      </trkpt>
      <trkpt lat="45.2899" lon="6.14453">
        <ele>2474.8</ele>
        <time>2015-04-12T10:10:42.080Z</time>
      </trkpt>
      <trkpt lat="45.29" lon="6.14455">
        <ele>2477.1</ele>
        <time>2015-04-12T10:10:50.080Z</time>
      </trkpt>
      <trkpt lat="45.29009" lon="6.1446">
        <ele>2478</ele>
        <time>2015-04-12T10:10:59.080Z</time>
      </trkpt>
      <trkpt lat="45.29025" lon="6.14466">
        <ele>2482.4</ele>
        <time>2015-04-12T10:11:10.910Z</time>
      </trkpt>
      <trkpt lat="45.29036" lon="6.14473">
        <ele>2484.8</ele>
        <time>2015-04-12T10:11:18.910Z</time>
      </trkpt>
      <trkpt lat="45.29045" lon="6.14473">
        <ele>2485</ele>
        <time>2015-04-12T10:11:27.190Z</time>
      </trkpt>
      <trkpt lat="45.29057" lon="6.14476">
        <ele>2491.7</ele>
        <time>2015-04-12T10:11:43.180Z</time>
      </trkpt>
      <trkpt lat="45.29065" lon="6.14483">
        <ele>2494.1</ele>
        <time>2015-04-12T10:11:55.180Z</time>
      </trkpt>
      <trkpt lat="45.29077" lon="6.1448">
        <ele>2498.1</ele>
        <time>2015-04-12T10:12:07.180Z</time>
      </trkpt>
      <trkpt lat="45.29085" lon="6.1447">
        <ele>2501.9</ele>
        <time>2015-04-12T10:12:19.090Z</time>
      </trkpt>
      <trkpt lat="45.29096" lon="6.1446">
        <ele>2506.5</ele>
        <time>2015-04-12T10:12:31.080Z</time>
      </trkpt>
      <trkpt lat="45.29108" lon="6.14461">
        <ele>2510.1</ele>
        <time>2015-04-12T10:12:43.090Z</time>
      </trkpt>
      <trkpt lat="45.29124" lon="6.14455">
        <ele>2512.6</ele>
        <time>2015-04-12T10:12:51.090Z</time>
      </trkpt>
      <trkpt lat="45.2914" lon="6.14464">
        <ele>2519.1</ele>
        <time>2015-04-12T10:13:09.910Z</time>
      </trkpt>
      <trkpt lat="45.29151" lon="6.14471">
        <ele>2520.9</ele>
        <time>2015-04-12T10:13:19.010Z</time>
      </trkpt>
      <trkpt lat="45.29146" lon="6.14459">
        <ele>2526.3</ele>
        <time>2015-04-12T10:13:30.800Z</time>
      </trkpt>
      <trkpt lat="45.2916" lon="6.14455">
        <ele>2527.9</ele>
        <time>2015-04-12T10:13:38.800Z</time>
      </trkpt>
      <trkpt lat="45.29161" lon="6.14438">
        <ele>2529.6</ele>
        <time>2015-04-12T10:13:47.280Z</time>
      </trkpt>
      <trkpt lat="45.29176" lon="6.14438">
        <ele>2535.1</ele>
        <time>2015-04-12T10:14:03.090Z</time>
      </trkpt>
      <trkpt lat="45.29178" lon="6.14456">
        <ele>2537.5</ele>
        <time>2015-04-12T10:14:11.080Z</time>
      </trkpt>
      <trkpt lat="45.29188" lon="6.14459">
        <ele>2540.8</ele>
        <time>2015-04-12T10:14:27.810Z</time>
      </trkpt>
      <trkpt lat="45.29198" lon="6.14453">
        <ele>2542.9</ele>
        <time>2015-04-12T10:14:39.280Z</time>
      </trkpt>
      <trkpt lat="45.29206" lon="6.14464">
        <ele>2545.3</ele>
        <time>2015-04-12T10:14:47.080Z</time>
      </trkpt>
      <trkpt lat="45.29212" lon="6.14451">
        <ele>2549.7</ele>
        <time>2015-04-12T10:15:04.800Z</time>
      </trkpt>
      <trkpt lat="45.29209" lon="6.14424">
        <ele>2555.7</ele>
        <time>2015-04-12T10:15:25.100Z</time>
      </trkpt>
      <trkpt lat="45.29213" lon="6.14401">
        <ele>2559.8</ele>
        <time>2015-04-12T10:15:41.080Z</time>
      </trkpt>
      <trkpt lat="45.29226" lon="6.14399">
        <ele>2565.5</ele>
        <time>2015-04-12T10:15:57.080Z</time>
      </trkpt>
      <trkpt lat="45.29248" lon="6.14387">
        <ele>2568.6</ele>
        <time>2015-04-12T10:16:17.280Z</time>
      </trkpt>
      <trkpt lat="45.29251" lon="6.14401">
        <ele>2571.8</ele>
        <time>2015-04-12T10:16:25.080Z</time>
      </trkpt>
      <trkpt lat="45.29252" lon="6.14419">
        <ele>2575.1</ele>
        <time>2015-04-12T10:16:40.810Z</time>
      </trkpt>
      <trkpt lat="45.29255" lon="6.14437">
        <ele>2577.1</ele>
        <time>2015-04-12T10:16:53.090Z</time>
      </trkpt>
      <trkpt lat="45.29256" lon="6.1442">
        <ele>2580.7</ele>
        <time>2015-04-12T10:17:05.080Z</time>
      </trkpt>
      <trkpt lat="45.29259" lon="6.14405">
        <ele>2583.5</ele>
        <time>2015-04-12T10:17:17.090Z</time>
      </trkpt>
      <trkpt lat="45.29271" lon="6.14403">
        <ele>2584</ele>
        <time>2015-04-12T10:17:29.080Z</time>
      </trkpt>
      <trkpt lat="45.29289" lon="6.14433">
        <ele>2590.2</ele>
        <time>2015-04-12T10:17:45.080Z</time>
      </trkpt>
      <trkpt lat="45.293" lon="6.14416">
        <ele>2595.4</ele>
        <time>2015-04-12T10:18:13.080Z</time>
      </trkpt>
      <trkpt lat="45.29299" lon="6.144">
        <ele>2598.2</ele>
        <time>2015-04-12T10:18:25.080Z</time>
      </trkpt>
      <trkpt lat="45.293" lon="6.14384">
        <ele>2601.5</ele>
        <time>2015-04-12T10:18:37.080Z</time>
      </trkpt>
      <trkpt lat="45.29315" lon="6.14411">
        <ele>2605</ele>
        <time>2015-04-12T10:18:57.080Z</time>
      </trkpt>
      <trkpt lat="45.29323" lon="6.14422">
        <ele>2607.8</ele>
        <time>2015-04-12T10:19:05.090Z</time>
      </trkpt>
      <trkpt lat="45.2932" lon="6.14436">
        <ele>2611.5</ele>
        <time>2015-04-12T10:19:17.080Z</time>
      </trkpt>
      <trkpt lat="45.2933" lon="6.14425">
        <ele>2616</ele>
        <time>2015-04-12T10:19:37.090Z</time>
      </trkpt>
      <trkpt lat="45.29341" lon="6.14422">
        <ele>2618.1</ele>
        <time>2015-04-12T10:19:45.090Z</time>
      </trkpt>
      <trkpt lat="45.29347" lon="6.14404">
        <ele>2619.8</ele>
        <time>2015-04-12T10:19:57.080Z</time>
      </trkpt>
      <trkpt lat="45.29359" lon="6.14377">
        <ele>2624</ele>
        <time>2015-04-12T10:20:17.080Z</time>
      </trkpt>
      <trkpt lat="45.29363" lon="6.14363">
        <ele>2626.8</ele>
        <time>2015-04-12T10:20:25.080Z</time>
      </trkpt>
      <trkpt lat="45.29362" lon="6.14379">
        <ele>2629.8</ele>
        <time>2015-04-12T10:20:33.280Z</time>
      </trkpt>
      <trkpt lat="45.29371" lon="6.14394">
        <ele>2633.3</ele>
        <time>2015-04-12T10:20:45.280Z</time>
      </trkpt>
      <trkpt lat="45.29377" lon="6.14407">
        <ele>2635.4</ele>
        <time>2015-04-12T10:20:53.080Z</time>
      </trkpt>
      <trkpt lat="45.29388" lon="6.14408">
        <ele>2638.9</ele>
        <time>2015-04-12T10:21:09.080Z</time>
      </trkpt>
      <trkpt lat="45.29397" lon="6.14396">
        <ele>2642.2</ele>
        <time>2015-04-12T10:21:21.080Z</time>
      </trkpt>
      <trkpt lat="45.29402" lon="6.14379">
        <ele>2643</ele>
        <time>2015-04-12T10:21:29.080Z</time>
      </trkpt>
      <trkpt lat="45.2941" lon="6.14369">
        <ele>2644.5</ele>
        <time>2015-04-12T10:21:37.080Z</time>
      </trkpt>
      <trkpt lat="45.29408" lon="6.14387">
        <ele>2646.2</ele>
        <time>2015-04-12T10:21:45.290Z</time>
      </trkpt>
      <trkpt lat="45.29408" lon="6.14401">
        <ele>2648.5</ele>
        <time>2015-04-12T10:21:53.290Z</time>
      </trkpt>
      <trkpt lat="45.29421" lon="6.14397">
        <ele>2652.4</ele>
        <time>2015-04-12T10:22:13.090Z</time>
      </trkpt>
      <trkpt lat="45.29426" lon="6.14383">
        <ele>2657.9</ele>
        <time>2015-04-12T10:22:29.080Z</time>
      </trkpt>
      <trkpt lat="45.29438" lon="6.14378">
        <ele>2662</ele>
        <time>2015-04-12T10:22:49.280Z</time>
      </trkpt>
      <trkpt lat="45.29442" lon="6.14359">
        <ele>2661</ele>
        <time>2015-04-12T10:23:09.080Z</time>
      </trkpt>
      <trkpt lat="45.2945" lon="6.1435">
        <ele>2665.4</ele>
        <time>2015-04-12T10:23:21.280Z</time>
      </trkpt>
      <trkpt lat="45.29454" lon="6.1437">
        <ele>2667.7</ele>
        <time>2015-04-12T10:23:33.080Z</time>
      </trkpt>
      <trkpt lat="45.29466" lon="6.14374">
        <ele>2678.5</ele>
        <time>2015-04-12T10:24:21.080Z</time>
      </trkpt>
      <trkpt lat="45.29478" lon="6.144">
        <ele>2682.4</ele>
        <time>2015-04-12T10:24:36.810Z</time>
      </trkpt>
      <trkpt lat="45.29496" lon="6.14376">
        <ele>2693.3</ele>
        <time>2015-04-12T10:25:18.090Z</time>
      </trkpt>
      <trkpt lat="45.29498" lon="6.1439">
        <ele>2696</ele>
        <time>2015-04-12T10:25:26.090Z</time>
      </trkpt>
      <trkpt lat="45.29512" lon="6.14346">
        <ele>2703.7</ele>
        <time>2015-04-12T10:26:06.280Z</time>
      </trkpt>
      <trkpt lat="45.29525" lon="6.14353">
        <ele>2704.9</ele>
        <time>2015-04-12T10:26:18.080Z</time>
      </trkpt>
      <trkpt lat="45.29533" lon="6.14386">
        <ele>2711.5</ele>
        <time>2015-04-12T10:26:34.080Z</time>
      </trkpt>
      <trkpt lat="45.29519" lon="6.14396">
        <ele>2714</ele>
        <time>2015-04-12T10:26:46.010Z</time>
      </trkpt>
      <trkpt lat="45.2953" lon="6.14398">
        <ele>2719.2</ele>
        <time>2015-04-12T10:27:10.080Z</time>
      </trkpt>
      <trkpt lat="45.29533" lon="6.14383">
        <ele>2722.5</ele>
        <time>2015-04-12T10:27:18.290Z</time>
      </trkpt>
      <trkpt lat="45.29534" lon="6.14366">
        <ele>2725</ele>
        <time>2015-04-12T10:27:26.290Z</time>
      </trkpt>
      <trkpt lat="45.29543" lon="6.14359">
        <ele>2727</ele>
        <time>2015-04-12T10:27:34.290Z</time>
      </trkpt>
      <trkpt lat="45.29553" lon="6.14354">
        <ele>2728.5</ele>
        <time>2015-04-12T10:27:42.080Z</time>
      </trkpt>
      <trkpt lat="45.29553" lon="6.14337">
        <ele>2733.5</ele>
        <time>2015-04-12T10:27:58.290Z</time>
      </trkpt>
      <trkpt lat="45.29559" lon="6.14319">
        <ele>2736.5</ele>
        <time>2015-04-12T10:28:14.280Z</time>
      </trkpt>
      <trkpt lat="45.29556" lon="6.14306">
        <ele>2739.7</ele>
        <time>2015-04-12T10:28:26.280Z</time>
      </trkpt>
      <trkpt lat="45.29566" lon="6.14316">
        <ele>2745</ele>
        <time>2015-04-12T10:28:46.280Z</time>
      </trkpt>
      <trkpt lat="45.29579" lon="6.14313">
        <ele>2751</ele>
        <time>2015-04-12T10:29:06.280Z</time>
      </trkpt>
      <trkpt lat="45.29582" lon="6.143">
        <ele>2755.8</ele>
        <time>2015-04-12T10:29:22.290Z</time>
      </trkpt>
      <trkpt lat="45.29593" lon="6.14301">
        <ele>2762.6</ele>
        <time>2015-04-12T10:29:42.280Z</time>
      </trkpt>
      <trkpt lat="45.29593" lon="6.14322">
        <ele>2765</ele>
        <time>2015-04-12T10:30:10.280Z</time>
      </trkpt>
      <trkpt lat="45.29641" lon="6.14368">
        <ele>2754.3</ele>
        <time>2015-04-12T10:34:18.280Z</time>
      </trkpt>
      <trkpt lat="45.29658" lon="6.14379">
        <ele>2735.3</ele>
        <time>2015-04-12T10:34:26.280Z</time>
      </trkpt>
      <trkpt lat="45.29673" lon="6.1435">
        <ele>2728.3</ele>
        <time>2015-04-12T10:34:42.280Z</time>
      </trkpt>
      <trkpt lat="45.29695" lon="6.14323">
        <ele>2729.9</ele>
        <time>2015-04-12T10:34:58.280Z</time>
      </trkpt>
      <trkpt lat="45.29709" lon="6.14298">
        <ele>2737.3</ele>
        <time>2015-04-12T10:35:26.180Z</time>
      </trkpt>
      <trkpt lat="45.29706" lon="6.14284">
        <ele>2742.9</ele>
        <time>2015-04-12T10:35:58.280Z</time>
      </trkpt>
      <trkpt lat="45.2972" lon="6.14288">
        <ele>2747</ele>
        <time>2015-04-12T10:36:22.180Z</time>
      </trkpt>
      <trkpt lat="45.29729" lon="6.14282">
        <ele>2750.5</ele>
        <time>2015-04-12T10:36:38.180Z</time>
      </trkpt>
      <trkpt lat="45.2974" lon="6.14275">
        <ele>2753</ele>
        <time>2015-04-12T10:36:46.280Z</time>
      </trkpt>
      <trkpt lat="45.29739" lon="6.14258">
        <ele>2754.5</ele>
        <time>2015-04-12T10:36:54.280Z</time>
      </trkpt>
      <trkpt lat="45.29751" lon="6.14255">
        <ele>2756.3</ele>
        <time>2015-04-12T10:37:06.010Z</time>
      </trkpt>
      <trkpt lat="45.29773" lon="6.1424">
        <ele>2762.1</ele>
        <time>2015-04-12T10:37:26.280Z</time>
      </trkpt>
      <trkpt lat="45.29782" lon="6.14236">
        <ele>2765.8</ele>
        <time>2015-04-12T10:37:38.290Z</time>
      </trkpt>
      <trkpt lat="45.29773" lon="6.14229">
        <ele>2768.6</ele>
        <time>2015-04-12T10:37:58.280Z</time>
      </trkpt>
      <trkpt lat="45.29767" lon="6.14219">
        <ele>2776.4</ele>
        <time>2015-04-12T10:38:50.280Z</time>
      </trkpt>
      <trkpt lat="45.29772" lon="6.14211">
        <ele>2783</ele>
        <time>2015-04-12T10:39:26.280Z</time>
      </trkpt>
      <trkpt lat="45.29774" lon="6.14198">
        <ele>2793.6</ele>
        <time>2015-04-12T10:40:38.280Z</time>
      </trkpt>
      <trkpt lat="45.29779" lon="6.14192">
        <ele>2799.5</ele>
        <time>2015-04-12T10:41:02.180Z</time>
      </trkpt>
      <trkpt lat="45.29787" lon="6.14178">
        <ele>2804.3</ele>
        <time>2015-04-12T10:41:42.190Z</time>
      </trkpt>
      <trkpt lat="45.29799" lon="6.14177">
        <ele>2805.5</ele>
        <time>2015-04-12T10:41:54.180Z</time>
      </trkpt>
      <trkpt lat="45.29826" lon="6.14185">
        <ele>2811.8</ele>
        <time>2015-04-12T10:42:42.180Z</time>
      </trkpt>
      <trkpt lat="45.29839" lon="6.14179">
        <ele>2815.4</ele>
        <time>2015-04-12T10:42:54.180Z</time>
      </trkpt>
      <trkpt lat="45.29852" lon="6.14175">
        <ele>2819.2</ele>
        <time>2015-04-12T10:43:10.180Z</time>
      </trkpt>
      <trkpt lat="45.2986" lon="6.14165">
        <ele>2821.6</ele>
        <time>2015-04-12T10:43:18.180Z</time>
      </trkpt>
      <trkpt lat="45.29871" lon="6.1416">
        <ele>2822.2</ele>
        <time>2015-04-12T10:43:29.920Z</time>
      </trkpt>
      <trkpt lat="45.29879" lon="6.14172">
        <ele>2828.2</ele>
        <time>2015-04-12T10:43:50.180Z</time>
      </trkpt>
      <trkpt lat="45.29891" lon="6.14166">
        <ele>2833</ele>
        <time>2015-04-12T10:44:12.100Z</time>
      </trkpt>
      <trkpt lat="45.29904" lon="6.14168">
        <ele>2840.1</ele>
        <time>2015-04-12T10:45:00.180Z</time>
      </trkpt>
      <trkpt lat="45.29905" lon="6.14149">
        <ele>2848.6</ele>
        <time>2015-04-12T10:45:28.180Z</time>
      </trkpt>
      <trkpt lat="45.29894" lon="6.14145">
        <ele>2861.4</ele>
        <time>2015-04-12T10:46:24.180Z</time>
      </trkpt>
      <trkpt lat="45.29895" lon="6.14128">
        <ele>2867.7</ele>
        <time>2015-04-12T10:46:48.180Z</time>
      </trkpt>
      <trkpt lat="45.29896" lon="6.14143">
        <ele>2868</ele>
        <time>2015-04-12T10:47:36.190Z</time>
      </trkpt>
      <trkpt lat="45.29893" lon="6.14127">
        <ele>2868</ele>
        <time>2015-04-12T10:48:00.190Z</time>
      </trkpt>
      <trkpt lat="45.29897" lon="6.14107">
        <ele>2870.4</ele>
        <time>2015-04-12T10:54:05.190Z</time>
      </trkpt>
      <trkpt lat="45.29941" lon="6.14127">
        <ele>2828.5</ele>
        <time>2015-04-12T10:54:41.180Z</time>
      </trkpt>
      <trkpt lat="45.29957" lon="6.14104">
        <ele>2816.5</ele>
        <time>2015-04-12T10:54:49.180Z</time>
      </trkpt>
      <trkpt lat="45.29966" lon="6.14126">
        <ele>2804.8</ele>
        <time>2015-04-12T10:55:33.200Z</time>
      </trkpt>
      <trkpt lat="45.30078" lon="6.14291">
        <ele>2691.3</ele>
        <time>2015-04-12T10:56:05.190Z</time>
      </trkpt>
      <trkpt lat="45.30101" lon="6.14303">
        <ele>2665.4</ele>
        <time>2015-04-12T10:56:13.190Z</time>
      </trkpt>
      <trkpt lat="45.30119" lon="6.14329">
        <ele>2638.9</ele>
        <time>2015-04-12T10:56:21.190Z</time>
      </trkpt>
      <trkpt lat="45.30153" lon="6.14343">
        <ele>2614.9</ele>
        <time>2015-04-12T10:56:29.190Z</time>
      </trkpt>
      <trkpt lat="45.30191" lon="6.144">
        <ele>2583.2</ele>
        <time>2015-04-12T10:56:37.190Z</time>
      </trkpt>
      <trkpt lat="45.30351" lon="6.14513">
        <ele>2540.6</ele>
        <time>2015-04-12T10:56:53.190Z</time>
      </trkpt>
      <trkpt lat="45.30395" lon="6.14583">
        <ele>2523.1</ele>
        <time>2015-04-12T10:57:01.190Z</time>
      </trkpt>
      <trkpt lat="45.30411" lon="6.14656">
        <ele>2499.9</ele>
        <time>2015-04-12T10:57:09.190Z</time>
      </trkpt>
      <trkpt lat="45.30439" lon="6.14682">
        <ele>2480.5</ele>
        <time>2015-04-12T10:57:17.190Z</time>
      </trkpt>
      <trkpt lat="45.30467" lon="6.14583">
        <ele>2431.5</ele>
        <time>2015-04-12T10:57:33.190Z</time>
      </trkpt>
      <trkpt lat="45.30499" lon="6.14574">
        <ele>2406.7</ele>
        <time>2015-04-12T10:57:41.190Z</time>
      </trkpt>
      <trkpt lat="45.30571" lon="6.14594">
        <ele>2381.9</ele>
        <time>2015-04-12T10:57:49.190Z</time>
      </trkpt>
      <trkpt lat="45.30623" lon="6.14622">
        <ele>2368.7</ele>
        <time>2015-04-12T10:57:57.180Z</time>
      </trkpt>
      <trkpt lat="45.30687" lon="6.14602">
        <ele>2348.5</ele>
        <time>2015-04-12T10:58:05.180Z</time>
      </trkpt>
      <trkpt lat="45.30743" lon="6.14596">
        <ele>2318.3</ele>
        <time>2015-04-12T10:58:13.180Z</time>
      </trkpt>
      <trkpt lat="45.30786" lon="6.14545">
        <ele>2281.2</ele>
        <time>2015-04-12T10:58:21.180Z</time>
      </trkpt>
      <trkpt lat="45.3084" lon="6.14546">
        <ele>2249.2</ele>
        <time>2015-04-12T10:58:29.180Z</time>
      </trkpt>
      <trkpt lat="45.30871" lon="6.14529">
        <ele>2238.8</ele>
        <time>2015-04-12T10:58:37.180Z</time>
      </trkpt>
      <trkpt lat="45.30915" lon="6.14527">
        <ele>2229.1</ele>
        <time>2015-04-12T10:58:46.380Z</time>
      </trkpt>
      <trkpt lat="45.30975" lon="6.14514">
        <ele>2222.3</ele>
        <time>2015-04-12T10:58:53.630Z</time>
      </trkpt>
      <trkpt lat="45.31022" lon="6.14512">
        <ele>2217.6</ele>
        <time>2015-04-12T10:59:02.380Z</time>
      </trkpt>
      <trkpt lat="45.31022" lon="6.14526">
        <ele>2217</ele>
        <time>2015-04-12T10:59:42.190Z</time>
      </trkpt>
      <trkpt lat="45.31014" lon="6.14535">
        <ele>2217</ele>
        <time>2015-04-12T10:59:58.190Z</time>
      </trkpt>
      <trkpt lat="45.31021" lon="6.14519">
        <ele>2218.8</ele>
        <time>2015-04-12T11:00:57.900Z</time>
      </trkpt>
      <trkpt lat="45.31023" lon="6.14535">
        <ele>2219</ele>
        <time>2015-04-12T11:02:14.180Z</time>
      </trkpt>
      <trkpt lat="45.31029" lon="6.14546">
        <ele>2226.3</ele>
        <time>2015-04-12T11:03:06.180Z</time>
      </trkpt>
      <trkpt lat="45.31034" lon="6.14563">
        <ele>2231.8</ele>
        <time>2015-04-12T11:03:22.180Z</time>
      </trkpt>
      <trkpt lat="45.31043" lon="6.1457">
        <ele>2234.9</ele>
        <time>2015-04-12T11:03:34.190Z</time>
      </trkpt>
      <trkpt lat="45.31047" lon="6.14586">
        <ele>2238.1</ele>
        <time>2015-04-12T11:03:50.190Z</time>
      </trkpt>
      <trkpt lat="45.31058" lon="6.14595">
        <ele>2239.2</ele>
        <time>2015-04-12T11:03:55.380Z</time>
      </trkpt>
      <trkpt lat="45.31065" lon="6.14612">
        <ele>2242.2</ele>
        <time>2015-04-12T11:04:06.900Z</time>
      </trkpt>
      <trkpt lat="45.31073" lon="6.1462">
        <ele>2244.1</ele>
        <time>2015-04-12T11:04:15.180Z</time>
      </trkpt>
      <trkpt lat="45.31079" lon="6.14632">
        <ele>2249.9</ele>
        <time>2015-04-12T11:04:39.180Z</time>
      </trkpt>
      <trkpt lat="45.31102" lon="6.14656">
        <ele>2256.3</ele>
        <time>2015-04-12T11:05:07.180Z</time>
      </trkpt>
      <trkpt lat="45.31107" lon="6.14669">
        <ele>2258.7</ele>
        <time>2015-04-12T11:05:15.180Z</time>
      </trkpt>
      <trkpt lat="45.31113" lon="6.1469">
        <ele>2268.3</ele>
        <time>2015-04-12T11:05:51.180Z</time>
      </trkpt>
      <trkpt lat="45.31114" lon="6.1471">
        <ele>2271.5</ele>
        <time>2015-04-12T11:06:07.180Z</time>
      </trkpt>
      <trkpt lat="45.31122" lon="6.14721">
        <ele>2273.9</ele>
        <time>2015-04-12T11:06:19.180Z</time>
      </trkpt>
      <trkpt lat="45.31144" lon="6.14745">
        <ele>2284.1</ele>
        <time>2015-04-12T11:06:55.180Z</time>
      </trkpt>
      <trkpt lat="45.31149" lon="6.14765">
        <ele>2288.3</ele>
        <time>2015-04-12T11:07:11.180Z</time>
      </trkpt>
      <trkpt lat="45.3115" lon="6.14779">
        <ele>2292.3</ele>
        <time>2015-04-12T11:07:31.180Z</time>
      </trkpt>
      <trkpt lat="45.31158" lon="6.148">
        <ele>2295.5</ele>
        <time>2015-04-12T11:07:47.180Z</time>
      </trkpt>
      <trkpt lat="45.31166" lon="6.14814">
        <ele>2298.7</ele>
        <time>2015-04-12T11:08:03.180Z</time>
      </trkpt>
      <trkpt lat="45.31172" lon="6.14826">
        <ele>2300.2</ele>
        <time>2015-04-12T11:08:11.900Z</time>
      </trkpt>
      <trkpt lat="45.31169" lon="6.14845">
        <ele>2301.4</ele>
        <time>2015-04-12T11:08:23.900Z</time>
      </trkpt>
      <trkpt lat="45.31189" lon="6.14874">
        <ele>2304.4</ele>
        <time>2015-04-12T11:08:44.180Z</time>
      </trkpt>
      <trkpt lat="45.31203" lon="6.14905">
        <ele>2313.2</ele>
        <time>2015-04-12T11:09:20.180Z</time>
      </trkpt>
      <trkpt lat="45.31235" lon="6.1493">
        <ele>2324.1</ele>
        <time>2015-04-12T11:10:00.180Z</time>
      </trkpt>
      <trkpt lat="45.31247" lon="6.14935">
        <ele>2329.4</ele>
        <time>2015-04-12T11:10:24.180Z</time>
      </trkpt>
      <trkpt lat="45.31244" lon="6.14951">
        <ele>2334.5</ele>
        <time>2015-04-12T11:10:44.580Z</time>
      </trkpt>
      <trkpt lat="45.31262" lon="6.14979">
        <ele>2343.3</ele>
        <time>2015-04-12T11:11:25.180Z</time>
      </trkpt>
      <trkpt lat="45.31267" lon="6.14992">
        <ele>2347.3</ele>
        <time>2015-04-12T11:11:37.180Z</time>
      </trkpt>
      <trkpt lat="45.31278" lon="6.14994">
        <ele>2349.9</ele>
        <time>2015-04-12T11:11:49.190Z</time>
      </trkpt>
      <trkpt lat="45.31293" lon="6.15007">
        <ele>2355.8</ele>
        <time>2015-04-12T11:12:09.180Z</time>
      </trkpt>
      <trkpt lat="45.31315" lon="6.15011">
        <ele>2361</ele>
        <time>2015-04-12T11:12:33.180Z</time>
      </trkpt>
      <trkpt lat="45.31313" lon="6.15029">
        <ele>2363.8</ele>
        <time>2015-04-12T11:12:45.180Z</time>
      </trkpt>
      <trkpt lat="45.31306" lon="6.15045">
        <ele>2368.3</ele>
        <time>2015-04-12T11:12:57.180Z</time>
      </trkpt>
      <trkpt lat="45.31317" lon="6.15049">
        <ele>2370.4</ele>
        <time>2015-04-12T11:13:13.180Z</time>
      </trkpt>
      <trkpt lat="45.31331" lon="6.15051">
        <ele>2375.8</ele>
        <time>2015-04-12T11:13:29.180Z</time>
      </trkpt>
      <trkpt lat="45.3133" lon="6.15067">
        <ele>2380.4</ele>
        <time>2015-04-12T11:13:45.590Z</time>
      </trkpt>
      <trkpt lat="45.31339" lon="6.15081">
        <ele>2387.1</ele>
        <time>2015-04-12T11:14:10.180Z</time>
      </trkpt>
      <trkpt lat="45.31345" lon="6.151">
        <ele>2391</ele>
        <time>2015-04-12T11:14:26.180Z</time>
      </trkpt>
      <trkpt lat="45.3134" lon="6.15117">
        <ele>2396</ele>
        <time>2015-04-12T11:14:46.180Z</time>
      </trkpt>
      <trkpt lat="45.31344" lon="6.15133">
        <ele>2398.7</ele>
        <time>2015-04-12T11:14:58.180Z</time>
      </trkpt>
      <trkpt lat="45.31356" lon="6.15138">
        <ele>2400.4</ele>
        <time>2015-04-12T11:15:10.380Z</time>
      </trkpt>
      <trkpt lat="45.31367" lon="6.15136">
        <ele>2406.8</ele>
        <time>2015-04-12T11:15:26.380Z</time>
      </trkpt>
      <trkpt lat="45.31361" lon="6.15166">
        <ele>2413.9</ele>
        <time>2015-04-12T11:15:54.180Z</time>
      </trkpt>
      <trkpt lat="45.31367" lon="6.15177">
        <ele>2415.6</ele>
        <time>2015-04-12T11:16:02.380Z</time>
      </trkpt>
      <trkpt lat="45.31378" lon="6.15185">
        <ele>2418.7</ele>
        <time>2015-04-12T11:16:18.180Z</time>
      </trkpt>
      <trkpt lat="45.31388" lon="6.1518">
        <ele>2422.9</ele>
        <time>2015-04-12T11:16:38.180Z</time>
      </trkpt>
      <trkpt lat="45.31387" lon="6.15215">
        <ele>2430.3</ele>
        <time>2015-04-12T11:17:10.180Z</time>
      </trkpt>
      <trkpt lat="45.31391" lon="6.15229">
        <ele>2437.9</ele>
        <time>2015-04-12T11:17:34.180Z</time>
      </trkpt>
      <trkpt lat="45.31399" lon="6.15244">
        <ele>2440.2</ele>
        <time>2015-04-12T11:17:45.380Z</time>
      </trkpt>
      <trkpt lat="45.31403" lon="6.15257">
        <ele>2442.1</ele>
        <time>2015-04-12T11:17:53.100Z</time>
      </trkpt>
      <trkpt lat="45.31392" lon="6.15262">
        <ele>2445.2</ele>
        <time>2015-04-12T11:18:05.380Z</time>
      </trkpt>
      <trkpt lat="45.31399" lon="6.15279">
        <ele>2446.8</ele>
        <time>2015-04-12T11:18:21.180Z</time>
      </trkpt>
      <trkpt lat="45.314" lon="6.15311">
        <ele>2460.2</ele>
        <time>2015-04-12T11:19:01.380Z</time>
      </trkpt>
      <trkpt lat="45.31395" lon="6.15325">
        <ele>2461.7</ele>
        <time>2015-04-12T11:19:13.180Z</time>
      </trkpt>
      <trkpt lat="45.31406" lon="6.1533">
        <ele>2463.6</ele>
        <time>2015-04-12T11:19:25.380Z</time>
      </trkpt>
      <trkpt lat="45.31412" lon="6.15319">
        <ele>2465</ele>
        <time>2015-04-12T11:19:32.100Z</time>
      </trkpt>
      <trkpt lat="45.31422" lon="6.15324">
        <ele>2468.1</ele>
        <time>2015-04-12T11:19:40.100Z</time>
      </trkpt>
      <trkpt lat="45.31436" lon="6.15326">
        <ele>2477.6</ele>
        <time>2015-04-12T11:20:22.380Z</time>
      </trkpt>
      <trkpt lat="45.31429" lon="6.1534">
        <ele>2481.9</ele>
        <time>2015-04-12T11:20:42.380Z</time>
      </trkpt>
      <trkpt lat="45.31441" lon="6.15368">
        <ele>2497.8</ele>
        <time>2015-04-12T11:21:57.580Z</time>
      </trkpt>
      <trkpt lat="45.31452" lon="6.15366">
        <ele>2500</ele>
        <time>2015-04-12T11:22:14.380Z</time>
      </trkpt>
      <trkpt lat="45.31461" lon="6.15374">
        <ele>2507</ele>
        <time>2015-04-12T11:23:22.380Z</time>
      </trkpt>
      <trkpt lat="45.31451" lon="6.15375">
        <ele>2506.1</ele>
        <time>2015-04-12T11:23:38.380Z</time>
      </trkpt>
      <trkpt lat="45.31459" lon="6.15365">
        <ele>2506</ele>
        <time>2015-04-12T11:24:35.100Z</time>
      </trkpt>
      <trkpt lat="45.31451" lon="6.15375">
        <ele>2507</ele>
        <time>2015-04-12T11:25:55.110Z</time>
      </trkpt>
      <trkpt lat="45.31439" lon="6.15371">
        <ele>2507</ele>
        <time>2015-04-12T11:27:05.380Z</time>
      </trkpt>
      <trkpt lat="45.31423" lon="6.15409">
        <ele>2506</ele>
        <time>2015-04-12T11:27:29.480Z</time>
      </trkpt>
      <trkpt lat="45.31407" lon="6.15502">
        <ele>2477</ele>
        <time>2015-04-12T11:27:37.390Z</time>
      </trkpt>
      <trkpt lat="45.31487" lon="6.15556">
        <ele>2449.3</ele>
        <time>2015-04-12T11:27:45.280Z</time>
      </trkpt>
      <trkpt lat="45.31551" lon="6.15704">
        <ele>2423.3</ele>
        <time>2015-04-12T11:27:53.380Z</time>
      </trkpt>
      <trkpt lat="45.31558" lon="6.15743">
        <ele>2400.5</ele>
        <time>2015-04-12T11:28:01.380Z</time>
      </trkpt>
      <trkpt lat="45.31625" lon="6.15813">
        <ele>2380.5</ele>
        <time>2015-04-12T11:28:09.680Z</time>
      </trkpt>
      <trkpt lat="45.31668" lon="6.1581">
        <ele>2357.3</ele>
        <time>2015-04-12T11:28:18.280Z</time>
      </trkpt>
      <trkpt lat="45.31628" lon="6.15848">
        <ele>2335.4</ele>
        <time>2015-04-12T11:28:27.380Z</time>
      </trkpt>
      <trkpt lat="45.31597" lon="6.15797">
        <ele>2323.7</ele>
        <time>2015-04-12T11:28:33.110Z</time>
      </trkpt>
      <trkpt lat="45.31648" lon="6.15758">
        <ele>2314.7</ele>
        <time>2015-04-12T11:28:38.010Z</time>
      </trkpt>
      <trkpt lat="45.31843" lon="6.15783">
        <ele>2280.9</ele>
        <time>2015-04-12T11:28:49.110Z</time>
      </trkpt>
      <trkpt lat="45.31932" lon="6.15814">
        <ele>2250.6</ele>
        <time>2015-04-12T11:28:58.380Z</time>
      </trkpt>
      <trkpt lat="45.31955" lon="6.15904">
        <ele>2232.5</ele>
        <time>2015-04-12T11:29:06.380Z</time>
      </trkpt>
      <trkpt lat="45.31887" lon="6.15887">
        <ele>2214</ele>
        <time>2015-04-12T11:29:14.300Z</time>
      </trkpt>
      <trkpt lat="45.31877" lon="6.15891">
        <ele>2193.7</ele>
        <time>2015-04-12T11:29:22.280Z</time>
      </trkpt>
      <trkpt lat="45.31944" lon="6.15944">
        <ele>2172.9</ele>
        <time>2015-04-12T11:29:30.280Z</time>
      </trkpt>
      <trkpt lat="45.31979" lon="6.15997">
        <ele>2151</ele>
        <time>2015-04-12T11:29:38.390Z</time>
      </trkpt>
      <trkpt lat="45.32028" lon="6.1601">
        <ele>2141.1</ele>
        <time>2015-04-12T11:29:46.390Z</time>
      </trkpt>
      <trkpt lat="45.32092" lon="6.16054">
        <ele>2125.3</ele>
        <time>2015-04-12T11:29:54.390Z</time>
      </trkpt>
      <trkpt lat="45.32263" lon="6.16207">
        <ele>2091.1</ele>
        <time>2015-04-12T11:30:10.390Z</time>
      </trkpt>
      <trkpt lat="45.32256" lon="6.16236">
        <ele>2054.1</ele>
        <time>2015-04-12T11:30:26.390Z</time>
      </trkpt>
      <trkpt lat="45.32274" lon="6.16224">
        <ele>2032.1</ele>
        <time>2015-04-12T11:30:34.280Z</time>
      </trkpt>
      <trkpt lat="45.32251" lon="6.16231">
        <ele>2016.7</ele>
        <time>2015-04-12T11:30:42.280Z</time>
      </trkpt>
      <trkpt lat="45.32233" lon="6.16239">
        <ele>2016</ele>
        <time>2015-04-12T11:31:14.280Z</time>
      </trkpt>
      <trkpt lat="45.32224" lon="6.16198">
        <ele>2015.2</ele>
        <time>2015-04-12T11:31:27.000Z</time>
      </trkpt>
      <trkpt lat="45.32219" lon="6.16185">
        <ele>2014.7</ele>
        <time>2015-04-12T11:31:41.110Z</time>
      </trkpt>
      <trkpt lat="45.32219" lon="6.16169">
        <ele>2013</ele>
        <time>2015-04-12T11:31:54.000Z</time>
      </trkpt>
      <trkpt lat="45.32222" lon="6.16214">
        <ele>2016</ele>
        <time>2015-04-12T11:32:20.010Z</time>
      </trkpt>
      <trkpt lat="45.32149" lon="6.16205">
        <ele>2016</ele>
        <time>2015-04-12T11:32:28.110Z</time>
      </trkpt>
      <trkpt lat="45.32232" lon="6.16223">
        <ele>2016</ele>
        <time>2015-04-12T11:32:38.480Z</time>
      </trkpt>
      <trkpt lat="45.3225" lon="6.16217">
        <ele>2015.1</ele>
        <time>2015-04-12T11:32:50.280Z</time>
      </trkpt>
      <trkpt lat="45.32241" lon="6.16226">
        <ele>2015</ele>
        <time>2015-04-12T11:33:14.680Z</time>
      </trkpt>
      <trkpt lat="45.32233" lon="6.16219">
        <ele>2015</ele>
        <time>2015-04-12T11:33:31.100Z</time>
      </trkpt>
      <trkpt lat="45.32242" lon="6.16226">
        <ele>2016</ele>
        <time>2015-04-12T11:36:55.000Z</time>
      </trkpt>
      <trkpt lat="45.32236" lon="6.16256">
        <ele>2016.8</ele>
        <time>2015-04-12T11:37:07.480Z</time>
      </trkpt>
      <trkpt lat="45.32232" lon="6.1632">
        <ele>2010.9</ele>
        <time>2015-04-12T11:37:15.000Z</time>
      </trkpt>
      <trkpt lat="45.32254" lon="6.16384">
        <ele>1998.8</ele>
        <time>2015-04-12T11:37:23.280Z</time>
      </trkpt>
      <trkpt lat="45.32306" lon="6.16419">
        <ele>1984.9</ele>
        <time>2015-04-12T11:37:31.280Z</time>
      </trkpt>
      <trkpt lat="45.32357" lon="6.16469">
        <ele>1975.3</ele>
        <time>2015-04-12T11:37:39.490Z</time>
      </trkpt>
      <trkpt lat="45.32383" lon="6.16506">
        <ele>1971.9</ele>
        <time>2015-04-12T11:37:47.280Z</time>
      </trkpt>
      <trkpt lat="45.32408" lon="6.1655">
        <ele>1970.4</ele>
        <time>2015-04-12T11:37:55.000Z</time>
      </trkpt>
      <trkpt lat="45.32416" lon="6.16582">
        <ele>1969.2</ele>
        <time>2015-04-12T11:38:03.280Z</time>
      </trkpt>
      <trkpt lat="45.32437" lon="6.1662">
        <ele>1966.7</ele>
        <time>2015-04-12T11:38:11.280Z</time>
      </trkpt>
      <trkpt lat="45.32518" lon="6.1668">
        <ele>1953.2</ele>
        <time>2015-04-12T11:38:27.280Z</time>
      </trkpt>
      <trkpt lat="45.32564" lon="6.16727">
        <ele>1946.4</ele>
        <time>2015-04-12T11:38:35.280Z</time>
      </trkpt>
      <trkpt lat="45.32564" lon="6.16799">
        <ele>1940</ele>
        <time>2015-04-12T11:38:43.280Z</time>
      </trkpt>
      <trkpt lat="45.32584" lon="6.16841">
        <ele>1934.5</ele>
        <time>2015-04-12T11:38:51.280Z</time>
      </trkpt>
      <trkpt lat="45.3263" lon="6.16827">
        <ele>1932.2</ele>
        <time>2015-04-12T11:38:59.280Z</time>
      </trkpt>
      <trkpt lat="45.32649" lon="6.16828">
        <ele>1932</ele>
        <time>2015-04-12T11:39:07.280Z</time>
      </trkpt>
      <trkpt lat="45.32681" lon="6.16878">
        <ele>1932</ele>
        <time>2015-04-12T11:39:15.280Z</time>
      </trkpt>
      <trkpt lat="45.32697" lon="6.1693">
        <ele>1927.8</ele>
        <time>2015-04-12T11:39:23.280Z</time>
      </trkpt>
      <trkpt lat="45.32756" lon="6.16945">
        <ele>1915.1</ele>
        <time>2015-04-12T11:39:39.280Z</time>
      </trkpt>
      <trkpt lat="45.32777" lon="6.16933">
        <ele>1913.4</ele>
        <time>2015-04-12T11:39:47.280Z</time>
      </trkpt>
      <trkpt lat="45.3282" lon="6.16922">
        <ele>1910.7</ele>
        <time>2015-04-12T11:39:55.280Z</time>
      </trkpt>
      <trkpt lat="45.32851" lon="6.16924">
        <ele>1907.9</ele>
        <time>2015-04-12T11:40:03.000Z</time>
      </trkpt>
      <trkpt lat="45.32891" lon="6.16922">
        <ele>1905.7</ele>
        <time>2015-04-12T11:40:12.280Z</time>
      </trkpt>
      <trkpt lat="45.32919" lon="6.16947">
        <ele>1904.6</ele>
        <time>2015-04-12T11:40:20.280Z</time>
      </trkpt>
      <trkpt lat="45.32988" lon="6.16958">
        <ele>1899.3</ele>
        <time>2015-04-12T11:40:36.280Z</time>
      </trkpt>
      <trkpt lat="45.33008" lon="6.16948">
        <ele>1898.5</ele>
        <time>2015-04-12T11:40:44.280Z</time>
      </trkpt>
      <trkpt lat="45.33032" lon="6.16942">
        <ele>1897.7</ele>
        <time>2015-04-12T11:40:52.280Z</time>
      </trkpt>
      <trkpt lat="45.3304" lon="6.1695">
        <ele>1898</ele>
        <time>2015-04-12T11:43:59.380Z</time>
      </trkpt>
      <trkpt lat="45.3305" lon="6.1695">
        <ele>1899.6</ele>
        <time>2015-04-12T11:44:11.380Z</time>
      </trkpt>
      <trkpt lat="45.33057" lon="6.16949">
        <ele>1902</ele>
        <time>2015-04-12T11:44:19.380Z</time>
      </trkpt>
      <trkpt lat="45.33076" lon="6.16955">
        <ele>1907.6</ele>
        <time>2015-04-12T11:44:43.380Z</time>
      </trkpt>
      <trkpt lat="45.33082" lon="6.16956">
        <ele>1910.2</ele>
        <time>2015-04-12T11:44:51.380Z</time>
      </trkpt>
      <trkpt lat="45.33089" lon="6.16955">
        <ele>1911</ele>
        <time>2015-04-12T11:44:59.380Z</time>
      </trkpt>
      <trkpt lat="45.33107" lon="6.16961">
        <ele>1916.2</ele>
        <time>2015-04-12T11:45:11.000Z</time>
      </trkpt>
      <trkpt lat="45.33118" lon="6.16959">
        <ele>1917.8</ele>
        <time>2015-04-12T11:45:23.290Z</time>
      </trkpt>
      <trkpt lat="45.3313" lon="6.16962">
        <ele>1919.6</ele>
        <time>2015-04-12T11:45:35.280Z</time>
      </trkpt>
      <trkpt lat="45.33144" lon="6.16968">
        <ele>1920</ele>
        <time>2015-04-12T11:45:47.280Z</time>
      </trkpt>
      <trkpt lat="45.3316" lon="6.16983">
        <ele>1920.6</ele>
        <time>2015-04-12T11:45:55.280Z</time>
      </trkpt>
      <trkpt lat="45.33197" lon="6.17002">
        <ele>1922</ele>
        <time>2015-04-12T11:46:15.280Z</time>
      </trkpt>
      <trkpt lat="45.33208" lon="6.1701">
        <ele>1922</ele>
        <time>2015-04-12T11:46:23.280Z</time>
      </trkpt>
      <trkpt lat="45.33221" lon="6.17013">
        <ele>1922</ele>
        <time>2015-04-12T11:46:31.280Z</time>
      </trkpt>
      <trkpt lat="45.33241" lon="6.17017">
        <ele>1922.8</ele>
        <time>2015-04-12T11:46:47.280Z</time>
      </trkpt>
      <trkpt lat="45.33258" lon="6.17017">
        <ele>1925</ele>
        <time>2015-04-12T11:46:59.280Z</time>
      </trkpt>
      <trkpt lat="45.3327" lon="6.17028">
        <ele>1929.6</ele>
        <time>2015-04-12T11:47:15.280Z</time>
      </trkpt>
      <trkpt lat="45.33296" lon="6.17032">
        <ele>1933</ele>
        <time>2015-04-12T11:47:39.280Z</time>
      </trkpt>
      <trkpt lat="45.3331" lon="6.17038">
        <ele>1933.8</ele>
        <time>2015-04-12T11:47:47.280Z</time>
      </trkpt>
      <trkpt lat="45.33331" lon="6.17057">
        <ele>1934</ele>
        <time>2015-04-12T11:47:59.280Z</time>
      </trkpt>
      <trkpt lat="45.33344" lon="6.17057">
        <ele>1934</ele>
        <time>2015-04-12T11:48:07.280Z</time>
      </trkpt>
      <trkpt lat="45.33354" lon="6.17061">
        <ele>1935</ele>
        <time>2015-04-12T11:48:19.280Z</time>
      </trkpt>
      <trkpt lat="45.33394" lon="6.17092">
        <ele>1939.2</ele>
        <time>2015-04-12T11:48:51.280Z</time>
      </trkpt>
      <trkpt lat="45.33404" lon="6.17097">
        <ele>1940</ele>
        <time>2015-04-12T11:49:03.280Z</time>
      </trkpt>
      <trkpt lat="45.33416" lon="6.17094">
        <ele>1940.4</ele>
        <time>2015-04-12T11:49:11.280Z</time>
      </trkpt>
      <trkpt lat="45.33432" lon="6.17098">
        <ele>1942</ele>
        <time>2015-04-12T11:49:19.280Z</time>
      </trkpt>
      <trkpt lat="45.33444" lon="6.17114">
        <ele>1944.3</ele>
        <time>2015-04-12T11:49:27.280Z</time>
      </trkpt>
      <trkpt lat="45.33445" lon="6.17137">
        <ele>1945</ele>
        <time>2015-04-12T11:49:39.290Z</time>
      </trkpt>
      <trkpt lat="45.33453" lon="6.17157">
        <ele>1948.4</ele>
        <time>2015-04-12T11:49:51.280Z</time>
      </trkpt>
      <trkpt lat="45.33457" lon="6.17175">
        <ele>1950</ele>
        <time>2015-04-12T11:49:59.280Z</time>
      </trkpt>
      <trkpt lat="45.33464" lon="6.17193">
        <ele>1951.6</ele>
        <time>2015-04-12T11:50:15.280Z</time>
      </trkpt>
      <trkpt lat="45.33472" lon="6.17205">
        <ele>1952.8</ele>
        <time>2015-04-12T11:50:23.280Z</time>
      </trkpt>
      <trkpt lat="45.33482" lon="6.17194">
        <ele>1956.1</ele>
        <time>2015-04-12T11:50:40.100Z</time>
      </trkpt>
      <trkpt lat="45.33489" lon="6.17178">
        <ele>1959.4</ele>
        <time>2015-04-12T11:50:56.480Z</time>
      </trkpt>
      <trkpt lat="45.33501" lon="6.17203">
        <ele>1963.4</ele>
        <time>2015-04-12T11:51:16.290Z</time>
      </trkpt>
      <trkpt lat="45.33495" lon="6.17221">
        <ele>1969.6</ele>
        <time>2015-04-12T11:51:32.280Z</time>
      </trkpt>
      <trkpt lat="45.33498" lon="6.17241">
        <ele>1972.4</ele>
        <time>2015-04-12T11:51:44.010Z</time>
      </trkpt>
      <trkpt lat="45.33506" lon="6.17257">
        <ele>1974.7</ele>
        <time>2015-04-12T11:51:56.280Z</time>
      </trkpt>
      <trkpt lat="45.33517" lon="6.1726">
        <ele>1977.9</ele>
        <time>2015-04-12T11:52:09.280Z</time>
      </trkpt>
      <trkpt lat="45.33544" lon="6.17228">
        <ele>1986.4</ele>
        <time>2015-04-12T11:52:44.290Z</time>
      </trkpt>
      <trkpt lat="45.33553" lon="6.17235">
        <ele>1992.8</ele>
        <time>2015-04-12T11:53:08.290Z</time>
      </trkpt>
      <trkpt lat="45.33554" lon="6.17251">
        <ele>1996</ele>
        <time>2015-04-12T11:53:20.280Z</time>
      </trkpt>
      <trkpt lat="45.33563" lon="6.17261">
        <ele>1996</ele>
        <time>2015-04-12T11:53:28.280Z</time>
      </trkpt>
      <trkpt lat="45.33586" lon="6.17253">
        <ele>2001.5</ele>
        <time>2015-04-12T11:53:44.280Z</time>
      </trkpt>
      <trkpt lat="45.33591" lon="6.17239">
        <ele>2002.6</ele>
        <time>2015-04-12T11:53:55.680Z</time>
      </trkpt>
      <trkpt lat="45.33591" lon="6.17223">
        <ele>2005.8</ele>
        <time>2015-04-12T11:54:06.480Z</time>
      </trkpt>
      <trkpt lat="45.33594" lon="6.17238">
        <ele>2011.6</ele>
        <time>2015-04-12T11:54:22.280Z</time>
      </trkpt>
      <trkpt lat="45.33606" lon="6.17247">
        <ele>2014.4</ele>
        <time>2015-04-12T11:54:34.290Z</time>
      </trkpt>
      <trkpt lat="45.33607" lon="6.17265">
        <ele>2018.3</ele>
        <time>2015-04-12T11:54:47.280Z</time>
      </trkpt>
      <trkpt lat="45.33606" lon="6.17281">
        <ele>2021.8</ele>
        <time>2015-04-12T11:54:58.680Z</time>
      </trkpt>
      <trkpt lat="45.33617" lon="6.17289">
        <ele>2024.4</ele>
        <time>2015-04-12T11:55:11.290Z</time>
      </trkpt>
      <trkpt lat="45.33621" lon="6.17273">
        <ele>2029.4</ele>
        <time>2015-04-12T11:55:31.280Z</time>
      </trkpt>
      <trkpt lat="45.33628" lon="6.17262">
        <ele>2031</ele>
        <time>2015-04-12T11:55:39.510Z</time>
      </trkpt>
      <trkpt lat="45.33634" lon="6.17273">
        <ele>2035.9</ele>
        <time>2015-04-12T11:56:09.280Z</time>
      </trkpt>
      <trkpt lat="45.33648" lon="6.17267">
        <ele>2038.5</ele>
        <time>2015-04-12T11:56:31.110Z</time>
      </trkpt>
      <trkpt lat="45.3366" lon="6.17266">
        <ele>2045.2</ele>
        <time>2015-04-12T11:56:51.280Z</time>
      </trkpt>
      <trkpt lat="45.33663" lon="6.17251">
        <ele>2048.3</ele>
        <time>2015-04-12T11:57:07.290Z</time>
      </trkpt>
      <trkpt lat="45.33671" lon="6.17237">
        <ele>2049</ele>
        <time>2015-04-12T11:57:19.280Z</time>
      </trkpt>
      <trkpt lat="45.33661" lon="6.17235">
        <ele>2053.5</ele>
        <time>2015-04-12T11:57:31.290Z</time>
      </trkpt>
      <trkpt lat="45.33678" lon="6.17242">
        <ele>2056.8</ele>
        <time>2015-04-12T11:57:47.290Z</time>
      </trkpt>
      <trkpt lat="45.33686" lon="6.1723">
        <ele>2061</ele>
        <time>2015-04-12T11:59:19.210Z</time>
      </trkpt>
      <trkpt lat="45.33701" lon="6.17222">
        <ele>2064.2</ele>
        <time>2015-04-12T11:59:31.280Z</time>
      </trkpt>
      <trkpt lat="45.33709" lon="6.17209">
        <ele>2067.3</ele>
        <time>2015-04-12T11:59:47.010Z</time>
      </trkpt>
      <trkpt lat="45.33721" lon="6.17202">
        <ele>2068.6</ele>
        <time>2015-04-12T11:59:55.280Z</time>
      </trkpt>
      <trkpt lat="45.33739" lon="6.17207">
        <ele>2071.6</ele>
        <time>2015-04-12T12:00:11.010Z</time>
      </trkpt>
      <trkpt lat="45.33764" lon="6.172">
        <ele>2077.8</ele>
        <time>2015-04-12T12:00:35.480Z</time>
      </trkpt>
      <trkpt lat="45.33773" lon="6.17198">
        <ele>2081.4</ele>
        <time>2015-04-12T12:00:51.480Z</time>
      </trkpt>
      <trkpt lat="45.33777" lon="6.17178">
        <ele>2083</ele>
        <time>2015-04-12T12:00:59.280Z</time>
      </trkpt>
      <trkpt lat="45.33784" lon="6.17165">
        <ele>2084.6</ele>
        <time>2015-04-12T12:01:07.480Z</time>
      </trkpt>
      <trkpt lat="45.33789" lon="6.17146">
        <ele>2089.9</ele>
        <time>2015-04-12T12:01:27.280Z</time>
      </trkpt>
      <trkpt lat="45.338" lon="6.17138">
        <ele>2092.2</ele>
        <time>2015-04-12T12:01:35.280Z</time>
      </trkpt>
      <trkpt lat="45.33806" lon="6.17124">
        <ele>2098.1</ele>
        <time>2015-04-12T12:02:03.290Z</time>
      </trkpt>
      <trkpt lat="45.33804" lon="6.17108">
        <ele>2101.2</ele>
        <time>2015-04-12T12:02:15.280Z</time>
      </trkpt>
      <trkpt lat="45.33807" lon="6.17091">
        <ele>2103.6</ele>
        <time>2015-04-12T12:02:27.280Z</time>
      </trkpt>
      <trkpt lat="45.3382" lon="6.17077">
        <ele>2108.8</ele>
        <time>2015-04-12T12:02:47.280Z</time>
      </trkpt>
      <trkpt lat="45.33832" lon="6.1707">
        <ele>2112</ele>
        <time>2015-04-12T12:03:07.280Z</time>
      </trkpt>
      <trkpt lat="45.33834" lon="6.1709">
        <ele>2120.4</ele>
        <time>2015-04-12T12:03:31.280Z</time>
      </trkpt>
      <trkpt lat="45.33844" lon="6.171">
        <ele>2122.4</ele>
        <time>2015-04-12T12:03:43.280Z</time>
      </trkpt>
      <trkpt lat="45.33847" lon="6.17114">
        <ele>2126.9</ele>
        <time>2015-04-12T12:03:59.280Z</time>
      </trkpt>
      <trkpt lat="45.33857" lon="6.17108">
        <ele>2131.2</ele>
        <time>2015-04-12T12:04:20.010Z</time>
      </trkpt>
      <trkpt lat="45.3386" lon="6.17095">
        <ele>2133.6</ele>
        <time>2015-04-12T12:04:28.010Z</time>
      </trkpt>
      <trkpt lat="45.33866" lon="6.1711">
        <ele>2139.8</ele>
        <time>2015-04-12T12:05:01.010Z</time>
      </trkpt>
      <trkpt lat="45.33875" lon="6.17122">
        <ele>2144.5</ele>
        <time>2015-04-12T12:05:11.010Z</time>
      </trkpt>
      <trkpt lat="45.33878" lon="6.17137">
        <ele>2147</ele>
        <time>2015-04-12T12:05:23.290Z</time>
      </trkpt>
      <trkpt lat="45.3388" lon="6.1712">
        <ele>2150</ele>
        <time>2015-04-12T12:05:39.480Z</time>
      </trkpt>
      <trkpt lat="45.33889" lon="6.17132">
        <ele>2154.4</ele>
        <time>2015-04-12T12:06:03.280Z</time>
      </trkpt>
      <trkpt lat="45.33889" lon="6.17146">
        <ele>2159</ele>
        <time>2015-04-12T12:06:19.490Z</time>
      </trkpt>
      <trkpt lat="45.339" lon="6.17137">
        <ele>2164.9</ele>
        <time>2015-04-12T12:06:55.290Z</time>
      </trkpt>
      <trkpt lat="45.33904" lon="6.17122">
        <ele>2172.5</ele>
        <time>2015-04-12T12:07:24.210Z</time>
      </trkpt>
      <trkpt lat="45.33914" lon="6.17125">
        <ele>2174.1</ele>
        <time>2015-04-12T12:07:45.010Z</time>
      </trkpt>
      <trkpt lat="45.33925" lon="6.17135">
        <ele>2175.4</ele>
        <time>2015-04-12T12:07:53.280Z</time>
      </trkpt>
      <trkpt lat="45.33921" lon="6.17153">
        <ele>2177.8</ele>
        <time>2015-04-12T12:08:04.010Z</time>
      </trkpt>
      <trkpt lat="45.33916" lon="6.1714">
        <ele>2182</ele>
        <time>2015-04-12T12:08:29.480Z</time>
      </trkpt>
      <trkpt lat="45.33924" lon="6.17113">
        <ele>2192</ele>
        <time>2015-04-12T12:09:13.480Z</time>
      </trkpt>
      <trkpt lat="45.33929" lon="6.171">
        <ele>2193</ele>
        <time>2015-04-12T12:09:29.200Z</time>
      </trkpt>
      <trkpt lat="45.33929" lon="6.17079">
        <ele>2196</ele>
        <time>2015-04-12T12:09:41.280Z</time>
      </trkpt>
      <trkpt lat="45.3392" lon="6.17073">
        <ele>2196</ele>
        <time>2015-04-12T12:09:49.490Z</time>
      </trkpt>
      <trkpt lat="45.33931" lon="6.17081">
        <ele>2204.1</ele>
        <time>2015-04-12T12:10:20.210Z</time>
      </trkpt>
      <trkpt lat="45.33942" lon="6.17077">
        <ele>2208</ele>
        <time>2015-04-12T12:10:44.480Z</time>
      </trkpt>
      <trkpt lat="45.33952" lon="6.17083">
        <ele>2213</ele>
        <time>2015-04-12T12:11:04.280Z</time>
      </trkpt>
      <trkpt lat="45.33961" lon="6.17092">
        <ele>2221</ele>
        <time>2015-04-12T12:11:44.290Z</time>
      </trkpt>
      <trkpt lat="45.33955" lon="6.17104">
        <ele>2223.8</ele>
        <time>2015-04-12T12:12:15.490Z</time>
      </trkpt>
      <trkpt lat="45.33961" lon="6.17116">
        <ele>2232.2</ele>
        <time>2015-04-12T12:12:51.480Z</time>
      </trkpt>
      <trkpt lat="45.33971" lon="6.17109">
        <ele>2236</ele>
        <time>2015-04-12T12:13:15.210Z</time>
      </trkpt>
      <trkpt lat="45.33979" lon="6.17144">
        <ele>2239.1</ele>
        <time>2015-04-12T12:15:09.390Z</time>
      </trkpt>
      <trkpt lat="45.33995" lon="6.17163">
        <ele>2239</ele>
        <time>2015-04-12T12:15:17.200Z</time>
      </trkpt>
      <trkpt lat="45.34009" lon="6.17173">
        <ele>2239</ele>
        <time>2015-04-12T12:15:29.380Z</time>
      </trkpt>
      <trkpt lat="45.34019" lon="6.17174">
        <ele>2239.8</ele>
        <time>2015-04-12T12:15:37.380Z</time>
      </trkpt>
      <trkpt lat="45.34031" lon="6.17186">
        <ele>2240</ele>
        <time>2015-04-12T12:15:45.480Z</time>
      </trkpt>
      <trkpt lat="45.34042" lon="6.17186">
        <ele>2239.6</ele>
        <time>2015-04-12T12:15:53.380Z</time>
      </trkpt>
      <trkpt lat="45.34052" lon="6.17196">
        <ele>2239.6</ele>
        <time>2015-04-12T12:16:05.380Z</time>
      </trkpt>
      <trkpt lat="45.34059" lon="6.17381">
        <ele>2227.7</ele>
        <time>2015-04-12T12:17:57.380Z</time>
      </trkpt>
      <trkpt lat="45.34055" lon="6.17458">
        <ele>2218.1</ele>
        <time>2015-04-12T12:18:05.110Z</time>
      </trkpt>
      <trkpt lat="45.34068" lon="6.17552">
        <ele>2207.6</ele>
        <time>2015-04-12T12:18:14.400Z</time>
      </trkpt>
      <trkpt lat="45.3411" lon="6.17597">
        <ele>2201</ele>
        <time>2015-04-12T12:18:24.590Z</time>
      </trkpt>
      <trkpt lat="45.34099" lon="6.17604">
        <ele>2202.6</ele>
        <time>2015-04-12T12:19:03.480Z</time>
      </trkpt>
      <trkpt lat="45.34101" lon="6.17618">
        <ele>2206.3</ele>
        <time>2015-04-12T12:19:22.580Z</time>
      </trkpt>
      <trkpt lat="45.341" lon="6.17633">
        <ele>2214.3</ele>
        <time>2015-04-12T12:20:00.590Z</time>
      </trkpt>
      <trkpt lat="45.34112" lon="6.17635">
        <ele>2217</ele>
        <time>2015-04-12T12:20:16.310Z</time>
      </trkpt>
      <trkpt lat="45.3411" lon="6.17651">
        <ele>2217.1</ele>
        <time>2015-04-12T12:20:30.210Z</time>
      </trkpt>
      <trkpt lat="45.34128" lon="6.17689">
        <ele>2218</ele>
        <time>2015-04-12T12:20:49.500Z</time>
      </trkpt>
      <trkpt lat="45.34136" lon="6.17702">
        <ele>2217</ele>
        <time>2015-04-12T12:21:01.110Z</time>
      </trkpt>
      <trkpt lat="45.34149" lon="6.17712">
        <ele>2217</ele>
        <time>2015-04-12T12:21:09.110Z</time>
      </trkpt>
      <trkpt lat="45.34161" lon="6.17739">
        <ele>2218</ele>
        <time>2015-04-12T12:21:20.210Z</time>
      </trkpt>
      <trkpt lat="45.34167" lon="6.17791">
        <ele>2218</ele>
        <time>2015-04-12T12:21:28.110Z</time>
      </trkpt>
      <trkpt lat="45.34182" lon="6.17861">
        <ele>2204.4</ele>
        <time>2015-04-12T12:21:36.280Z</time>
      </trkpt>
      <trkpt lat="45.34221" lon="6.179">
        <ele>2194.5</ele>
        <time>2015-04-12T12:21:45.290Z</time>
      </trkpt>
      <trkpt lat="45.34281" lon="6.17947">
        <ele>2189.1</ele>
        <time>2015-04-12T12:21:54.280Z</time>
      </trkpt>
      <trkpt lat="45.34269" lon="6.17944">
        <ele>2185</ele>
        <time>2015-04-12T12:22:28.110Z</time>
      </trkpt>
      <trkpt lat="45.34259" lon="6.17938">
        <ele>2185</ele>
        <time>2015-04-12T12:22:50.210Z</time>
      </trkpt>
      <trkpt lat="45.34266" lon="6.17953">
        <ele>2184.3</ele>
        <time>2015-04-12T12:23:06.110Z</time>
      </trkpt>
      <trkpt lat="45.34275" lon="6.17944">
        <ele>2186</ele>
        <time>2015-04-12T12:23:20.110Z</time>
      </trkpt>
      <trkpt lat="45.34285" lon="6.17945">
        <ele>2186</ele>
        <time>2015-04-12T12:23:28.110Z</time>
      </trkpt>
      <trkpt lat="45.34271" lon="6.1795">
        <ele>2186</ele>
        <time>2015-04-12T12:23:38.110Z</time>
      </trkpt>
      <trkpt lat="45.34261" lon="6.17948">
        <ele>2184.3</ele>
        <time>2015-04-12T12:24:06.310Z</time>
      </trkpt>
      <trkpt lat="45.34273" lon="6.17958">
        <ele>2185</ele>
        <time>2015-04-12T12:24:29.380Z</time>
      </trkpt>
      <trkpt lat="45.34283" lon="6.17971">
        <ele>2188.3</ele>
        <time>2015-04-12T12:24:45.380Z</time>
      </trkpt>
      <trkpt lat="45.34288" lon="6.17985">
        <ele>2193.7</ele>
        <time>2015-04-12T12:25:05.110Z</time>
      </trkpt>
      <trkpt lat="45.34311" lon="6.18014">
        <ele>2204.2</ele>
        <time>2015-04-12T12:25:51.110Z</time>
      </trkpt>
      <trkpt lat="45.34321" lon="6.18018">
        <ele>2209.4</ele>
        <time>2015-04-12T12:26:18.110Z</time>
      </trkpt>
      <trkpt lat="45.34331" lon="6.18027">
        <ele>2212.1</ele>
        <time>2015-04-12T12:26:30.210Z</time>
      </trkpt>
      <trkpt lat="45.34341" lon="6.18024">
        <ele>2218.1</ele>
        <time>2015-04-12T12:26:50.210Z</time>
      </trkpt>
      <trkpt lat="45.34352" lon="6.18022">
        <ele>2220.1</ele>
        <time>2015-04-12T12:27:03.310Z</time>
      </trkpt>
      <trkpt lat="45.34364" lon="6.18022">
        <ele>2222</ele>
        <time>2015-04-12T12:27:19.110Z</time>
      </trkpt>
      <trkpt lat="45.3438" lon="6.18025">
        <ele>2226.6</ele>
        <time>2015-04-12T12:27:55.110Z</time>
      </trkpt>
      <trkpt lat="45.34395" lon="6.18025">
        <ele>2228.4</ele>
        <time>2015-04-12T12:28:03.110Z</time>
      </trkpt>
      <trkpt lat="45.34407" lon="6.1803">
        <ele>2237.2</ele>
        <time>2015-04-12T12:28:42.110Z</time>
      </trkpt>
      <trkpt lat="45.3442" lon="6.18025">
        <ele>2239.1</ele>
        <time>2015-04-12T12:28:55.110Z</time>
      </trkpt>
      <trkpt lat="45.34427" lon="6.18039">
        <ele>2244.8</ele>
        <time>2015-04-12T12:29:22.110Z</time>
      </trkpt>
      <trkpt lat="45.34432" lon="6.18052">
        <ele>2253.6</ele>
        <time>2015-04-12T12:30:05.580Z</time>
      </trkpt>
      <trkpt lat="45.34426" lon="6.18067">
        <ele>2259.2</ele>
        <time>2015-04-12T12:30:25.600Z</time>
      </trkpt>
      <trkpt lat="45.34431" lon="6.18101">
        <ele>2267.7</ele>
        <time>2015-04-12T12:30:58.380Z</time>
      </trkpt>
      <trkpt lat="45.3444" lon="6.18121">
        <ele>2269.9</ele>
        <time>2015-04-12T12:31:18.390Z</time>
      </trkpt>
      <trkpt lat="45.34448" lon="6.18151">
        <ele>2282</ele>
        <time>2015-04-12T12:31:54.380Z</time>
      </trkpt>
      <trkpt lat="45.34457" lon="6.18165">
        <ele>2284.7</ele>
        <time>2015-04-12T12:32:06.380Z</time>
      </trkpt>
      <trkpt lat="45.34446" lon="6.18174">
        <ele>2286.8</ele>
        <time>2015-04-12T12:32:18.390Z</time>
      </trkpt>
      <trkpt lat="45.34448" lon="6.18187">
        <ele>2288.4</ele>
        <time>2015-04-12T12:32:26.390Z</time>
      </trkpt>
      <trkpt lat="45.34444" lon="6.182">
        <ele>2291.5</ele>
        <time>2015-04-12T12:32:42.390Z</time>
      </trkpt>
      <trkpt lat="45.34454" lon="6.18218">
        <ele>2299.3</ele>
        <time>2015-04-12T12:33:10.380Z</time>
      </trkpt>
      <trkpt lat="45.34468" lon="6.18226">
        <ele>2303.5</ele>
        <time>2015-04-12T12:33:27.110Z</time>
      </trkpt>
      <trkpt lat="45.34469" lon="6.18245">
        <ele>2307</ele>
        <time>2015-04-12T12:33:42.110Z</time>
      </trkpt>
      <trkpt lat="45.34477" lon="6.18261">
        <ele>2317.3</ele>
        <time>2015-04-12T12:34:22.310Z</time>
      </trkpt>
      <trkpt lat="45.34477" lon="6.1828">
        <ele>2318.3</ele>
        <time>2015-04-12T12:34:31.110Z</time>
      </trkpt>
      <trkpt lat="45.34479" lon="6.18298">
        <ele>2319.2</ele>
        <time>2015-04-12T12:34:47.380Z</time>
      </trkpt>
      <trkpt lat="45.34482" lon="6.18311">
        <ele>2322</ele>
        <time>2015-04-12T12:35:01.310Z</time>
      </trkpt>
      <trkpt lat="45.34474" lon="6.18296">
        <ele>2324</ele>
        <time>2015-04-12T12:36:36.310Z</time>
      </trkpt>
      <trkpt lat="45.34477" lon="6.1832">
        <ele>2324</ele>
        <time>2015-04-12T12:36:47.210Z</time>
      </trkpt>
      <trkpt lat="45.34489" lon="6.18307">
        <ele>2325</ele>
        <time>2015-04-12T12:37:35.110Z</time>
      </trkpt>
      <trkpt lat="45.34511" lon="6.18319">
        <ele>2334.2</ele>
        <time>2015-04-12T12:38:03.590Z</time>
      </trkpt>
      <trkpt lat="45.34503" lon="6.18333">
        <ele>2341.5</ele>
        <time>2015-04-12T12:38:24.380Z</time>
      </trkpt>
      <trkpt lat="45.34513" lon="6.18339">
        <ele>2344.5</ele>
        <time>2015-04-12T12:38:41.100Z</time>
      </trkpt>
      <trkpt lat="45.34517" lon="6.18358">
        <ele>2350.7</ele>
        <time>2015-04-12T12:39:05.310Z</time>
      </trkpt>
      <trkpt lat="45.34529" lon="6.18359">
        <ele>2355.9</ele>
        <time>2015-04-12T12:39:34.110Z</time>
      </trkpt>
      <trkpt lat="45.34539" lon="6.18354">
        <ele>2362</ele>
        <time>2015-04-12T12:39:55.580Z</time>
      </trkpt>
      <trkpt lat="45.34549" lon="6.18349">
        <ele>2363.9</ele>
        <time>2015-04-12T12:40:04.310Z</time>
      </trkpt>
      <trkpt lat="45.3456" lon="6.1835">
        <ele>2366.7</ele>
        <time>2015-04-12T12:40:13.110Z</time>
      </trkpt>
      <trkpt lat="45.34568" lon="6.18344">
        <ele>2369</ele>
        <time>2015-04-12T12:40:24.590Z</time>
      </trkpt>
      <trkpt lat="45.34575" lon="6.1837">
        <ele>2372.5</ele>
        <time>2015-04-12T12:40:44.580Z</time>
      </trkpt>
      <trkpt lat="45.34607" lon="6.18416">
        <ele>2383.4</ele>
        <time>2015-04-12T12:41:36.580Z</time>
      </trkpt>
      <trkpt lat="45.34617" lon="6.18419">
        <ele>2387.3</ele>
        <time>2015-04-12T12:41:53.380Z</time>
      </trkpt>
      <trkpt lat="45.34627" lon="6.18425">
        <ele>2391.3</ele>
        <time>2015-04-12T12:42:02.380Z</time>
      </trkpt>
      <trkpt lat="45.34641" lon="6.18449">
        <ele>2397.6</ele>
        <time>2015-04-12T12:42:42.380Z</time>
      </trkpt>
      <trkpt lat="45.34641" lon="6.18483">
        <ele>2404.2</ele>
        <time>2015-04-12T12:43:10.580Z</time>
      </trkpt>
      <trkpt lat="45.34646" lon="6.18496">
        <ele>2406.8</ele>
        <time>2015-04-12T12:43:23.380Z</time>
      </trkpt>
      <trkpt lat="45.34639" lon="6.1851">
        <ele>2409.4</ele>
        <time>2015-04-12T12:43:43.380Z</time>
      </trkpt>
      <trkpt lat="45.34652" lon="6.18517">
        <ele>2414</ele>
        <time>2015-04-12T12:43:59.390Z</time>
      </trkpt>
      <trkpt lat="45.34656" lon="6.18535">
        <ele>2417.9</ele>
        <time>2015-04-12T12:44:19.110Z</time>
      </trkpt>
      <trkpt lat="45.34672" lon="6.18545">
        <ele>2422.6</ele>
        <time>2015-04-12T12:44:35.380Z</time>
      </trkpt>
      <trkpt lat="45.34681" lon="6.18554">
        <ele>2426.4</ele>
        <time>2015-04-12T12:44:51.380Z</time>
      </trkpt>
      <trkpt lat="45.34693" lon="6.18559">
        <ele>2429.6</ele>
        <time>2015-04-12T12:45:07.580Z</time>
      </trkpt>
      <trkpt lat="45.34698" lon="6.18568">
        <ele>2432.8</ele>
        <time>2015-04-12T12:45:16.580Z</time>
      </trkpt>
      <trkpt lat="45.34694" lon="6.18576">
        <ele>2435.8</ele>
        <time>2015-04-12T12:45:33.580Z</time>
      </trkpt>
      <trkpt lat="45.34696" lon="6.18585">
        <ele>2437.6</ele>
        <time>2015-04-12T12:45:45.580Z</time>
      </trkpt>
      <trkpt lat="45.34705" lon="6.18605">
        <ele>2441.4</ele>
        <time>2015-04-12T12:46:01.580Z</time>
      </trkpt>
      <trkpt lat="45.34699" lon="6.18616">
        <ele>2443</ele>
        <time>2015-04-12T12:46:13.580Z</time>
      </trkpt>
      <trkpt lat="45.34702" lon="6.18635">
        <ele>2443</ele>
        <time>2015-04-12T12:46:29.580Z</time>
      </trkpt>
      <trkpt lat="45.3471" lon="6.18656">
        <ele>2444.4</ele>
        <time>2015-04-12T12:46:45.580Z</time>
      </trkpt>
      <trkpt lat="45.34713" lon="6.18665">
        <ele>2444</ele>
        <time>2015-04-12T12:46:53.580Z</time>
      </trkpt>
      <trkpt lat="45.3472" lon="6.18737">
        <ele>2431</ele>
        <time>2015-04-12T12:47:25.580Z</time>
      </trkpt>
      <trkpt lat="45.34725" lon="6.18745">
        <ele>2431.8</ele>
        <time>2015-04-12T12:47:33.580Z</time>
      </trkpt>
      <trkpt lat="45.34726" lon="6.18753">
        <ele>2433.2</ele>
        <time>2015-04-12T12:47:41.580Z</time>
      </trkpt>
      <trkpt lat="45.34734" lon="6.18767">
        <ele>2434.4</ele>
        <time>2015-04-12T12:47:53.580Z</time>
      </trkpt>
      <trkpt lat="45.34738" lon="6.18772">
        <ele>2435.6</ele>
        <time>2015-04-12T12:48:25.580Z</time>
      </trkpt>
      <trkpt lat="45.34752" lon="6.18795">
        <ele>2437.6</ele>
        <time>2015-04-12T12:49:02.380Z</time>
      </trkpt>
      <trkpt lat="45.34759" lon="6.18805">
        <ele>2440</ele>
        <time>2015-04-12T12:49:26.390Z</time>
      </trkpt>
      <trkpt lat="45.3477" lon="6.18815">
        <ele>2441.8</ele>
        <time>2015-04-12T12:49:38.380Z</time>
      </trkpt>
      <trkpt lat="45.34784" lon="6.18826">
        <ele>2446.6</ele>
        <time>2015-04-12T12:49:58.390Z</time>
      </trkpt>
      <trkpt lat="45.34778" lon="6.18839">
        <ele>2449.3</ele>
        <time>2015-04-12T12:50:22.380Z</time>
      </trkpt>
      <trkpt lat="45.34786" lon="6.18851">
        <ele>2454.4</ele>
        <time>2015-04-12T12:50:41.590Z</time>
      </trkpt>
      <trkpt lat="45.34794" lon="6.18859">
        <ele>2456.4</ele>
        <time>2015-04-12T12:50:50.580Z</time>
      </trkpt>
      <trkpt lat="45.34806" lon="6.18865">
        <ele>2461</ele>
        <time>2015-04-12T12:51:04.280Z</time>
      </trkpt>
      <trkpt lat="45.3482" lon="6.18866">
        <ele>2466.4</ele>
        <time>2015-04-12T12:51:31.280Z</time>
      </trkpt>
      <trkpt lat="45.34833" lon="6.18876">
        <ele>2468.2</ele>
        <time>2015-04-12T12:51:40.290Z</time>
      </trkpt>
      <trkpt lat="45.34845" lon="6.18874">
        <ele>2470</ele>
        <time>2015-04-12T12:51:49.280Z</time>
      </trkpt>
      <trkpt lat="45.34859" lon="6.18874">
        <ele>2470</ele>
        <time>2015-04-12T12:51:58.580Z</time>
      </trkpt>
      <trkpt lat="45.34886" lon="6.18873">
        <ele>2473</ele>
        <time>2015-04-12T12:52:16.600Z</time>
      </trkpt>
      <trkpt lat="45.34896" lon="6.1888">
        <ele>2473</ele>
        <time>2015-04-12T12:52:25.580Z</time>
      </trkpt>
      <trkpt lat="45.34908" lon="6.18878">
        <ele>2474</ele>
        <time>2015-04-12T12:52:34.310Z</time>
      </trkpt>
      <trkpt lat="45.34922" lon="6.18885">
        <ele>2477.6</ele>
        <time>2015-04-12T12:52:53.380Z</time>
      </trkpt>
      <trkpt lat="45.34916" lon="6.18903">
        <ele>2481.2</ele>
        <time>2015-04-12T12:53:05.310Z</time>
      </trkpt>
      <trkpt lat="45.34927" lon="6.18916">
        <ele>2486.2</ele>
        <time>2015-04-12T12:53:21.210Z</time>
      </trkpt>
      <trkpt lat="45.34934" lon="6.18902">
        <ele>2490.4</ele>
        <time>2015-04-12T12:53:50.390Z</time>
      </trkpt>
      <trkpt lat="45.34942" lon="6.18891">
        <ele>2494.7</ele>
        <time>2015-04-12T12:54:06.300Z</time>
      </trkpt>
      <trkpt lat="45.34953" lon="6.18903">
        <ele>2497.4</ele>
        <time>2015-04-12T12:54:23.310Z</time>
      </trkpt>
      <trkpt lat="45.34982" lon="6.18916">
        <ele>2505.1</ele>
        <time>2015-04-12T12:54:57.290Z</time>
      </trkpt>
      <trkpt lat="45.35006" lon="6.18946">
        <ele>2513.1</ele>
        <time>2015-04-12T12:55:36.580Z</time>
      </trkpt>
      <trkpt lat="45.35026" lon="6.18963">
        <ele>2519.7</ele>
        <time>2015-04-12T12:56:06.310Z</time>
      </trkpt>
      <trkpt lat="45.35038" lon="6.18967">
        <ele>2523.2</ele>
        <time>2015-04-12T12:56:20.280Z</time>
      </trkpt>
      <trkpt lat="45.35046" lon="6.18974">
        <ele>2528.3</ele>
        <time>2015-04-12T12:56:37.110Z</time>
      </trkpt>
      <trkpt lat="45.35042" lon="6.18992">
        <ele>2532</ele>
        <time>2015-04-12T12:56:54.290Z</time>
      </trkpt>
      <trkpt lat="45.35054" lon="6.18995">
        <ele>2535.7</ele>
        <time>2015-04-12T12:57:16.580Z</time>
      </trkpt>
      <trkpt lat="45.35065" lon="6.18981">
        <ele>2541.2</ele>
        <time>2015-04-12T12:57:30.480Z</time>
      </trkpt>
      <trkpt lat="45.35071" lon="6.18968">
        <ele>2543.5</ele>
        <time>2015-04-12T12:57:41.310Z</time>
      </trkpt>
      <trkpt lat="45.35075" lon="6.18953">
        <ele>2546</ele>
        <time>2015-04-12T12:57:58.310Z</time>
      </trkpt>
      <trkpt lat="45.35084" lon="6.18966">
        <ele>2556</ele>
        <time>2015-04-12T12:58:34.300Z</time>
      </trkpt>
      <trkpt lat="45.35089" lon="6.18982">
        <ele>2559.1</ele>
        <time>2015-04-12T12:58:46.580Z</time>
      </trkpt>
      <trkpt lat="45.35087" lon="6.18997">
        <ele>2560.9</ele>
        <time>2015-04-12T12:58:58.580Z</time>
      </trkpt>
      <trkpt lat="45.35107" lon="6.19015">
        <ele>2566</ele>
        <time>2015-04-12T12:59:25.580Z</time>
      </trkpt>
      <trkpt lat="45.35119" lon="6.19024">
        <ele>2568</ele>
        <time>2015-04-12T12:59:36.310Z</time>
      </trkpt>
      <trkpt lat="45.35134" lon="6.19028">
        <ele>2571.6</ele>
        <time>2015-04-12T12:59:48.310Z</time>
      </trkpt>
      <trkpt lat="45.35145" lon="6.19035">
        <ele>2574.9</ele>
        <time>2015-04-12T13:00:00.310Z</time>
      </trkpt>
      <trkpt lat="45.35158" lon="6.19042">
        <ele>2576.8</ele>
        <time>2015-04-12T13:00:16.580Z</time>
      </trkpt>
      <trkpt lat="45.35178" lon="6.19062">
        <ele>2581.5</ele>
        <time>2015-04-12T13:00:44.580Z</time>
      </trkpt>
      <trkpt lat="45.3519" lon="6.19085">
        <ele>2583.4</ele>
        <time>2015-04-12T13:00:56.310Z</time>
      </trkpt>
      <trkpt lat="45.352" lon="6.19093">
        <ele>2586.4</ele>
        <time>2015-04-12T13:01:12.300Z</time>
      </trkpt>
      <trkpt lat="45.3521" lon="6.19093">
        <ele>2590.8</ele>
        <time>2015-04-12T13:01:23.310Z</time>
      </trkpt>
      <trkpt lat="45.35226" lon="6.19088">
        <ele>2594</ele>
        <time>2015-04-12T13:01:39.500Z</time>
      </trkpt>
      <trkpt lat="45.35235" lon="6.19094">
        <ele>2595.5</ele>
        <time>2015-04-12T13:01:51.310Z</time>
      </trkpt>
      <trkpt lat="45.35242" lon="6.19108">
        <ele>2599.6</ele>
        <time>2015-04-12T13:02:03.580Z</time>
      </trkpt>
      <trkpt lat="45.35247" lon="6.19121">
        <ele>2603</ele>
        <time>2015-04-12T13:02:19.580Z</time>
      </trkpt>
      <trkpt lat="45.35248" lon="6.19137">
        <ele>2605.8</ele>
        <time>2015-04-12T13:02:35.580Z</time>
      </trkpt>
      <trkpt lat="45.35258" lon="6.19132">
        <ele>2611.7</ele>
        <time>2015-04-12T13:03:01.310Z</time>
      </trkpt>
      <trkpt lat="45.35266" lon="6.19142">
        <ele>2616.4</ele>
        <time>2015-04-12T13:03:16.310Z</time>
      </trkpt>
      <trkpt lat="45.35274" lon="6.19158">
        <ele>2619</ele>
        <time>2015-04-12T13:03:29.500Z</time>
      </trkpt>
      <trkpt lat="45.35273" lon="6.19172">
        <ele>2620.9</ele>
        <time>2015-04-12T13:03:42.490Z</time>
      </trkpt>
      <trkpt lat="45.35276" lon="6.19186">
        <ele>2624.6</ele>
        <time>2015-04-12T13:03:53.580Z</time>
      </trkpt>
      <trkpt lat="45.35268" lon="6.19201">
        <ele>2629.3</ele>
        <time>2015-04-12T13:04:07.310Z</time>
      </trkpt>
      <trkpt lat="45.35277" lon="6.19211">
        <ele>2630.8</ele>
        <time>2015-04-12T13:04:17.310Z</time>
      </trkpt>
      <trkpt lat="45.35261" lon="6.19179">
        <ele>2633.1</ele>
        <time>2015-04-12T13:04:32.310Z</time>
      </trkpt>
      <trkpt lat="45.35292" lon="6.19187">
        <ele>2639.6</ele>
        <time>2015-04-12T13:04:51.410Z</time>
      </trkpt>
      <trkpt lat="45.35295" lon="6.1919">
        <ele>2642</ele>
        <time>2015-04-12T13:04:59.530Z</time>
      </trkpt>
      <trkpt lat="45.35307" lon="6.19235">
        <ele>2647.9</ele>
        <time>2015-04-12T13:05:24.310Z</time>
      </trkpt>
      <trkpt lat="45.35284" lon="6.19193">
        <ele>2652.6</ele>
        <time>2015-04-12T13:05:42.580Z</time>
      </trkpt>
      <trkpt lat="45.35263" lon="6.19165">
        <ele>2654.3</ele>
        <time>2015-04-12T13:05:50.310Z</time>
      </trkpt>
      <trkpt lat="45.35267" lon="6.19181">
        <ele>2658.6</ele>
        <time>2015-04-12T13:06:02.310Z</time>
      </trkpt>
      <trkpt lat="45.35215" lon="6.19126">
        <ele>2667.8</ele>
        <time>2015-04-12T13:06:43.590Z</time>
      </trkpt>
      <trkpt lat="45.3524" lon="6.19157">
        <ele>2669</ele>
        <time>2015-04-12T13:06:49.500Z</time>
      </trkpt>
      <trkpt lat="45.35214" lon="6.19144">
        <ele>2670.7</ele>
        <time>2015-04-12T13:06:58.210Z</time>
      </trkpt>
      <trkpt lat="45.35248" lon="6.19156">
        <ele>2673</ele>
        <time>2015-04-12T13:07:13.680Z</time>
      </trkpt>
      <trkpt lat="45.35235" lon="6.1914">
        <ele>2678</ele>
        <time>2015-04-12T13:07:34.410Z</time>
      </trkpt>
      <trkpt lat="45.35193" lon="6.191">
        <ele>2679</ele>
        <time>2015-04-12T13:07:45.300Z</time>
      </trkpt>
      <trkpt lat="45.35208" lon="6.19124">
        <ele>2679.6</ele>
        <time>2015-04-12T13:07:52.310Z</time>
      </trkpt>
      <trkpt lat="45.35195" lon="6.19122">
        <ele>2681.6</ele>
        <time>2015-04-12T13:08:05.300Z</time>
      </trkpt>
      <trkpt lat="45.35174" lon="6.19098">
        <ele>2682.5</ele>
        <time>2015-04-12T13:08:10.480Z</time>
      </trkpt>
      <trkpt lat="45.35192" lon="6.19161">
        <ele>2688</ele>
        <time>2015-04-12T13:08:39.200Z</time>
      </trkpt>
      <trkpt lat="45.35207" lon="6.19177">
        <ele>2690.5</ele>
        <time>2015-04-12T13:08:47.690Z</time>
      </trkpt>
      <trkpt lat="45.35189" lon="6.19162">
        <ele>2693</ele>
        <time>2015-04-12T13:09:00.410Z</time>
      </trkpt>
      <trkpt lat="45.35172" lon="6.19128">
        <ele>2695.8</ele>
        <time>2015-04-12T13:09:19.210Z</time>
      </trkpt>
      <trkpt lat="45.3516" lon="6.19112">
        <ele>2697.5</ele>
        <time>2015-04-12T13:09:24.690Z</time>
      </trkpt>
      <trkpt lat="45.35128" lon="6.19082">
        <ele>2699.7</ele>
        <time>2015-04-12T13:09:33.200Z</time>
      </trkpt>
      <trkpt lat="45.35104" lon="6.1907">
        <ele>2701</ele>
        <time>2015-04-12T13:09:45.490Z</time>
      </trkpt>
      <trkpt lat="45.35117" lon="6.19088">
        <ele>2704</ele>
        <time>2015-04-12T13:10:04.410Z</time>
      </trkpt>
      <trkpt lat="45.35047" lon="6.19018">
        <ele>2707.9</ele>
        <time>2015-04-12T13:10:38.490Z</time>
      </trkpt>
      <trkpt lat="45.35058" lon="6.19028">
        <ele>2710.5</ele>
        <time>2015-04-12T13:10:44.480Z</time>
      </trkpt>
      <trkpt lat="45.35077" lon="6.19041">
        <ele>2714.5</ele>
        <time>2015-04-12T13:10:57.210Z</time>
      </trkpt>
      <trkpt lat="45.35334" lon="6.19282">
        <ele>2716.4</ele>
        <time>2015-04-12T13:11:13.480Z</time>
      </trkpt>
      <trkpt lat="45.35352" lon="6.19306">
        <ele>2717</ele>
        <time>2015-04-12T13:11:22.310Z</time>
      </trkpt>
      <trkpt lat="45.35369" lon="6.19317">
        <ele>2716.6</ele>
        <time>2015-04-12T13:11:33.410Z</time>
      </trkpt>
      <trkpt lat="45.35373" lon="6.19321">
        <ele>2716</ele>
        <time>2015-04-12T13:12:58.580Z</time>
      </trkpt>
      <trkpt lat="45.35383" lon="6.19314">
        <ele>2717</ele>
        <time>2015-04-12T13:16:28.480Z</time>
      </trkpt>
      <trkpt lat="45.35373" lon="6.19321">
        <ele>2716</ele>
        <time>2015-04-12T13:17:15.490Z</time>
      </trkpt>
      <trkpt lat="45.35363" lon="6.19323">
        <ele>2718</ele>
        <time>2015-04-12T13:20:59.480Z</time>
      </trkpt>
      <trkpt lat="45.35374" lon="6.1932">
        <ele>2718.9</ele>
        <time>2015-04-12T13:22:20.480Z</time>
      </trkpt>
      <trkpt lat="45.35377" lon="6.19337">
        <ele>2719</ele>
        <time>2015-04-12T13:24:09.480Z</time>
      </trkpt>
      <trkpt lat="45.35385" lon="6.19352">
        <ele>2710.2</ele>
        <time>2015-04-12T13:24:17.480Z</time>
      </trkpt>
      <trkpt lat="45.35424" lon="6.19356">
        <ele>2697.8</ele>
        <time>2015-04-12T13:24:25.480Z</time>
      </trkpt>
      <trkpt lat="45.35437" lon="6.19343">
        <ele>2690.1</ele>
        <time>2015-04-12T13:25:08.200Z</time>
      </trkpt>
      <trkpt lat="45.35452" lon="6.19342">
        <ele>2690.9</ele>
        <time>2015-04-12T13:25:18.300Z</time>
      </trkpt>
      <trkpt lat="45.35445" lon="6.19351">
        <ele>2691</ele>
        <time>2015-04-12T13:25:32.400Z</time>
      </trkpt>
      <trkpt lat="45.35432" lon="6.19337">
        <ele>2690</ele>
        <time>2015-04-12T13:26:07.400Z</time>
      </trkpt>
      <trkpt lat="45.35442" lon="6.19341">
        <ele>2691.6</ele>
        <time>2015-04-12T13:26:24.680Z</time>
      </trkpt>
      <trkpt lat="45.35454" lon="6.19329">
        <ele>2694.2</ele>
        <time>2015-04-12T13:26:35.410Z</time>
      </trkpt>
      <trkpt lat="45.35461" lon="6.1934">
        <ele>2695.8</ele>
        <time>2015-04-12T13:26:47.210Z</time>
      </trkpt>
      <trkpt lat="45.35462" lon="6.19321">
        <ele>2703.4</ele>
        <time>2015-04-12T13:27:21.310Z</time>
      </trkpt>
      <trkpt lat="45.35472" lon="6.19331">
        <ele>2707.2</ele>
        <time>2015-04-12T13:27:45.480Z</time>
      </trkpt>
      <trkpt lat="45.3546" lon="6.19317">
        <ele>2709</ele>
        <time>2015-04-12T13:28:10.310Z</time>
      </trkpt>
      <trkpt lat="45.35473" lon="6.19327">
        <ele>2712.5</ele>
        <time>2015-04-12T13:28:34.410Z</time>
      </trkpt>
      <trkpt lat="45.35471" lon="6.1931">
        <ele>2717.7</ele>
        <time>2015-04-12T13:29:23.210Z</time>
      </trkpt>
      <trkpt lat="45.35478" lon="6.19325">
        <ele>2719</ele>
        <time>2015-04-12T13:29:46.210Z</time>
      </trkpt>
      <trkpt lat="45.35488" lon="6.19332">
        <ele>2717.1</ele>
        <time>2015-04-12T13:33:08.480Z</time>
      </trkpt>
      <trkpt lat="45.35499" lon="6.19331">
        <ele>2701.8</ele>
        <time>2015-04-12T13:35:31.310Z</time>
      </trkpt>
      <trkpt lat="45.35516" lon="6.1934">
        <ele>2689.8</ele>
        <time>2015-04-12T13:35:45.400Z</time>
      </trkpt>
      <trkpt lat="45.35526" lon="6.19342">
        <ele>2682</ele>
        <time>2015-04-12T13:35:58.200Z</time>
      </trkpt>
      <trkpt lat="45.3554" lon="6.1934">
        <ele>2672</ele>
        <time>2015-04-12T13:36:25.690Z</time>
      </trkpt>
      <trkpt lat="45.35559" lon="6.19334">
        <ele>2659.7</ele>
        <time>2015-04-12T13:36:34.680Z</time>
      </trkpt>
      <trkpt lat="45.35567" lon="6.19311">
        <ele>2642.6</ele>
        <time>2015-04-12T13:36:43.480Z</time>
      </trkpt>
      <trkpt lat="45.35592" lon="6.19296">
        <ele>2624.6</ele>
        <time>2015-04-12T13:36:51.480Z</time>
      </trkpt>
      <trkpt lat="45.35632" lon="6.19286">
        <ele>2602.7</ele>
        <time>2015-04-12T13:36:59.680Z</time>
      </trkpt>
      <trkpt lat="45.35614" lon="6.19268">
        <ele>2584.1</ele>
        <time>2015-04-12T13:37:20.300Z</time>
      </trkpt>
      <trkpt lat="45.35621" lon="6.19282">
        <ele>2584.6</ele>
        <time>2015-04-12T13:37:25.200Z</time>
      </trkpt>
      <trkpt lat="45.35632" lon="6.19292">
        <ele>2580.2</ele>
        <time>2015-04-12T13:37:37.480Z</time>
      </trkpt>
      <trkpt lat="45.35645" lon="6.19329">
        <ele>2565.5</ele>
        <time>2015-04-12T13:38:04.480Z</time>
      </trkpt>
      <trkpt lat="45.35658" lon="6.19355">
        <ele>2548.4</ele>
        <time>2015-04-12T13:38:11.310Z</time>
      </trkpt>
      <trkpt lat="45.35677" lon="6.19353">
        <ele>2531.7</ele>
        <time>2015-04-12T13:38:19.610Z</time>
      </trkpt>
      <trkpt lat="45.35705" lon="6.19342">
        <ele>2511.1</ele>
        <time>2015-04-12T13:38:28.210Z</time>
      </trkpt>
      <trkpt lat="45.35703" lon="6.19331">
        <ele>2497.3</ele>
        <time>2015-04-12T13:38:52.400Z</time>
      </trkpt>
      <trkpt lat="45.35711" lon="6.19322">
        <ele>2488</ele>
        <time>2015-04-12T13:39:14.200Z</time>
      </trkpt>
      <trkpt lat="45.35736" lon="6.19276">
        <ele>2473.3</ele>
        <time>2015-04-12T13:39:23.680Z</time>
      </trkpt>
      <trkpt lat="45.35764" lon="6.19296">
        <ele>2445.9</ele>
        <time>2015-04-12T13:39:33.210Z</time>
      </trkpt>
      <trkpt lat="45.35785" lon="6.19263">
        <ele>2429.7</ele>
        <time>2015-04-12T13:39:41.300Z</time>
      </trkpt>
      <trkpt lat="45.35799" lon="6.19254">
        <ele>2417.9</ele>
        <time>2015-04-12T13:39:46.200Z</time>
      </trkpt>
      <trkpt lat="45.35878" lon="6.19303">
        <ele>2364.1</ele>
        <time>2015-04-12T13:40:02.400Z</time>
      </trkpt>
      <trkpt lat="45.35937" lon="6.19315">
        <ele>2333.9</ele>
        <time>2015-04-12T13:40:11.480Z</time>
      </trkpt>
      <trkpt lat="45.35961" lon="6.1934">
        <ele>2309</ele>
        <time>2015-04-12T13:40:19.480Z</time>
      </trkpt>
      <trkpt lat="45.35993" lon="6.19436">
        <ele>2283.4</ele>
        <time>2015-04-12T13:40:27.480Z</time>
      </trkpt>
      <trkpt lat="45.36025" lon="6.196">
        <ele>2231.2</ele>
        <time>2015-04-12T13:40:43.480Z</time>
      </trkpt>
      <trkpt lat="45.3607" lon="6.19665">
        <ele>2204.9</ele>
        <time>2015-04-12T13:40:51.480Z</time>
      </trkpt>
      <trkpt lat="45.36162" lon="6.19554">
        <ele>2164.1</ele>
        <time>2015-04-12T13:40:59.480Z</time>
      </trkpt>
      <trkpt lat="45.36295" lon="6.19529">
        <ele>2118.5</ele>
        <time>2015-04-12T13:41:07.480Z</time>
      </trkpt>
      <trkpt lat="45.36365" lon="6.19431">
        <ele>2055.6</ele>
        <time>2015-04-12T13:41:23.480Z</time>
      </trkpt>
      <trkpt lat="45.36386" lon="6.1936">
        <ele>2023</ele>
        <time>2015-04-12T13:41:31.500Z</time>
      </trkpt>
      <trkpt lat="45.36506" lon="6.19256">
        <ele>1979</ele>
        <time>2015-04-12T13:41:44.480Z</time>
      </trkpt>
      <trkpt lat="45.36621" lon="6.19252">
        <ele>1954.1</ele>
        <time>2015-04-12T13:42:00.480Z</time>
      </trkpt>
      <trkpt lat="45.36684" lon="6.19264">
        <ele>1946.9</ele>
        <time>2015-04-12T13:42:08.480Z</time>
      </trkpt>
      <trkpt lat="45.36834" lon="6.19349">
        <ele>1929.8</ele>
        <time>2015-04-12T13:42:32.490Z</time>
      </trkpt>
      <trkpt lat="45.36863" lon="6.19343">
        <ele>1920</ele>
        <time>2015-04-12T13:42:44.480Z</time>
      </trkpt>
      <trkpt lat="45.36876" lon="6.19343">
        <ele>1920.3</ele>
        <time>2015-04-12T13:42:52.480Z</time>
      </trkpt>
      <trkpt lat="45.36886" lon="6.19336">
        <ele>1921</ele>
        <time>2015-04-12T13:43:08.480Z</time>
      </trkpt>
      <trkpt lat="45.36898" lon="6.19333">
        <ele>1922</ele>
        <time>2015-04-12T13:43:37.480Z</time>
      </trkpt>
      <trkpt lat="45.3692" lon="6.19342">
        <ele>1923</ele>
        <time>2015-04-12T13:43:58.480Z</time>
      </trkpt>
      <trkpt lat="45.36931" lon="6.19343">
        <ele>1924</ele>
        <time>2015-04-12T13:44:10.490Z</time>
      </trkpt>
      <trkpt lat="45.36948" lon="6.19337">
        <ele>1924</ele>
        <time>2015-04-12T13:44:21.680Z</time>
      </trkpt>
      <trkpt lat="45.37027" lon="6.19329">
        <ele>1921.9</ele>
        <time>2015-04-12T13:44:30.480Z</time>
      </trkpt>
      <trkpt lat="45.37065" lon="6.19332">
        <ele>1905.1</ele>
        <time>2015-04-12T13:44:38.480Z</time>
      </trkpt>
      <trkpt lat="45.37085" lon="6.19358">
        <ele>1903.4</ele>
        <time>2015-04-12T13:44:53.680Z</time>
      </trkpt>
      <trkpt lat="45.37096" lon="6.19358">
        <ele>1904.5</ele>
        <time>2015-04-12T13:45:14.680Z</time>
      </trkpt>
      <trkpt lat="45.37105" lon="6.19367">
        <ele>1906.4</ele>
        <time>2015-04-12T13:45:26.690Z</time>
      </trkpt>
      <trkpt lat="45.37117" lon="6.19368">
        <ele>1907</ele>
        <time>2015-04-12T13:45:34.690Z</time>
      </trkpt>
      <trkpt lat="45.37135" lon="6.19362">
        <ele>1906.9</ele>
        <time>2015-04-12T13:45:58.690Z</time>
      </trkpt>
      <trkpt lat="45.37147" lon="6.19371">
        <ele>1907</ele>
        <time>2015-04-12T13:46:06.690Z</time>
      </trkpt>
      <trkpt lat="45.37161" lon="6.19375">
        <ele>1907.3</ele>
        <time>2015-04-12T13:46:32.480Z</time>
      </trkpt>
      <trkpt lat="45.37181" lon="6.1939">
        <ele>1908</ele>
        <time>2015-04-12T13:46:41.480Z</time>
      </trkpt>
      <trkpt lat="45.37196" lon="6.194">
        <ele>1907</ele>
        <time>2015-04-12T13:47:02.690Z</time>
      </trkpt>
      <trkpt lat="45.37206" lon="6.19391">
        <ele>1910</ele>
        <time>2015-04-12T13:47:30.680Z</time>
      </trkpt>
      <trkpt lat="45.37204" lon="6.1941">
        <ele>1912.5</ele>
        <time>2015-04-12T13:47:54.680Z</time>
      </trkpt>
      <trkpt lat="45.37199" lon="6.19411">
        <ele>1912</ele>
        <time>2015-04-12T13:50:39.680Z</time>
      </trkpt>
      <trkpt lat="45.37198" lon="6.19397">
        <ele>1915</ele>
        <time>2015-04-12T13:54:35.680Z</time>
      </trkpt>
      <trkpt lat="45.37203" lon="6.194">
        <ele>1914</ele>
        <time>2015-04-12T13:56:47.680Z</time>
      </trkpt>
      <trkpt lat="45.37202" lon="6.19415">
        <ele>1914</ele>
        <time>2015-04-12T13:57:07.680Z</time>
      </trkpt>
      <trkpt lat="45.37197" lon="6.19403">
        <ele>1914</ele>
        <time>2015-04-12T13:57:43.690Z</time>
      </trkpt>
      <trkpt lat="45.37198" lon="6.19417">
        <ele>1916</ele>
        <time>2015-04-12T14:01:19.580Z</time>
      </trkpt>
      <trkpt lat="45.37202" lon="6.19403">
        <ele>1916</ele>
        <time>2015-04-12T14:03:39.580Z</time>
      </trkpt>
      <trkpt lat="45.37211" lon="6.19412">
        <ele>1916</ele>
        <time>2015-04-12T14:08:49.480Z</time>
      </trkpt>
      <trkpt lat="45.37221" lon="6.19415">
        <ele>1916</ele>
        <time>2015-04-12T14:09:07.480Z</time>
      </trkpt>
      <trkpt lat="45.37237" lon="6.1943">
        <ele>1918.7</ele>
        <time>2015-04-12T14:09:20.500Z</time>
      </trkpt>
      <trkpt lat="45.3728" lon="6.19453">
        <ele>1915.7</ele>
        <time>2015-04-12T14:09:29.780Z</time>
      </trkpt>
      <trkpt lat="45.37347" lon="6.19481">
        <ele>1907.6</ele>
        <time>2015-04-12T14:09:38.790Z</time>
      </trkpt>
      <trkpt lat="45.37385" lon="6.19503">
        <ele>1899.5</ele>
        <time>2015-04-12T14:09:47.780Z</time>
      </trkpt>
      <trkpt lat="45.37391" lon="6.19486">
        <ele>1898</ele>
        <time>2015-04-12T14:09:56.780Z</time>
      </trkpt>
      <trkpt lat="45.37421" lon="6.19477">
        <ele>1896</ele>
        <time>2015-04-12T14:10:10.480Z</time>
      </trkpt>
      <trkpt lat="45.37433" lon="6.19471">
        <ele>1896</ele>
        <time>2015-04-12T14:10:23.780Z</time>
      </trkpt>
      <trkpt lat="45.37453" lon="6.19469">
        <ele>1895.7</ele>
        <time>2015-04-12T14:10:32.790Z</time>
      </trkpt>
      <trkpt lat="45.37485" lon="6.19474">
        <ele>1894</ele>
        <time>2015-04-12T14:10:55.480Z</time>
      </trkpt>
      <trkpt lat="45.37504" lon="6.19482">
        <ele>1893</ele>
        <time>2015-04-12T14:11:04.480Z</time>
      </trkpt>
      <trkpt lat="45.37523" lon="6.1948">
        <ele>1892</ele>
        <time>2015-04-12T14:11:13.480Z</time>
      </trkpt>
      <trkpt lat="45.37542" lon="6.19475">
        <ele>1891.4</ele>
        <time>2015-04-12T14:11:22.480Z</time>
      </trkpt>
      <trkpt lat="45.37566" lon="6.19478">
        <ele>1889.8</ele>
        <time>2015-04-12T14:11:31.500Z</time>
      </trkpt>
      <trkpt lat="45.37586" lon="6.19487">
        <ele>1888.5</ele>
        <time>2015-04-12T14:11:40.480Z</time>
      </trkpt>
      <trkpt lat="45.37607" lon="6.19487">
        <ele>1882.7</ele>
        <time>2015-04-12T14:11:53.780Z</time>
      </trkpt>
      <trkpt lat="45.37607" lon="6.19489">
        <ele>1882</ele>
        <time>2015-04-12T14:12:29.790Z</time>
      </trkpt>
      <trkpt lat="45.37618" lon="6.19491">
        <ele>1881.3</ele>
        <time>2015-04-12T14:12:46.300Z</time>
      </trkpt>
      <trkpt lat="45.37621" lon="6.19506">
        <ele>1881</ele>
        <time>2015-04-12T14:13:31.580Z</time>
      </trkpt>
      <trkpt lat="45.37632" lon="6.19508">
        <ele>1881</ele>
        <time>2015-04-12T14:13:39.580Z</time>
      </trkpt>
      <trkpt lat="45.37641" lon="6.19503">
        <ele>1881.4</ele>
        <time>2015-04-12T14:13:51.590Z</time>
      </trkpt>
      <trkpt lat="45.37651" lon="6.19495">
        <ele>1883.8</ele>
        <time>2015-04-12T14:14:03.580Z</time>
      </trkpt>
      <trkpt lat="45.37658" lon="6.19481">
        <ele>1886.8</ele>
        <time>2015-04-12T14:14:23.580Z</time>
      </trkpt>
      <trkpt lat="45.37667" lon="6.19475">
        <ele>1889</ele>
        <time>2015-04-12T14:14:39.580Z</time>
      </trkpt>
      <trkpt lat="45.37677" lon="6.19482">
        <ele>1891.8</ele>
        <time>2015-04-12T14:15:03.580Z</time>
      </trkpt>
      <trkpt lat="45.3769" lon="6.19483">
        <ele>1893.6</ele>
        <time>2015-04-12T14:15:15.590Z</time>
      </trkpt>
      <trkpt lat="45.37699" lon="6.19491">
        <ele>1894</ele>
        <time>2015-04-12T14:15:23.590Z</time>
      </trkpt>
      <trkpt lat="45.3771" lon="6.19495">
        <ele>1895.2</ele>
        <time>2015-04-12T14:15:35.580Z</time>
      </trkpt>
      <trkpt lat="45.37728" lon="6.19477">
        <ele>1896.6</ele>
        <time>2015-04-12T14:15:55.590Z</time>
      </trkpt>
      <trkpt lat="45.3774" lon="6.19468">
        <ele>1897.2</ele>
        <time>2015-04-12T14:16:11.590Z</time>
      </trkpt>
      <trkpt lat="45.37744" lon="6.19455">
        <ele>1898.8</ele>
        <time>2015-04-12T14:16:23.580Z</time>
      </trkpt>
      <trkpt lat="45.37755" lon="6.19461">
        <ele>1901</ele>
        <time>2015-04-12T14:16:39.580Z</time>
      </trkpt>
      <trkpt lat="45.37759" lon="6.19474">
        <ele>1906.6</ele>
        <time>2015-04-12T14:17:07.580Z</time>
      </trkpt>
      <trkpt lat="45.3777" lon="6.19477">
        <ele>1913.2</ele>
        <time>2015-04-12T14:17:45.300Z</time>
      </trkpt>
      <trkpt lat="45.37781" lon="6.19482">
        <ele>1917.4</ele>
        <time>2015-04-12T14:18:13.580Z</time>
      </trkpt>
      <trkpt lat="45.37791" lon="6.19492">
        <ele>1922</ele>
        <time>2015-04-12T14:18:29.580Z</time>
      </trkpt>
      <trkpt lat="45.37798" lon="6.19503">
        <ele>1924.4</ele>
        <time>2015-04-12T14:18:37.580Z</time>
      </trkpt>
      <trkpt lat="45.37795" lon="6.19516">
        <ele>1933</ele>
        <time>2015-04-12T14:19:24.590Z</time>
      </trkpt>
      <trkpt lat="45.37809" lon="6.19519">
        <ele>1937</ele>
        <time>2015-04-12T14:19:44.580Z</time>
      </trkpt>
      <trkpt lat="45.37814" lon="6.19532">
        <ele>1939.3</ele>
        <time>2015-04-12T14:19:52.580Z</time>
      </trkpt>
      <trkpt lat="45.37824" lon="6.19536">
        <ele>1940.9</ele>
        <time>2015-04-12T14:20:08.580Z</time>
      </trkpt>
      <trkpt lat="45.37836" lon="6.19537">
        <ele>1943.4</ele>
        <time>2015-04-12T14:20:20.580Z</time>
      </trkpt>
      <trkpt lat="45.37846" lon="6.19539">
        <ele>1946.6</ele>
        <time>2015-04-12T14:20:28.580Z</time>
      </trkpt>
      <trkpt lat="45.37838" lon="6.19549">
        <ele>1951</ele>
        <time>2015-04-12T14:20:54.300Z</time>
      </trkpt>
      <trkpt lat="45.37847" lon="6.19557">
        <ele>1953.7</ele>
        <time>2015-04-12T14:21:07.780Z</time>
      </trkpt>
      <trkpt lat="45.37858" lon="6.19558">
        <ele>1956</ele>
        <time>2015-04-12T14:21:19.580Z</time>
      </trkpt>
      <trkpt lat="45.37871" lon="6.19562">
        <ele>1958.4</ele>
        <time>2015-04-12T14:21:31.580Z</time>
      </trkpt>
      <trkpt lat="45.37858" lon="6.19573">
        <ele>1960.8</ele>
        <time>2015-04-12T14:21:43.590Z</time>
      </trkpt>
      <trkpt lat="45.37847" lon="6.19577">
        <ele>1963.7</ele>
        <time>2015-04-12T14:21:57.780Z</time>
      </trkpt>
      <trkpt lat="45.37859" lon="6.19589">
        <ele>1969</ele>
        <time>2015-04-12T14:22:29.580Z</time>
      </trkpt>
      <trkpt lat="45.37881" lon="6.19594">
        <ele>1973.4</ele>
        <time>2015-04-12T14:22:53.580Z</time>
      </trkpt>
      <trkpt lat="45.37892" lon="6.19604">
        <ele>1976</ele>
        <time>2015-04-12T14:23:09.580Z</time>
      </trkpt>
      <trkpt lat="45.37903" lon="6.1961">
        <ele>1977.6</ele>
        <time>2015-04-12T14:23:17.580Z</time>
      </trkpt>
      <trkpt lat="45.37912" lon="6.1962">
        <ele>1980.6</ele>
        <time>2015-04-12T14:23:37.580Z</time>
      </trkpt>
      <trkpt lat="45.37923" lon="6.19626">
        <ele>1988.2</ele>
        <time>2015-04-12T14:24:01.580Z</time>
      </trkpt>
      <trkpt lat="45.37926" lon="6.19642">
        <ele>1990.2</ele>
        <time>2015-04-12T14:24:13.580Z</time>
      </trkpt>
      <trkpt lat="45.37952" lon="6.19654">
        <ele>2001</ele>
        <time>2015-04-12T14:24:57.590Z</time>
      </trkpt>
      <trkpt lat="45.37967" lon="6.1965">
        <ele>2003.4</ele>
        <time>2015-04-12T14:25:05.590Z</time>
      </trkpt>
      <trkpt lat="45.37974" lon="6.19663">
        <ele>2005.6</ele>
        <time>2015-04-12T14:25:21.400Z</time>
      </trkpt>
      <trkpt lat="45.37983" lon="6.19672">
        <ele>2008</ele>
        <time>2015-04-12T14:25:29.500Z</time>
      </trkpt>
      <trkpt lat="45.37988" lon="6.19686">
        <ele>2013.2</ele>
        <time>2015-04-12T14:25:45.580Z</time>
      </trkpt>
      <trkpt lat="45.37996" lon="6.19695">
        <ele>2015.2</ele>
        <time>2015-04-12T14:26:01.580Z</time>
      </trkpt>
      <trkpt lat="45.38006" lon="6.19701">
        <ele>2016.1</ele>
        <time>2015-04-12T14:26:09.780Z</time>
      </trkpt>
      <trkpt lat="45.38019" lon="6.19704">
        <ele>2019.6</ele>
        <time>2015-04-12T14:26:25.580Z</time>
      </trkpt>
      <trkpt lat="45.38029" lon="6.19698">
        <ele>2022.1</ele>
        <time>2015-04-12T14:26:41.590Z</time>
      </trkpt>
      <trkpt lat="45.38036" lon="6.19683">
        <ele>2027.6</ele>
        <time>2015-04-12T14:26:57.590Z</time>
      </trkpt>
      <trkpt lat="45.38046" lon="6.19685">
        <ele>2032.9</ele>
        <time>2015-04-12T14:27:38.500Z</time>
      </trkpt>
      <trkpt lat="45.38053" lon="6.19701">
        <ele>2037.7</ele>
        <time>2015-04-12T14:27:55.300Z</time>
      </trkpt>
      <trkpt lat="45.38057" lon="6.19685">
        <ele>2040</ele>
        <time>2015-04-12T14:28:15.510Z</time>
      </trkpt>
      <trkpt lat="45.38067" lon="6.19683">
        <ele>2047</ele>
        <time>2015-04-12T14:29:03.690Z</time>
      </trkpt>
      <trkpt lat="45.38074" lon="6.19675">
        <ele>2055</ele>
        <time>2015-04-12T14:29:35.680Z</time>
      </trkpt>
      <trkpt lat="45.38081" lon="6.19669">
        <ele>2059</ele>
        <time>2015-04-12T14:29:59.680Z</time>
      </trkpt>
      <trkpt lat="45.38086" lon="6.1966">
        <ele>2062</ele>
        <time>2015-04-12T14:30:19.680Z</time>
      </trkpt>
      <trkpt lat="45.38094" lon="6.19676">
        <ele>2071.5</ele>
        <time>2015-04-12T14:31:24.580Z</time>
      </trkpt>
      <trkpt lat="45.38137" lon="6.19722">
        <ele>2068</ele>
        <time>2015-04-12T14:31:40.580Z</time>
      </trkpt>
      <trkpt lat="45.38149" lon="6.19714">
        <ele>2068</ele>
        <time>2015-04-12T14:31:56.580Z</time>
      </trkpt>
      <trkpt lat="45.38162" lon="6.19716">
        <ele>2070.7</ele>
        <time>2015-04-12T14:32:16.580Z</time>
      </trkpt>
      <trkpt lat="45.38175" lon="6.19726">
        <ele>2071.5</ele>
        <time>2015-04-12T14:32:24.580Z</time>
      </trkpt>
      <trkpt lat="45.38187" lon="6.19733">
        <ele>2074.1</ele>
        <time>2015-04-12T14:32:36.590Z</time>
      </trkpt>
      <trkpt lat="45.38182" lon="6.19749">
        <ele>2076.3</ele>
        <time>2015-04-12T14:32:52.590Z</time>
      </trkpt>
      <trkpt lat="45.38193" lon="6.1975">
        <ele>2077.1</ele>
        <time>2015-04-12T14:33:00.510Z</time>
      </trkpt>
      <trkpt lat="45.38203" lon="6.19743">
        <ele>2077.4</ele>
        <time>2015-04-12T14:34:13.310Z</time>
      </trkpt>
      <trkpt lat="45.3823" lon="6.19739">
        <ele>2074.1</ele>
        <time>2015-04-12T14:34:53.580Z</time>
      </trkpt>
      <trkpt lat="45.38324" lon="6.19678">
        <ele>2052.9</ele>
        <time>2015-04-12T14:35:09.580Z</time>
      </trkpt>
      <trkpt lat="45.38369" lon="6.19639">
        <ele>2044.7</ele>
        <time>2015-04-12T14:35:17.780Z</time>
      </trkpt>
      <trkpt lat="45.38409" lon="6.19612">
        <ele>2038.7</ele>
        <time>2015-04-12T14:35:25.580Z</time>
      </trkpt>
      <trkpt lat="45.3842" lon="6.19607">
        <ele>2036</ele>
        <time>2015-04-12T14:35:33.580Z</time>
      </trkpt>
      <trkpt lat="45.38442" lon="6.19592">
        <ele>2034.8</ele>
        <time>2015-04-12T14:35:41.790Z</time>
      </trkpt>
      <trkpt lat="45.38465" lon="6.196">
        <ele>2028.4</ele>
        <time>2015-04-12T14:36:01.590Z</time>
      </trkpt>
      <trkpt lat="45.38476" lon="6.19598">
        <ele>2034.7</ele>
        <time>2015-04-12T14:37:31.780Z</time>
      </trkpt>
      <trkpt lat="45.385" lon="6.19598">
        <ele>2037</ele>
        <time>2015-04-12T14:37:47.780Z</time>
      </trkpt>
      <trkpt lat="45.38503" lon="6.19615">
        <ele>2037.6</ele>
        <time>2015-04-12T14:37:55.780Z</time>
      </trkpt>
      <trkpt lat="45.38511" lon="6.19626">
        <ele>2040.5</ele>
        <time>2015-04-12T14:38:07.780Z</time>
      </trkpt>
      <trkpt lat="45.38522" lon="6.19629">
        <ele>2044</ele>
        <time>2015-04-12T14:38:19.790Z</time>
      </trkpt>
      <trkpt lat="45.38533" lon="6.1963">
        <ele>2044</ele>
        <time>2015-04-12T14:38:27.580Z</time>
      </trkpt>
      <trkpt lat="45.38544" lon="6.19633">
        <ele>2046.4</ele>
        <time>2015-04-12T14:38:35.580Z</time>
      </trkpt>
      <trkpt lat="45.38552" lon="6.19641">
        <ele>2054.1</ele>
        <time>2015-04-12T14:38:59.800Z</time>
      </trkpt>
      <trkpt lat="45.38557" lon="6.1966">
        <ele>2058.2</ele>
        <time>2015-04-12T14:39:20.610Z</time>
      </trkpt>
      <trkpt lat="45.38554" lon="6.19676">
        <ele>2060.8</ele>
        <time>2015-04-12T14:39:37.520Z</time>
      </trkpt>
      <trkpt lat="45.38544" lon="6.19688">
        <ele>2066</ele>
        <time>2015-04-12T14:39:56.510Z</time>
      </trkpt>
      <trkpt lat="45.38533" lon="6.19695">
        <ele>2071.6</ele>
        <time>2015-04-12T14:40:17.610Z</time>
      </trkpt>
      <trkpt lat="45.38525" lon="6.19708">
        <ele>2074.9</ele>
        <time>2015-04-12T14:40:33.790Z</time>
      </trkpt>
      <trkpt lat="45.38529" lon="6.19725">
        <ele>2076</ele>
        <time>2015-04-12T14:40:45.590Z</time>
      </trkpt>
      <trkpt lat="45.38538" lon="6.19732">
        <ele>2079.5</ele>
        <time>2015-04-12T14:41:20.780Z</time>
      </trkpt>
      <trkpt lat="45.3854" lon="6.19748">
        <ele>2087.6</ele>
        <time>2015-04-12T14:41:44.780Z</time>
      </trkpt>
      <trkpt lat="45.38556" lon="6.19769">
        <ele>2092.4</ele>
        <time>2015-04-12T14:42:01.510Z</time>
      </trkpt>
      <trkpt lat="45.38558" lon="6.19788">
        <ele>2094.9</ele>
        <time>2015-04-12T14:42:13.790Z</time>
      </trkpt>
      <trkpt lat="45.38562" lon="6.19803">
        <ele>2097.7</ele>
        <time>2015-04-12T14:42:27.780Z</time>
      </trkpt>
      <trkpt lat="45.38587" lon="6.19823">
        <ele>2101</ele>
        <time>2015-04-12T14:42:43.780Z</time>
      </trkpt>
      <trkpt lat="45.38597" lon="6.1982">
        <ele>2111.3</ele>
        <time>2015-04-12T14:43:23.790Z</time>
      </trkpt>
      <trkpt lat="45.38603" lon="6.19791">
        <ele>2115.9</ele>
        <time>2015-04-12T14:43:43.780Z</time>
      </trkpt>
      <trkpt lat="45.38615" lon="6.19787">
        <ele>2120.9</ele>
        <time>2015-04-12T14:44:03.780Z</time>
      </trkpt>
      <trkpt lat="45.38625" lon="6.19801">
        <ele>2124.4</ele>
        <time>2015-04-12T14:44:20.790Z</time>
      </trkpt>
      <trkpt lat="45.38636" lon="6.198">
        <ele>2133</ele>
        <time>2015-04-12T14:44:59.780Z</time>
      </trkpt>
      <trkpt lat="45.38646" lon="6.19792">
        <ele>2133.6</ele>
        <time>2015-04-12T14:45:15.780Z</time>
      </trkpt>
      <trkpt lat="45.38638" lon="6.19778">
        <ele>2135.3</ele>
        <time>2015-04-12T14:45:23.780Z</time>
      </trkpt>
      <trkpt lat="45.38649" lon="6.19777">
        <ele>2137.5</ele>
        <time>2015-04-12T14:45:31.780Z</time>
      </trkpt>
      <trkpt lat="45.38651" lon="6.19763">
        <ele>2141.5</ele>
        <time>2015-04-12T14:45:47.790Z</time>
      </trkpt>
      <trkpt lat="45.38659" lon="6.19752">
        <ele>2143.4</ele>
        <time>2015-04-12T14:46:03.790Z</time>
      </trkpt>
      <trkpt lat="45.38656" lon="6.19769">
        <ele>2148.8</ele>
        <time>2015-04-12T14:46:27.510Z</time>
      </trkpt>
      <trkpt lat="45.38667" lon="6.19761">
        <ele>2162.1</ele>
        <time>2015-04-12T14:47:44.790Z</time>
      </trkpt>
      <trkpt lat="45.38673" lon="6.19773">
        <ele>2165.5</ele>
        <time>2015-04-12T14:47:56.780Z</time>
      </trkpt>
      <trkpt lat="45.38684" lon="6.1978">
        <ele>2170.6</ele>
        <time>2015-04-12T14:48:27.410Z</time>
      </trkpt>
      <trkpt lat="45.38698" lon="6.19787">
        <ele>2191.2</ele>
        <time>2015-04-12T14:49:50.690Z</time>
      </trkpt>
      <trkpt lat="45.38709" lon="6.19798">
        <ele>2193.3</ele>
        <time>2015-04-12T14:50:02.680Z</time>
      </trkpt>
      <trkpt lat="45.38719" lon="6.19792">
        <ele>2205</ele>
        <time>2015-04-12T14:51:10.680Z</time>
      </trkpt>
      <trkpt lat="45.38724" lon="6.19805">
        <ele>2212.3</ele>
        <time>2015-04-12T14:52:02.680Z</time>
      </trkpt>
      <trkpt lat="45.38733" lon="6.1982">
        <ele>2218.4</ele>
        <time>2015-04-12T14:52:26.680Z</time>
      </trkpt>
      <trkpt lat="45.38738" lon="6.19807">
        <ele>2220.5</ele>
        <time>2015-04-12T14:52:50.680Z</time>
      </trkpt>
      <trkpt lat="45.38739" lon="6.19792">
        <ele>2223.4</ele>
        <time>2015-04-12T14:53:25.780Z</time>
      </trkpt>
      <trkpt lat="45.38757" lon="6.19802">
        <ele>2236.1</ele>
        <time>2015-04-12T14:54:29.780Z</time>
      </trkpt>
      <trkpt lat="45.38766" lon="6.19811">
        <ele>2246.4</ele>
        <time>2015-04-12T14:55:13.790Z</time>
      </trkpt>
      <trkpt lat="45.38778" lon="6.19817">
        <ele>2251.3</ele>
        <time>2015-04-12T14:55:45.780Z</time>
      </trkpt>
      <trkpt lat="45.38802" lon="6.19819">
        <ele>2258</ele>
        <time>2015-04-12T14:56:21.780Z</time>
      </trkpt>
      <trkpt lat="45.38811" lon="6.19825">
        <ele>2260.1</ele>
        <time>2015-04-12T14:56:49.780Z</time>
      </trkpt>
      <trkpt lat="45.38804" lon="6.19837">
        <ele>2266</ele>
        <time>2015-04-12T14:57:09.530Z</time>
      </trkpt>
      <trkpt lat="45.38802" lon="6.19852">
        <ele>2276</ele>
        <time>2015-04-12T14:58:12.680Z</time>
      </trkpt>
      <trkpt lat="45.38798" lon="6.19868">
        <ele>2280</ele>
        <time>2015-04-12T14:58:32.680Z</time>
      </trkpt>
      <trkpt lat="45.38786" lon="6.19875">
        <ele>2280.6</ele>
        <time>2015-04-12T14:58:52.690Z</time>
      </trkpt>
      <trkpt lat="45.38796" lon="6.19871">
        <ele>2282.3</ele>
        <time>2015-04-12T14:59:12.680Z</time>
      </trkpt>
      <trkpt lat="45.38807" lon="6.19864">
        <ele>2282</ele>
        <time>2015-04-12T15:00:04.680Z</time>
      </trkpt>
      <trkpt lat="45.38797" lon="6.19863">
        <ele>2283</ele>
        <time>2015-04-12T15:00:24.690Z</time>
      </trkpt>
      <trkpt lat="45.38815" lon="6.19895">
        <ele>2269.1</ele>
        <time>2015-04-12T15:01:45.880Z</time>
      </trkpt>
      <trkpt lat="45.38852" lon="6.19927">
        <ele>2253.3</ele>
        <time>2015-04-12T15:01:54.610Z</time>
      </trkpt>
      <trkpt lat="45.38884" lon="6.19938">
        <ele>2238.2</ele>
        <time>2015-04-12T15:02:03.600Z</time>
      </trkpt>
      <trkpt lat="45.38914" lon="6.19956">
        <ele>2228.8</ele>
        <time>2015-04-12T15:02:10.510Z</time>
      </trkpt>
      <trkpt lat="45.38921" lon="6.19979">
        <ele>2222.9</ele>
        <time>2015-04-12T15:02:15.410Z</time>
      </trkpt>
      <trkpt lat="45.38983" lon="6.2002">
        <ele>2205.3</ele>
        <time>2015-04-12T15:02:44.680Z</time>
      </trkpt>
      <trkpt lat="45.39001" lon="6.20013">
        <ele>2200.2</ele>
        <time>2015-04-12T15:03:01.410Z</time>
      </trkpt>
      <trkpt lat="45.39003" lon="6.19996">
        <ele>2201</ele>
        <time>2015-04-12T15:03:09.530Z</time>
      </trkpt>
      <trkpt lat="45.39013" lon="6.19983">
        <ele>2201.4</ele>
        <time>2015-04-12T15:04:33.510Z</time>
      </trkpt>
      <trkpt lat="45.39024" lon="6.1998">
        <ele>2202</ele>
        <time>2015-04-12T15:04:45.510Z</time>
      </trkpt>
      <trkpt lat="45.39034" lon="6.19981">
        <ele>2202.4</ele>
        <time>2015-04-12T15:04:53.410Z</time>
      </trkpt>
      <trkpt lat="45.39047" lon="6.19996">
        <ele>2203.8</ele>
        <time>2015-04-12T15:05:17.410Z</time>
      </trkpt>
      <trkpt lat="45.39057" lon="6.1999">
        <ele>2205.2</ele>
        <time>2015-04-12T15:05:25.410Z</time>
      </trkpt>
      <trkpt lat="45.39067" lon="6.19987">
        <ele>2208.5</ele>
        <time>2015-04-12T15:05:44.410Z</time>
      </trkpt>
      <trkpt lat="45.39079" lon="6.19987">
        <ele>2212.5</ele>
        <time>2015-04-12T15:05:56.410Z</time>
      </trkpt>
      <trkpt lat="45.39087" lon="6.19996">
        <ele>2212.2</ele>
        <time>2015-04-12T15:06:08.680Z</time>
      </trkpt>
      <trkpt lat="45.39097" lon="6.19992">
        <ele>2217.4</ele>
        <time>2015-04-12T15:06:31.510Z</time>
      </trkpt>
      <trkpt lat="45.39108" lon="6.19995">
        <ele>2220.6</ele>
        <time>2015-04-12T15:06:53.410Z</time>
      </trkpt>
      <trkpt lat="45.39115" lon="6.20004">
        <ele>2223.4</ele>
        <time>2015-04-12T15:07:10.510Z</time>
      </trkpt>
      <trkpt lat="45.39127" lon="6.20006">
        <ele>2229.2</ele>
        <time>2015-04-12T15:07:30.680Z</time>
      </trkpt>
      <trkpt lat="45.39137" lon="6.20006">
        <ele>2231</ele>
        <time>2015-04-12T15:07:39.530Z</time>
      </trkpt>
      <trkpt lat="45.39148" lon="6.20001">
        <ele>2235.9</ele>
        <time>2015-04-12T15:07:55.790Z</time>
      </trkpt>
      <trkpt lat="45.39159" lon="6.2">
        <ele>2240</ele>
        <time>2015-04-12T15:08:09.530Z</time>
      </trkpt>
      <trkpt lat="45.39168" lon="6.20012">
        <ele>2246.3</ele>
        <time>2015-04-12T15:08:33.680Z</time>
      </trkpt>
      <trkpt lat="45.39178" lon="6.20015">
        <ele>2248.4</ele>
        <time>2015-04-12T15:08:41.680Z</time>
      </trkpt>
      <trkpt lat="45.39206" lon="6.20019">
        <ele>2255</ele>
        <time>2015-04-12T15:09:09.680Z</time>
      </trkpt>
      <trkpt lat="45.39216" lon="6.20015">
        <ele>2263.1</ele>
        <time>2015-04-12T15:09:41.680Z</time>
      </trkpt>
      <trkpt lat="45.39224" lon="6.20006">
        <ele>2267</ele>
        <time>2015-04-12T15:10:05.680Z</time>
      </trkpt>
      <trkpt lat="45.3923" lon="6.20017">
        <ele>2271.7</ele>
        <time>2015-04-12T15:10:21.680Z</time>
      </trkpt>
      <trkpt lat="45.39243" lon="6.20014">
        <ele>2270.5</ele>
        <time>2015-04-12T15:15:44.680Z</time>
      </trkpt>
      <trkpt lat="45.39279" lon="6.20032">
        <ele>2257</ele>
        <time>2015-04-12T15:15:52.680Z</time>
      </trkpt>
      <trkpt lat="45.39398" lon="6.20074">
        <ele>2204</ele>
        <time>2015-04-12T15:16:08.680Z</time>
      </trkpt>
      <trkpt lat="45.39443" lon="6.20044">
        <ele>2189.1</ele>
        <time>2015-04-12T15:16:16.680Z</time>
      </trkpt>
      <trkpt lat="45.39493" lon="6.19973">
        <ele>2175.2</ele>
        <time>2015-04-12T15:16:24.680Z</time>
      </trkpt>
      <trkpt lat="45.39518" lon="6.19893">
        <ele>2164.1</ele>
        <time>2015-04-12T15:16:32.680Z</time>
      </trkpt>
      <trkpt lat="45.39532" lon="6.19897">
        <ele>2158</ele>
        <time>2015-04-12T15:16:44.690Z</time>
      </trkpt>
      <trkpt lat="45.39539" lon="6.19913">
        <ele>2158</ele>
        <time>2015-04-12T15:17:02.880Z</time>
      </trkpt>
      <trkpt lat="45.3953" lon="6.19904">
        <ele>2157.7</ele>
        <time>2015-04-12T15:17:22.690Z</time>
      </trkpt>
      <trkpt lat="45.39537" lon="6.19915">
        <ele>2158</ele>
        <time>2015-04-12T15:17:42.680Z</time>
      </trkpt>
      <trkpt lat="45.39547" lon="6.19913">
        <ele>2158.9</ele>
        <time>2015-04-12T15:17:58.680Z</time>
      </trkpt>
      <trkpt lat="45.3956" lon="6.19904">
        <ele>2163.4</ele>
        <time>2015-04-12T15:18:10.880Z</time>
      </trkpt>
      <trkpt lat="45.3957" lon="6.19893">
        <ele>2167.5</ele>
        <time>2015-04-12T15:18:26.880Z</time>
      </trkpt>
      <trkpt lat="45.39579" lon="6.19887">
        <ele>2170.8</ele>
        <time>2015-04-12T15:18:38.680Z</time>
      </trkpt>
      <trkpt lat="45.39594" lon="6.19893">
        <ele>2173.6</ele>
        <time>2015-04-12T15:18:54.680Z</time>
      </trkpt>
      <trkpt lat="45.39584" lon="6.19902">
        <ele>2178.1</ele>
        <time>2015-04-12T15:19:20.510Z</time>
      </trkpt>
      <trkpt lat="45.3958" lon="6.19916">
        <ele>2180.9</ele>
        <time>2015-04-12T15:19:48.680Z</time>
      </trkpt>
      <trkpt lat="45.39582" lon="6.19932">
        <ele>2186.6</ele>
        <time>2015-04-12T15:20:04.680Z</time>
      </trkpt>
      <trkpt lat="45.39592" lon="6.19927">
        <ele>2191.2</ele>
        <time>2015-04-12T15:20:36.680Z</time>
      </trkpt>
      <trkpt lat="45.39599" lon="6.19916">
        <ele>2195.3</ele>
        <time>2015-04-12T15:20:52.680Z</time>
      </trkpt>
      <trkpt lat="45.39609" lon="6.19922">
        <ele>2203</ele>
        <time>2015-04-12T15:21:24.690Z</time>
      </trkpt>
      <trkpt lat="45.39619" lon="6.19926">
        <ele>2207</ele>
        <time>2015-04-12T15:21:56.690Z</time>
      </trkpt>
      <trkpt lat="45.39627" lon="6.19916">
        <ele>2210.7</ele>
        <time>2015-04-12T15:22:08.680Z</time>
      </trkpt>
      <trkpt lat="45.39626" lon="6.19935">
        <ele>2213.1</ele>
        <time>2015-04-12T15:22:20.690Z</time>
      </trkpt>
      <trkpt lat="45.39635" lon="6.19927">
        <ele>2219.6</ele>
        <time>2015-04-12T15:22:44.680Z</time>
      </trkpt>
      <trkpt lat="45.39645" lon="6.19922">
        <ele>2229.9</ele>
        <time>2015-04-12T15:23:26.690Z</time>
      </trkpt>
      <trkpt lat="45.39648" lon="6.19908">
        <ele>2235</ele>
        <time>2015-04-12T15:23:42.690Z</time>
      </trkpt>
      <trkpt lat="45.39659" lon="6.19902">
        <ele>2241</ele>
        <time>2015-04-12T15:24:22.880Z</time>
      </trkpt>
      <trkpt lat="45.39651" lon="6.19912">
        <ele>2241</ele>
        <time>2015-04-12T15:26:22.880Z</time>
      </trkpt>
      <trkpt lat="45.39658" lon="6.19901">
        <ele>2240</ele>
        <time>2015-04-12T15:26:46.600Z</time>
      </trkpt>
      <trkpt lat="45.3965" lon="6.19911">
        <ele>2240</ele>
        <time>2015-04-12T15:28:12.880Z</time>
      </trkpt>
      <trkpt lat="45.39656" lon="6.19904">
        <ele>2240.7</ele>
        <time>2015-04-12T15:28:52.880Z</time>
      </trkpt>
      <trkpt lat="45.39684" lon="6.19904">
        <ele>2239.6</ele>
        <time>2015-04-12T15:30:12.880Z</time>
      </trkpt>
      <trkpt lat="45.39707" lon="6.19926">
        <ele>2236.3</ele>
        <time>2015-04-12T15:30:36.880Z</time>
      </trkpt>
      <trkpt lat="45.39775" lon="6.19944">
        <ele>2203.3</ele>
        <time>2015-04-12T15:30:44.680Z</time>
      </trkpt>
      <trkpt lat="45.39837" lon="6.19949">
        <ele>2166.5</ele>
        <time>2015-04-12T15:30:51.510Z</time>
      </trkpt>
      <trkpt lat="45.39936" lon="6.19862">
        <ele>2121.9</ele>
        <time>2015-04-12T15:31:14.610Z</time>
      </trkpt>
      <trkpt lat="45.39946" lon="6.19865">
        <ele>2115</ele>
        <time>2015-04-12T15:31:42.880Z</time>
      </trkpt>
      <trkpt lat="45.39932" lon="6.19855">
        <ele>2115</ele>
        <time>2015-04-12T15:32:31.610Z</time>
      </trkpt>
      <trkpt lat="45.39922" lon="6.19867">
        <ele>2115</ele>
        <time>2015-04-12T15:32:54.880Z</time>
      </trkpt>
      <trkpt lat="45.39935" lon="6.19864">
        <ele>2115</ele>
        <time>2015-04-12T15:33:04.610Z</time>
      </trkpt>
      <trkpt lat="45.39954" lon="6.19825">
        <ele>2112.2</ele>
        <time>2015-04-12T15:33:12.610Z</time>
      </trkpt>
      <trkpt lat="45.39971" lon="6.1978">
        <ele>2103.1</ele>
        <time>2015-04-12T15:33:20.880Z</time>
      </trkpt>
      <trkpt lat="45.39966" lon="6.19719">
        <ele>2086.3</ele>
        <time>2015-04-12T15:33:28.880Z</time>
      </trkpt>
      <trkpt lat="45.39971" lon="6.19698">
        <ele>2077</ele>
        <time>2015-04-12T15:33:49.710Z</time>
      </trkpt>
      <trkpt lat="45.3997" lon="6.19714">
        <ele>2076.5</ele>
        <time>2015-04-12T15:34:04.330Z</time>
      </trkpt>
      <trkpt lat="45.39992" lon="6.19723">
        <ele>2076.7</ele>
        <time>2015-04-12T15:34:57.890Z</time>
      </trkpt>
      <trkpt lat="45.39985" lon="6.19711">
        <ele>2076.4</ele>
        <time>2015-04-12T15:36:05.890Z</time>
      </trkpt>
      <trkpt lat="45.39988" lon="6.19697">
        <ele>2078.3</ele>
        <time>2015-04-12T15:36:33.880Z</time>
      </trkpt>
      <trkpt lat="45.4" lon="6.19687">
        <ele>2083.4</ele>
        <time>2015-04-12T15:36:53.790Z</time>
      </trkpt>
      <trkpt lat="45.40011" lon="6.19705">
        <ele>2089.2</ele>
        <time>2015-04-12T15:37:21.780Z</time>
      </trkpt>
      <trkpt lat="45.4002" lon="6.197">
        <ele>2090.4</ele>
        <time>2015-04-12T15:37:33.890Z</time>
      </trkpt>
      <trkpt lat="45.40023" lon="6.19687">
        <ele>2098</ele>
        <time>2015-04-12T15:38:17.780Z</time>
      </trkpt>
      <trkpt lat="45.40038" lon="6.19714">
        <ele>2111.9</ele>
        <time>2015-04-12T15:39:36.790Z</time>
      </trkpt>
      <trkpt lat="45.40041" lon="6.1973">
        <ele>2120.1</ele>
        <time>2015-04-12T15:40:20.780Z</time>
      </trkpt>
      <trkpt lat="45.40052" lon="6.19729">
        <ele>2122</ele>
        <time>2015-04-12T15:40:32.780Z</time>
      </trkpt>
      <trkpt lat="45.40062" lon="6.19732">
        <ele>2125.1</ele>
        <time>2015-04-12T15:40:44.780Z</time>
      </trkpt>
      <trkpt lat="45.40071" lon="6.19738">
        <ele>2127.5</ele>
        <time>2015-04-12T15:40:56.780Z</time>
      </trkpt>
      <trkpt lat="45.40081" lon="6.19733">
        <ele>2129.3</ele>
        <time>2015-04-12T15:41:12.780Z</time>
      </trkpt>
      <trkpt lat="45.4009" lon="6.19728">
        <ele>2134</ele>
        <time>2015-04-12T15:41:32.790Z</time>
      </trkpt>
      <trkpt lat="45.40096" lon="6.19709">
        <ele>2138.8</ele>
        <time>2015-04-12T15:41:48.790Z</time>
      </trkpt>
      <trkpt lat="45.40107" lon="6.19712">
        <ele>2141.9</ele>
        <time>2015-04-12T15:42:08.880Z</time>
      </trkpt>
      <trkpt lat="45.4012" lon="6.19704">
        <ele>2144.6</ele>
        <time>2015-04-12T15:42:24.780Z</time>
      </trkpt>
      <trkpt lat="45.40126" lon="6.19722">
        <ele>2145.1</ele>
        <time>2015-04-12T15:42:48.780Z</time>
      </trkpt>
      <trkpt lat="45.40135" lon="6.19707">
        <ele>2149.7</ele>
        <time>2015-04-12T15:43:08.780Z</time>
      </trkpt>
      <trkpt lat="45.40144" lon="6.19697">
        <ele>2158.9</ele>
        <time>2015-04-12T15:43:48.780Z</time>
      </trkpt>
      <trkpt lat="45.40155" lon="6.19706">
        <ele>2162.6</ele>
        <time>2015-04-12T15:44:04.780Z</time>
      </trkpt>
      <trkpt lat="45.4017" lon="6.19721">
        <ele>2166.6</ele>
        <time>2015-04-12T15:44:24.780Z</time>
      </trkpt>
      <trkpt lat="45.40199" lon="6.19717">
        <ele>2167.7</ele>
        <time>2015-04-12T15:44:40.780Z</time>
      </trkpt>
      <trkpt lat="45.40209" lon="6.19717">
        <ele>2166</ele>
        <time>2015-04-12T15:44:56.780Z</time>
      </trkpt>
      <trkpt lat="45.40217" lon="6.19702">
        <ele>2169.7</ele>
        <time>2015-04-12T15:45:08.780Z</time>
      </trkpt>
      <trkpt lat="45.40227" lon="6.19697">
        <ele>2171.5</ele>
        <time>2015-04-12T15:45:16.780Z</time>
      </trkpt>
      <trkpt lat="45.40236" lon="6.19687">
        <ele>2175.7</ele>
        <time>2015-04-12T15:45:32.790Z</time>
      </trkpt>
      <trkpt lat="45.40246" lon="6.19682">
        <ele>2177</ele>
        <time>2015-04-12T15:45:40.790Z</time>
      </trkpt>
      <trkpt lat="45.40265" lon="6.19655">
        <ele>2180</ele>
        <time>2015-04-12T15:46:04.790Z</time>
      </trkpt>
      <trkpt lat="45.40287" lon="6.19603">
        <ele>2196.3</ele>
        <time>2015-04-12T15:47:12.780Z</time>
      </trkpt>
      <trkpt lat="45.40289" lon="6.19584">
        <ele>2198.5</ele>
        <time>2015-04-12T15:47:24.510Z</time>
      </trkpt>
      <trkpt lat="45.40294" lon="6.1957">
        <ele>2201.5</ele>
        <time>2015-04-12T15:47:36.790Z</time>
      </trkpt>
      <trkpt lat="45.40302" lon="6.19562">
        <ele>2203.6</ele>
        <time>2015-04-12T15:47:44.790Z</time>
      </trkpt>
      <trkpt lat="45.40309" lon="6.19552">
        <ele>2206.5</ele>
        <time>2015-04-12T15:48:04.780Z</time>
      </trkpt>
      <trkpt lat="45.40324" lon="6.19558">
        <ele>2215</ele>
        <time>2015-04-12T15:48:44.780Z</time>
      </trkpt>
      <trkpt lat="45.40334" lon="6.19555">
        <ele>2219.5</ele>
        <time>2015-04-12T15:49:04.780Z</time>
      </trkpt>
      <trkpt lat="45.40326" lon="6.19542">
        <ele>2220.6</ele>
        <time>2015-04-12T15:49:44.990Z</time>
      </trkpt>
      <trkpt lat="45.40339" lon="6.19542">
        <ele>2223.9</ele>
        <time>2015-04-12T15:51:08.780Z</time>
      </trkpt>
      <trkpt lat="45.40346" lon="6.19554">
        <ele>2228.1</ele>
        <time>2015-04-12T15:51:24.780Z</time>
      </trkpt>
      <trkpt lat="45.40357" lon="6.19556">
        <ele>2236.8</ele>
        <time>2015-04-12T15:52:08.790Z</time>
      </trkpt>
      <trkpt lat="45.40348" lon="6.19563">
        <ele>2244.5</ele>
        <time>2015-04-12T15:52:40.780Z</time>
      </trkpt>
      <trkpt lat="45.4036" lon="6.19577">
        <ele>2249.1</ele>
        <time>2015-04-12T15:53:00.780Z</time>
      </trkpt>
      <trkpt lat="45.4037" lon="6.19582">
        <ele>2251.3</ele>
        <time>2015-04-12T15:53:12.780Z</time>
      </trkpt>
      <trkpt lat="45.40379" lon="6.19598">
        <ele>2264.8</ele>
        <time>2015-04-12T15:54:17.520Z</time>
      </trkpt>
      <trkpt lat="45.40378" lon="6.19615">
        <ele>2271.7</ele>
        <time>2015-04-12T15:54:41.780Z</time>
      </trkpt>
      <trkpt lat="45.40387" lon="6.19625">
        <ele>2275.6</ele>
        <time>2015-04-12T15:55:05.780Z</time>
      </trkpt>
      <trkpt lat="45.40382" lon="6.19612">
        <ele>2281.6</ele>
        <time>2015-04-12T15:55:33.510Z</time>
      </trkpt>
      <trkpt lat="45.40393" lon="6.19613">
        <ele>2284.4</ele>
        <time>2015-04-12T15:55:53.510Z</time>
      </trkpt>
      <trkpt lat="45.40386" lon="6.19625">
        <ele>2285.9</ele>
        <time>2015-04-12T15:56:01.780Z</time>
      </trkpt>
      <trkpt lat="45.40396" lon="6.19628">
        <ele>2290.6</ele>
        <time>2015-04-12T15:56:14.790Z</time>
      </trkpt>
      <trkpt lat="45.40404" lon="6.19649">
        <ele>2293.4</ele>
        <time>2015-04-12T15:56:26.510Z</time>
      </trkpt>
      <trkpt lat="45.40413" lon="6.19655">
        <ele>2313</ele>
        <time>2015-04-12T15:57:52.790Z</time>
      </trkpt>
      <trkpt lat="45.40424" lon="6.1966">
        <ele>2321.6</ele>
        <time>2015-04-12T15:58:24.980Z</time>
      </trkpt>
      <trkpt lat="45.40439" lon="6.1968">
        <ele>2337.6</ele>
        <time>2015-04-12T15:59:44.990Z</time>
      </trkpt>
      <trkpt lat="45.40448" lon="6.19688">
        <ele>2347.3</ele>
        <time>2015-04-12T16:00:40.880Z</time>
      </trkpt>
      <trkpt lat="45.4046" lon="6.19695">
        <ele>2353</ele>
        <time>2015-04-12T16:01:09.600Z</time>
      </trkpt>
      <trkpt lat="45.40474" lon="6.19706">
        <ele>2355.1</ele>
        <time>2015-04-12T16:01:29.980Z</time>
      </trkpt>
      <trkpt lat="45.40481" lon="6.1972">
        <ele>2373.9</ele>
        <time>2015-04-12T16:02:48.990Z</time>
      </trkpt>
      <trkpt lat="45.40493" lon="6.19746">
        <ele>2385.5</ele>
        <time>2015-04-12T16:04:54.510Z</time>
      </trkpt>
      <trkpt lat="45.40504" lon="6.19745">
        <ele>2389.1</ele>
        <time>2015-04-12T16:05:14.780Z</time>
      </trkpt>
      <trkpt lat="45.40494" lon="6.19747">
        <ele>2394.1</ele>
        <time>2015-04-12T16:05:50.790Z</time>
      </trkpt>
      <trkpt lat="45.40515" lon="6.19771">
        <ele>2399.3</ele>
        <time>2015-04-12T16:06:22.800Z</time>
      </trkpt>
      <trkpt lat="45.40525" lon="6.1978">
        <ele>2409.2</ele>
        <time>2015-04-12T16:07:06.780Z</time>
      </trkpt>
      <trkpt lat="45.40536" lon="6.19795">
        <ele>2419.4</ele>
        <time>2015-04-12T16:07:50.780Z</time>
      </trkpt>
      <trkpt lat="45.40546" lon="6.19789">
        <ele>2427.1</ele>
        <time>2015-04-12T16:08:24.780Z</time>
      </trkpt>
      <trkpt lat="45.40556" lon="6.19804">
        <ele>2439</ele>
        <time>2015-04-12T16:09:19.790Z</time>
      </trkpt>
      <trkpt lat="45.40557" lon="6.19823">
        <ele>2444.1</ele>
        <time>2015-04-12T16:09:49.620Z</time>
      </trkpt>
      <trkpt lat="45.40565" lon="6.19834">
        <ele>2448.6</ele>
        <time>2015-04-12T16:10:01.510Z</time>
      </trkpt>
      <trkpt lat="45.40556" lon="6.19847">
        <ele>2452.4</ele>
        <time>2015-04-12T16:10:21.790Z</time>
      </trkpt>
      <trkpt lat="45.40567" lon="6.19877">
        <ele>2461.1</ele>
        <time>2015-04-12T16:10:49.780Z</time>
      </trkpt>
      <trkpt lat="45.40578" lon="6.19873">
        <ele>2466.1</ele>
        <time>2015-04-12T16:11:09.790Z</time>
      </trkpt>
      <trkpt lat="45.40586" lon="6.19865">
        <ele>2468.5</ele>
        <time>2015-04-12T16:11:17.790Z</time>
      </trkpt>
      <trkpt lat="45.40589" lon="6.19848">
        <ele>2471</ele>
        <time>2015-04-12T16:11:29.780Z</time>
      </trkpt>
      <trkpt lat="45.40597" lon="6.19856">
        <ele>2472.7</ele>
        <time>2015-04-12T16:11:41.980Z</time>
      </trkpt>
      <trkpt lat="45.40596" lon="6.19871">
        <ele>2475.9</ele>
        <time>2015-04-12T16:11:53.980Z</time>
      </trkpt>
      <trkpt lat="45.40613" lon="6.19865">
        <ele>2478.6</ele>
        <time>2015-04-12T16:12:07.510Z</time>
      </trkpt>
      <trkpt lat="45.40628" lon="6.19865">
        <ele>2479</ele>
        <time>2015-04-12T16:12:15.780Z</time>
      </trkpt>
      <trkpt lat="45.40648" lon="6.19861">
        <ele>2479</ele>
        <time>2015-04-12T16:12:31.980Z</time>
      </trkpt>
      <trkpt lat="45.40658" lon="6.19848">
        <ele>2483.3</ele>
        <time>2015-04-12T16:12:43.780Z</time>
      </trkpt>
      <trkpt lat="45.40668" lon="6.19858">
        <ele>2488.8</ele>
        <time>2015-04-12T16:13:03.980Z</time>
      </trkpt>
      <trkpt lat="45.40675" lon="6.19868">
        <ele>2493</ele>
        <time>2015-04-12T16:16:12.980Z</time>
      </trkpt>
      <trkpt lat="45.40682" lon="6.19856">
        <ele>2492</ele>
        <time>2015-04-12T16:17:37.780Z</time>
      </trkpt>
      <trkpt lat="45.40674" lon="6.19866">
        <ele>2492.9</ele>
        <time>2015-04-12T16:17:48.780Z</time>
      </trkpt>
      <trkpt lat="45.40676" lon="6.19883">
        <ele>2490.8</ele>
        <time>2015-04-12T16:19:50.980Z</time>
      </trkpt>
      <trkpt lat="45.40672" lon="6.19932">
        <ele>2484.4</ele>
        <time>2015-04-12T16:19:58.980Z</time>
      </trkpt>
      <trkpt lat="45.40674" lon="6.19955">
        <ele>2471.1</ele>
        <time>2015-04-12T16:20:18.980Z</time>
      </trkpt>
      <trkpt lat="45.40703" lon="6.20014">
        <ele>2431.4</ele>
        <time>2015-04-12T16:20:42.980Z</time>
      </trkpt>
      <trkpt lat="45.40711" lon="6.20036">
        <ele>2418.9</ele>
        <time>2015-04-12T16:20:50.980Z</time>
      </trkpt>
      <trkpt lat="45.40725" lon="6.20037">
        <ele>2406</ele>
        <time>2015-04-12T16:21:00.710Z</time>
      </trkpt>
      <trkpt lat="45.40732" lon="6.20065">
        <ele>2392.7</ele>
        <time>2015-04-12T16:21:12.980Z</time>
      </trkpt>
      <trkpt lat="45.40752" lon="6.20084">
        <ele>2378.8</ele>
        <time>2015-04-12T16:21:20.980Z</time>
      </trkpt>
      <trkpt lat="45.40761" lon="6.20089">
        <ele>2361.5</ele>
        <time>2015-04-12T16:21:32.710Z</time>
      </trkpt>
      <trkpt lat="45.40769" lon="6.20138">
        <ele>2348.7</ele>
        <time>2015-04-12T16:21:40.980Z</time>
      </trkpt>
      <trkpt lat="45.40784" lon="6.20144">
        <ele>2331.1</ele>
        <time>2015-04-12T16:21:48.980Z</time>
      </trkpt>
      <trkpt lat="45.40807" lon="6.20166">
        <ele>2308.3</ele>
        <time>2015-04-12T16:21:58.990Z</time>
      </trkpt>
      <trkpt lat="45.40889" lon="6.20208">
        <ele>2292.6</ele>
        <time>2015-04-12T16:22:06.710Z</time>
      </trkpt>
      <trkpt lat="45.40906" lon="6.20226">
        <ele>2285.4</ele>
        <time>2015-04-12T16:22:14.980Z</time>
      </trkpt>
      <trkpt lat="45.4092" lon="6.20225">
        <ele>2281.6</ele>
        <time>2015-04-12T16:22:22.980Z</time>
      </trkpt>
      <trkpt lat="45.40964" lon="6.2023">
        <ele>2271.2</ele>
        <time>2015-04-12T16:22:30.980Z</time>
      </trkpt>
      <trkpt lat="45.41016" lon="6.20215">
        <ele>2240</ele>
        <time>2015-04-12T16:22:38.980Z</time>
      </trkpt>
      <trkpt lat="45.41142" lon="6.20312">
        <ele>2197.7</ele>
        <time>2015-04-12T16:22:54.980Z</time>
      </trkpt>
      <trkpt lat="45.41203" lon="6.20394">
        <ele>2185.8</ele>
        <time>2015-04-12T16:23:02.990Z</time>
      </trkpt>
      <trkpt lat="45.4124" lon="6.20456">
        <ele>2177.3</ele>
        <time>2015-04-12T16:23:10.980Z</time>
      </trkpt>
      <trkpt lat="45.41264" lon="6.20483">
        <ele>2173.3</ele>
        <time>2015-04-12T16:23:18.980Z</time>
      </trkpt>
      <trkpt lat="45.4127" lon="6.20507">
        <ele>2174</ele>
        <time>2015-04-12T16:23:38.990Z</time>
      </trkpt>
      <trkpt lat="45.41272" lon="6.20549">
        <ele>2173.3</ele>
        <time>2015-04-12T16:23:46.980Z</time>
      </trkpt>
      <trkpt lat="45.41296" lon="6.20617">
        <ele>2163.1</ele>
        <time>2015-04-12T16:23:54.980Z</time>
      </trkpt>
      <trkpt lat="45.41312" lon="6.20647">
        <ele>2149.8</ele>
        <time>2015-04-12T16:24:02.980Z</time>
      </trkpt>
      <trkpt lat="45.41364" lon="6.20645">
        <ele>2136.7</ele>
        <time>2015-04-12T16:24:10.980Z</time>
      </trkpt>
      <trkpt lat="45.41391" lon="6.20751">
        <ele>2119.1</ele>
        <time>2015-04-12T16:24:18.980Z</time>
      </trkpt>
      <trkpt lat="45.41437" lon="6.20813">
        <ele>2102.3</ele>
        <time>2015-04-12T16:24:26.980Z</time>
      </trkpt>
      <trkpt lat="45.41475" lon="6.20795">
        <ele>2081.1</ele>
        <time>2015-04-12T16:24:34.980Z</time>
      </trkpt>
      <trkpt lat="45.41716" lon="6.20868">
        <ele>2036.5</ele>
        <time>2015-04-12T16:24:58.980Z</time>
      </trkpt>
      <trkpt lat="45.41725" lon="6.20876">
        <ele>2034</ele>
        <time>2015-04-12T16:25:10.600Z</time>
      </trkpt>
      <trkpt lat="45.41721" lon="6.2089">
        <ele>2034</ele>
        <time>2015-04-12T16:25:22.710Z</time>
      </trkpt>
      <trkpt lat="45.4174" lon="6.20883">
        <ele>2034</ele>
        <time>2015-04-12T16:25:35.980Z</time>
      </trkpt>
      <trkpt lat="45.41726" lon="6.20884">
        <ele>2034</ele>
        <time>2015-04-12T16:25:43.700Z</time>
      </trkpt>
      <trkpt lat="45.41756" lon="6.20863">
        <ele>2034</ele>
        <time>2015-04-12T16:25:55.980Z</time>
      </trkpt>
      <trkpt lat="45.4179" lon="6.20869">
        <ele>2027</ele>
        <time>2015-04-12T16:26:23.980Z</time>
      </trkpt>
      <trkpt lat="45.41801" lon="6.20868">
        <ele>2028</ele>
        <time>2015-04-12T16:26:51.980Z</time>
      </trkpt>
      <trkpt lat="45.41813" lon="6.20877">
        <ele>2030.3</ele>
        <time>2015-04-12T16:28:43.880Z</time>
      </trkpt>
      <trkpt lat="45.41823" lon="6.20877">
        <ele>2032</ele>
        <time>2015-04-12T16:28:59.880Z</time>
      </trkpt>
      <trkpt lat="45.41834" lon="6.20878">
        <ele>2034</ele>
        <time>2015-04-12T16:29:19.880Z</time>
      </trkpt>
      <trkpt lat="45.41845" lon="6.20886">
        <ele>2035.2</ele>
        <time>2015-04-12T16:29:31.610Z</time>
      </trkpt>
      <trkpt lat="45.41859" lon="6.20878">
        <ele>2037</ele>
        <time>2015-04-12T16:29:55.880Z</time>
      </trkpt>
      <trkpt lat="45.41897" lon="6.2088">
        <ele>2034.8</ele>
        <time>2015-04-12T16:30:03.880Z</time>
      </trkpt>
      <trkpt lat="45.4191" lon="6.20883">
        <ele>2031.8</ele>
        <time>2015-04-12T16:30:11.880Z</time>
      </trkpt>
      <trkpt lat="45.41924" lon="6.20881">
        <ele>2031</ele>
        <time>2015-04-12T16:30:27.880Z</time>
      </trkpt>
      <trkpt lat="45.41935" lon="6.20882">
        <ele>2030.6</ele>
        <time>2015-04-12T16:30:43.880Z</time>
      </trkpt>
      <trkpt lat="45.41975" lon="6.20875">
        <ele>2027.8</ele>
        <time>2015-04-12T16:30:51.880Z</time>
      </trkpt>
      <trkpt lat="45.42023" lon="6.20854">
        <ele>2019.5</ele>
        <time>2015-04-12T16:30:59.880Z</time>
      </trkpt>
      <trkpt lat="45.42086" lon="6.20748">
        <ele>1960.9</ele>
        <time>2015-04-12T16:31:15.880Z</time>
      </trkpt>
      <trkpt lat="45.42188" lon="6.20763">
        <ele>1932.2</ele>
        <time>2015-04-12T16:31:31.880Z</time>
      </trkpt>
      <trkpt lat="45.42224" lon="6.20745">
        <ele>1919.3</ele>
        <time>2015-04-12T16:31:39.880Z</time>
      </trkpt>
      <trkpt lat="45.42286" lon="6.20733">
        <ele>1904.9</ele>
        <time>2015-04-12T16:31:47.880Z</time>
      </trkpt>
      <trkpt lat="45.42329" lon="6.2073">
        <ele>1893.1</ele>
        <time>2015-04-12T16:31:55.880Z</time>
      </trkpt>
      <trkpt lat="45.42348" lon="6.20713">
        <ele>1882.6</ele>
        <time>2015-04-12T16:32:03.980Z</time>
      </trkpt>
      <trkpt lat="45.42389" lon="6.20696">
        <ele>1873.8</ele>
        <time>2015-04-12T16:32:11.880Z</time>
      </trkpt>
      <trkpt lat="45.4241" lon="6.20682">
        <ele>1866.7</ele>
        <time>2015-04-12T16:32:19.880Z</time>
      </trkpt>
      <trkpt lat="45.42437" lon="6.20652">
        <ele>1860.3</ele>
        <time>2015-04-12T16:32:27.880Z</time>
      </trkpt>
      <trkpt lat="45.42446" lon="6.20653">
        <ele>1857.2</ele>
        <time>2015-04-12T16:32:51.880Z</time>
      </trkpt>
      <trkpt lat="45.42455" lon="6.20662">
        <ele>1857.8</ele>
        <time>2015-04-12T16:34:17.880Z</time>
      </trkpt>
      <trkpt lat="45.42467" lon="6.20677">
        <ele>1858.6</ele>
        <time>2015-04-12T16:34:25.880Z</time>
      </trkpt>
      <trkpt lat="45.42472" lon="6.20693">
        <ele>1860.7</ele>
        <time>2015-04-12T16:34:37.880Z</time>
      </trkpt>
      <trkpt lat="45.42484" lon="6.20691">
        <ele>1868</ele>
        <time>2015-04-12T16:35:05.880Z</time>
      </trkpt>
      <trkpt lat="45.42494" lon="6.20694">
        <ele>1869.7</ele>
        <time>2015-04-12T16:35:17.880Z</time>
      </trkpt>
      <trkpt lat="45.42506" lon="6.20691">
        <ele>1874.1</ele>
        <time>2015-04-12T16:35:29.890Z</time>
      </trkpt>
      <trkpt lat="45.42503" lon="6.20704">
        <ele>1878.1</ele>
        <time>2015-04-12T16:35:49.880Z</time>
      </trkpt>
      <trkpt lat="45.42503" lon="6.20721">
        <ele>1881</ele>
        <time>2015-04-12T16:36:01.890Z</time>
      </trkpt>
      <trkpt lat="45.42499" lon="6.20739">
        <ele>1884.9</ele>
        <time>2015-04-12T16:36:13.880Z</time>
      </trkpt>
      <trkpt lat="45.425" lon="6.20755">
        <ele>1886.5</ele>
        <time>2015-04-12T16:36:21.880Z</time>
      </trkpt>
      <trkpt lat="45.42488" lon="6.20753">
        <ele>1888.1</ele>
        <time>2015-04-12T16:36:29.890Z</time>
      </trkpt>
      <trkpt lat="45.42498" lon="6.20766">
        <ele>1892.9</ele>
        <time>2015-04-12T16:36:53.880Z</time>
      </trkpt>
      <trkpt lat="45.42509" lon="6.20761">
        <ele>1898</ele>
        <time>2015-04-12T16:37:09.880Z</time>
      </trkpt>
      <trkpt lat="45.42516" lon="6.20769">
        <ele>1899.5</ele>
        <time>2015-04-12T16:37:21.880Z</time>
      </trkpt>
      <trkpt lat="45.42527" lon="6.20778">
        <ele>1905.2</ele>
        <time>2015-04-12T16:37:37.880Z</time>
      </trkpt>
      <trkpt lat="45.42537" lon="6.20791">
        <ele>1909</ele>
        <time>2015-04-12T16:37:49.890Z</time>
      </trkpt>
      <trkpt lat="45.42554" lon="6.20802">
        <ele>1910</ele>
        <time>2015-04-12T16:38:01.880Z</time>
      </trkpt>
      <trkpt lat="45.42558" lon="6.2082">
        <ele>1913.2</ele>
        <time>2015-04-12T16:38:21.890Z</time>
      </trkpt>
      <trkpt lat="45.42569" lon="6.2083">
        <ele>1914.1</ele>
        <time>2015-04-12T16:38:29.890Z</time>
      </trkpt>
      <trkpt lat="45.42577" lon="6.20848">
        <ele>1917.3</ele>
        <time>2015-04-12T16:38:45.880Z</time>
      </trkpt>
      <trkpt lat="45.42582" lon="6.20872">
        <ele>1918.4</ele>
        <time>2015-04-12T16:38:53.880Z</time>
      </trkpt>
      <trkpt lat="45.42619" lon="6.2093">
        <ele>1914.2</ele>
        <time>2015-04-12T16:39:21.880Z</time>
      </trkpt>
      <trkpt lat="45.42629" lon="6.2094">
        <ele>1915.9</ele>
        <time>2015-04-12T16:39:33.880Z</time>
      </trkpt>
      <trkpt lat="45.42638" lon="6.20936">
        <ele>1918.3</ele>
        <time>2015-04-12T16:39:45.880Z</time>
      </trkpt>
      <trkpt lat="45.42651" lon="6.20944">
        <ele>1923.2</ele>
        <time>2015-04-12T16:40:01.890Z</time>
      </trkpt>
      <trkpt lat="45.42684" lon="6.21028">
        <ele>1930</ele>
        <time>2015-04-12T16:40:49.890Z</time>
      </trkpt>
      <trkpt lat="45.42711" lon="6.21043">
        <ele>1933.6</ele>
        <time>2015-04-12T16:41:05.880Z</time>
      </trkpt>
      <trkpt lat="45.4272" lon="6.21039">
        <ele>1936.7</ele>
        <time>2015-04-12T16:41:21.880Z</time>
      </trkpt>
      <trkpt lat="45.4273" lon="6.2105">
        <ele>1942.3</ele>
        <time>2015-04-12T16:41:45.880Z</time>
      </trkpt>
      <trkpt lat="45.42741" lon="6.21049">
        <ele>1943.9</ele>
        <time>2015-04-12T16:41:53.880Z</time>
      </trkpt>
      <trkpt lat="45.42752" lon="6.21053">
        <ele>1947.1</ele>
        <time>2015-04-12T16:42:09.880Z</time>
      </trkpt>
      <trkpt lat="45.42762" lon="6.21054">
        <ele>1949.5</ele>
        <time>2015-04-12T16:42:21.880Z</time>
      </trkpt>
      <trkpt lat="45.42774" lon="6.21052">
        <ele>1951.4</ele>
        <time>2015-04-12T16:42:31.700Z</time>
      </trkpt>
      <trkpt lat="45.42782" lon="6.21065">
        <ele>1953.1</ele>
        <time>2015-04-12T16:42:39.710Z</time>
      </trkpt>
      <trkpt lat="45.42772" lon="6.21075">
        <ele>1957</ele>
        <time>2015-04-12T16:42:51.880Z</time>
      </trkpt>
      <trkpt lat="45.4278" lon="6.21093">
        <ele>1962.9</ele>
        <time>2015-04-12T16:43:15.880Z</time>
      </trkpt>
      <trkpt lat="45.42779" lon="6.21109">
        <ele>1967.3</ele>
        <time>2015-04-12T16:43:40.080Z</time>
      </trkpt>
      <trkpt lat="45.42788" lon="6.21119">
        <ele>1972</ele>
        <time>2015-04-12T16:43:56.080Z</time>
      </trkpt>
      <trkpt lat="45.42798" lon="6.21124">
        <ele>1977.2</ele>
        <time>2015-04-12T16:44:08.090Z</time>
      </trkpt>
      <trkpt lat="45.42799" lon="6.21135">
        <ele>1983</ele>
        <time>2015-04-12T16:44:39.880Z</time>
      </trkpt>
      <trkpt lat="45.42808" lon="6.2114">
        <ele>1983.1</ele>
        <time>2015-04-12T16:45:58.880Z</time>
      </trkpt>
      <trkpt lat="45.42798" lon="6.21149">
        <ele>1982.4</ele>
        <time>2015-04-12T16:47:45.880Z</time>
      </trkpt>
      <trkpt lat="45.42809" lon="6.21136">
        <ele>1982</ele>
        <time>2015-04-12T16:48:21.880Z</time>
      </trkpt>
      <trkpt lat="45.42798" lon="6.21136">
        <ele>1980</ele>
        <time>2015-04-12T16:49:11.810Z</time>
      </trkpt>
      <trkpt lat="45.42811" lon="6.21141">
        <ele>1982</ele>
        <time>2015-04-12T16:49:46.600Z</time>
      </trkpt>
      <trkpt lat="45.42802" lon="6.21136">
        <ele>1982</ele>
        <time>2015-04-12T16:50:10.880Z</time>
      </trkpt>
      <trkpt lat="45.42795" lon="6.21146">
        <ele>1982</ele>
        <time>2015-04-12T16:51:34.880Z</time>
      </trkpt>
      <trkpt lat="45.42807" lon="6.21155">
        <ele>1982</ele>
        <time>2015-04-12T16:52:02.900Z</time>
      </trkpt>
      <trkpt lat="45.42819" lon="6.2115">
        <ele>1982</ele>
        <time>2015-04-12T16:52:10.890Z</time>
      </trkpt>
      <trkpt lat="45.42854" lon="6.21158">
        <ele>1982</ele>
        <time>2015-04-12T16:52:18.880Z</time>
      </trkpt>
      <trkpt lat="45.42917" lon="6.21212">
        <ele>1970</ele>
        <time>2015-04-12T16:52:42.880Z</time>
      </trkpt>
      <trkpt lat="45.42962" lon="6.21226">
        <ele>1969</ele>
        <time>2015-04-12T16:53:02.880Z</time>
      </trkpt>
      <trkpt lat="45.42989" lon="6.21244">
        <ele>1966.6</ele>
        <time>2015-04-12T16:53:10.880Z</time>
      </trkpt>
      <trkpt lat="45.43017" lon="6.21267">
        <ele>1963.7</ele>
        <time>2015-04-12T16:53:30.880Z</time>
      </trkpt>
      <trkpt lat="45.43045" lon="6.21285">
        <ele>1962</ele>
        <time>2015-04-12T16:53:42.880Z</time>
      </trkpt>
      <trkpt lat="45.43125" lon="6.21298">
        <ele>1960.1</ele>
        <time>2015-04-12T16:53:58.880Z</time>
      </trkpt>
      <trkpt lat="45.43198" lon="6.21302">
        <ele>1945.2</ele>
        <time>2015-04-12T16:54:06.880Z</time>
      </trkpt>
      <trkpt lat="45.43312" lon="6.21364">
        <ele>1924.3</ele>
        <time>2015-04-12T16:54:22.880Z</time>
      </trkpt>
      <trkpt lat="45.4336" lon="6.21357">
        <ele>1917.6</ele>
        <time>2015-04-12T16:54:29.080Z</time>
      </trkpt>
      <trkpt lat="45.43401" lon="6.21378">
        <ele>1914.2</ele>
        <time>2015-04-12T16:54:36.600Z</time>
      </trkpt>
      <trkpt lat="45.43411" lon="6.21392">
        <ele>1913</ele>
        <time>2015-04-12T16:54:48.880Z</time>
      </trkpt>
      <trkpt lat="45.43446" lon="6.21415">
        <ele>1912.3</ele>
        <time>2015-04-12T16:54:56.880Z</time>
      </trkpt>
      <trkpt lat="45.43481" lon="6.2146">
        <ele>1902</ele>
        <time>2015-04-12T16:55:20.880Z</time>
      </trkpt>
      <trkpt lat="45.43509" lon="6.21483">
        <ele>1896.4</ele>
        <time>2015-04-12T16:55:28.880Z</time>
      </trkpt>
      <trkpt lat="45.43574" lon="6.21555">
        <ele>1890.3</ele>
        <time>2015-04-12T16:55:52.880Z</time>
      </trkpt>
      <trkpt lat="45.43609" lon="6.21579">
        <ele>1890.3</ele>
        <time>2015-04-12T16:56:32.880Z</time>
      </trkpt>
      <trkpt lat="45.43619" lon="6.21579">
        <ele>1890.7</ele>
        <time>2015-04-12T16:56:40.880Z</time>
      </trkpt>
      <trkpt lat="45.4366" lon="6.21597">
        <ele>1887.5</ele>
        <time>2015-04-12T16:56:56.880Z</time>
      </trkpt>
      <trkpt lat="45.4371" lon="6.21632">
        <ele>1887.3</ele>
        <time>2015-04-12T16:57:32.890Z</time>
      </trkpt>
      <trkpt lat="45.4372" lon="6.21636">
        <ele>1888.9</ele>
        <time>2015-04-12T16:57:48.890Z</time>
      </trkpt>
      <trkpt lat="45.43739" lon="6.21647">
        <ele>1887.7</ele>
        <time>2015-04-12T16:58:00.880Z</time>
      </trkpt>
      <trkpt lat="45.43756" lon="6.21664">
        <ele>1880.5</ele>
        <time>2015-04-12T16:58:08.880Z</time>
      </trkpt>
      <trkpt lat="45.43874" lon="6.21699">
        <ele>1864.9</ele>
        <time>2015-04-12T16:58:24.880Z</time>
      </trkpt>
      <trkpt lat="45.43891" lon="6.2169">
        <ele>1864.3</ele>
        <time>2015-04-12T16:58:32.880Z</time>
      </trkpt>
      <trkpt lat="45.43902" lon="6.21693">
        <ele>1865</ele>
        <time>2015-04-12T16:58:40.880Z</time>
      </trkpt>
      <trkpt lat="45.43924" lon="6.21759">
        <ele>1865.5</ele>
        <time>2015-04-12T16:59:04.880Z</time>
      </trkpt>
      <trkpt lat="45.43939" lon="6.21787">
        <ele>1865.7</ele>
        <time>2015-04-12T16:59:16.890Z</time>
      </trkpt>
      <trkpt lat="45.4398" lon="6.21848">
        <ele>1864.3</ele>
        <time>2015-04-12T16:59:32.880Z</time>
      </trkpt>
      <trkpt lat="45.43991" lon="6.2185">
        <ele>1863</ele>
        <time>2015-04-12T16:59:56.880Z</time>
      </trkpt>
      <trkpt lat="45.44002" lon="6.2186">
        <ele>1866.1</ele>
        <time>2015-04-12T17:00:20.880Z</time>
      </trkpt>
      <trkpt lat="45.44006" lon="6.21873">
        <ele>1867</ele>
        <time>2015-04-12T17:00:33.080Z</time>
      </trkpt>
      <trkpt lat="45.44028" lon="6.21878">
        <ele>1867</ele>
        <time>2015-04-12T17:00:44.880Z</time>
      </trkpt>
      <trkpt lat="45.44038" lon="6.21884">
        <ele>1867.5</ele>
        <time>2015-04-12T17:01:04.080Z</time>
      </trkpt>
      <trkpt lat="45.44043" lon="6.21891">
        <ele>1867.4</ele>
        <time>2015-04-12T17:01:11.700Z</time>
      </trkpt>
      <trkpt lat="45.44049" lon="6.21894">
        <ele>1869.4</ele>
        <time>2015-04-12T17:01:23.980Z</time>
      </trkpt>
      <trkpt lat="45.44054" lon="6.21899">
        <ele>1870.5</ele>
        <time>2015-04-12T17:01:31.980Z</time>
      </trkpt>
      <trkpt lat="45.44063" lon="6.21903">
        <ele>1872</ele>
        <time>2015-04-12T17:01:43.990Z</time>
      </trkpt>
      <trkpt lat="45.44083" lon="6.21918">
        <ele>1874.5</ele>
        <time>2015-04-12T17:02:23.990Z</time>
      </trkpt>
      <trkpt lat="45.44102" lon="6.21937">
        <ele>1878.1</ele>
        <time>2015-04-12T17:02:59.980Z</time>
      </trkpt>
      <trkpt lat="45.44112" lon="6.21939">
        <ele>1880</ele>
        <time>2015-04-12T17:03:11.980Z</time>
      </trkpt>
      <trkpt lat="45.44121" lon="6.2194">
        <ele>1880</ele>
        <time>2015-04-12T17:03:19.980Z</time>
      </trkpt>
      <trkpt lat="45.44137" lon="6.21951">
        <ele>1880.8</ele>
        <time>2015-04-12T17:03:27.980Z</time>
      </trkpt>
      <trkpt lat="45.44158" lon="6.21963">
        <ele>1880.4</ele>
        <time>2015-04-12T17:03:35.980Z</time>
      </trkpt>
      <trkpt lat="45.44187" lon="6.21959">
        <ele>1877.8</ele>
        <time>2015-04-12T17:03:43.980Z</time>
      </trkpt>
      <trkpt lat="45.44219" lon="6.2196">
        <ele>1873.7</ele>
        <time>2015-04-12T17:03:55.980Z</time>
      </trkpt>
      <trkpt lat="45.44235" lon="6.21956">
        <ele>1872</ele>
        <time>2015-04-12T17:04:11.980Z</time>
      </trkpt>
      <trkpt lat="45.44258" lon="6.21956">
        <ele>1872</ele>
        <time>2015-04-12T17:04:19.980Z</time>
      </trkpt>
      <trkpt lat="45.44264" lon="6.21952">
        <ele>1870.4</ele>
        <time>2015-04-12T17:04:35.980Z</time>
      </trkpt>
      <trkpt lat="45.44274" lon="6.21948">
        <ele>1870</ele>
        <time>2015-04-12T17:04:47.980Z</time>
      </trkpt>
      <trkpt lat="45.44283" lon="6.21947">
        <ele>1870.6</ele>
        <time>2015-04-12T17:04:55.980Z</time>
      </trkpt>
      <trkpt lat="45.44296" lon="6.21946">
        <ele>1870.2</ele>
        <time>2015-04-12T17:05:07.890Z</time>
      </trkpt>
      <trkpt lat="45.44303" lon="6.2196">
        <ele>1871.1</ele>
        <time>2015-04-12T17:05:20.090Z</time>
      </trkpt>
      <trkpt lat="45.44312" lon="6.21951">
        <ele>1871.9</ele>
        <time>2015-04-12T17:05:28.090Z</time>
      </trkpt>
      <trkpt lat="45.44322" lon="6.21945">
        <ele>1873.6</ele>
        <time>2015-04-12T17:05:43.880Z</time>
      </trkpt>
      <trkpt lat="45.44343" lon="6.21924">
        <ele>1872.7</ele>
        <time>2015-04-12T17:05:52.090Z</time>
      </trkpt>
      <trkpt lat="45.44369" lon="6.21918">
        <ele>1871.3</ele>
        <time>2015-04-12T17:06:12.080Z</time>
      </trkpt>
      <trkpt lat="45.44387" lon="6.21913">
        <ele>1871.9</ele>
        <time>2015-04-12T17:06:19.890Z</time>
      </trkpt>
      <trkpt lat="45.44412" lon="6.21914">
        <ele>1870.1</ele>
        <time>2015-04-12T17:06:40.090Z</time>
      </trkpt>
      <trkpt lat="45.44426" lon="6.21906">
        <ele>1871.7</ele>
        <time>2015-04-12T17:06:52.080Z</time>
      </trkpt>
      <trkpt lat="45.4444" lon="6.21904">
        <ele>1871.5</ele>
        <time>2015-04-12T17:07:04.080Z</time>
      </trkpt>
      <trkpt lat="45.44454" lon="6.21886">
        <ele>1872</ele>
        <time>2015-04-12T17:07:11.880Z</time>
      </trkpt>
      <trkpt lat="45.44481" lon="6.21863">
        <ele>1871.9</ele>
        <time>2015-04-12T17:07:20.080Z</time>
      </trkpt>
      <trkpt lat="45.44493" lon="6.21862">
        <ele>1870.3</ele>
        <time>2015-04-12T17:07:28.080Z</time>
      </trkpt>
      <trkpt lat="45.445" lon="6.21849">
        <ele>1868</ele>
        <time>2015-04-12T17:09:12.080Z</time>
      </trkpt>
      <trkpt lat="45.44523" lon="6.21859">
        <ele>1870.3</ele>
        <time>2015-04-12T17:10:16.080Z</time>
      </trkpt>
      <trkpt lat="45.44539" lon="6.2185">
        <ele>1872.3</ele>
        <time>2015-04-12T17:10:32.080Z</time>
      </trkpt>
      <trkpt lat="45.44551" lon="6.2185">
        <ele>1873</ele>
        <time>2015-04-12T17:10:39.700Z</time>
      </trkpt>
      <trkpt lat="45.4456" lon="6.21852">
        <ele>1873.8</ele>
        <time>2015-04-12T17:10:47.800Z</time>
      </trkpt>
      <trkpt lat="45.44585" lon="6.21836">
        <ele>1877.9</ele>
        <time>2015-04-12T17:11:18.800Z</time>
      </trkpt>
      <trkpt lat="45.44595" lon="6.21838">
        <ele>1878.8</ele>
        <time>2015-04-12T17:11:27.080Z</time>
      </trkpt>
      <trkpt lat="45.44618" lon="6.21848">
        <ele>1881.8</ele>
        <time>2015-04-12T17:11:47.080Z</time>
      </trkpt>
      <trkpt lat="45.44629" lon="6.21854">
        <ele>1884.7</ele>
        <time>2015-04-12T17:12:03.080Z</time>
      </trkpt>
      <trkpt lat="45.44644" lon="6.21857">
        <ele>1887.9</ele>
        <time>2015-04-12T17:12:19.080Z</time>
      </trkpt>
      <trkpt lat="45.44651" lon="6.21839">
        <ele>1889.3</ele>
        <time>2015-04-12T17:12:31.080Z</time>
      </trkpt>
      <trkpt lat="45.4466" lon="6.2183">
        <ele>1890.9</ele>
        <time>2015-04-12T17:12:39.080Z</time>
      </trkpt>
      <trkpt lat="45.4467" lon="6.21822">
        <ele>1892.3</ele>
        <time>2015-04-12T17:12:51.080Z</time>
      </trkpt>
      <trkpt lat="45.4468" lon="6.21819">
        <ele>1894.4</ele>
        <time>2015-04-12T17:13:03.080Z</time>
      </trkpt>
      <trkpt lat="45.44694" lon="6.21812">
        <ele>1895.2</ele>
        <time>2015-04-12T17:13:11.080Z</time>
      </trkpt>
      <trkpt lat="45.44717" lon="6.21815">
        <ele>1898.6</ele>
        <time>2015-04-12T17:13:35.080Z</time>
      </trkpt>
      <trkpt lat="45.44728" lon="6.21813">
        <ele>1899.4</ele>
        <time>2015-04-12T17:13:43.080Z</time>
      </trkpt>
      <trkpt lat="45.44738" lon="6.21808">
        <ele>1900</ele>
        <time>2015-04-12T17:13:59.080Z</time>
      </trkpt>
      <trkpt lat="45.44746" lon="6.21797">
        <ele>1902.3</ele>
        <time>2015-04-12T17:14:07.080Z</time>
      </trkpt>
      <trkpt lat="45.44759" lon="6.21793">
        <ele>1904</ele>
        <time>2015-04-12T17:14:19.080Z</time>
      </trkpt>
      <trkpt lat="45.4477" lon="6.2179">
        <ele>1905</ele>
        <time>2015-04-12T17:14:31.080Z</time>
      </trkpt>
      <trkpt lat="45.44796" lon="6.21775">
        <ele>1904.3</ele>
        <time>2015-04-12T17:14:43.080Z</time>
      </trkpt>
      <trkpt lat="45.4482" lon="6.21778">
        <ele>1899.1</ele>
        <time>2015-04-12T17:14:55.080Z</time>
      </trkpt>
      <trkpt lat="45.44832" lon="6.21786">
        <ele>1896.7</ele>
        <time>2015-04-12T17:15:03.080Z</time>
      </trkpt>
      <trkpt lat="45.44844" lon="6.21773">
        <ele>1898.6</ele>
        <time>2015-04-12T17:15:15.080Z</time>
      </trkpt>
      <trkpt lat="45.4485" lon="6.21763">
        <ele>1899.3</ele>
        <time>2015-04-12T17:15:22.980Z</time>
      </trkpt>
      <trkpt lat="45.44855" lon="6.21751">
        <ele>1900.3</ele>
        <time>2015-04-12T17:15:31.080Z</time>
      </trkpt>
      <trkpt lat="45.44865" lon="6.21742">
        <ele>1901.9</ele>
        <time>2015-04-12T17:15:39.080Z</time>
      </trkpt>
      <trkpt lat="45.44871" lon="6.2173">
        <ele>1904.6</ele>
        <time>2015-04-12T17:15:55.080Z</time>
      </trkpt>
      <trkpt lat="45.44885" lon="6.21728">
        <ele>1907.1</ele>
        <time>2015-04-12T17:16:15.090Z</time>
      </trkpt>
      <trkpt lat="45.44925" lon="6.21729">
        <ele>1911.6</ele>
        <time>2015-04-12T17:16:43.080Z</time>
      </trkpt>
      <trkpt lat="45.44937" lon="6.21739">
        <ele>1911.6</ele>
        <time>2015-04-12T17:16:55.090Z</time>
      </trkpt>
      <trkpt lat="45.44947" lon="6.21742">
        <ele>1912.7</ele>
        <time>2015-04-12T17:17:03.090Z</time>
      </trkpt>
      <trkpt lat="45.44956" lon="6.21729">
        <ele>1915</ele>
        <time>2015-04-12T17:17:19.090Z</time>
      </trkpt>
      <trkpt lat="45.44966" lon="6.21717">
        <ele>1915.8</ele>
        <time>2015-04-12T17:17:27.090Z</time>
      </trkpt>
      <trkpt lat="45.44972" lon="6.21705">
        <ele>1917.9</ele>
        <time>2015-04-12T17:17:39.080Z</time>
      </trkpt>
      <trkpt lat="45.44983" lon="6.21692">
        <ele>1920.3</ele>
        <time>2015-04-12T17:17:51.090Z</time>
      </trkpt>
      <trkpt lat="45.44989" lon="6.21678">
        <ele>1921.9</ele>
        <time>2015-04-12T17:17:58.980Z</time>
      </trkpt>
      <trkpt lat="45.4499" lon="6.21656">
        <ele>1924</ele>
        <time>2015-04-12T17:18:11.080Z</time>
      </trkpt>
      <trkpt lat="45.45" lon="6.21639">
        <ele>1924</ele>
        <time>2015-04-12T17:18:22.990Z</time>
      </trkpt>
      <trkpt lat="45.45006" lon="6.21625">
        <ele>1924</ele>
        <time>2015-04-12T17:18:30.990Z</time>
      </trkpt>
      <trkpt lat="45.45019" lon="6.21629">
        <ele>1925</ele>
        <time>2015-04-12T17:19:23.080Z</time>
      </trkpt>
      <trkpt lat="45.45041" lon="6.21571">
        <ele>1923.5</ele>
        <time>2015-04-12T17:19:30.980Z</time>
      </trkpt>
      <trkpt lat="45.45074" lon="6.21525">
        <ele>1915.5</ele>
        <time>2015-04-12T17:19:38.980Z</time>
      </trkpt>
      <trkpt lat="45.45112" lon="6.21526">
        <ele>1908.2</ele>
        <time>2015-04-12T17:19:47.080Z</time>
      </trkpt>
      <trkpt lat="45.45201" lon="6.21516">
        <ele>1901.8</ele>
        <time>2015-04-12T17:20:02.980Z</time>
      </trkpt>
      <trkpt lat="45.45224" lon="6.21504">
        <ele>1894</ele>
        <time>2015-04-12T17:20:34.980Z</time>
      </trkpt>
      <trkpt lat="45.45243" lon="6.21509">
        <ele>1895.5</ele>
        <time>2015-04-12T17:20:46.980Z</time>
      </trkpt>
      <trkpt lat="45.45333" lon="6.21479">
        <ele>1891.1</ele>
        <time>2015-04-12T17:21:30.980Z</time>
      </trkpt>
      <trkpt lat="45.45357" lon="6.21466">
        <ele>1886.3</ele>
        <time>2015-04-12T17:21:38.980Z</time>
      </trkpt>
      <trkpt lat="45.45371" lon="6.21467">
        <ele>1886</ele>
        <time>2015-04-12T17:21:50.990Z</time>
      </trkpt>
      <trkpt lat="45.45387" lon="6.21457">
        <ele>1886</ele>
        <time>2015-04-12T17:21:58.990Z</time>
      </trkpt>
      <trkpt lat="45.4543" lon="6.21441">
        <ele>1882.3</ele>
        <time>2015-04-12T17:22:06.990Z</time>
      </trkpt>
      <trkpt lat="45.45455" lon="6.21436">
        <ele>1876</ele>
        <time>2015-04-12T17:22:30.990Z</time>
      </trkpt>
      <trkpt lat="45.45464" lon="6.2143">
        <ele>1876.1</ele>
        <time>2015-04-12T17:22:50.980Z</time>
      </trkpt>
      <trkpt lat="45.45465" lon="6.21449">
        <ele>1877</ele>
        <time>2015-04-12T17:24:28.700Z</time>
      </trkpt>
      <trkpt lat="45.45475" lon="6.21431">
        <ele>1877.9</ele>
        <time>2015-04-12T17:24:48.980Z</time>
      </trkpt>
      <trkpt lat="45.45487" lon="6.21423">
        <ele>1880.5</ele>
        <time>2015-04-12T17:25:04.980Z</time>
      </trkpt>
      <trkpt lat="45.45497" lon="6.21424">
        <ele>1881.7</ele>
        <time>2015-04-12T17:25:12.980Z</time>
      </trkpt>
      <trkpt lat="45.45509" lon="6.21417">
        <ele>1885.7</ele>
        <time>2015-04-12T17:25:32.990Z</time>
      </trkpt>
      <trkpt lat="45.45545" lon="6.21426">
        <ele>1892.4</ele>
        <time>2015-04-12T17:26:12.990Z</time>
      </trkpt>
      <trkpt lat="45.45562" lon="6.21426">
        <ele>1893.3</ele>
        <time>2015-04-12T17:26:20.990Z</time>
      </trkpt>
      <trkpt lat="45.45572" lon="6.21434">
        <ele>1895</ele>
        <time>2015-04-12T17:26:36.990Z</time>
      </trkpt>
      <trkpt lat="45.45586" lon="6.21433">
        <ele>1898</ele>
        <time>2015-04-12T17:27:56.980Z</time>
      </trkpt>
      <trkpt lat="45.45614" lon="6.21465">
        <ele>1896</ele>
        <time>2015-04-12T17:28:12.980Z</time>
      </trkpt>
      <trkpt lat="45.45631" lon="6.21478">
        <ele>1895</ele>
        <time>2015-04-12T17:28:20.980Z</time>
      </trkpt>
      <trkpt lat="45.45665" lon="6.21515">
        <ele>1889.4</ele>
        <time>2015-04-12T17:28:28.980Z</time>
      </trkpt>
      <trkpt lat="45.4569" lon="6.21537">
        <ele>1887.5</ele>
        <time>2015-04-12T17:28:36.980Z</time>
      </trkpt>
      <trkpt lat="45.45705" lon="6.2157">
        <ele>1884.8</ele>
        <time>2015-04-12T17:28:44.980Z</time>
      </trkpt>
      <trkpt lat="45.45718" lon="6.21584">
        <ele>1883</ele>
        <time>2015-04-12T17:28:52.980Z</time>
      </trkpt>
      <trkpt lat="45.4574" lon="6.21612">
        <ele>1882.3</ele>
        <time>2015-04-12T17:29:00.980Z</time>
      </trkpt>
      <trkpt lat="45.45758" lon="6.21632">
        <ele>1878</ele>
        <time>2015-04-12T17:29:12.980Z</time>
      </trkpt>
      <trkpt lat="45.45807" lon="6.21671">
        <ele>1874.7</ele>
        <time>2015-04-12T17:29:20.980Z</time>
      </trkpt>
      <trkpt lat="45.45851" lon="6.21734">
        <ele>1857.1</ele>
        <time>2015-04-12T17:29:28.980Z</time>
      </trkpt>
      <trkpt lat="45.45877" lon="6.21758">
        <ele>1852.3</ele>
        <time>2015-04-12T17:29:36.980Z</time>
      </trkpt>
      <trkpt lat="45.45909" lon="6.21772">
        <ele>1836.7</ele>
        <time>2015-04-12T17:29:44.980Z</time>
      </trkpt>
      <trkpt lat="45.45959" lon="6.21756">
        <ele>1815.6</ele>
        <time>2015-04-12T17:29:52.980Z</time>
      </trkpt>
      <trkpt lat="45.45994" lon="6.21711">
        <ele>1796.2</ele>
        <time>2015-04-12T17:30:00.980Z</time>
      </trkpt>
      <trkpt lat="45.45993" lon="6.21752">
        <ele>1786.6</ele>
        <time>2015-04-12T17:30:08.980Z</time>
      </trkpt>
      <trkpt lat="45.46015" lon="6.21812">
        <ele>1776.3</ele>
        <time>2015-04-12T17:30:16.980Z</time>
      </trkpt>
      <trkpt lat="45.46058" lon="6.21803">
        <ele>1758.7</ele>
        <time>2015-04-12T17:30:24.980Z</time>
      </trkpt>
      <trkpt lat="45.46106" lon="6.21809">
        <ele>1726.8</ele>
        <time>2015-04-12T17:30:36.980Z</time>
      </trkpt>
      <trkpt lat="45.46181" lon="6.21802">
        <ele>1707.9</ele>
        <time>2015-04-12T17:30:44.980Z</time>
      </trkpt>
      <trkpt lat="45.46233" lon="6.21823">
        <ele>1694.5</ele>
        <time>2015-04-12T17:30:52.980Z</time>
      </trkpt>
      <trkpt lat="45.46266" lon="6.21851">
        <ele>1685.5</ele>
        <time>2015-04-12T17:31:00.980Z</time>
      </trkpt>
      <trkpt lat="45.46315" lon="6.21842">
        <ele>1671.9</ele>
        <time>2015-04-12T17:31:08.980Z</time>
      </trkpt>
      <trkpt lat="45.4635" lon="6.21815">
        <ele>1661.3</ele>
        <time>2015-04-12T17:31:16.980Z</time>
      </trkpt>
      <trkpt lat="45.46335" lon="6.21818">
        <ele>1657.5</ele>
        <time>2015-04-12T17:31:24.980Z</time>
      </trkpt>
      <trkpt lat="45.46335" lon="6.21835">
        <ele>1657</ele>
        <time>2015-04-12T17:31:36.990Z</time>
      </trkpt>
      <trkpt lat="45.46346" lon="6.21832">
        <ele>1655.8</ele>
        <time>2015-04-12T17:31:55.700Z</time>
      </trkpt>
      <trkpt lat="45.46375" lon="6.21851">
        <ele>1651.9</ele>
        <time>2015-04-12T17:32:03.980Z</time>
      </trkpt>
      <trkpt lat="45.46405" lon="6.2186">
        <ele>1646.8</ele>
        <time>2015-04-12T17:32:11.980Z</time>
      </trkpt>
      <trkpt lat="45.46422" lon="6.21879">
        <ele>1643</ele>
        <time>2015-04-12T17:32:27.980Z</time>
      </trkpt>
      <trkpt lat="45.46435" lon="6.21887">
        <ele>1643</ele>
        <time>2015-04-12T17:32:43.980Z</time>
      </trkpt>
      <trkpt lat="45.4645" lon="6.21895">
        <ele>1643</ele>
        <time>2015-04-12T17:33:01.420Z</time>
      </trkpt>
      <trkpt lat="45.46473" lon="6.21911">
        <ele>1643</ele>
        <time>2015-04-12T17:33:09.700Z</time>
      </trkpt>
      <trkpt lat="45.46521" lon="6.21893">
        <ele>1641.3</ele>
        <time>2015-04-12T17:33:17.800Z</time>
      </trkpt>
      <trkpt lat="45.46571" lon="6.21891">
        <ele>1626.3</ele>
        <time>2015-04-12T17:33:25.900Z</time>
      </trkpt>
      <trkpt lat="45.46588" lon="6.21898">
        <ele>1617.3</ele>
        <time>2015-04-12T17:33:32.900Z</time>
      </trkpt>
      <trkpt lat="45.46614" lon="6.2189">
        <ele>1615.6</ele>
        <time>2015-04-12T17:33:40.800Z</time>
      </trkpt>
      <trkpt lat="45.46619" lon="6.2187">
        <ele>1613.3</ele>
        <time>2015-04-12T17:33:48.900Z</time>
      </trkpt>
      <trkpt lat="45.46595" lon="6.2187">
        <ele>1610.3</ele>
        <time>2015-04-12T17:33:58.700Z</time>
      </trkpt>
      <trkpt lat="45.46583" lon="6.21857">
        <ele>1606.3</ele>
        <time>2015-04-12T17:34:36.710Z</time>
      </trkpt>
      <trkpt lat="45.46599" lon="6.21815">
        <ele>1596.5</ele>
        <time>2015-04-12T17:34:56.910Z</time>
      </trkpt>
      <trkpt lat="45.46605" lon="6.21803">
        <ele>1595.5</ele>
        <time>2015-04-12T17:35:04.710Z</time>
      </trkpt>
      <trkpt lat="45.46614" lon="6.21794">
        <ele>1594.6</ele>
        <time>2015-04-12T17:35:09.810Z</time>
      </trkpt>
      <trkpt lat="45.46646" lon="6.21736">
        <ele>1559.6</ele>
        <time>2015-04-12T17:35:39.710Z</time>
      </trkpt>
      <trkpt lat="45.46659" lon="6.21702">
        <ele>1550.2</ele>
        <time>2015-04-12T17:35:44.910Z</time>
      </trkpt>
      <trkpt lat="45.46669" lon="6.21684">
        <ele>1540.3</ele>
        <time>2015-04-12T17:35:50.810Z</time>
      </trkpt>
      <trkpt lat="45.4673" lon="6.21705">
        <ele>1528.4</ele>
        <time>2015-04-12T17:36:00.910Z</time>
      </trkpt>
      <trkpt lat="45.46765" lon="6.21722">
        <ele>1525.6</ele>
        <time>2015-04-12T17:36:07.910Z</time>
      </trkpt>
      <trkpt lat="45.46802" lon="6.21746">
        <ele>1522.5</ele>
        <time>2015-04-12T17:36:15.710Z</time>
      </trkpt>
      <trkpt lat="45.46892" lon="6.2178">
        <ele>1510</ele>
        <time>2015-04-12T17:36:42.180Z</time>
      </trkpt>
      <trkpt lat="45.46917" lon="6.21769">
        <ele>1509.4</ele>
        <time>2015-04-12T17:36:50.190Z</time>
      </trkpt>
      <trkpt lat="45.46933" lon="6.2176">
        <ele>1493.6</ele>
        <time>2015-04-12T17:37:06.190Z</time>
      </trkpt>
      <trkpt lat="45.46944" lon="6.2176">
        <ele>1491.1</ele>
        <time>2015-04-12T17:37:18.180Z</time>
      </trkpt>
      <trkpt lat="45.46948" lon="6.21751">
        <ele>1489</ele>
        <time>2015-04-12T17:37:26.180Z</time>
      </trkpt>
      <trkpt lat="45.46972" lon="6.21736">
        <ele>1477.5</ele>
        <time>2015-04-12T17:38:41.700Z</time>
      </trkpt>
      <trkpt lat="45.46987" lon="6.21736">
        <ele>1472</ele>
        <time>2015-04-12T17:38:49.800Z</time>
      </trkpt>
      <trkpt lat="45.46997" lon="6.21733">
        <ele>1470.3</ele>
        <time>2015-04-12T17:39:06.900Z</time>
      </trkpt>
      <trkpt lat="45.47005" lon="6.21717">
        <ele>1461.8</ele>
        <time>2015-04-12T17:39:29.800Z</time>
      </trkpt>
      <trkpt lat="45.47052" lon="6.21698">
        <ele>1439.8</ele>
        <time>2015-04-12T17:40:09.800Z</time>
      </trkpt>
      <trkpt lat="45.47054" lon="6.21678">
        <ele>1426</ele>
        <time>2015-04-12T17:40:41.980Z</time>
      </trkpt>
      <trkpt lat="45.47057" lon="6.21663">
        <ele>1422.9</ele>
        <time>2015-04-12T17:40:49.980Z</time>
      </trkpt>
      <trkpt lat="45.47071" lon="6.21654">
        <ele>1421.3</ele>
        <time>2015-04-12T17:40:57.980Z</time>
      </trkpt>
      <trkpt lat="45.47068" lon="6.21637">
        <ele>1421.6</ele>
        <time>2015-04-12T17:41:05.980Z</time>
      </trkpt>
      <trkpt lat="45.47079" lon="6.21618">
        <ele>1420.6</ele>
        <time>2015-04-12T17:41:21.700Z</time>
      </trkpt>
      <trkpt lat="45.47091" lon="6.216">
        <ele>1418.9</ele>
        <time>2015-04-12T17:41:30.180Z</time>
      </trkpt>
      <trkpt lat="45.47104" lon="6.21594">
        <ele>1418.1</ele>
        <time>2015-04-12T17:41:38.180Z</time>
      </trkpt>
      <trkpt lat="45.47115" lon="6.21586">
        <ele>1416.1</ele>
        <time>2015-04-12T17:41:48.980Z</time>
      </trkpt>
      <trkpt lat="45.4713" lon="6.21592">
        <ele>1413.9</ele>
        <time>2015-04-12T17:42:00.980Z</time>
      </trkpt>
      <trkpt lat="45.47142" lon="6.21586">
        <ele>1413.1</ele>
        <time>2015-04-12T17:42:08.980Z</time>
      </trkpt>
      <trkpt lat="45.47131" lon="6.21578">
        <ele>1406.7</ele>
        <time>2015-04-12T17:42:32.700Z</time>
      </trkpt>
      <trkpt lat="45.47125" lon="6.21564">
        <ele>1399.9</ele>
        <time>2015-04-12T17:42:49.700Z</time>
      </trkpt>
      <trkpt lat="45.47122" lon="6.21547">
        <ele>1390.3</ele>
        <time>2015-04-12T17:43:08.900Z</time>
      </trkpt>
      <trkpt lat="45.47127" lon="6.21515">
        <ele>1376.9</ele>
        <time>2015-04-12T17:43:39.810Z</time>
      </trkpt>
      <trkpt lat="45.47133" lon="6.21495">
        <ele>1374</ele>
        <time>2015-04-12T17:43:53.910Z</time>
      </trkpt>
      <trkpt lat="45.47123" lon="6.21493">
        <ele>1366.6</ele>
        <time>2015-04-12T17:44:07.710Z</time>
      </trkpt>
      <trkpt lat="45.4712" lon="6.21476">
        <ele>1361.6</ele>
        <time>2015-04-12T17:44:26.710Z</time>
      </trkpt>
      <trkpt lat="45.47132" lon="6.2146">
        <ele>1356.2</ele>
        <time>2015-04-12T17:44:40.810Z</time>
      </trkpt>
      <trkpt lat="45.47139" lon="6.21417">
        <ele>1344.6</ele>
        <time>2015-04-12T17:45:05.440Z</time>
      </trkpt>
      <trkpt lat="45.47149" lon="6.21401">
        <ele>1340.8</ele>
        <time>2015-04-12T17:45:13.910Z</time>
      </trkpt>
      <trkpt lat="45.47161" lon="6.21411">
        <ele>1335</ele>
        <time>2015-04-12T17:45:26.910Z</time>
      </trkpt>
      <trkpt lat="45.47201" lon="6.21415">
        <ele>1320</ele>
        <time>2015-04-12T17:46:01.180Z</time>
      </trkpt>
      <trkpt lat="45.47211" lon="6.21409">
        <ele>1314.3</ele>
        <time>2015-04-12T17:46:13.180Z</time>
      </trkpt>
      <trkpt lat="45.4724" lon="6.2138">
        <ele>1300.4</ele>
        <time>2015-04-12T17:46:44.910Z</time>
      </trkpt>
      <trkpt lat="45.47255" lon="6.21367">
        <ele>1293.1</ele>
        <time>2015-04-12T17:46:56.910Z</time>
      </trkpt>
      <trkpt lat="45.47266" lon="6.21367">
        <ele>1286.3</ele>
        <time>2015-04-12T17:47:08.910Z</time>
      </trkpt>
      <trkpt lat="45.47279" lon="6.21363">
        <ele>1282.9</ele>
        <time>2015-04-12T17:47:19.700Z</time>
      </trkpt>
      <trkpt lat="45.4729" lon="6.21357">
        <ele>1277.8</ele>
        <time>2015-04-12T17:47:34.900Z</time>
      </trkpt>
      <trkpt lat="45.47301" lon="6.21361">
        <ele>1275</ele>
        <time>2015-04-12T17:47:42.710Z</time>
      </trkpt>
      <trkpt lat="45.47314" lon="6.21347">
        <ele>1272.3</ele>
        <time>2015-04-12T17:47:55.990Z</time>
      </trkpt>
      <trkpt lat="45.47323" lon="6.21359">
        <ele>1269.5</ele>
        <time>2015-04-12T17:48:05.710Z</time>
      </trkpt>
      <trkpt lat="45.47338" lon="6.21354">
        <ele>1262.9</ele>
        <time>2015-04-12T17:48:27.710Z</time>
      </trkpt>
      <trkpt lat="45.47348" lon="6.21349">
        <ele>1259.4</ele>
        <time>2015-04-12T17:48:35.980Z</time>
      </trkpt>
      <trkpt lat="45.47358" lon="6.21334">
        <ele>1255.7</ele>
        <time>2015-04-12T17:48:44.180Z</time>
      </trkpt>
      <trkpt lat="45.47365" lon="6.21321">
        <ele>1252.3</ele>
        <time>2015-04-12T17:48:51.980Z</time>
      </trkpt>
      <trkpt lat="45.47372" lon="6.2131">
        <ele>1247.6</ele>
        <time>2015-04-12T17:49:32.910Z</time>
      </trkpt>
      <trkpt lat="45.47382" lon="6.21301">
        <ele>1242.2</ele>
        <time>2015-04-12T17:50:00.910Z</time>
      </trkpt>
      <trkpt lat="45.47381" lon="6.21286">
        <ele>1237.5</ele>
        <time>2015-04-12T17:50:08.910Z</time>
      </trkpt>
      <trkpt lat="45.47378" lon="6.21308">
        <ele>1237.2</ele>
        <time>2015-04-12T17:51:01.180Z</time>
      </trkpt>
      <trkpt lat="45.4738" lon="6.21325">
        <ele>1241.8</ele>
        <time>2015-04-12T17:51:17.180Z</time>
      </trkpt>
      <trkpt lat="45.47375" lon="6.21338">
        <ele>1244.5</ele>
        <time>2015-04-12T17:51:37.180Z</time>
      </trkpt>
      <trkpt lat="45.47375" lon="6.21356">
        <ele>1251</ele>
        <time>2015-04-12T17:51:59.800Z</time>
      </trkpt>
      <trkpt lat="45.47381" lon="6.21368">
        <ele>1255.2</ele>
        <time>2015-04-12T17:52:15.980Z</time>
      </trkpt>
      <trkpt lat="45.47382" lon="6.21384">
        <ele>1257.9</ele>
        <time>2015-04-12T17:52:28.190Z</time>
      </trkpt>
      <trkpt lat="45.47388" lon="6.21397">
        <ele>1261.7</ele>
        <time>2015-04-12T17:52:48.080Z</time>
      </trkpt>
      <trkpt lat="45.47392" lon="6.21411">
        <ele>1264.2</ele>
        <time>2015-04-12T17:53:00.080Z</time>
      </trkpt>
      <trkpt lat="45.47399" lon="6.21425">
        <ele>1269.1</ele>
        <time>2015-04-12T17:53:20.080Z</time>
      </trkpt>
      <trkpt lat="45.47402" lon="6.21438">
        <ele>1270.5</ele>
        <time>2015-04-12T17:53:32.080Z</time>
      </trkpt>
      <trkpt lat="45.47404" lon="6.21455">
        <ele>1273.8</ele>
        <time>2015-04-12T17:53:43.990Z</time>
      </trkpt>
      <trkpt lat="45.47414" lon="6.21466">
        <ele>1276.7</ele>
        <time>2015-04-12T17:53:56.190Z</time>
      </trkpt>
      <trkpt lat="45.47414" lon="6.21484">
        <ele>1281.5</ele>
        <time>2015-04-12T17:54:11.980Z</time>
      </trkpt>
      <trkpt lat="45.47426" lon="6.21499">
        <ele>1283.5</ele>
        <time>2015-04-12T17:54:24.180Z</time>
      </trkpt>
      <trkpt lat="45.47432" lon="6.21512">
        <ele>1284.3</ele>
        <time>2015-04-12T17:54:31.990Z</time>
      </trkpt>
      <trkpt lat="45.47444" lon="6.21521">
        <ele>1285</ele>
        <time>2015-04-12T17:54:39.990Z</time>
      </trkpt>
      <trkpt lat="45.47452" lon="6.21559">
        <ele>1287.1</ele>
        <time>2015-04-12T17:55:00.190Z</time>
      </trkpt>
      <trkpt lat="45.4746" lon="6.21571">
        <ele>1287.9</ele>
        <time>2015-04-12T17:55:08.190Z</time>
      </trkpt>
      <trkpt lat="45.47466" lon="6.21584">
        <ele>1286.7</ele>
        <time>2015-04-12T17:55:15.980Z</time>
      </trkpt>
      <trkpt lat="45.47476" lon="6.21599">
        <ele>1285.3</ele>
        <time>2015-04-12T17:55:26.180Z</time>
      </trkpt>
      <trkpt lat="45.47495" lon="6.21616">
        <ele>1284.3</ele>
        <time>2015-04-12T17:55:36.900Z</time>
      </trkpt>
      <trkpt lat="45.4751" lon="6.21627">
        <ele>1282.7</ele>
        <time>2015-04-12T17:55:52.000Z</time>
      </trkpt>
      <trkpt lat="45.47548" lon="6.21681">
        <ele>1280.6</ele>
        <time>2015-04-12T17:56:23.800Z</time>
      </trkpt>
      <trkpt lat="45.47556" lon="6.21695">
        <ele>1280</ele>
        <time>2015-04-12T17:56:32.090Z</time>
      </trkpt>
      <trkpt lat="45.47565" lon="6.21705">
        <ele>1280</ele>
        <time>2015-04-12T17:56:40.090Z</time>
      </trkpt>
      <trkpt lat="45.47588" lon="6.21765">
        <ele>1278.9</ele>
        <time>2015-04-12T17:57:20.190Z</time>
      </trkpt>
      <trkpt lat="45.47592" lon="6.2178">
        <ele>1277.7</ele>
        <time>2015-04-12T17:57:32.180Z</time>
      </trkpt>
      <trkpt lat="45.47594" lon="6.21801">
        <ele>1277</ele>
        <time>2015-04-12T17:57:44.190Z</time>
      </trkpt>
      <trkpt lat="45.476" lon="6.21818">
        <ele>1277</ele>
        <time>2015-04-12T17:57:50.800Z</time>
      </trkpt>
      <trkpt lat="45.4759" lon="6.21839">
        <ele>1277</ele>
        <time>2015-04-12T17:58:04.800Z</time>
      </trkpt>
      <trkpt lat="45.47599" lon="6.21847">
        <ele>1278.8</ele>
        <time>2015-04-12T17:59:11.180Z</time>
      </trkpt>
      <trkpt lat="45.476" lon="6.21877">
        <ele>1275.6</ele>
        <time>2015-04-12T17:59:21.900Z</time>
      </trkpt>
      <trkpt lat="45.47586" lon="6.2192">
        <ele>1265.5</ele>
        <time>2015-04-12T17:59:33.710Z</time>
      </trkpt>
      <trkpt lat="45.47594" lon="6.21952">
        <ele>1262.1</ele>
        <time>2015-04-12T17:59:53.900Z</time>
      </trkpt>
      <trkpt lat="45.47596" lon="6.21969">
        <ele>1259.2</ele>
        <time>2015-04-12T18:00:03.900Z</time>
      </trkpt>
      <trkpt lat="45.47607" lon="6.21971">
        <ele>1255.9</ele>
        <time>2015-04-12T18:00:20.180Z</time>
      </trkpt>
      <trkpt lat="45.47623" lon="6.21995">
        <ele>1256.1</ele>
        <time>2015-04-12T18:00:40.180Z</time>
      </trkpt>
      <trkpt lat="45.47636" lon="6.22028">
        <ele>1258.5</ele>
        <time>2015-04-12T18:01:04.180Z</time>
      </trkpt>
      <trkpt lat="45.47645" lon="6.22042">
        <ele>1259</ele>
        <time>2015-04-12T18:01:16.180Z</time>
      </trkpt>
      <trkpt lat="45.47654" lon="6.22076">
        <ele>1261</ele>
        <time>2015-04-12T18:01:44.180Z</time>
      </trkpt>
      <trkpt lat="45.47662" lon="6.22091">
        <ele>1262.3</ele>
        <time>2015-04-12T18:01:56.180Z</time>
      </trkpt>
      <trkpt lat="45.47663" lon="6.22107">
        <ele>1263.9</ele>
        <time>2015-04-12T18:02:08.180Z</time>
      </trkpt>
      <trkpt lat="45.47665" lon="6.22123">
        <ele>1266.1</ele>
        <time>2015-04-12T18:02:20.180Z</time>
      </trkpt>
      <trkpt lat="45.47661" lon="6.22137">
        <ele>1268.5</ele>
        <time>2015-04-12T18:02:31.980Z</time>
      </trkpt>
      <trkpt lat="45.47661" lon="6.22154">
        <ele>1270.9</ele>
        <time>2015-04-12T18:02:44.180Z</time>
      </trkpt>
      <trkpt lat="45.47669" lon="6.22166">
        <ele>1273.5</ele>
        <time>2015-04-12T18:02:57.190Z</time>
      </trkpt>
      <trkpt lat="45.47661" lon="6.22183">
        <ele>1274.8</ele>
        <time>2015-04-12T18:03:11.000Z</time>
      </trkpt>
      <trkpt lat="45.47666" lon="6.22215">
        <ele>1281.2</ele>
        <time>2015-04-12T18:03:31.280Z</time>
      </trkpt>
      <trkpt lat="45.47671" lon="6.22264">
        <ele>1283</ele>
        <time>2015-04-12T18:04:03.080Z</time>
      </trkpt>
      <trkpt lat="45.47682" lon="6.22276">
        <ele>1283</ele>
        <time>2015-04-12T18:04:19.080Z</time>
      </trkpt>
      <trkpt lat="45.47701" lon="6.22303">
        <ele>1284.6</ele>
        <time>2015-04-12T18:04:35.080Z</time>
      </trkpt>
      <trkpt lat="45.47709" lon="6.22317">
        <ele>1285</ele>
        <time>2015-04-12T18:04:43.080Z</time>
      </trkpt>
      <trkpt lat="45.47718" lon="6.2233">
        <ele>1287.3</ele>
        <time>2015-04-12T18:04:55.180Z</time>
      </trkpt>
      <trkpt lat="45.47721" lon="6.22351">
        <ele>1288.3</ele>
        <time>2015-04-12T18:05:06.080Z</time>
      </trkpt>
      <trkpt lat="45.47734" lon="6.22362">
        <ele>1288.8</ele>
        <time>2015-04-12T18:05:17.920Z</time>
      </trkpt>
      <trkpt lat="45.47739" lon="6.22375">
        <ele>1289.1</ele>
        <time>2015-04-12T18:05:30.180Z</time>
      </trkpt>
      <trkpt lat="45.47749" lon="6.22387">
        <ele>1291.7</ele>
        <time>2015-04-12T18:05:46.180Z</time>
      </trkpt>
      <trkpt lat="45.47757" lon="6.2242">
        <ele>1293.1</ele>
        <time>2015-04-12T18:06:10.180Z</time>
      </trkpt>
      <trkpt lat="45.47766" lon="6.22435">
        <ele>1294.7</ele>
        <time>2015-04-12T18:06:26.180Z</time>
      </trkpt>
      <trkpt lat="45.47785" lon="6.22461">
        <ele>1297</ele>
        <time>2015-04-12T18:06:50.180Z</time>
      </trkpt>
      <trkpt lat="45.47793" lon="6.22476">
        <ele>1298.3</ele>
        <time>2015-04-12T18:07:06.180Z</time>
      </trkpt>
      <trkpt lat="45.47803" lon="6.22485">
        <ele>1299</ele>
        <time>2015-04-12T18:07:18.190Z</time>
      </trkpt>
      <trkpt lat="45.47813" lon="6.22496">
        <ele>1300.3</ele>
        <time>2015-04-12T18:07:42.190Z</time>
      </trkpt>
      <trkpt lat="45.47823" lon="6.22504">
        <ele>1301.5</ele>
        <time>2015-04-12T18:07:54.180Z</time>
      </trkpt>
      <trkpt lat="45.47833" lon="6.2251">
        <ele>1302.7</ele>
        <time>2015-04-12T18:08:06.180Z</time>
      </trkpt>
      <trkpt lat="45.47843" lon="6.22512">
        <ele>1303</ele>
        <time>2015-04-12T18:08:14.180Z</time>
      </trkpt>
      <trkpt lat="45.47868" lon="6.22513">
        <ele>1300</ele>
        <time>2015-04-12T18:08:30.180Z</time>
      </trkpt>
      <trkpt lat="45.4788" lon="6.22511">
        <ele>1299.5</ele>
        <time>2015-04-12T18:08:42.180Z</time>
      </trkpt>
      <trkpt lat="45.47892" lon="6.22511">
        <ele>1297.5</ele>
        <time>2015-04-12T18:08:54.180Z</time>
      </trkpt>
      <trkpt lat="45.47902" lon="6.22512">
        <ele>1297</ele>
        <time>2015-04-12T18:09:02.180Z</time>
      </trkpt>
      <trkpt lat="45.47914" lon="6.2252">
        <ele>1296.9</ele>
        <time>2015-04-12T18:09:10.910Z</time>
      </trkpt>
      <trkpt lat="45.47926" lon="6.22525">
        <ele>1295.8</ele>
        <time>2015-04-12T18:09:21.910Z</time>
      </trkpt>
      <trkpt lat="45.47939" lon="6.22542">
        <ele>1294.7</ele>
        <time>2015-04-12T18:09:32.910Z</time>
      </trkpt>
      <trkpt lat="45.47949" lon="6.22546">
        <ele>1293.1</ele>
        <time>2015-04-12T18:09:43.910Z</time>
      </trkpt>
      <trkpt lat="45.47963" lon="6.22534">
        <ele>1291.5</ele>
        <time>2015-04-12T18:09:52.190Z</time>
      </trkpt>
      <trkpt lat="45.47977" lon="6.22518">
        <ele>1289.7</ele>
        <time>2015-04-12T18:10:00.910Z</time>
      </trkpt>
      <trkpt lat="45.47989" lon="6.22516">
        <ele>1288</ele>
        <time>2015-04-12T18:10:13.020Z</time>
      </trkpt>
      <trkpt lat="45.47998" lon="6.22528">
        <ele>1287.4</ele>
        <time>2015-04-12T18:10:25.280Z</time>
      </trkpt>
      <trkpt lat="45.48011" lon="6.22529">
        <ele>1285.5</ele>
        <time>2015-04-12T18:10:33.280Z</time>
      </trkpt>
      <trkpt lat="45.48027" lon="6.2253">
        <ele>1282.4</ele>
        <time>2015-04-12T18:10:45.300Z</time>
      </trkpt>
      <trkpt lat="45.48039" lon="6.22537">
        <ele>1281.3</ele>
        <time>2015-04-12T18:10:56.910Z</time>
      </trkpt>
      <trkpt lat="45.48072" lon="6.22538">
        <ele>1279.5</ele>
        <time>2015-04-12T18:11:14.910Z</time>
      </trkpt>
      <trkpt lat="45.48084" lon="6.22542">
        <ele>1278.7</ele>
        <time>2015-04-12T18:11:22.910Z</time>
      </trkpt>
      <trkpt lat="45.48089" lon="6.22558">
        <ele>1277.8</ele>
        <time>2015-04-12T18:11:31.190Z</time>
      </trkpt>
      <trkpt lat="45.48099" lon="6.22564">
        <ele>1277</ele>
        <time>2015-04-12T18:11:39.080Z</time>
      </trkpt>
      <trkpt lat="45.48107" lon="6.22572">
        <ele>1276.2</ele>
        <time>2015-04-12T18:11:47.190Z</time>
      </trkpt>
      <trkpt lat="45.48119" lon="6.22579">
        <ele>1275.1</ele>
        <time>2015-04-12T18:11:54.180Z</time>
      </trkpt>
      <trkpt lat="45.48124" lon="6.22597">
        <ele>1273.1</ele>
        <time>2015-04-12T18:12:01.810Z</time>
      </trkpt>
      <trkpt lat="45.48138" lon="6.22622">
        <ele>1268.5</ele>
        <time>2015-04-12T18:12:16.910Z</time>
      </trkpt>
      <trkpt lat="45.48149" lon="6.22634">
        <ele>1268</ele>
        <time>2015-04-12T18:12:25.180Z</time>
      </trkpt>
      <trkpt lat="45.48164" lon="6.22657">
        <ele>1267</ele>
        <time>2015-04-12T18:12:39.910Z</time>
      </trkpt>
      <trkpt lat="45.48171" lon="6.22729">
        <ele>1266.1</ele>
        <time>2015-04-12T18:13:04.190Z</time>
      </trkpt>
      <trkpt lat="45.48182" lon="6.22736">
        <ele>1264.1</ele>
        <time>2015-04-12T18:13:20.190Z</time>
      </trkpt>
      <trkpt lat="45.48193" lon="6.22746">
        <ele>1264.7</ele>
        <time>2015-04-12T18:13:32.180Z</time>
      </trkpt>
      <trkpt lat="45.48204" lon="6.22757">
        <ele>1264</ele>
        <time>2015-04-12T18:13:40.390Z</time>
      </trkpt>
      <trkpt lat="45.4821" lon="6.22768">
        <ele>1264</ele>
        <time>2015-04-12T18:13:48.180Z</time>
      </trkpt>
      <trkpt lat="45.48221" lon="6.22796">
        <ele>1260.3</ele>
        <time>2015-04-12T18:14:08.190Z</time>
      </trkpt>
      <trkpt lat="45.48224" lon="6.22811">
        <ele>1259.3</ele>
        <time>2015-04-12T18:14:16.190Z</time>
      </trkpt>
      <trkpt lat="45.48243" lon="6.22849">
        <ele>1256</ele>
        <time>2015-04-12T18:14:40.190Z</time>
      </trkpt>
      <trkpt lat="45.48242" lon="6.22866">
        <ele>1255.7</ele>
        <time>2015-04-12T18:14:52.180Z</time>
      </trkpt>
      <trkpt lat="45.48246" lon="6.22882">
        <ele>1254.9</ele>
        <time>2015-04-12T18:15:00.280Z</time>
      </trkpt>
      <trkpt lat="45.48255" lon="6.229">
        <ele>1254.1</ele>
        <time>2015-04-12T18:15:08.180Z</time>
      </trkpt>
      <trkpt lat="45.48245" lon="6.2292">
        <ele>1254</ele>
        <time>2015-04-12T18:15:16.010Z</time>
      </trkpt>
      <trkpt lat="45.4824" lon="6.2295">
        <ele>1253</ele>
        <time>2015-04-12T18:15:36.280Z</time>
      </trkpt>
      <trkpt lat="45.48246" lon="6.22968">
        <ele>1252.2</ele>
        <time>2015-04-12T18:15:47.280Z</time>
      </trkpt>
      <trkpt lat="45.48256" lon="6.22981">
        <ele>1251.4</ele>
        <time>2015-04-12T18:15:55.010Z</time>
      </trkpt>
      <trkpt lat="45.48259" lon="6.22999">
        <ele>1251.8</ele>
        <time>2015-04-12T18:16:07.280Z</time>
      </trkpt>
      <trkpt lat="45.4826" lon="6.23003">
        <ele>1252</ele>
        <time>2015-04-12T18:16:13.770Z</time>
      </trkpt>
    </trkseg>
  </trk>
</gpx>